<?xml version="1.0" encoding="UTF-8" standalone="no" ?>
<gpx xmlns="http://www.topografix.com/GPX/1/1" xmlns:xsi="http://www.w3.org/2001/XMLSchema-instance" xsi:schemaLocation="http://www.topografix.com/GPX/1/1 http://www.topografix.com/GPX/1/1/gpx.xsd" version="1.1" creator="VisuGPX - https://www.visugpx.com">
  <metadata>
    <name>Rando vtt nocturne Secondigny 2019</name>
    <desc><![CDATA[Boucle 1 très roulante,boucle 2 plus technique.....]]></desc>
  </metadata>
  <trk>
    <name><![CDATA[Rando vtt nocturne Secondigny 2019]]></name>
    <trkseg>
      <trkpt lat="46.60213" lon="-0.41175">
        <ele>233.98</ele>
        <time>2019-05-04T18:18:40.455Z</time>
      </trkpt>
      <trkpt lat="46.60182" lon="-0.41149">
        <ele>225.67</ele>
        <time>2019-05-04T18:18:54.464Z</time>
      </trkpt>
      <trkpt lat="46.60141" lon="-0.41112">
        <ele>286.13</ele>
        <time>2019-05-04T18:18:55.464Z</time>
      </trkpt>
      <trkpt lat="46.60143" lon="-0.41125">
        <ele>281.78</ele>
        <time>2019-05-04T18:18:59.999Z</time>
      </trkpt>
      <trkpt lat="46.60149" lon="-0.41135">
        <ele>270.73</ele>
        <time>2019-05-04T18:19:05.999Z</time>
      </trkpt>
      <trkpt lat="46.60155" lon="-0.41125">
        <ele>254.54</ele>
        <time>2019-05-04T18:19:20.999Z</time>
      </trkpt>
      <trkpt lat="46.60164" lon="-0.41115">
        <ele>237.43</ele>
        <time>2019-05-04T18:20:37.999Z</time>
      </trkpt>
      <trkpt lat="46.60155" lon="-0.41123">
        <ele>231.48</ele>
        <time>2019-05-04T18:21:47.999Z</time>
      </trkpt>
      <trkpt lat="46.60146" lon="-0.41122">
        <ele>230.48</ele>
        <time>2019-05-04T18:22:04.999Z</time>
      </trkpt>
      <trkpt lat="46.60156" lon="-0.41125">
        <ele>224.49</ele>
        <time>2019-05-04T18:23:10.999Z</time>
      </trkpt>
      <trkpt lat="46.60146" lon="-0.41122">
        <ele>227.06</ele>
        <time>2019-05-04T18:23:52.999Z</time>
      </trkpt>
      <trkpt lat="46.60156" lon="-0.41127">
        <ele>228.78</ele>
        <time>2019-05-04T18:24:20.999Z</time>
      </trkpt>
      <trkpt lat="46.6016" lon="-0.41116">
        <ele>233.58</ele>
        <time>2019-05-04T18:25:03.999Z</time>
      </trkpt>
      <trkpt lat="46.60154" lon="-0.41106">
        <ele>230.89</ele>
        <time>2019-05-04T18:27:21.999Z</time>
      </trkpt>
      <trkpt lat="46.60159" lon="-0.41118">
        <ele>230.91</ele>
        <time>2019-05-04T18:28:26.999Z</time>
      </trkpt>
      <trkpt lat="46.60166" lon="-0.41127">
        <ele>230.87</ele>
        <time>2019-05-04T18:28:46.999Z</time>
      </trkpt>
      <trkpt lat="46.60162" lon="-0.41115">
        <ele>227.93</ele>
        <time>2019-05-04T18:29:46.999Z</time>
      </trkpt>
      <trkpt lat="46.6016" lon="-0.41128">
        <ele>227.1</ele>
        <time>2019-05-04T18:30:14.999Z</time>
      </trkpt>
      <trkpt lat="46.60151" lon="-0.41126">
        <ele>227.04</ele>
        <time>2019-05-04T18:30:33.999Z</time>
      </trkpt>
      <trkpt lat="46.60142" lon="-0.41124">
        <ele>227.73</ele>
        <time>2019-05-04T18:30:40.999Z</time>
      </trkpt>
      <trkpt lat="46.60138" lon="-0.41111">
        <ele>232.33</ele>
        <time>2019-05-04T18:31:14.999Z</time>
      </trkpt>
      <trkpt lat="46.60143" lon="-0.41124">
        <ele>233.45</ele>
        <time>2019-05-04T18:32:50.999Z</time>
      </trkpt>
      <trkpt lat="46.60152" lon="-0.41121">
        <ele>231.66</ele>
        <time>2019-05-04T18:33:07.999Z</time>
      </trkpt>
      <trkpt lat="46.60161" lon="-0.41117">
        <ele>231.04</ele>
        <time>2019-05-04T18:33:21.999Z</time>
      </trkpt>
      <trkpt lat="46.60152" lon="-0.41121">
        <ele>227.34</ele>
        <time>2019-05-04T18:34:09.999Z</time>
      </trkpt>
      <trkpt lat="46.60155" lon="-0.41108">
        <ele>229.16</ele>
        <time>2019-05-04T18:34:59.999Z</time>
      </trkpt>
      <trkpt lat="46.60145" lon="-0.41107">
        <ele>229.56</ele>
        <time>2019-05-04T18:36:27.999Z</time>
      </trkpt>
      <trkpt lat="46.60152" lon="-0.41115">
        <ele>235.83</ele>
        <time>2019-05-04T18:38:13.999Z</time>
      </trkpt>
      <trkpt lat="46.60147" lon="-0.41103">
        <ele>237.98</ele>
        <time>2019-05-04T18:38:37.999Z</time>
      </trkpt>
      <trkpt lat="46.60157" lon="-0.41098">
        <ele>238.48</ele>
        <time>2019-05-04T18:38:58.999Z</time>
      </trkpt>
      <trkpt lat="46.60167" lon="-0.41095">
        <ele>238.04</ele>
        <time>2019-05-04T18:39:03.999Z</time>
      </trkpt>
      <trkpt lat="46.60176" lon="-0.41091">
        <ele>237.7</ele>
        <time>2019-05-04T18:39:07.999Z</time>
      </trkpt>
      <trkpt lat="46.60188" lon="-0.41089">
        <ele>237.49</ele>
        <time>2019-05-04T18:39:11.999Z</time>
      </trkpt>
      <trkpt lat="46.60197" lon="-0.41085">
        <ele>237.26</ele>
        <time>2019-05-04T18:39:14.999Z</time>
      </trkpt>
      <trkpt lat="46.6021" lon="-0.41084">
        <ele>237.02</ele>
        <time>2019-05-04T18:39:16.999Z</time>
      </trkpt>
      <trkpt lat="46.60221" lon="-0.41082">
        <ele>236.5</ele>
        <time>2019-05-04T18:39:20.999Z</time>
      </trkpt>
      <trkpt lat="46.60229" lon="-0.41087">
        <ele>235.41</ele>
        <time>2019-05-04T18:39:37.999Z</time>
      </trkpt>
      <trkpt lat="46.60239" lon="-0.41088">
        <ele>233.99</ele>
        <time>2019-05-04T18:42:22.999Z</time>
      </trkpt>
      <trkpt lat="46.60247" lon="-0.4108">
        <ele>233.77</ele>
        <time>2019-05-04T18:42:27.999Z</time>
      </trkpt>
      <trkpt lat="46.60254" lon="-0.4107">
        <ele>233.1</ele>
        <time>2019-05-04T18:42:36.999Z</time>
      </trkpt>
      <trkpt lat="46.6026" lon="-0.41059">
        <ele>232.76</ele>
        <time>2019-05-04T18:42:40.999Z</time>
      </trkpt>
      <trkpt lat="46.60263" lon="-0.41043">
        <ele>232.42</ele>
        <time>2019-05-04T18:42:43.999Z</time>
      </trkpt>
      <trkpt lat="46.60273" lon="-0.4103">
        <ele>232.21</ele>
        <time>2019-05-04T18:42:46.999Z</time>
      </trkpt>
      <trkpt lat="46.60279" lon="-0.4102">
        <ele>230.78</ele>
        <time>2019-05-04T18:42:48.999Z</time>
      </trkpt>
      <trkpt lat="46.60283" lon="-0.41007">
        <ele>230.56</ele>
        <time>2019-05-04T18:42:50.999Z</time>
      </trkpt>
      <trkpt lat="46.6029" lon="-0.4099">
        <ele>231.15</ele>
        <time>2019-05-04T18:42:53.999Z</time>
      </trkpt>
      <trkpt lat="46.60301" lon="-0.40977">
        <ele>231.3</ele>
        <time>2019-05-04T18:42:56.999Z</time>
      </trkpt>
      <trkpt lat="46.6031" lon="-0.40972">
        <ele>231.23</ele>
        <time>2019-05-04T18:42:58.999Z</time>
      </trkpt>
      <trkpt lat="46.60321" lon="-0.4097">
        <ele>230.71</ele>
        <time>2019-05-04T18:43:02.999Z</time>
      </trkpt>
      <trkpt lat="46.6033" lon="-0.40974">
        <ele>229.81</ele>
        <time>2019-05-04T18:43:08.999Z</time>
      </trkpt>
      <trkpt lat="46.60341" lon="-0.40977">
        <ele>230.06</ele>
        <time>2019-05-04T18:43:17.999Z</time>
      </trkpt>
      <trkpt lat="46.60351" lon="-0.40972">
        <ele>230.13</ele>
        <time>2019-05-04T18:43:22.999Z</time>
      </trkpt>
      <trkpt lat="46.60356" lon="-0.4096">
        <ele>230.09</ele>
        <time>2019-05-04T18:43:24.999Z</time>
      </trkpt>
      <trkpt lat="46.60371" lon="-0.40962">
        <ele>229.26</ele>
        <time>2019-05-04T18:43:27.999Z</time>
      </trkpt>
      <trkpt lat="46.6038" lon="-0.40961">
        <ele>227.86</ele>
        <time>2019-05-04T18:43:29.999Z</time>
      </trkpt>
      <trkpt lat="46.60391" lon="-0.4096">
        <ele>227.68</ele>
        <time>2019-05-04T18:43:31.999Z</time>
      </trkpt>
      <trkpt lat="46.604" lon="-0.40961">
        <ele>227.9</ele>
        <time>2019-05-04T18:43:33.999Z</time>
      </trkpt>
      <trkpt lat="46.60411" lon="-0.40962">
        <ele>227.1</ele>
        <time>2019-05-04T18:43:35.999Z</time>
      </trkpt>
      <trkpt lat="46.60421" lon="-0.40963">
        <ele>225.2</ele>
        <time>2019-05-04T18:43:37.999Z</time>
      </trkpt>
      <trkpt lat="46.60432" lon="-0.40966">
        <ele>223.01</ele>
        <time>2019-05-04T18:43:39.999Z</time>
      </trkpt>
      <trkpt lat="46.60441" lon="-0.40968">
        <ele>220.66</ele>
        <time>2019-05-04T18:43:41.999Z</time>
      </trkpt>
      <trkpt lat="46.60451" lon="-0.40969">
        <ele>217.97</ele>
        <time>2019-05-04T18:43:43.999Z</time>
      </trkpt>
      <trkpt lat="46.60461" lon="-0.4097">
        <ele>215.78</ele>
        <time>2019-05-04T18:43:45.999Z</time>
      </trkpt>
      <trkpt lat="46.6047" lon="-0.40972">
        <ele>214.3</ele>
        <time>2019-05-04T18:43:47.999Z</time>
      </trkpt>
      <trkpt lat="46.60484" lon="-0.40976">
        <ele>214.14</ele>
        <time>2019-05-04T18:43:50.999Z</time>
      </trkpt>
      <trkpt lat="46.60498" lon="-0.40977">
        <ele>214.09</ele>
        <time>2019-05-04T18:43:52.999Z</time>
      </trkpt>
      <trkpt lat="46.60511" lon="-0.40978">
        <ele>213.72</ele>
        <time>2019-05-04T18:43:54.999Z</time>
      </trkpt>
      <trkpt lat="46.60522" lon="-0.4098">
        <ele>213.11</ele>
        <time>2019-05-04T18:43:56.999Z</time>
      </trkpt>
      <trkpt lat="46.60532" lon="-0.40981">
        <ele>212.85</ele>
        <time>2019-05-04T18:43:58.999Z</time>
      </trkpt>
      <trkpt lat="46.60543" lon="-0.40982">
        <ele>212.66</ele>
        <time>2019-05-04T18:44:00.999Z</time>
      </trkpt>
      <trkpt lat="46.60553" lon="-0.40983">
        <ele>212.24</ele>
        <time>2019-05-04T18:44:02.999Z</time>
      </trkpt>
      <trkpt lat="46.60565" lon="-0.40985">
        <ele>211.48</ele>
        <time>2019-05-04T18:44:05.999Z</time>
      </trkpt>
      <trkpt lat="46.60576" lon="-0.40988">
        <ele>210.91</ele>
        <time>2019-05-04T18:44:07.999Z</time>
      </trkpt>
      <trkpt lat="46.60585" lon="-0.40989">
        <ele>210.49</ele>
        <time>2019-05-04T18:44:09.999Z</time>
      </trkpt>
      <trkpt lat="46.60595" lon="-0.4099">
        <ele>210.84</ele>
        <time>2019-05-04T18:44:11.999Z</time>
      </trkpt>
      <trkpt lat="46.60606" lon="-0.40993">
        <ele>211.95</ele>
        <time>2019-05-04T18:44:14.999Z</time>
      </trkpt>
      <trkpt lat="46.60616" lon="-0.40999">
        <ele>212.33</ele>
        <time>2019-05-04T18:44:17.999Z</time>
      </trkpt>
      <trkpt lat="46.60625" lon="-0.41004">
        <ele>217.16</ele>
        <time>2019-05-04T18:44:20.999Z</time>
      </trkpt>
      <trkpt lat="46.60633" lon="-0.4101">
        <ele>221.23</ele>
        <time>2019-05-04T18:44:22.999Z</time>
      </trkpt>
      <trkpt lat="46.60643" lon="-0.4102">
        <ele>223.31</ele>
        <time>2019-05-04T18:44:25.999Z</time>
      </trkpt>
      <trkpt lat="46.60656" lon="-0.41029">
        <ele>226.54</ele>
        <time>2019-05-04T18:44:28.999Z</time>
      </trkpt>
      <trkpt lat="46.60665" lon="-0.41033">
        <ele>228.16</ele>
        <time>2019-05-04T18:44:30.999Z</time>
      </trkpt>
      <trkpt lat="46.60677" lon="-0.41041">
        <ele>228.52</ele>
        <time>2019-05-04T18:44:33.999Z</time>
      </trkpt>
      <trkpt lat="46.60688" lon="-0.41049">
        <ele>228.63</ele>
        <time>2019-05-04T18:44:36.999Z</time>
      </trkpt>
      <trkpt lat="46.60701" lon="-0.41053">
        <ele>229.21</ele>
        <time>2019-05-04T18:44:39.999Z</time>
      </trkpt>
      <trkpt lat="46.60713" lon="-0.41056">
        <ele>229.51</ele>
        <time>2019-05-04T18:44:42.999Z</time>
      </trkpt>
      <trkpt lat="46.60725" lon="-0.41054">
        <ele>230.01</ele>
        <time>2019-05-04T18:44:45.999Z</time>
      </trkpt>
      <trkpt lat="46.60738" lon="-0.41049">
        <ele>230.15</ele>
        <time>2019-05-04T18:44:48.999Z</time>
      </trkpt>
      <trkpt lat="46.60749" lon="-0.41043">
        <ele>230.15</ele>
        <time>2019-05-04T18:44:51.999Z</time>
      </trkpt>
      <trkpt lat="46.60761" lon="-0.41035">
        <ele>230.47</ele>
        <time>2019-05-04T18:44:54.999Z</time>
      </trkpt>
      <trkpt lat="46.60772" lon="-0.41028">
        <ele>232.13</ele>
        <time>2019-05-04T18:44:57.999Z</time>
      </trkpt>
      <trkpt lat="46.60783" lon="-0.41022">
        <ele>232.82</ele>
        <time>2019-05-04T18:45:00.999Z</time>
      </trkpt>
      <trkpt lat="46.60792" lon="-0.41021">
        <ele>233.28</ele>
        <time>2019-05-04T18:45:02.999Z</time>
      </trkpt>
      <trkpt lat="46.60803" lon="-0.41026">
        <ele>233.28</ele>
        <time>2019-05-04T18:45:05.999Z</time>
      </trkpt>
      <trkpt lat="46.60814" lon="-0.41035">
        <ele>232.66</ele>
        <time>2019-05-04T18:45:08.999Z</time>
      </trkpt>
      <trkpt lat="46.60823" lon="-0.41046">
        <ele>233.09</ele>
        <time>2019-05-04T18:45:11.999Z</time>
      </trkpt>
      <trkpt lat="46.60832" lon="-0.41058">
        <ele>233.36</ele>
        <time>2019-05-04T18:45:14.999Z</time>
      </trkpt>
      <trkpt lat="46.60839" lon="-0.41069">
        <ele>234.85</ele>
        <time>2019-05-04T18:45:16.999Z</time>
      </trkpt>
      <trkpt lat="46.60846" lon="-0.4108">
        <ele>236.65</ele>
        <time>2019-05-04T18:45:18.999Z</time>
      </trkpt>
      <trkpt lat="46.60851" lon="-0.41094">
        <ele>240.95</ele>
        <time>2019-05-04T18:45:21.999Z</time>
      </trkpt>
      <trkpt lat="46.60859" lon="-0.41107">
        <ele>242.62</ele>
        <time>2019-05-04T18:45:24.999Z</time>
      </trkpt>
      <trkpt lat="46.60863" lon="-0.41119">
        <ele>243.4</ele>
        <time>2019-05-04T18:45:27.999Z</time>
      </trkpt>
      <trkpt lat="46.6087" lon="-0.41135">
        <ele>244.49</ele>
        <time>2019-05-04T18:45:30.999Z</time>
      </trkpt>
      <trkpt lat="46.60876" lon="-0.41149">
        <ele>245.47</ele>
        <time>2019-05-04T18:45:33.999Z</time>
      </trkpt>
      <trkpt lat="46.60881" lon="-0.41164">
        <ele>246.28</ele>
        <time>2019-05-04T18:45:35.999Z</time>
      </trkpt>
      <trkpt lat="46.60889" lon="-0.41174">
        <ele>246.68</ele>
        <time>2019-05-04T18:45:37.999Z</time>
      </trkpt>
      <trkpt lat="46.60899" lon="-0.41173">
        <ele>246.37</ele>
        <time>2019-05-04T18:45:39.999Z</time>
      </trkpt>
      <trkpt lat="46.60907" lon="-0.4116">
        <ele>245.73</ele>
        <time>2019-05-04T18:45:42.999Z</time>
      </trkpt>
      <trkpt lat="46.60915" lon="-0.4115">
        <ele>244.94</ele>
        <time>2019-05-04T18:45:44.999Z</time>
      </trkpt>
      <trkpt lat="46.60923" lon="-0.41142">
        <ele>243.64</ele>
        <time>2019-05-04T18:45:46.999Z</time>
      </trkpt>
      <trkpt lat="46.60932" lon="-0.41135">
        <ele>242.42</ele>
        <time>2019-05-04T18:45:48.999Z</time>
      </trkpt>
      <trkpt lat="46.6094" lon="-0.41128">
        <ele>241.34</ele>
        <time>2019-05-04T18:45:50.999Z</time>
      </trkpt>
      <trkpt lat="46.60948" lon="-0.41122">
        <ele>240.56</ele>
        <time>2019-05-04T18:45:52.999Z</time>
      </trkpt>
      <trkpt lat="46.60959" lon="-0.41113">
        <ele>239.93</ele>
        <time>2019-05-04T18:45:55.999Z</time>
      </trkpt>
      <trkpt lat="46.6097" lon="-0.41104">
        <ele>239.93</ele>
        <time>2019-05-04T18:45:58.999Z</time>
      </trkpt>
      <trkpt lat="46.60981" lon="-0.41094">
        <ele>239.86</ele>
        <time>2019-05-04T18:46:01.999Z</time>
      </trkpt>
      <trkpt lat="46.60992" lon="-0.41084">
        <ele>238.6</ele>
        <time>2019-05-04T18:46:04.999Z</time>
      </trkpt>
      <trkpt lat="46.61004" lon="-0.41075">
        <ele>238.2</ele>
        <time>2019-05-04T18:46:07.999Z</time>
      </trkpt>
      <trkpt lat="46.61014" lon="-0.41066">
        <ele>238.91</ele>
        <time>2019-05-04T18:46:10.999Z</time>
      </trkpt>
      <trkpt lat="46.61025" lon="-0.41056">
        <ele>239.08</ele>
        <time>2019-05-04T18:46:13.999Z</time>
      </trkpt>
      <trkpt lat="46.61035" lon="-0.41048">
        <ele>240.02</ele>
        <time>2019-05-04T18:46:16.999Z</time>
      </trkpt>
      <trkpt lat="46.61046" lon="-0.4104">
        <ele>240.93</ele>
        <time>2019-05-04T18:46:19.999Z</time>
      </trkpt>
      <trkpt lat="46.61056" lon="-0.41032">
        <ele>241.35</ele>
        <time>2019-05-04T18:46:22.999Z</time>
      </trkpt>
      <trkpt lat="46.61067" lon="-0.41022">
        <ele>240.24</ele>
        <time>2019-05-04T18:46:25.999Z</time>
      </trkpt>
      <trkpt lat="46.61077" lon="-0.41014">
        <ele>240.76</ele>
        <time>2019-05-04T18:46:28.999Z</time>
      </trkpt>
      <trkpt lat="46.61085" lon="-0.41007">
        <ele>242.28</ele>
        <time>2019-05-04T18:46:31.999Z</time>
      </trkpt>
      <trkpt lat="46.61093" lon="-0.40999">
        <ele>242.64</ele>
        <time>2019-05-04T18:46:34.999Z</time>
      </trkpt>
      <trkpt lat="46.61104" lon="-0.4099">
        <ele>246.55</ele>
        <time>2019-05-04T18:46:37.999Z</time>
      </trkpt>
      <trkpt lat="46.61115" lon="-0.40982">
        <ele>249.18</ele>
        <time>2019-05-04T18:46:40.999Z</time>
      </trkpt>
      <trkpt lat="46.61125" lon="-0.40974">
        <ele>251.04</ele>
        <time>2019-05-04T18:46:43.999Z</time>
      </trkpt>
      <trkpt lat="46.61133" lon="-0.40968">
        <ele>251.68</ele>
        <time>2019-05-04T18:46:45.999Z</time>
      </trkpt>
      <trkpt lat="46.61141" lon="-0.40962">
        <ele>251.46</ele>
        <time>2019-05-04T18:46:47.999Z</time>
      </trkpt>
      <trkpt lat="46.61153" lon="-0.40956">
        <ele>250.49</ele>
        <time>2019-05-04T18:46:50.999Z</time>
      </trkpt>
      <trkpt lat="46.61165" lon="-0.40949">
        <ele>249.79</ele>
        <time>2019-05-04T18:46:53.999Z</time>
      </trkpt>
      <trkpt lat="46.61176" lon="-0.40941">
        <ele>249.42</ele>
        <time>2019-05-04T18:46:56.999Z</time>
      </trkpt>
      <trkpt lat="46.61186" lon="-0.40929">
        <ele>249.29</ele>
        <time>2019-05-04T18:46:59.999Z</time>
      </trkpt>
      <trkpt lat="46.61194" lon="-0.40917">
        <ele>249.59</ele>
        <time>2019-05-04T18:47:02.999Z</time>
      </trkpt>
      <trkpt lat="46.61199" lon="-0.40906">
        <ele>249.44</ele>
        <time>2019-05-04T18:47:04.999Z</time>
      </trkpt>
      <trkpt lat="46.61204" lon="-0.40895">
        <ele>249.19</ele>
        <time>2019-05-04T18:47:06.999Z</time>
      </trkpt>
      <trkpt lat="46.6121" lon="-0.40882">
        <ele>249.01</ele>
        <time>2019-05-04T18:47:08.999Z</time>
      </trkpt>
      <trkpt lat="46.61215" lon="-0.40871">
        <ele>248.74</ele>
        <time>2019-05-04T18:47:10.999Z</time>
      </trkpt>
      <trkpt lat="46.61221" lon="-0.40859">
        <ele>248.38</ele>
        <time>2019-05-04T18:47:12.999Z</time>
      </trkpt>
      <trkpt lat="46.6123" lon="-0.4085">
        <ele>248.21</ele>
        <time>2019-05-04T18:47:14.999Z</time>
      </trkpt>
      <trkpt lat="46.61237" lon="-0.40842">
        <ele>248.55</ele>
        <time>2019-05-04T18:47:16.999Z</time>
      </trkpt>
      <trkpt lat="46.61246" lon="-0.40834">
        <ele>248.89</ele>
        <time>2019-05-04T18:47:18.999Z</time>
      </trkpt>
      <trkpt lat="46.61255" lon="-0.40826">
        <ele>249.06</ele>
        <time>2019-05-04T18:47:20.999Z</time>
      </trkpt>
      <trkpt lat="46.61263" lon="-0.40818">
        <ele>248.95</ele>
        <time>2019-05-04T18:47:22.999Z</time>
      </trkpt>
      <trkpt lat="46.61271" lon="-0.4081">
        <ele>248.97</ele>
        <time>2019-05-04T18:47:24.999Z</time>
      </trkpt>
      <trkpt lat="46.61279" lon="-0.40801">
        <ele>249.21</ele>
        <time>2019-05-04T18:47:26.999Z</time>
      </trkpt>
      <trkpt lat="46.6129" lon="-0.4079">
        <ele>250.15</ele>
        <time>2019-05-04T18:47:29.999Z</time>
      </trkpt>
      <trkpt lat="46.61298" lon="-0.40783">
        <ele>250.83</ele>
        <time>2019-05-04T18:47:31.999Z</time>
      </trkpt>
      <trkpt lat="46.61306" lon="-0.40775">
        <ele>251.49</ele>
        <time>2019-05-04T18:47:33.999Z</time>
      </trkpt>
      <trkpt lat="46.61314" lon="-0.40768">
        <ele>251.98</ele>
        <time>2019-05-04T18:47:35.999Z</time>
      </trkpt>
      <trkpt lat="46.61323" lon="-0.40762">
        <ele>252.16</ele>
        <time>2019-05-04T18:47:37.999Z</time>
      </trkpt>
      <trkpt lat="46.61332" lon="-0.40753">
        <ele>251.9</ele>
        <time>2019-05-04T18:47:39.999Z</time>
      </trkpt>
      <trkpt lat="46.61341" lon="-0.40745">
        <ele>251.37</ele>
        <time>2019-05-04T18:47:41.999Z</time>
      </trkpt>
      <trkpt lat="46.6135" lon="-0.40736">
        <ele>250.63</ele>
        <time>2019-05-04T18:47:43.999Z</time>
      </trkpt>
      <trkpt lat="46.61358" lon="-0.40727">
        <ele>249.88</ele>
        <time>2019-05-04T18:47:45.999Z</time>
      </trkpt>
      <trkpt lat="46.61369" lon="-0.40716">
        <ele>249.88</ele>
        <time>2019-05-04T18:47:48.999Z</time>
      </trkpt>
      <trkpt lat="46.61378" lon="-0.40708">
        <ele>252.18</ele>
        <time>2019-05-04T18:47:51.999Z</time>
      </trkpt>
      <trkpt lat="46.61385" lon="-0.407">
        <ele>252.5</ele>
        <time>2019-05-04T18:47:53.999Z</time>
      </trkpt>
      <trkpt lat="46.61396" lon="-0.40688">
        <ele>253.26</ele>
        <time>2019-05-04T18:47:56.999Z</time>
      </trkpt>
      <trkpt lat="46.61401" lon="-0.40675">
        <ele>252.76</ele>
        <time>2019-05-04T18:47:58.999Z</time>
      </trkpt>
      <trkpt lat="46.61399" lon="-0.40662">
        <ele>252.48</ele>
        <time>2019-05-04T18:48:00.999Z</time>
      </trkpt>
      <trkpt lat="46.61393" lon="-0.4065">
        <ele>251.24</ele>
        <time>2019-05-04T18:48:02.999Z</time>
      </trkpt>
      <trkpt lat="46.61386" lon="-0.40639">
        <ele>249.85</ele>
        <time>2019-05-04T18:48:04.999Z</time>
      </trkpt>
      <trkpt lat="46.61377" lon="-0.40627">
        <ele>249.17</ele>
        <time>2019-05-04T18:48:06.999Z</time>
      </trkpt>
      <trkpt lat="46.61364" lon="-0.40614">
        <ele>247.96</ele>
        <time>2019-05-04T18:48:08.999Z</time>
      </trkpt>
      <trkpt lat="46.61353" lon="-0.40603">
        <ele>246.7</ele>
        <time>2019-05-04T18:48:10.999Z</time>
      </trkpt>
      <trkpt lat="46.61343" lon="-0.40591">
        <ele>245.66</ele>
        <time>2019-05-04T18:48:12.999Z</time>
      </trkpt>
      <trkpt lat="46.61334" lon="-0.40577">
        <ele>244.16</ele>
        <time>2019-05-04T18:48:14.999Z</time>
      </trkpt>
      <trkpt lat="46.61327" lon="-0.40566">
        <ele>243.84</ele>
        <time>2019-05-04T18:48:16.999Z</time>
      </trkpt>
      <trkpt lat="46.61322" lon="-0.40552">
        <ele>243.8</ele>
        <time>2019-05-04T18:48:18.999Z</time>
      </trkpt>
      <trkpt lat="46.61318" lon="-0.40538">
        <ele>244.03</ele>
        <time>2019-05-04T18:48:20.999Z</time>
      </trkpt>
      <trkpt lat="46.61314" lon="-0.40519">
        <ele>245.47</ele>
        <time>2019-05-04T18:48:23.999Z</time>
      </trkpt>
      <trkpt lat="46.61313" lon="-0.40506">
        <ele>246.36</ele>
        <time>2019-05-04T18:48:25.999Z</time>
      </trkpt>
      <trkpt lat="46.61308" lon="-0.40489">
        <ele>246.93</ele>
        <time>2019-05-04T18:48:28.999Z</time>
      </trkpt>
      <trkpt lat="46.61305" lon="-0.40471">
        <ele>246.35</ele>
        <time>2019-05-04T18:48:31.999Z</time>
      </trkpt>
      <trkpt lat="46.61303" lon="-0.40454">
        <ele>247.03</ele>
        <time>2019-05-04T18:48:34.999Z</time>
      </trkpt>
      <trkpt lat="46.61302" lon="-0.40439">
        <ele>247.42</ele>
        <time>2019-05-04T18:48:37.999Z</time>
      </trkpt>
      <trkpt lat="46.61313" lon="-0.40432">
        <ele>248.82</ele>
        <time>2019-05-04T18:48:40.999Z</time>
      </trkpt>
      <trkpt lat="46.61322" lon="-0.40427">
        <ele>250.98</ele>
        <time>2019-05-04T18:48:42.999Z</time>
      </trkpt>
      <trkpt lat="46.61332" lon="-0.40423">
        <ele>252.02</ele>
        <time>2019-05-04T18:48:44.999Z</time>
      </trkpt>
      <trkpt lat="46.6134" lon="-0.40419">
        <ele>252.17</ele>
        <time>2019-05-04T18:48:46.999Z</time>
      </trkpt>
      <trkpt lat="46.61349" lon="-0.40414">
        <ele>252.21</ele>
        <time>2019-05-04T18:48:48.999Z</time>
      </trkpt>
      <trkpt lat="46.6136" lon="-0.40408">
        <ele>252.31</ele>
        <time>2019-05-04T18:48:51.999Z</time>
      </trkpt>
      <trkpt lat="46.61369" lon="-0.40403">
        <ele>252.4</ele>
        <time>2019-05-04T18:48:54.999Z</time>
      </trkpt>
      <trkpt lat="46.6138" lon="-0.40395">
        <ele>252.51</ele>
        <time>2019-05-04T18:48:57.999Z</time>
      </trkpt>
      <trkpt lat="46.61391" lon="-0.40388">
        <ele>254.55</ele>
        <time>2019-05-04T18:49:01.999Z</time>
      </trkpt>
      <trkpt lat="46.61401" lon="-0.40379">
        <ele>255.92</ele>
        <time>2019-05-04T18:49:04.999Z</time>
      </trkpt>
      <trkpt lat="46.6141" lon="-0.40369">
        <ele>256.68</ele>
        <time>2019-05-04T18:49:06.999Z</time>
      </trkpt>
      <trkpt lat="46.6142" lon="-0.40357">
        <ele>257.85</ele>
        <time>2019-05-04T18:49:09.999Z</time>
      </trkpt>
      <trkpt lat="46.61427" lon="-0.40346">
        <ele>258.45</ele>
        <time>2019-05-04T18:49:12.999Z</time>
      </trkpt>
      <trkpt lat="46.61437" lon="-0.40334">
        <ele>259.85</ele>
        <time>2019-05-04T18:49:15.999Z</time>
      </trkpt>
      <trkpt lat="46.61446" lon="-0.40324">
        <ele>259.13</ele>
        <time>2019-05-04T18:49:17.999Z</time>
      </trkpt>
      <trkpt lat="46.61455" lon="-0.40314">
        <ele>258.59</ele>
        <time>2019-05-04T18:49:21.999Z</time>
      </trkpt>
      <trkpt lat="46.61463" lon="-0.40305">
        <ele>258.31</ele>
        <time>2019-05-04T18:49:23.999Z</time>
      </trkpt>
      <trkpt lat="46.6147" lon="-0.40297">
        <ele>257.37</ele>
        <time>2019-05-04T18:49:25.999Z</time>
      </trkpt>
      <trkpt lat="46.6148" lon="-0.40286">
        <ele>256.73</ele>
        <time>2019-05-04T18:49:28.999Z</time>
      </trkpt>
      <trkpt lat="46.61489" lon="-0.40275">
        <ele>256.56</ele>
        <time>2019-05-04T18:49:31.999Z</time>
      </trkpt>
      <trkpt lat="46.61497" lon="-0.40265">
        <ele>256.35</ele>
        <time>2019-05-04T18:49:34.999Z</time>
      </trkpt>
      <trkpt lat="46.61506" lon="-0.40255">
        <ele>256.18</ele>
        <time>2019-05-04T18:49:37.999Z</time>
      </trkpt>
      <trkpt lat="46.61514" lon="-0.40245">
        <ele>256.1</ele>
        <time>2019-05-04T18:49:40.999Z</time>
      </trkpt>
      <trkpt lat="46.61522" lon="-0.40238">
        <ele>256.13</ele>
        <time>2019-05-04T18:49:43.999Z</time>
      </trkpt>
      <trkpt lat="46.61531" lon="-0.40228">
        <ele>256.28</ele>
        <time>2019-05-04T18:49:46.999Z</time>
      </trkpt>
      <trkpt lat="46.61539" lon="-0.40218">
        <ele>256.51</ele>
        <time>2019-05-04T18:49:49.999Z</time>
      </trkpt>
      <trkpt lat="46.61547" lon="-0.40206">
        <ele>256.7</ele>
        <time>2019-05-04T18:49:52.999Z</time>
      </trkpt>
      <trkpt lat="46.61555" lon="-0.40198">
        <ele>256.86</ele>
        <time>2019-05-04T18:49:55.999Z</time>
      </trkpt>
      <trkpt lat="46.61563" lon="-0.4019">
        <ele>257.28</ele>
        <time>2019-05-04T18:49:59.999Z</time>
      </trkpt>
      <trkpt lat="46.61571" lon="-0.4018">
        <ele>257.75</ele>
        <time>2019-05-04T18:50:02.999Z</time>
      </trkpt>
      <trkpt lat="46.6158" lon="-0.40172">
        <ele>258.2</ele>
        <time>2019-05-04T18:50:05.999Z</time>
      </trkpt>
      <trkpt lat="46.6159" lon="-0.40162">
        <ele>258.82</ele>
        <time>2019-05-04T18:50:09.999Z</time>
      </trkpt>
      <trkpt lat="46.61597" lon="-0.40153">
        <ele>259.27</ele>
        <time>2019-05-04T18:50:12.999Z</time>
      </trkpt>
      <trkpt lat="46.61606" lon="-0.40146">
        <ele>259.74</ele>
        <time>2019-05-04T18:50:15.999Z</time>
      </trkpt>
      <trkpt lat="46.61616" lon="-0.40136">
        <ele>260.39</ele>
        <time>2019-05-04T18:50:19.999Z</time>
      </trkpt>
      <trkpt lat="46.61626" lon="-0.40127">
        <ele>261.13</ele>
        <time>2019-05-04T18:50:23.999Z</time>
      </trkpt>
      <trkpt lat="46.61634" lon="-0.40121">
        <ele>261.65</ele>
        <time>2019-05-04T18:50:26.999Z</time>
      </trkpt>
      <trkpt lat="46.61643" lon="-0.40114">
        <ele>262.12</ele>
        <time>2019-05-04T18:50:29.999Z</time>
      </trkpt>
      <trkpt lat="46.61651" lon="-0.40108">
        <ele>262.55</ele>
        <time>2019-05-04T18:50:32.999Z</time>
      </trkpt>
      <trkpt lat="46.61659" lon="-0.40101">
        <ele>263</ele>
        <time>2019-05-04T18:50:35.999Z</time>
      </trkpt>
      <trkpt lat="46.61668" lon="-0.40094">
        <ele>263.44</ele>
        <time>2019-05-04T18:50:38.999Z</time>
      </trkpt>
      <trkpt lat="46.61678" lon="-0.40085">
        <ele>264.06</ele>
        <time>2019-05-04T18:50:42.999Z</time>
      </trkpt>
      <trkpt lat="46.61686" lon="-0.40078">
        <ele>264.65</ele>
        <time>2019-05-04T18:50:46.999Z</time>
      </trkpt>
      <trkpt lat="46.61696" lon="-0.40068">
        <ele>265.39</ele>
        <time>2019-05-04T18:50:50.999Z</time>
      </trkpt>
      <trkpt lat="46.61704" lon="-0.40059">
        <ele>265.85</ele>
        <time>2019-05-04T18:50:53.999Z</time>
      </trkpt>
      <trkpt lat="46.61712" lon="-0.4005">
        <ele>266.21</ele>
        <time>2019-05-04T18:50:56.999Z</time>
      </trkpt>
      <trkpt lat="46.6172" lon="-0.40042">
        <ele>266.59</ele>
        <time>2019-05-04T18:50:59.999Z</time>
      </trkpt>
      <trkpt lat="46.61729" lon="-0.40033">
        <ele>266.93</ele>
        <time>2019-05-04T18:51:02.999Z</time>
      </trkpt>
      <trkpt lat="46.61739" lon="-0.40023">
        <ele>267.25</ele>
        <time>2019-05-04T18:51:05.999Z</time>
      </trkpt>
      <trkpt lat="46.61749" lon="-0.40013">
        <ele>269.38</ele>
        <time>2019-05-04T18:51:08.999Z</time>
      </trkpt>
      <trkpt lat="46.6176" lon="-0.39999">
        <ele>270.51</ele>
        <time>2019-05-04T18:51:11.999Z</time>
      </trkpt>
      <trkpt lat="46.6177" lon="-0.39987">
        <ele>270.42</ele>
        <time>2019-05-04T18:51:14.999Z</time>
      </trkpt>
      <trkpt lat="46.61783" lon="-0.39986">
        <ele>270.21</ele>
        <time>2019-05-04T18:51:17.999Z</time>
      </trkpt>
      <trkpt lat="46.61792" lon="-0.4">
        <ele>270.32</ele>
        <time>2019-05-04T18:51:20.999Z</time>
      </trkpt>
      <trkpt lat="46.61802" lon="-0.40012">
        <ele>271.28</ele>
        <time>2019-05-04T18:51:23.999Z</time>
      </trkpt>
      <trkpt lat="46.6181" lon="-0.40024">
        <ele>272.03</ele>
        <time>2019-05-04T18:51:26.999Z</time>
      </trkpt>
      <trkpt lat="46.6182" lon="-0.40038">
        <ele>272.68</ele>
        <time>2019-05-04T18:51:29.999Z</time>
      </trkpt>
      <trkpt lat="46.61826" lon="-0.4005">
        <ele>272.61</ele>
        <time>2019-05-04T18:51:31.999Z</time>
      </trkpt>
      <trkpt lat="46.61833" lon="-0.40062">
        <ele>271.94</ele>
        <time>2019-05-04T18:51:33.999Z</time>
      </trkpt>
      <trkpt lat="46.6184" lon="-0.40073">
        <ele>271.36</ele>
        <time>2019-05-04T18:51:35.999Z</time>
      </trkpt>
      <trkpt lat="46.61846" lon="-0.40085">
        <ele>270.62</ele>
        <time>2019-05-04T18:51:37.999Z</time>
      </trkpt>
      <trkpt lat="46.61853" lon="-0.40097">
        <ele>269.91</ele>
        <time>2019-05-04T18:51:39.999Z</time>
      </trkpt>
      <trkpt lat="46.61859" lon="-0.40107">
        <ele>269.57</ele>
        <time>2019-05-04T18:51:41.999Z</time>
      </trkpt>
      <trkpt lat="46.61866" lon="-0.40119">
        <ele>269.27</ele>
        <time>2019-05-04T18:51:44.999Z</time>
      </trkpt>
      <trkpt lat="46.61873" lon="-0.40134">
        <ele>269.05</ele>
        <time>2019-05-04T18:51:47.999Z</time>
      </trkpt>
      <trkpt lat="46.61879" lon="-0.40147">
        <ele>268.92</ele>
        <time>2019-05-04T18:51:50.999Z</time>
      </trkpt>
      <trkpt lat="46.61884" lon="-0.4016">
        <ele>267.83</ele>
        <time>2019-05-04T18:51:53.999Z</time>
      </trkpt>
      <trkpt lat="46.61888" lon="-0.40173">
        <ele>267.15</ele>
        <time>2019-05-04T18:51:55.999Z</time>
      </trkpt>
      <trkpt lat="46.61891" lon="-0.40189">
        <ele>266.97</ele>
        <time>2019-05-04T18:51:58.999Z</time>
      </trkpt>
      <trkpt lat="46.61894" lon="-0.40205">
        <ele>266.89</ele>
        <time>2019-05-04T18:52:01.999Z</time>
      </trkpt>
      <trkpt lat="46.61901" lon="-0.4022">
        <ele>266.86</ele>
        <time>2019-05-04T18:52:04.999Z</time>
      </trkpt>
      <trkpt lat="46.61905" lon="-0.40235">
        <ele>267.32</ele>
        <time>2019-05-04T18:52:06.999Z</time>
      </trkpt>
      <trkpt lat="46.61908" lon="-0.40248">
        <ele>268.05</ele>
        <time>2019-05-04T18:52:08.999Z</time>
      </trkpt>
      <trkpt lat="46.61914" lon="-0.4026">
        <ele>268.28</ele>
        <time>2019-05-04T18:52:10.999Z</time>
      </trkpt>
      <trkpt lat="46.61919" lon="-0.40272">
        <ele>268.33</ele>
        <time>2019-05-04T18:52:12.999Z</time>
      </trkpt>
      <trkpt lat="46.61926" lon="-0.40286">
        <ele>268.51</ele>
        <time>2019-05-04T18:52:15.999Z</time>
      </trkpt>
      <trkpt lat="46.61937" lon="-0.40295">
        <ele>268.66</ele>
        <time>2019-05-04T18:52:19.999Z</time>
      </trkpt>
      <trkpt lat="46.61948" lon="-0.40306">
        <ele>268.8</ele>
        <time>2019-05-04T18:52:22.999Z</time>
      </trkpt>
      <trkpt lat="46.61957" lon="-0.40313">
        <ele>269</ele>
        <time>2019-05-04T18:52:25.999Z</time>
      </trkpt>
      <trkpt lat="46.61966" lon="-0.40321">
        <ele>269.13</ele>
        <time>2019-05-04T18:52:29.999Z</time>
      </trkpt>
      <trkpt lat="46.61975" lon="-0.4033">
        <ele>269.15</ele>
        <time>2019-05-04T18:52:32.999Z</time>
      </trkpt>
      <trkpt lat="46.61982" lon="-0.40339">
        <ele>269.13</ele>
        <time>2019-05-04T18:52:34.999Z</time>
      </trkpt>
      <trkpt lat="46.6199" lon="-0.40347">
        <ele>269</ele>
        <time>2019-05-04T18:52:37.999Z</time>
      </trkpt>
      <trkpt lat="46.61999" lon="-0.40354">
        <ele>268.81</ele>
        <time>2019-05-04T18:52:40.999Z</time>
      </trkpt>
      <trkpt lat="46.62008" lon="-0.40363">
        <ele>268.41</ele>
        <time>2019-05-04T18:52:45.999Z</time>
      </trkpt>
      <trkpt lat="46.62016" lon="-0.40371">
        <ele>268.15</ele>
        <time>2019-05-04T18:52:51.999Z</time>
      </trkpt>
      <trkpt lat="46.62027" lon="-0.4038">
        <ele>268.2</ele>
        <time>2019-05-04T18:52:55.999Z</time>
      </trkpt>
      <trkpt lat="46.62035" lon="-0.40392">
        <ele>268.18</ele>
        <time>2019-05-04T18:52:58.999Z</time>
      </trkpt>
      <trkpt lat="46.62041" lon="-0.40401">
        <ele>267.98</ele>
        <time>2019-05-04T18:53:01.999Z</time>
      </trkpt>
      <trkpt lat="46.62049" lon="-0.4041">
        <ele>267.63</ele>
        <time>2019-05-04T18:53:04.999Z</time>
      </trkpt>
      <trkpt lat="46.62056" lon="-0.40421">
        <ele>267.4</ele>
        <time>2019-05-04T18:53:06.999Z</time>
      </trkpt>
      <trkpt lat="46.62063" lon="-0.40431">
        <ele>267.14</ele>
        <time>2019-05-04T18:53:08.999Z</time>
      </trkpt>
      <trkpt lat="46.62074" lon="-0.40439">
        <ele>266.45</ele>
        <time>2019-05-04T18:53:11.999Z</time>
      </trkpt>
      <trkpt lat="46.62085" lon="-0.4045">
        <ele>262.06</ele>
        <time>2019-05-04T18:53:13.999Z</time>
      </trkpt>
      <trkpt lat="46.62093" lon="-0.40464">
        <ele>261.64</ele>
        <time>2019-05-04T18:53:16.999Z</time>
      </trkpt>
      <trkpt lat="46.621" lon="-0.40475">
        <ele>261.36</ele>
        <time>2019-05-04T18:53:18.999Z</time>
      </trkpt>
      <trkpt lat="46.62108" lon="-0.40486">
        <ele>259</ele>
        <time>2019-05-04T18:53:20.999Z</time>
      </trkpt>
      <trkpt lat="46.62116" lon="-0.40493">
        <ele>259.09</ele>
        <time>2019-05-04T18:53:22.999Z</time>
      </trkpt>
      <trkpt lat="46.62124" lon="-0.40507">
        <ele>259.33</ele>
        <time>2019-05-04T18:53:25.999Z</time>
      </trkpt>
      <trkpt lat="46.62133" lon="-0.40518">
        <ele>259.84</ele>
        <time>2019-05-04T18:53:28.999Z</time>
      </trkpt>
      <trkpt lat="46.62143" lon="-0.40528">
        <ele>260.41</ele>
        <time>2019-05-04T18:53:31.999Z</time>
      </trkpt>
      <trkpt lat="46.62154" lon="-0.40535">
        <ele>261.03</ele>
        <time>2019-05-04T18:53:34.999Z</time>
      </trkpt>
      <trkpt lat="46.62163" lon="-0.40542">
        <ele>261.69</ele>
        <time>2019-05-04T18:53:37.999Z</time>
      </trkpt>
      <trkpt lat="46.62174" lon="-0.40549">
        <ele>266.26</ele>
        <time>2019-05-04T18:53:39.999Z</time>
      </trkpt>
      <trkpt lat="46.62186" lon="-0.40556">
        <ele>266.54</ele>
        <time>2019-05-04T18:53:41.999Z</time>
      </trkpt>
      <trkpt lat="46.62195" lon="-0.40561">
        <ele>266.76</ele>
        <time>2019-05-04T18:53:43.999Z</time>
      </trkpt>
      <trkpt lat="46.62204" lon="-0.40566">
        <ele>267.1</ele>
        <time>2019-05-04T18:53:45.999Z</time>
      </trkpt>
      <trkpt lat="46.62216" lon="-0.40572">
        <ele>267.59</ele>
        <time>2019-05-04T18:53:48.999Z</time>
      </trkpt>
      <trkpt lat="46.62228" lon="-0.40578">
        <ele>268.04</ele>
        <time>2019-05-04T18:53:51.999Z</time>
      </trkpt>
      <trkpt lat="46.6224" lon="-0.40584">
        <ele>268.52</ele>
        <time>2019-05-04T18:53:54.999Z</time>
      </trkpt>
      <trkpt lat="46.6225" lon="-0.40593">
        <ele>269</ele>
        <time>2019-05-04T18:53:57.999Z</time>
      </trkpt>
      <trkpt lat="46.62259" lon="-0.40598">
        <ele>269.43</ele>
        <time>2019-05-04T18:54:00.999Z</time>
      </trkpt>
      <trkpt lat="46.62268" lon="-0.40595">
        <ele>270.3</ele>
        <time>2019-05-04T18:54:20.999Z</time>
      </trkpt>
      <trkpt lat="46.6228" lon="-0.40593">
        <ele>270.58</ele>
        <time>2019-05-04T18:54:24.999Z</time>
      </trkpt>
      <trkpt lat="46.6229" lon="-0.40601">
        <ele>271.25</ele>
        <time>2019-05-04T18:54:26.999Z</time>
      </trkpt>
      <trkpt lat="46.62299" lon="-0.40608">
        <ele>271.88</ele>
        <time>2019-05-04T18:54:28.999Z</time>
      </trkpt>
      <trkpt lat="46.62307" lon="-0.40614">
        <ele>272.49</ele>
        <time>2019-05-04T18:54:30.999Z</time>
      </trkpt>
      <trkpt lat="46.62318" lon="-0.40622">
        <ele>273.54</ele>
        <time>2019-05-04T18:54:33.999Z</time>
      </trkpt>
      <trkpt lat="46.6233" lon="-0.40626">
        <ele>274.07</ele>
        <time>2019-05-04T18:54:35.999Z</time>
      </trkpt>
      <trkpt lat="46.6234" lon="-0.40628">
        <ele>274.65</ele>
        <time>2019-05-04T18:54:37.999Z</time>
      </trkpt>
      <trkpt lat="46.62349" lon="-0.40631">
        <ele>275.26</ele>
        <time>2019-05-04T18:54:39.999Z</time>
      </trkpt>
      <trkpt lat="46.62359" lon="-0.40633">
        <ele>276.11</ele>
        <time>2019-05-04T18:54:41.999Z</time>
      </trkpt>
      <trkpt lat="46.62371" lon="-0.40636">
        <ele>276.83</ele>
        <time>2019-05-04T18:54:44.999Z</time>
      </trkpt>
      <trkpt lat="46.62384" lon="-0.40638">
        <ele>277.05</ele>
        <time>2019-05-04T18:54:47.999Z</time>
      </trkpt>
      <trkpt lat="46.62394" lon="-0.40638">
        <ele>276.58</ele>
        <time>2019-05-04T18:54:49.999Z</time>
      </trkpt>
      <trkpt lat="46.62406" lon="-0.40639">
        <ele>276.51</ele>
        <time>2019-05-04T18:54:52.999Z</time>
      </trkpt>
      <trkpt lat="46.62419" lon="-0.40638">
        <ele>277.91</ele>
        <time>2019-05-04T18:54:55.999Z</time>
      </trkpt>
      <trkpt lat="46.62431" lon="-0.40635">
        <ele>279.69</ele>
        <time>2019-05-04T18:54:58.999Z</time>
      </trkpt>
      <trkpt lat="46.62442" lon="-0.40634">
        <ele>280.33</ele>
        <time>2019-05-04T18:55:00.999Z</time>
      </trkpt>
      <trkpt lat="46.62455" lon="-0.4063">
        <ele>280.56</ele>
        <time>2019-05-04T18:55:02.999Z</time>
      </trkpt>
      <trkpt lat="46.62467" lon="-0.40626">
        <ele>279.65</ele>
        <time>2019-05-04T18:55:04.999Z</time>
      </trkpt>
      <trkpt lat="46.62481" lon="-0.40621">
        <ele>278.37</ele>
        <time>2019-05-04T18:55:06.999Z</time>
      </trkpt>
      <trkpt lat="46.62494" lon="-0.4062">
        <ele>276.94</ele>
        <time>2019-05-04T18:55:08.999Z</time>
      </trkpt>
      <trkpt lat="46.62508" lon="-0.40625">
        <ele>274.26</ele>
        <time>2019-05-04T18:55:10.999Z</time>
      </trkpt>
      <trkpt lat="46.6252" lon="-0.40632">
        <ele>271.83</ele>
        <time>2019-05-04T18:55:12.999Z</time>
      </trkpt>
      <trkpt lat="46.62531" lon="-0.40641">
        <ele>269.97</ele>
        <time>2019-05-04T18:55:14.999Z</time>
      </trkpt>
      <trkpt lat="46.62542" lon="-0.40653">
        <ele>268.62</ele>
        <time>2019-05-04T18:55:16.999Z</time>
      </trkpt>
      <trkpt lat="46.62552" lon="-0.40667">
        <ele>267.65</ele>
        <time>2019-05-04T18:55:18.999Z</time>
      </trkpt>
      <trkpt lat="46.6256" lon="-0.40682">
        <ele>267.26</ele>
        <time>2019-05-04T18:55:20.999Z</time>
      </trkpt>
      <trkpt lat="46.62568" lon="-0.40698">
        <ele>267.1</ele>
        <time>2019-05-04T18:55:22.999Z</time>
      </trkpt>
      <trkpt lat="46.62574" lon="-0.40714">
        <ele>267.02</ele>
        <time>2019-05-04T18:55:24.999Z</time>
      </trkpt>
      <trkpt lat="46.62582" lon="-0.40731">
        <ele>267.01</ele>
        <time>2019-05-04T18:55:26.999Z</time>
      </trkpt>
      <trkpt lat="46.6259" lon="-0.40747">
        <ele>266.96</ele>
        <time>2019-05-04T18:55:28.999Z</time>
      </trkpt>
      <trkpt lat="46.62598" lon="-0.40762">
        <ele>266.88</ele>
        <time>2019-05-04T18:55:30.999Z</time>
      </trkpt>
      <trkpt lat="46.62606" lon="-0.40777">
        <ele>266.81</ele>
        <time>2019-05-04T18:55:32.999Z</time>
      </trkpt>
      <trkpt lat="46.62614" lon="-0.4079">
        <ele>266.78</ele>
        <time>2019-05-04T18:55:34.999Z</time>
      </trkpt>
      <trkpt lat="46.62622" lon="-0.40804">
        <ele>266.73</ele>
        <time>2019-05-04T18:55:36.999Z</time>
      </trkpt>
      <trkpt lat="46.6263" lon="-0.40818">
        <ele>266.86</ele>
        <time>2019-05-04T18:55:38.999Z</time>
      </trkpt>
      <trkpt lat="46.62639" lon="-0.40833">
        <ele>267.27</ele>
        <time>2019-05-04T18:55:40.999Z</time>
      </trkpt>
      <trkpt lat="46.62649" lon="-0.40849">
        <ele>267.62</ele>
        <time>2019-05-04T18:55:42.999Z</time>
      </trkpt>
      <trkpt lat="46.6266" lon="-0.40864">
        <ele>267.91</ele>
        <time>2019-05-04T18:55:44.999Z</time>
      </trkpt>
      <trkpt lat="46.62671" lon="-0.40875">
        <ele>268.1</ele>
        <time>2019-05-04T18:55:46.999Z</time>
      </trkpt>
      <trkpt lat="46.62681" lon="-0.40887">
        <ele>268.18</ele>
        <time>2019-05-04T18:55:48.999Z</time>
      </trkpt>
      <trkpt lat="46.62691" lon="-0.40898">
        <ele>268.12</ele>
        <time>2019-05-04T18:55:50.999Z</time>
      </trkpt>
      <trkpt lat="46.62699" lon="-0.40911">
        <ele>268.22</ele>
        <time>2019-05-04T18:55:52.999Z</time>
      </trkpt>
      <trkpt lat="46.62703" lon="-0.40925">
        <ele>268.14</ele>
        <time>2019-05-04T18:55:54.999Z</time>
      </trkpt>
      <trkpt lat="46.62708" lon="-0.4094">
        <ele>267.47</ele>
        <time>2019-05-04T18:55:56.999Z</time>
      </trkpt>
      <trkpt lat="46.62716" lon="-0.40955">
        <ele>266.79</ele>
        <time>2019-05-04T18:55:58.999Z</time>
      </trkpt>
      <trkpt lat="46.62726" lon="-0.40969">
        <ele>266.13</ele>
        <time>2019-05-04T18:56:00.999Z</time>
      </trkpt>
      <trkpt lat="46.62735" lon="-0.40983">
        <ele>265.57</ele>
        <time>2019-05-04T18:56:02.999Z</time>
      </trkpt>
      <trkpt lat="46.62745" lon="-0.40996">
        <ele>265.24</ele>
        <time>2019-05-04T18:56:04.999Z</time>
      </trkpt>
      <trkpt lat="46.62756" lon="-0.41007">
        <ele>265.01</ele>
        <time>2019-05-04T18:56:06.999Z</time>
      </trkpt>
      <trkpt lat="46.62766" lon="-0.41018">
        <ele>265.05</ele>
        <time>2019-05-04T18:56:08.999Z</time>
      </trkpt>
      <trkpt lat="46.62778" lon="-0.41023">
        <ele>265.15</ele>
        <time>2019-05-04T18:56:10.999Z</time>
      </trkpt>
      <trkpt lat="46.62791" lon="-0.41025">
        <ele>265.2</ele>
        <time>2019-05-04T18:56:12.999Z</time>
      </trkpt>
      <trkpt lat="46.62803" lon="-0.41024">
        <ele>265.26</ele>
        <time>2019-05-04T18:56:14.999Z</time>
      </trkpt>
      <trkpt lat="46.62813" lon="-0.41023">
        <ele>265.26</ele>
        <time>2019-05-04T18:56:16.999Z</time>
      </trkpt>
      <trkpt lat="46.62823" lon="-0.41024">
        <ele>265.38</ele>
        <time>2019-05-04T18:56:18.999Z</time>
      </trkpt>
      <trkpt lat="46.62832" lon="-0.41028">
        <ele>265.24</ele>
        <time>2019-05-04T18:56:20.999Z</time>
      </trkpt>
      <trkpt lat="46.62841" lon="-0.41035">
        <ele>264.88</ele>
        <time>2019-05-04T18:56:22.999Z</time>
      </trkpt>
      <trkpt lat="46.62849" lon="-0.41041">
        <ele>264.78</ele>
        <time>2019-05-04T18:56:24.999Z</time>
      </trkpt>
      <trkpt lat="46.62861" lon="-0.4105">
        <ele>265.02</ele>
        <time>2019-05-04T18:56:27.999Z</time>
      </trkpt>
      <trkpt lat="46.6287" lon="-0.41061">
        <ele>264.95</ele>
        <time>2019-05-04T18:56:30.999Z</time>
      </trkpt>
      <trkpt lat="46.62878" lon="-0.41072">
        <ele>265.33</ele>
        <time>2019-05-04T18:56:33.999Z</time>
      </trkpt>
      <trkpt lat="46.62885" lon="-0.4108">
        <ele>265.81</ele>
        <time>2019-05-04T18:56:35.999Z</time>
      </trkpt>
      <trkpt lat="46.62893" lon="-0.41088">
        <ele>266.74</ele>
        <time>2019-05-04T18:56:37.999Z</time>
      </trkpt>
      <trkpt lat="46.62901" lon="-0.41095">
        <ele>267.57</ele>
        <time>2019-05-04T18:56:39.999Z</time>
      </trkpt>
      <trkpt lat="46.62909" lon="-0.41102">
        <ele>268.07</ele>
        <time>2019-05-04T18:56:41.999Z</time>
      </trkpt>
      <trkpt lat="46.62918" lon="-0.41109">
        <ele>268.39</ele>
        <time>2019-05-04T18:56:43.999Z</time>
      </trkpt>
      <trkpt lat="46.62927" lon="-0.41113">
        <ele>268.33</ele>
        <time>2019-05-04T18:56:45.999Z</time>
      </trkpt>
      <trkpt lat="46.62939" lon="-0.41119">
        <ele>267.52</ele>
        <time>2019-05-04T18:56:47.999Z</time>
      </trkpt>
      <trkpt lat="46.6295" lon="-0.41126">
        <ele>264.42</ele>
        <time>2019-05-04T18:56:49.999Z</time>
      </trkpt>
      <trkpt lat="46.62962" lon="-0.41133">
        <ele>261.49</ele>
        <time>2019-05-04T18:56:51.999Z</time>
      </trkpt>
      <trkpt lat="46.62972" lon="-0.41139">
        <ele>261.64</ele>
        <time>2019-05-04T18:56:52.999Z</time>
      </trkpt>
      <trkpt lat="46.6298" lon="-0.41149">
        <ele>262.65</ele>
        <time>2019-05-04T18:56:54.999Z</time>
      </trkpt>
      <trkpt lat="46.62988" lon="-0.41161">
        <ele>263.27</ele>
        <time>2019-05-04T18:56:56.999Z</time>
      </trkpt>
      <trkpt lat="46.62997" lon="-0.41172">
        <ele>262.99</ele>
        <time>2019-05-04T18:56:59.999Z</time>
      </trkpt>
      <trkpt lat="46.63008" lon="-0.41182">
        <ele>261.2</ele>
        <time>2019-05-04T18:57:02.999Z</time>
      </trkpt>
      <trkpt lat="46.63016" lon="-0.4119">
        <ele>261.25</ele>
        <time>2019-05-04T18:57:04.999Z</time>
      </trkpt>
      <trkpt lat="46.63027" lon="-0.41198">
        <ele>262.38</ele>
        <time>2019-05-04T18:57:06.999Z</time>
      </trkpt>
      <trkpt lat="46.63036" lon="-0.41204">
        <ele>263.4</ele>
        <time>2019-05-04T18:57:08.999Z</time>
      </trkpt>
      <trkpt lat="46.63045" lon="-0.41208">
        <ele>263.56</ele>
        <time>2019-05-04T18:57:10.999Z</time>
      </trkpt>
      <trkpt lat="46.63054" lon="-0.41212">
        <ele>264.46</ele>
        <time>2019-05-04T18:57:12.999Z</time>
      </trkpt>
      <trkpt lat="46.63063" lon="-0.41217">
        <ele>265.63</ele>
        <time>2019-05-04T18:57:14.999Z</time>
      </trkpt>
      <trkpt lat="46.63074" lon="-0.41229">
        <ele>268.3</ele>
        <time>2019-05-04T18:57:17.999Z</time>
      </trkpt>
      <trkpt lat="46.63081" lon="-0.41239">
        <ele>270.12</ele>
        <time>2019-05-04T18:57:19.999Z</time>
      </trkpt>
      <trkpt lat="46.63092" lon="-0.41248">
        <ele>272.97</ele>
        <time>2019-05-04T18:57:22.999Z</time>
      </trkpt>
      <trkpt lat="46.63103" lon="-0.41257">
        <ele>274.24</ele>
        <time>2019-05-04T18:57:25.999Z</time>
      </trkpt>
      <trkpt lat="46.63115" lon="-0.41262">
        <ele>276.11</ele>
        <time>2019-05-04T18:57:28.999Z</time>
      </trkpt>
      <trkpt lat="46.6313" lon="-0.41263">
        <ele>276.84</ele>
        <time>2019-05-04T18:57:30.999Z</time>
      </trkpt>
      <trkpt lat="46.63141" lon="-0.41272">
        <ele>276.19</ele>
        <time>2019-05-04T18:57:32.999Z</time>
      </trkpt>
      <trkpt lat="46.63149" lon="-0.41285">
        <ele>274.86</ele>
        <time>2019-05-04T18:57:34.999Z</time>
      </trkpt>
      <trkpt lat="46.63156" lon="-0.41301">
        <ele>273.27</ele>
        <time>2019-05-04T18:57:36.999Z</time>
      </trkpt>
      <trkpt lat="46.63163" lon="-0.41319">
        <ele>271.96</ele>
        <time>2019-05-04T18:57:38.999Z</time>
      </trkpt>
      <trkpt lat="46.63169" lon="-0.41333">
        <ele>271.72</ele>
        <time>2019-05-04T18:57:40.999Z</time>
      </trkpt>
      <trkpt lat="46.63174" lon="-0.41346">
        <ele>271.82</ele>
        <time>2019-05-04T18:57:42.999Z</time>
      </trkpt>
      <trkpt lat="46.63177" lon="-0.41362">
        <ele>273.8</ele>
        <time>2019-05-04T18:57:45.999Z</time>
      </trkpt>
      <trkpt lat="46.63179" lon="-0.41378">
        <ele>274.79</ele>
        <time>2019-05-04T18:57:48.999Z</time>
      </trkpt>
      <trkpt lat="46.63176" lon="-0.41393">
        <ele>275.18</ele>
        <time>2019-05-04T18:57:51.999Z</time>
      </trkpt>
      <trkpt lat="46.63173" lon="-0.41411">
        <ele>276.59</ele>
        <time>2019-05-04T18:57:54.999Z</time>
      </trkpt>
      <trkpt lat="46.63171" lon="-0.41428">
        <ele>276.85</ele>
        <time>2019-05-04T18:57:57.999Z</time>
      </trkpt>
      <trkpt lat="46.63168" lon="-0.41444">
        <ele>278.08</ele>
        <time>2019-05-04T18:58:00.999Z</time>
      </trkpt>
      <trkpt lat="46.63167" lon="-0.41458">
        <ele>278.2</ele>
        <time>2019-05-04T18:58:02.999Z</time>
      </trkpt>
      <trkpt lat="46.63165" lon="-0.41475">
        <ele>278.37</ele>
        <time>2019-05-04T18:58:05.999Z</time>
      </trkpt>
      <trkpt lat="46.63163" lon="-0.4149">
        <ele>278.76</ele>
        <time>2019-05-04T18:58:08.999Z</time>
      </trkpt>
      <trkpt lat="46.63163" lon="-0.41509">
        <ele>279.22</ele>
        <time>2019-05-04T18:58:11.999Z</time>
      </trkpt>
      <trkpt lat="46.63163" lon="-0.41526">
        <ele>279.64</ele>
        <time>2019-05-04T18:58:14.999Z</time>
      </trkpt>
      <trkpt lat="46.63165" lon="-0.41542">
        <ele>280.08</ele>
        <time>2019-05-04T18:58:17.999Z</time>
      </trkpt>
      <trkpt lat="46.63165" lon="-0.41556">
        <ele>280.59</ele>
        <time>2019-05-04T18:58:20.999Z</time>
      </trkpt>
      <trkpt lat="46.63164" lon="-0.41572">
        <ele>281.36</ele>
        <time>2019-05-04T18:58:24.999Z</time>
      </trkpt>
      <trkpt lat="46.63165" lon="-0.41585">
        <ele>281.7</ele>
        <time>2019-05-04T18:58:26.999Z</time>
      </trkpt>
      <trkpt lat="46.63166" lon="-0.41599">
        <ele>282.23</ele>
        <time>2019-05-04T18:58:29.999Z</time>
      </trkpt>
      <trkpt lat="46.63168" lon="-0.41613">
        <ele>282.72</ele>
        <time>2019-05-04T18:58:32.999Z</time>
      </trkpt>
      <trkpt lat="46.63172" lon="-0.41627">
        <ele>283.21</ele>
        <time>2019-05-04T18:58:35.999Z</time>
      </trkpt>
      <trkpt lat="46.63175" lon="-0.41642">
        <ele>283.7</ele>
        <time>2019-05-04T18:58:38.999Z</time>
      </trkpt>
      <trkpt lat="46.63179" lon="-0.41659">
        <ele>284.06</ele>
        <time>2019-05-04T18:58:41.999Z</time>
      </trkpt>
      <trkpt lat="46.63182" lon="-0.41672">
        <ele>286.33</ele>
        <time>2019-05-04T18:58:43.999Z</time>
      </trkpt>
      <trkpt lat="46.63184" lon="-0.41686">
        <ele>287.39</ele>
        <time>2019-05-04T18:58:45.999Z</time>
      </trkpt>
      <trkpt lat="46.63185" lon="-0.41701">
        <ele>288.51</ele>
        <time>2019-05-04T18:58:47.999Z</time>
      </trkpt>
      <trkpt lat="46.63186" lon="-0.41715">
        <ele>289.3</ele>
        <time>2019-05-04T18:58:49.999Z</time>
      </trkpt>
      <trkpt lat="46.63188" lon="-0.41729">
        <ele>289.54</ele>
        <time>2019-05-04T18:58:51.999Z</time>
      </trkpt>
      <trkpt lat="46.63189" lon="-0.41744">
        <ele>289.27</ele>
        <time>2019-05-04T18:58:53.999Z</time>
      </trkpt>
      <trkpt lat="46.6319" lon="-0.4176">
        <ele>288.76</ele>
        <time>2019-05-04T18:58:55.999Z</time>
      </trkpt>
      <trkpt lat="46.63191" lon="-0.41777">
        <ele>288.05</ele>
        <time>2019-05-04T18:58:57.999Z</time>
      </trkpt>
      <trkpt lat="46.63191" lon="-0.41799">
        <ele>287.25</ele>
        <time>2019-05-04T18:58:59.999Z</time>
      </trkpt>
      <trkpt lat="46.63192" lon="-0.41822">
        <ele>286.3</ele>
        <time>2019-05-04T18:59:01.999Z</time>
      </trkpt>
      <trkpt lat="46.63194" lon="-0.41841">
        <ele>285.39</ele>
        <time>2019-05-04T18:59:03.999Z</time>
      </trkpt>
      <trkpt lat="46.63195" lon="-0.4186">
        <ele>284.77</ele>
        <time>2019-05-04T18:59:05.999Z</time>
      </trkpt>
      <trkpt lat="46.63196" lon="-0.41878">
        <ele>284.5</ele>
        <time>2019-05-04T18:59:07.999Z</time>
      </trkpt>
      <trkpt lat="46.63197" lon="-0.41894">
        <ele>284.48</ele>
        <time>2019-05-04T18:59:09.999Z</time>
      </trkpt>
      <trkpt lat="46.63199" lon="-0.4191">
        <ele>284.1</ele>
        <time>2019-05-04T18:59:11.999Z</time>
      </trkpt>
      <trkpt lat="46.632" lon="-0.41925">
        <ele>284.03</ele>
        <time>2019-05-04T18:59:13.999Z</time>
      </trkpt>
      <trkpt lat="46.632" lon="-0.4194">
        <ele>283.9</ele>
        <time>2019-05-04T18:59:15.999Z</time>
      </trkpt>
      <trkpt lat="46.632" lon="-0.41958">
        <ele>283.79</ele>
        <time>2019-05-04T18:59:17.999Z</time>
      </trkpt>
      <trkpt lat="46.63199" lon="-0.41977">
        <ele>283.59</ele>
        <time>2019-05-04T18:59:19.999Z</time>
      </trkpt>
      <trkpt lat="46.63197" lon="-0.41997">
        <ele>283.16</ele>
        <time>2019-05-04T18:59:21.999Z</time>
      </trkpt>
      <trkpt lat="46.63196" lon="-0.42019">
        <ele>282.5</ele>
        <time>2019-05-04T18:59:23.999Z</time>
      </trkpt>
      <trkpt lat="46.63197" lon="-0.42041">
        <ele>282.03</ele>
        <time>2019-05-04T18:59:25.999Z</time>
      </trkpt>
      <trkpt lat="46.63199" lon="-0.42063">
        <ele>281.66</ele>
        <time>2019-05-04T18:59:27.999Z</time>
      </trkpt>
      <trkpt lat="46.632" lon="-0.42084">
        <ele>281.2</ele>
        <time>2019-05-04T18:59:29.999Z</time>
      </trkpt>
      <trkpt lat="46.632" lon="-0.42101">
        <ele>280.77</ele>
        <time>2019-05-04T18:59:31.999Z</time>
      </trkpt>
      <trkpt lat="46.63199" lon="-0.42115">
        <ele>280.34</ele>
        <time>2019-05-04T18:59:33.999Z</time>
      </trkpt>
      <trkpt lat="46.63198" lon="-0.42132">
        <ele>279.67</ele>
        <time>2019-05-04T18:59:36.999Z</time>
      </trkpt>
      <trkpt lat="46.63197" lon="-0.42146">
        <ele>279.25</ele>
        <time>2019-05-04T18:59:38.999Z</time>
      </trkpt>
      <trkpt lat="46.63195" lon="-0.4216">
        <ele>278.99</ele>
        <time>2019-05-04T18:59:40.999Z</time>
      </trkpt>
      <trkpt lat="46.63194" lon="-0.42175">
        <ele>278.86</ele>
        <time>2019-05-04T18:59:42.999Z</time>
      </trkpt>
      <trkpt lat="46.63193" lon="-0.42189">
        <ele>278.91</ele>
        <time>2019-05-04T18:59:44.999Z</time>
      </trkpt>
      <trkpt lat="46.63191" lon="-0.42203">
        <ele>279.01</ele>
        <time>2019-05-04T18:59:46.999Z</time>
      </trkpt>
      <trkpt lat="46.6319" lon="-0.42217">
        <ele>279.18</ele>
        <time>2019-05-04T18:59:48.999Z</time>
      </trkpt>
      <trkpt lat="46.63189" lon="-0.42231">
        <ele>279.32</ele>
        <time>2019-05-04T18:59:50.999Z</time>
      </trkpt>
      <trkpt lat="46.63188" lon="-0.42245">
        <ele>279.32</ele>
        <time>2019-05-04T18:59:52.999Z</time>
      </trkpt>
      <trkpt lat="46.63186" lon="-0.42264">
        <ele>279.45</ele>
        <time>2019-05-04T18:59:55.999Z</time>
      </trkpt>
      <trkpt lat="46.63184" lon="-0.42282">
        <ele>279.64</ele>
        <time>2019-05-04T18:59:58.999Z</time>
      </trkpt>
      <trkpt lat="46.63184" lon="-0.42299">
        <ele>280.17</ele>
        <time>2019-05-04T19:00:01.999Z</time>
      </trkpt>
      <trkpt lat="46.63187" lon="-0.42315">
        <ele>281</ele>
        <time>2019-05-04T19:00:04.999Z</time>
      </trkpt>
      <trkpt lat="46.63192" lon="-0.42333">
        <ele>281.82</ele>
        <time>2019-05-04T19:00:07.999Z</time>
      </trkpt>
      <trkpt lat="46.63198" lon="-0.42345">
        <ele>281.91</ele>
        <time>2019-05-04T19:00:10.999Z</time>
      </trkpt>
      <trkpt lat="46.63206" lon="-0.42358">
        <ele>282.42</ele>
        <time>2019-05-04T19:00:13.999Z</time>
      </trkpt>
      <trkpt lat="46.63211" lon="-0.42369">
        <ele>282.75</ele>
        <time>2019-05-04T19:00:15.999Z</time>
      </trkpt>
      <trkpt lat="46.63216" lon="-0.4238">
        <ele>282.53</ele>
        <time>2019-05-04T19:00:17.999Z</time>
      </trkpt>
      <trkpt lat="46.63224" lon="-0.42392">
        <ele>282.79</ele>
        <time>2019-05-04T19:00:20.999Z</time>
      </trkpt>
      <trkpt lat="46.63232" lon="-0.42405">
        <ele>283.34</ele>
        <time>2019-05-04T19:00:23.999Z</time>
      </trkpt>
      <trkpt lat="46.63239" lon="-0.42415">
        <ele>283.87</ele>
        <time>2019-05-04T19:00:25.999Z</time>
      </trkpt>
      <trkpt lat="46.63244" lon="-0.42425">
        <ele>284.25</ele>
        <time>2019-05-04T19:00:27.999Z</time>
      </trkpt>
      <trkpt lat="46.6325" lon="-0.42434">
        <ele>284.46</ele>
        <time>2019-05-04T19:00:29.999Z</time>
      </trkpt>
      <trkpt lat="46.63258" lon="-0.42445">
        <ele>284.49</ele>
        <time>2019-05-04T19:00:31.999Z</time>
      </trkpt>
      <trkpt lat="46.63265" lon="-0.42456">
        <ele>284.49</ele>
        <time>2019-05-04T19:00:33.999Z</time>
      </trkpt>
      <trkpt lat="46.63273" lon="-0.42468">
        <ele>284.49</ele>
        <time>2019-05-04T19:00:35.999Z</time>
      </trkpt>
      <trkpt lat="46.6328" lon="-0.4248">
        <ele>284.46</ele>
        <time>2019-05-04T19:00:37.999Z</time>
      </trkpt>
      <trkpt lat="46.63288" lon="-0.42492">
        <ele>284.24</ele>
        <time>2019-05-04T19:00:39.999Z</time>
      </trkpt>
      <trkpt lat="46.63297" lon="-0.42505">
        <ele>284.12</ele>
        <time>2019-05-04T19:00:41.999Z</time>
      </trkpt>
      <trkpt lat="46.63305" lon="-0.42518">
        <ele>284.14</ele>
        <time>2019-05-04T19:00:43.999Z</time>
      </trkpt>
      <trkpt lat="46.63314" lon="-0.42533">
        <ele>284.02</ele>
        <time>2019-05-04T19:00:45.999Z</time>
      </trkpt>
      <trkpt lat="46.63323" lon="-0.42547">
        <ele>283.87</ele>
        <time>2019-05-04T19:00:47.999Z</time>
      </trkpt>
      <trkpt lat="46.63332" lon="-0.42563">
        <ele>283.73</ele>
        <time>2019-05-04T19:00:49.999Z</time>
      </trkpt>
      <trkpt lat="46.6334" lon="-0.42577">
        <ele>283.47</ele>
        <time>2019-05-04T19:00:51.999Z</time>
      </trkpt>
      <trkpt lat="46.63347" lon="-0.42593">
        <ele>283.21</ele>
        <time>2019-05-04T19:00:53.999Z</time>
      </trkpt>
      <trkpt lat="46.63353" lon="-0.42609">
        <ele>282.99</ele>
        <time>2019-05-04T19:00:55.999Z</time>
      </trkpt>
      <trkpt lat="46.6336" lon="-0.42625">
        <ele>282.94</ele>
        <time>2019-05-04T19:00:57.999Z</time>
      </trkpt>
      <trkpt lat="46.63366" lon="-0.42639">
        <ele>282.96</ele>
        <time>2019-05-04T19:00:59.999Z</time>
      </trkpt>
      <trkpt lat="46.63373" lon="-0.42653">
        <ele>283.15</ele>
        <time>2019-05-04T19:01:01.999Z</time>
      </trkpt>
      <trkpt lat="46.6338" lon="-0.42664">
        <ele>283.39</ele>
        <time>2019-05-04T19:01:03.999Z</time>
      </trkpt>
      <trkpt lat="46.63386" lon="-0.42675">
        <ele>283.69</ele>
        <time>2019-05-04T19:01:05.999Z</time>
      </trkpt>
      <trkpt lat="46.63392" lon="-0.42686">
        <ele>283.99</ele>
        <time>2019-05-04T19:01:07.999Z</time>
      </trkpt>
      <trkpt lat="46.63398" lon="-0.42697">
        <ele>284.16</ele>
        <time>2019-05-04T19:01:09.999Z</time>
      </trkpt>
      <trkpt lat="46.63404" lon="-0.4271">
        <ele>284.3</ele>
        <time>2019-05-04T19:01:11.999Z</time>
      </trkpt>
      <trkpt lat="46.63408" lon="-0.42723">
        <ele>284.58</ele>
        <time>2019-05-04T19:01:13.999Z</time>
      </trkpt>
      <trkpt lat="46.63413" lon="-0.42735">
        <ele>284.92</ele>
        <time>2019-05-04T19:01:15.999Z</time>
      </trkpt>
      <trkpt lat="46.63418" lon="-0.42747">
        <ele>285.37</ele>
        <time>2019-05-04T19:01:17.999Z</time>
      </trkpt>
      <trkpt lat="46.63424" lon="-0.42764">
        <ele>285.93</ele>
        <time>2019-05-04T19:01:20.999Z</time>
      </trkpt>
      <trkpt lat="46.63429" lon="-0.42775">
        <ele>286.18</ele>
        <time>2019-05-04T19:01:22.999Z</time>
      </trkpt>
      <trkpt lat="46.63435" lon="-0.4279">
        <ele>286.63</ele>
        <time>2019-05-04T19:01:25.999Z</time>
      </trkpt>
      <trkpt lat="46.63441" lon="-0.42804">
        <ele>286.69</ele>
        <time>2019-05-04T19:01:28.999Z</time>
      </trkpt>
      <trkpt lat="46.63447" lon="-0.42817">
        <ele>286.78</ele>
        <time>2019-05-04T19:01:31.999Z</time>
      </trkpt>
      <trkpt lat="46.63453" lon="-0.42833">
        <ele>286.28</ele>
        <time>2019-05-04T19:01:34.999Z</time>
      </trkpt>
      <trkpt lat="46.63459" lon="-0.42844">
        <ele>285.51</ele>
        <time>2019-05-04T19:01:36.999Z</time>
      </trkpt>
      <trkpt lat="46.63465" lon="-0.42856">
        <ele>284.79</ele>
        <time>2019-05-04T19:01:38.999Z</time>
      </trkpt>
      <trkpt lat="46.6347" lon="-0.42869">
        <ele>284.01</ele>
        <time>2019-05-04T19:01:40.999Z</time>
      </trkpt>
      <trkpt lat="46.63476" lon="-0.4288">
        <ele>283.81</ele>
        <time>2019-05-04T19:01:42.999Z</time>
      </trkpt>
      <trkpt lat="46.63483" lon="-0.42893">
        <ele>283.76</ele>
        <time>2019-05-04T19:01:44.999Z</time>
      </trkpt>
      <trkpt lat="46.63489" lon="-0.42905">
        <ele>283.54</ele>
        <time>2019-05-04T19:01:46.999Z</time>
      </trkpt>
      <trkpt lat="46.63495" lon="-0.42918">
        <ele>282.89</ele>
        <time>2019-05-04T19:01:48.999Z</time>
      </trkpt>
      <trkpt lat="46.63503" lon="-0.42933">
        <ele>282.6</ele>
        <time>2019-05-04T19:01:50.999Z</time>
      </trkpt>
      <trkpt lat="46.6351" lon="-0.42946">
        <ele>281.85</ele>
        <time>2019-05-04T19:01:52.999Z</time>
      </trkpt>
      <trkpt lat="46.63518" lon="-0.4296">
        <ele>281.28</ele>
        <time>2019-05-04T19:01:54.999Z</time>
      </trkpt>
      <trkpt lat="46.63527" lon="-0.42972">
        <ele>281.24</ele>
        <time>2019-05-04T19:01:56.999Z</time>
      </trkpt>
      <trkpt lat="46.63536" lon="-0.42985">
        <ele>281.43</ele>
        <time>2019-05-04T19:01:58.999Z</time>
      </trkpt>
      <trkpt lat="46.63545" lon="-0.42999">
        <ele>281.83</ele>
        <time>2019-05-04T19:02:00.999Z</time>
      </trkpt>
      <trkpt lat="46.63552" lon="-0.43013">
        <ele>282.39</ele>
        <time>2019-05-04T19:02:02.999Z</time>
      </trkpt>
      <trkpt lat="46.63558" lon="-0.43026">
        <ele>283.01</ele>
        <time>2019-05-04T19:02:04.999Z</time>
      </trkpt>
      <trkpt lat="46.63563" lon="-0.43038">
        <ele>283.66</ele>
        <time>2019-05-04T19:02:06.999Z</time>
      </trkpt>
      <trkpt lat="46.63569" lon="-0.43047">
        <ele>284.21</ele>
        <time>2019-05-04T19:02:08.999Z</time>
      </trkpt>
      <trkpt lat="46.63578" lon="-0.43059">
        <ele>284.65</ele>
        <time>2019-05-04T19:02:11.999Z</time>
      </trkpt>
      <trkpt lat="46.63586" lon="-0.43071">
        <ele>284.75</ele>
        <time>2019-05-04T19:02:14.999Z</time>
      </trkpt>
      <trkpt lat="46.63594" lon="-0.43082">
        <ele>285</ele>
        <time>2019-05-04T19:02:17.999Z</time>
      </trkpt>
      <trkpt lat="46.63604" lon="-0.43095">
        <ele>285.38</ele>
        <time>2019-05-04T19:02:20.999Z</time>
      </trkpt>
      <trkpt lat="46.63613" lon="-0.43109">
        <ele>285.65</ele>
        <time>2019-05-04T19:02:23.999Z</time>
      </trkpt>
      <trkpt lat="46.6362" lon="-0.43118">
        <ele>285.79</ele>
        <time>2019-05-04T19:02:25.999Z</time>
      </trkpt>
      <trkpt lat="46.63628" lon="-0.43132">
        <ele>285.89</ele>
        <time>2019-05-04T19:02:28.999Z</time>
      </trkpt>
      <trkpt lat="46.63637" lon="-0.43147">
        <ele>285.97</ele>
        <time>2019-05-04T19:02:31.999Z</time>
      </trkpt>
      <trkpt lat="46.63644" lon="-0.43157">
        <ele>285.94</ele>
        <time>2019-05-04T19:02:34.999Z</time>
      </trkpt>
      <trkpt lat="46.63653" lon="-0.43168">
        <ele>285.96</ele>
        <time>2019-05-04T19:02:37.999Z</time>
      </trkpt>
      <trkpt lat="46.63662" lon="-0.43179">
        <ele>285.83</ele>
        <time>2019-05-04T19:02:40.999Z</time>
      </trkpt>
      <trkpt lat="46.63671" lon="-0.43193">
        <ele>285.9</ele>
        <time>2019-05-04T19:02:43.999Z</time>
      </trkpt>
      <trkpt lat="46.63678" lon="-0.43204">
        <ele>285.84</ele>
        <time>2019-05-04T19:02:46.999Z</time>
      </trkpt>
      <trkpt lat="46.63687" lon="-0.43216">
        <ele>285.33</ele>
        <time>2019-05-04T19:02:49.999Z</time>
      </trkpt>
      <trkpt lat="46.63695" lon="-0.43225">
        <ele>285.33</ele>
        <time>2019-05-04T19:02:52.999Z</time>
      </trkpt>
      <trkpt lat="46.63704" lon="-0.43237">
        <ele>285.27</ele>
        <time>2019-05-04T19:02:55.999Z</time>
      </trkpt>
      <trkpt lat="46.63714" lon="-0.43251">
        <ele>285.17</ele>
        <time>2019-05-04T19:02:58.999Z</time>
      </trkpt>
      <trkpt lat="46.63721" lon="-0.4326">
        <ele>285.14</ele>
        <time>2019-05-04T19:03:00.999Z</time>
      </trkpt>
      <trkpt lat="46.6373" lon="-0.43275">
        <ele>285.86</ele>
        <time>2019-05-04T19:03:03.999Z</time>
      </trkpt>
      <trkpt lat="46.63736" lon="-0.43285">
        <ele>285.89</ele>
        <time>2019-05-04T19:03:05.999Z</time>
      </trkpt>
      <trkpt lat="46.63746" lon="-0.433">
        <ele>285.87</ele>
        <time>2019-05-04T19:03:08.999Z</time>
      </trkpt>
      <trkpt lat="46.63754" lon="-0.43309">
        <ele>285.95</ele>
        <time>2019-05-04T19:03:10.999Z</time>
      </trkpt>
      <trkpt lat="46.63765" lon="-0.4332">
        <ele>286.05</ele>
        <time>2019-05-04T19:03:13.999Z</time>
      </trkpt>
      <trkpt lat="46.63775" lon="-0.4333">
        <ele>286.11</ele>
        <time>2019-05-04T19:03:16.999Z</time>
      </trkpt>
      <trkpt lat="46.63785" lon="-0.43338">
        <ele>286.14</ele>
        <time>2019-05-04T19:03:19.999Z</time>
      </trkpt>
      <trkpt lat="46.63794" lon="-0.43345">
        <ele>285.43</ele>
        <time>2019-05-04T19:03:21.999Z</time>
      </trkpt>
      <trkpt lat="46.63803" lon="-0.43352">
        <ele>284.95</ele>
        <time>2019-05-04T19:03:23.999Z</time>
      </trkpt>
      <trkpt lat="46.63813" lon="-0.43359">
        <ele>284.63</ele>
        <time>2019-05-04T19:03:25.999Z</time>
      </trkpt>
      <trkpt lat="46.63822" lon="-0.43366">
        <ele>284.52</ele>
        <time>2019-05-04T19:03:27.999Z</time>
      </trkpt>
      <trkpt lat="46.63831" lon="-0.43373">
        <ele>283.89</ele>
        <time>2019-05-04T19:03:29.999Z</time>
      </trkpt>
      <trkpt lat="46.63842" lon="-0.43381">
        <ele>283.15</ele>
        <time>2019-05-04T19:03:31.999Z</time>
      </trkpt>
      <trkpt lat="46.63853" lon="-0.43389">
        <ele>282.95</ele>
        <time>2019-05-04T19:03:33.999Z</time>
      </trkpt>
      <trkpt lat="46.63864" lon="-0.43395">
        <ele>282.76</ele>
        <time>2019-05-04T19:03:35.999Z</time>
      </trkpt>
      <trkpt lat="46.63875" lon="-0.43403">
        <ele>282.86</ele>
        <time>2019-05-04T19:03:37.999Z</time>
      </trkpt>
      <trkpt lat="46.63886" lon="-0.43411">
        <ele>283.08</ele>
        <time>2019-05-04T19:03:39.999Z</time>
      </trkpt>
      <trkpt lat="46.63898" lon="-0.43419">
        <ele>282.99</ele>
        <time>2019-05-04T19:03:41.999Z</time>
      </trkpt>
      <trkpt lat="46.6391" lon="-0.43426">
        <ele>282.7</ele>
        <time>2019-05-04T19:03:43.999Z</time>
      </trkpt>
      <trkpt lat="46.63921" lon="-0.43432">
        <ele>282.31</ele>
        <time>2019-05-04T19:03:45.999Z</time>
      </trkpt>
      <trkpt lat="46.63932" lon="-0.4344">
        <ele>281.93</ele>
        <time>2019-05-04T19:03:47.999Z</time>
      </trkpt>
      <trkpt lat="46.63942" lon="-0.43448">
        <ele>281.56</ele>
        <time>2019-05-04T19:03:49.999Z</time>
      </trkpt>
      <trkpt lat="46.63953" lon="-0.43457">
        <ele>281.27</ele>
        <time>2019-05-04T19:03:51.999Z</time>
      </trkpt>
      <trkpt lat="46.63964" lon="-0.43464">
        <ele>281.06</ele>
        <time>2019-05-04T19:03:53.999Z</time>
      </trkpt>
      <trkpt lat="46.63975" lon="-0.43472">
        <ele>280.67</ele>
        <time>2019-05-04T19:03:55.999Z</time>
      </trkpt>
      <trkpt lat="46.63983" lon="-0.43487">
        <ele>280.28</ele>
        <time>2019-05-04T19:03:57.999Z</time>
      </trkpt>
      <trkpt lat="46.6399" lon="-0.43502">
        <ele>279.68</ele>
        <time>2019-05-04T19:03:59.999Z</time>
      </trkpt>
      <trkpt lat="46.63998" lon="-0.43517">
        <ele>279.3</ele>
        <time>2019-05-04T19:04:01.999Z</time>
      </trkpt>
      <trkpt lat="46.64007" lon="-0.43527">
        <ele>279.1</ele>
        <time>2019-05-04T19:04:03.999Z</time>
      </trkpt>
      <trkpt lat="46.64017" lon="-0.43537">
        <ele>279.06</ele>
        <time>2019-05-04T19:04:05.999Z</time>
      </trkpt>
      <trkpt lat="46.64026" lon="-0.43546">
        <ele>278.99</ele>
        <time>2019-05-04T19:04:07.999Z</time>
      </trkpt>
      <trkpt lat="46.64035" lon="-0.43556">
        <ele>279.08</ele>
        <time>2019-05-04T19:04:09.999Z</time>
      </trkpt>
      <trkpt lat="46.64044" lon="-0.43564">
        <ele>279.42</ele>
        <time>2019-05-04T19:04:11.999Z</time>
      </trkpt>
      <trkpt lat="46.64053" lon="-0.43571">
        <ele>279.73</ele>
        <time>2019-05-04T19:04:13.999Z</time>
      </trkpt>
      <trkpt lat="46.64063" lon="-0.4358">
        <ele>280.01</ele>
        <time>2019-05-04T19:04:15.999Z</time>
      </trkpt>
      <trkpt lat="46.64072" lon="-0.4359">
        <ele>280.31</ele>
        <time>2019-05-04T19:04:17.999Z</time>
      </trkpt>
      <trkpt lat="46.64081" lon="-0.43601">
        <ele>280.64</ele>
        <time>2019-05-04T19:04:19.999Z</time>
      </trkpt>
      <trkpt lat="46.64088" lon="-0.43613">
        <ele>281.16</ele>
        <time>2019-05-04T19:04:21.999Z</time>
      </trkpt>
      <trkpt lat="46.64095" lon="-0.43625">
        <ele>281.85</ele>
        <time>2019-05-04T19:04:23.999Z</time>
      </trkpt>
      <trkpt lat="46.64101" lon="-0.43638">
        <ele>282.46</ele>
        <time>2019-05-04T19:04:25.999Z</time>
      </trkpt>
      <trkpt lat="46.64105" lon="-0.43652">
        <ele>283.04</ele>
        <time>2019-05-04T19:04:27.999Z</time>
      </trkpt>
      <trkpt lat="46.64109" lon="-0.43667">
        <ele>283.54</ele>
        <time>2019-05-04T19:04:29.999Z</time>
      </trkpt>
      <trkpt lat="46.64111" lon="-0.43684">
        <ele>283.9</ele>
        <time>2019-05-04T19:04:31.999Z</time>
      </trkpt>
      <trkpt lat="46.64112" lon="-0.43701">
        <ele>284.08</ele>
        <time>2019-05-04T19:04:33.999Z</time>
      </trkpt>
      <trkpt lat="46.64111" lon="-0.43718">
        <ele>284.1</ele>
        <time>2019-05-04T19:04:35.999Z</time>
      </trkpt>
      <trkpt lat="46.64109" lon="-0.43736">
        <ele>284.16</ele>
        <time>2019-05-04T19:04:37.999Z</time>
      </trkpt>
      <trkpt lat="46.64108" lon="-0.43754">
        <ele>283.84</ele>
        <time>2019-05-04T19:04:39.999Z</time>
      </trkpt>
      <trkpt lat="46.64108" lon="-0.4377">
        <ele>283.47</ele>
        <time>2019-05-04T19:04:41.999Z</time>
      </trkpt>
      <trkpt lat="46.64113" lon="-0.43786">
        <ele>283.18</ele>
        <time>2019-05-04T19:04:43.999Z</time>
      </trkpt>
      <trkpt lat="46.64119" lon="-0.43802">
        <ele>283.11</ele>
        <time>2019-05-04T19:04:45.999Z</time>
      </trkpt>
      <trkpt lat="46.64124" lon="-0.43817">
        <ele>283.15</ele>
        <time>2019-05-04T19:04:47.999Z</time>
      </trkpt>
      <trkpt lat="46.64129" lon="-0.43831">
        <ele>283.21</ele>
        <time>2019-05-04T19:04:49.999Z</time>
      </trkpt>
      <trkpt lat="46.64135" lon="-0.43845">
        <ele>283.37</ele>
        <time>2019-05-04T19:04:51.999Z</time>
      </trkpt>
      <trkpt lat="46.64139" lon="-0.43858">
        <ele>283.96</ele>
        <time>2019-05-04T19:04:53.999Z</time>
      </trkpt>
      <trkpt lat="46.64144" lon="-0.43873">
        <ele>284.32</ele>
        <time>2019-05-04T19:04:55.999Z</time>
      </trkpt>
      <trkpt lat="46.64149" lon="-0.43888">
        <ele>284.4</ele>
        <time>2019-05-04T19:04:57.999Z</time>
      </trkpt>
      <trkpt lat="46.64154" lon="-0.43905">
        <ele>284.14</ele>
        <time>2019-05-04T19:04:59.999Z</time>
      </trkpt>
      <trkpt lat="46.64158" lon="-0.43924">
        <ele>283.69</ele>
        <time>2019-05-04T19:05:01.999Z</time>
      </trkpt>
      <trkpt lat="46.64159" lon="-0.43942">
        <ele>282.99</ele>
        <time>2019-05-04T19:05:03.999Z</time>
      </trkpt>
      <trkpt lat="46.64159" lon="-0.43961">
        <ele>282.18</ele>
        <time>2019-05-04T19:05:05.999Z</time>
      </trkpt>
      <trkpt lat="46.64158" lon="-0.43978">
        <ele>281.72</ele>
        <time>2019-05-04T19:05:07.999Z</time>
      </trkpt>
      <trkpt lat="46.64156" lon="-0.43994">
        <ele>281.27</ele>
        <time>2019-05-04T19:05:09.999Z</time>
      </trkpt>
      <trkpt lat="46.64154" lon="-0.44009">
        <ele>280.81</ele>
        <time>2019-05-04T19:05:11.999Z</time>
      </trkpt>
      <trkpt lat="46.6415" lon="-0.44024">
        <ele>280.29</ele>
        <time>2019-05-04T19:05:13.999Z</time>
      </trkpt>
      <trkpt lat="46.64147" lon="-0.4404">
        <ele>279.69</ele>
        <time>2019-05-04T19:05:15.999Z</time>
      </trkpt>
      <trkpt lat="46.64145" lon="-0.44056">
        <ele>279.12</ele>
        <time>2019-05-04T19:05:17.999Z</time>
      </trkpt>
      <trkpt lat="46.64143" lon="-0.44073">
        <ele>278.16</ele>
        <time>2019-05-04T19:05:19.999Z</time>
      </trkpt>
      <trkpt lat="46.64142" lon="-0.44087">
        <ele>277.66</ele>
        <time>2019-05-04T19:05:21.999Z</time>
      </trkpt>
      <trkpt lat="46.64146" lon="-0.44106">
        <ele>277.37</ele>
        <time>2019-05-04T19:05:24.999Z</time>
      </trkpt>
      <trkpt lat="46.64146" lon="-0.4412">
        <ele>277.35</ele>
        <time>2019-05-04T19:05:26.999Z</time>
      </trkpt>
      <trkpt lat="46.64148" lon="-0.44133">
        <ele>277.64</ele>
        <time>2019-05-04T19:05:28.999Z</time>
      </trkpt>
      <trkpt lat="46.64151" lon="-0.44151">
        <ele>277.99</ele>
        <time>2019-05-04T19:05:31.999Z</time>
      </trkpt>
      <trkpt lat="46.64156" lon="-0.44162">
        <ele>278.37</ele>
        <time>2019-05-04T19:05:33.999Z</time>
      </trkpt>
      <trkpt lat="46.64161" lon="-0.44173">
        <ele>278.82</ele>
        <time>2019-05-04T19:05:35.999Z</time>
      </trkpt>
      <trkpt lat="46.6417" lon="-0.44188">
        <ele>279.5</ele>
        <time>2019-05-04T19:05:38.999Z</time>
      </trkpt>
      <trkpt lat="46.64179" lon="-0.442">
        <ele>279.95</ele>
        <time>2019-05-04T19:05:41.999Z</time>
      </trkpt>
      <trkpt lat="46.64187" lon="-0.44214">
        <ele>280.45</ele>
        <time>2019-05-04T19:05:44.999Z</time>
      </trkpt>
      <trkpt lat="46.64195" lon="-0.44229">
        <ele>281.03</ele>
        <time>2019-05-04T19:05:47.999Z</time>
      </trkpt>
      <trkpt lat="46.64201" lon="-0.44247">
        <ele>281.28</ele>
        <time>2019-05-04T19:05:50.999Z</time>
      </trkpt>
      <trkpt lat="46.64205" lon="-0.44263">
        <ele>281.17</ele>
        <time>2019-05-04T19:05:53.999Z</time>
      </trkpt>
      <trkpt lat="46.64209" lon="-0.44279">
        <ele>281.82</ele>
        <time>2019-05-04T19:05:56.999Z</time>
      </trkpt>
      <trkpt lat="46.64212" lon="-0.44296">
        <ele>283.28</ele>
        <time>2019-05-04T19:05:59.999Z</time>
      </trkpt>
      <trkpt lat="46.64216" lon="-0.44312">
        <ele>284.33</ele>
        <time>2019-05-04T19:06:02.999Z</time>
      </trkpt>
      <trkpt lat="46.64219" lon="-0.44329">
        <ele>284.59</ele>
        <time>2019-05-04T19:06:05.999Z</time>
      </trkpt>
      <trkpt lat="46.64221" lon="-0.44342">
        <ele>284.74</ele>
        <time>2019-05-04T19:06:07.999Z</time>
      </trkpt>
      <trkpt lat="46.64223" lon="-0.44361">
        <ele>284.82</ele>
        <time>2019-05-04T19:06:10.999Z</time>
      </trkpt>
      <trkpt lat="46.64226" lon="-0.44379">
        <ele>284.58</ele>
        <time>2019-05-04T19:06:13.999Z</time>
      </trkpt>
      <trkpt lat="46.64228" lon="-0.44397">
        <ele>284.48</ele>
        <time>2019-05-04T19:06:16.999Z</time>
      </trkpt>
      <trkpt lat="46.64227" lon="-0.44415">
        <ele>284.5</ele>
        <time>2019-05-04T19:06:19.999Z</time>
      </trkpt>
      <trkpt lat="46.64222" lon="-0.44427">
        <ele>284.54</ele>
        <time>2019-05-04T19:06:23.999Z</time>
      </trkpt>
      <trkpt lat="46.64216" lon="-0.44436">
        <ele>284.69</ele>
        <time>2019-05-04T19:06:27.999Z</time>
      </trkpt>
      <trkpt lat="46.6421" lon="-0.44447">
        <ele>285.19</ele>
        <time>2019-05-04T19:06:33.999Z</time>
      </trkpt>
      <trkpt lat="46.64204" lon="-0.44462">
        <ele>286.18</ele>
        <time>2019-05-04T19:06:49.999Z</time>
      </trkpt>
      <trkpt lat="46.64201" lon="-0.44479">
        <ele>288.04</ele>
        <time>2019-05-04T19:06:52.999Z</time>
      </trkpt>
      <trkpt lat="46.64199" lon="-0.44492">
        <ele>289.09</ele>
        <time>2019-05-04T19:06:54.999Z</time>
      </trkpt>
      <trkpt lat="46.64199" lon="-0.44507">
        <ele>289.62</ele>
        <time>2019-05-04T19:06:56.999Z</time>
      </trkpt>
      <trkpt lat="46.64203" lon="-0.44521">
        <ele>289.9</ele>
        <time>2019-05-04T19:06:58.999Z</time>
      </trkpt>
      <trkpt lat="46.64211" lon="-0.44535">
        <ele>289.82</ele>
        <time>2019-05-04T19:07:00.999Z</time>
      </trkpt>
      <trkpt lat="46.64222" lon="-0.44545">
        <ele>289.33</ele>
        <time>2019-05-04T19:07:02.999Z</time>
      </trkpt>
      <trkpt lat="46.64235" lon="-0.44557">
        <ele>288.61</ele>
        <time>2019-05-04T19:07:04.999Z</time>
      </trkpt>
      <trkpt lat="46.64245" lon="-0.44575">
        <ele>287.82</ele>
        <time>2019-05-04T19:07:06.999Z</time>
      </trkpt>
      <trkpt lat="46.64249" lon="-0.44595">
        <ele>286.96</ele>
        <time>2019-05-04T19:07:08.999Z</time>
      </trkpt>
      <trkpt lat="46.64251" lon="-0.44617">
        <ele>286.34</ele>
        <time>2019-05-04T19:07:10.999Z</time>
      </trkpt>
      <trkpt lat="46.64252" lon="-0.4464">
        <ele>285.83</ele>
        <time>2019-05-04T19:07:12.999Z</time>
      </trkpt>
      <trkpt lat="46.6425" lon="-0.44664">
        <ele>285.43</ele>
        <time>2019-05-04T19:07:14.999Z</time>
      </trkpt>
      <trkpt lat="46.64243" lon="-0.44683">
        <ele>285.07</ele>
        <time>2019-05-04T19:07:16.999Z</time>
      </trkpt>
      <trkpt lat="46.64229" lon="-0.44691">
        <ele>284.71</ele>
        <time>2019-05-04T19:07:18.999Z</time>
      </trkpt>
      <trkpt lat="46.64214" lon="-0.44692">
        <ele>284.45</ele>
        <time>2019-05-04T19:07:20.999Z</time>
      </trkpt>
      <trkpt lat="46.64199" lon="-0.44693">
        <ele>284.22</ele>
        <time>2019-05-04T19:07:22.999Z</time>
      </trkpt>
      <trkpt lat="46.64186" lon="-0.44692">
        <ele>284.1</ele>
        <time>2019-05-04T19:07:24.999Z</time>
      </trkpt>
      <trkpt lat="46.64174" lon="-0.44695">
        <ele>284.09</ele>
        <time>2019-05-04T19:07:26.999Z</time>
      </trkpt>
      <trkpt lat="46.64162" lon="-0.44699">
        <ele>284.27</ele>
        <time>2019-05-04T19:07:28.999Z</time>
      </trkpt>
      <trkpt lat="46.6415" lon="-0.44702">
        <ele>284.6</ele>
        <time>2019-05-04T19:07:30.999Z</time>
      </trkpt>
      <trkpt lat="46.64138" lon="-0.44705">
        <ele>285.09</ele>
        <time>2019-05-04T19:07:32.999Z</time>
      </trkpt>
      <trkpt lat="46.64127" lon="-0.44708">
        <ele>285.46</ele>
        <time>2019-05-04T19:07:34.999Z</time>
      </trkpt>
      <trkpt lat="46.64114" lon="-0.44711">
        <ele>285.68</ele>
        <time>2019-05-04T19:07:36.999Z</time>
      </trkpt>
      <trkpt lat="46.64102" lon="-0.44717">
        <ele>285.89</ele>
        <time>2019-05-04T19:07:38.999Z</time>
      </trkpt>
      <trkpt lat="46.64088" lon="-0.44721">
        <ele>286.1</ele>
        <time>2019-05-04T19:07:40.999Z</time>
      </trkpt>
      <trkpt lat="46.64076" lon="-0.44726">
        <ele>286.45</ele>
        <time>2019-05-04T19:07:42.999Z</time>
      </trkpt>
      <trkpt lat="46.64064" lon="-0.44731">
        <ele>286.95</ele>
        <time>2019-05-04T19:07:44.999Z</time>
      </trkpt>
      <trkpt lat="46.64051" lon="-0.44739">
        <ele>287.5</ele>
        <time>2019-05-04T19:07:46.999Z</time>
      </trkpt>
      <trkpt lat="46.64039" lon="-0.44747">
        <ele>287.77</ele>
        <time>2019-05-04T19:07:48.999Z</time>
      </trkpt>
      <trkpt lat="46.64027" lon="-0.44755">
        <ele>287.71</ele>
        <time>2019-05-04T19:07:50.999Z</time>
      </trkpt>
      <trkpt lat="46.64015" lon="-0.44765">
        <ele>287.46</ele>
        <time>2019-05-04T19:07:52.999Z</time>
      </trkpt>
      <trkpt lat="46.64002" lon="-0.44773">
        <ele>286.83</ele>
        <time>2019-05-04T19:07:54.999Z</time>
      </trkpt>
      <trkpt lat="46.63989" lon="-0.44784">
        <ele>286.35</ele>
        <time>2019-05-04T19:07:56.999Z</time>
      </trkpt>
      <trkpt lat="46.63975" lon="-0.44791">
        <ele>286.17</ele>
        <time>2019-05-04T19:07:58.999Z</time>
      </trkpt>
      <trkpt lat="46.63961" lon="-0.44796">
        <ele>286.1</ele>
        <time>2019-05-04T19:08:00.999Z</time>
      </trkpt>
      <trkpt lat="46.63947" lon="-0.44803">
        <ele>285.84</ele>
        <time>2019-05-04T19:08:02.999Z</time>
      </trkpt>
      <trkpt lat="46.63932" lon="-0.44805">
        <ele>285.41</ele>
        <time>2019-05-04T19:08:04.999Z</time>
      </trkpt>
      <trkpt lat="46.63916" lon="-0.44806">
        <ele>284.87</ele>
        <time>2019-05-04T19:08:06.999Z</time>
      </trkpt>
      <trkpt lat="46.63899" lon="-0.44809">
        <ele>284.17</ele>
        <time>2019-05-04T19:08:08.999Z</time>
      </trkpt>
      <trkpt lat="46.63882" lon="-0.44811">
        <ele>283.35</ele>
        <time>2019-05-04T19:08:10.999Z</time>
      </trkpt>
      <trkpt lat="46.63865" lon="-0.44812">
        <ele>282.58</ele>
        <time>2019-05-04T19:08:12.999Z</time>
      </trkpt>
      <trkpt lat="46.6385" lon="-0.44814">
        <ele>281.95</ele>
        <time>2019-05-04T19:08:14.999Z</time>
      </trkpt>
      <trkpt lat="46.63834" lon="-0.44814">
        <ele>281.49</ele>
        <time>2019-05-04T19:08:16.999Z</time>
      </trkpt>
      <trkpt lat="46.63817" lon="-0.44814">
        <ele>281.08</ele>
        <time>2019-05-04T19:08:18.999Z</time>
      </trkpt>
      <trkpt lat="46.638" lon="-0.44814">
        <ele>280.59</ele>
        <time>2019-05-04T19:08:20.999Z</time>
      </trkpt>
      <trkpt lat="46.63783" lon="-0.44816">
        <ele>280.03</ele>
        <time>2019-05-04T19:08:22.999Z</time>
      </trkpt>
      <trkpt lat="46.63767" lon="-0.44818">
        <ele>279.37</ele>
        <time>2019-05-04T19:08:24.999Z</time>
      </trkpt>
      <trkpt lat="46.6375" lon="-0.4482">
        <ele>278.93</ele>
        <time>2019-05-04T19:08:26.999Z</time>
      </trkpt>
      <trkpt lat="46.63733" lon="-0.44823">
        <ele>278.76</ele>
        <time>2019-05-04T19:08:28.999Z</time>
      </trkpt>
      <trkpt lat="46.63716" lon="-0.44826">
        <ele>278.6</ele>
        <time>2019-05-04T19:08:30.999Z</time>
      </trkpt>
      <trkpt lat="46.637" lon="-0.44829">
        <ele>278.45</ele>
        <time>2019-05-04T19:08:32.999Z</time>
      </trkpt>
      <trkpt lat="46.63684" lon="-0.44833">
        <ele>278.24</ele>
        <time>2019-05-04T19:08:34.999Z</time>
      </trkpt>
      <trkpt lat="46.63667" lon="-0.44838">
        <ele>278.09</ele>
        <time>2019-05-04T19:08:36.999Z</time>
      </trkpt>
      <trkpt lat="46.63652" lon="-0.44847">
        <ele>277.91</ele>
        <time>2019-05-04T19:08:38.999Z</time>
      </trkpt>
      <trkpt lat="46.63642" lon="-0.44864">
        <ele>277.74</ele>
        <time>2019-05-04T19:08:40.999Z</time>
      </trkpt>
      <trkpt lat="46.63635" lon="-0.44883">
        <ele>277.57</ele>
        <time>2019-05-04T19:08:42.999Z</time>
      </trkpt>
      <trkpt lat="46.63626" lon="-0.44901">
        <ele>277.37</ele>
        <time>2019-05-04T19:08:44.999Z</time>
      </trkpt>
      <trkpt lat="46.63617" lon="-0.44921">
        <ele>277</ele>
        <time>2019-05-04T19:08:46.999Z</time>
      </trkpt>
      <trkpt lat="46.63608" lon="-0.44941">
        <ele>276.72</ele>
        <time>2019-05-04T19:08:48.999Z</time>
      </trkpt>
      <trkpt lat="46.63599" lon="-0.44961">
        <ele>276.53</ele>
        <time>2019-05-04T19:08:50.999Z</time>
      </trkpt>
      <trkpt lat="46.63591" lon="-0.44983">
        <ele>276.17</ele>
        <time>2019-05-04T19:08:52.999Z</time>
      </trkpt>
      <trkpt lat="46.63582" lon="-0.45004">
        <ele>275.64</ele>
        <time>2019-05-04T19:08:54.999Z</time>
      </trkpt>
      <trkpt lat="46.63573" lon="-0.45025">
        <ele>275.04</ele>
        <time>2019-05-04T19:08:56.999Z</time>
      </trkpt>
      <trkpt lat="46.63564" lon="-0.45047">
        <ele>274.48</ele>
        <time>2019-05-04T19:08:58.999Z</time>
      </trkpt>
      <trkpt lat="46.63551" lon="-0.45065">
        <ele>273.77</ele>
        <time>2019-05-04T19:09:00.999Z</time>
      </trkpt>
      <trkpt lat="46.63544" lon="-0.45074">
        <ele>273.5</ele>
        <time>2019-05-04T19:09:01.999Z</time>
      </trkpt>
      <trkpt lat="46.63538" lon="-0.45083">
        <ele>273.3</ele>
        <time>2019-05-04T19:09:02.999Z</time>
      </trkpt>
      <trkpt lat="46.63525" lon="-0.45099">
        <ele>272.96</ele>
        <time>2019-05-04T19:09:04.999Z</time>
      </trkpt>
      <trkpt lat="46.63514" lon="-0.45105">
        <ele>272.3</ele>
        <time>2019-05-04T19:09:06.999Z</time>
      </trkpt>
      <trkpt lat="46.63502" lon="-0.45096">
        <ele>271.45</ele>
        <time>2019-05-04T19:09:09.999Z</time>
      </trkpt>
      <trkpt lat="46.63495" lon="-0.45086">
        <ele>270.51</ele>
        <time>2019-05-04T19:09:11.999Z</time>
      </trkpt>
      <trkpt lat="46.63488" lon="-0.45075">
        <ele>269.8</ele>
        <time>2019-05-04T19:09:13.999Z</time>
      </trkpt>
      <trkpt lat="46.63481" lon="-0.45064">
        <ele>269.11</ele>
        <time>2019-05-04T19:09:15.999Z</time>
      </trkpt>
      <trkpt lat="46.63473" lon="-0.45051">
        <ele>268.45</ele>
        <time>2019-05-04T19:09:17.999Z</time>
      </trkpt>
      <trkpt lat="46.63464" lon="-0.45039">
        <ele>268.18</ele>
        <time>2019-05-04T19:09:19.999Z</time>
      </trkpt>
      <trkpt lat="46.63455" lon="-0.45026">
        <ele>268.04</ele>
        <time>2019-05-04T19:09:21.999Z</time>
      </trkpt>
      <trkpt lat="46.63446" lon="-0.45015">
        <ele>267.98</ele>
        <time>2019-05-04T19:09:23.999Z</time>
      </trkpt>
      <trkpt lat="46.63438" lon="-0.45006">
        <ele>268.35</ele>
        <time>2019-05-04T19:09:25.999Z</time>
      </trkpt>
      <trkpt lat="46.63428" lon="-0.45012">
        <ele>268.9</ele>
        <time>2019-05-04T19:09:27.999Z</time>
      </trkpt>
      <trkpt lat="46.63418" lon="-0.45025">
        <ele>269.19</ele>
        <time>2019-05-04T19:09:29.999Z</time>
      </trkpt>
      <trkpt lat="46.63406" lon="-0.4504">
        <ele>269.58</ele>
        <time>2019-05-04T19:09:31.999Z</time>
      </trkpt>
      <trkpt lat="46.63393" lon="-0.45057">
        <ele>269.82</ele>
        <time>2019-05-04T19:09:33.999Z</time>
      </trkpt>
      <trkpt lat="46.6338" lon="-0.45073">
        <ele>269.84</ele>
        <time>2019-05-04T19:09:35.999Z</time>
      </trkpt>
      <trkpt lat="46.63373" lon="-0.45082">
        <ele>269.48</ele>
        <time>2019-05-04T19:09:36.999Z</time>
      </trkpt>
      <trkpt lat="46.63366" lon="-0.4509">
        <ele>268.99</ele>
        <time>2019-05-04T19:09:37.999Z</time>
      </trkpt>
      <trkpt lat="46.63358" lon="-0.45099">
        <ele>268.28</ele>
        <time>2019-05-04T19:09:38.999Z</time>
      </trkpt>
      <trkpt lat="46.63352" lon="-0.4511">
        <ele>267.67</ele>
        <time>2019-05-04T19:09:39.999Z</time>
      </trkpt>
      <trkpt lat="46.63347" lon="-0.45121">
        <ele>267.18</ele>
        <time>2019-05-04T19:09:40.999Z</time>
      </trkpt>
      <trkpt lat="46.63338" lon="-0.45142">
        <ele>266.45</ele>
        <time>2019-05-04T19:09:42.999Z</time>
      </trkpt>
      <trkpt lat="46.63331" lon="-0.45162">
        <ele>266.07</ele>
        <time>2019-05-04T19:09:44.999Z</time>
      </trkpt>
      <trkpt lat="46.63324" lon="-0.45181">
        <ele>265.4</ele>
        <time>2019-05-04T19:09:46.999Z</time>
      </trkpt>
      <trkpt lat="46.63313" lon="-0.45195">
        <ele>264.32</ele>
        <time>2019-05-04T19:09:48.999Z</time>
      </trkpt>
      <trkpt lat="46.63302" lon="-0.45207">
        <ele>263.23</ele>
        <time>2019-05-04T19:09:50.999Z</time>
      </trkpt>
      <trkpt lat="46.6329" lon="-0.45213">
        <ele>262.38</ele>
        <time>2019-05-04T19:09:52.999Z</time>
      </trkpt>
      <trkpt lat="46.63277" lon="-0.45218">
        <ele>261.55</ele>
        <time>2019-05-04T19:09:54.999Z</time>
      </trkpt>
      <trkpt lat="46.63265" lon="-0.45223">
        <ele>260.71</ele>
        <time>2019-05-04T19:09:56.999Z</time>
      </trkpt>
      <trkpt lat="46.63256" lon="-0.45231">
        <ele>260.12</ele>
        <time>2019-05-04T19:09:58.999Z</time>
      </trkpt>
      <trkpt lat="46.63246" lon="-0.45238">
        <ele>260.01</ele>
        <time>2019-05-04T19:10:00.999Z</time>
      </trkpt>
      <trkpt lat="46.63236" lon="-0.45235">
        <ele>259.68</ele>
        <time>2019-05-04T19:10:02.999Z</time>
      </trkpt>
      <trkpt lat="46.63224" lon="-0.45231">
        <ele>259.39</ele>
        <time>2019-05-04T19:10:04.999Z</time>
      </trkpt>
      <trkpt lat="46.63213" lon="-0.45225">
        <ele>259.23</ele>
        <time>2019-05-04T19:10:06.999Z</time>
      </trkpt>
      <trkpt lat="46.63203" lon="-0.4522">
        <ele>259.08</ele>
        <time>2019-05-04T19:10:08.999Z</time>
      </trkpt>
      <trkpt lat="46.63193" lon="-0.45216">
        <ele>259.12</ele>
        <time>2019-05-04T19:10:10.999Z</time>
      </trkpt>
      <trkpt lat="46.63183" lon="-0.45212">
        <ele>259.46</ele>
        <time>2019-05-04T19:10:12.999Z</time>
      </trkpt>
      <trkpt lat="46.63173" lon="-0.45207">
        <ele>259.93</ele>
        <time>2019-05-04T19:10:14.999Z</time>
      </trkpt>
      <trkpt lat="46.63163" lon="-0.45203">
        <ele>260.42</ele>
        <time>2019-05-04T19:10:16.999Z</time>
      </trkpt>
      <trkpt lat="46.63153" lon="-0.45199">
        <ele>260.9</ele>
        <time>2019-05-04T19:10:18.999Z</time>
      </trkpt>
      <trkpt lat="46.63144" lon="-0.45195">
        <ele>261.37</ele>
        <time>2019-05-04T19:10:20.999Z</time>
      </trkpt>
      <trkpt lat="46.63134" lon="-0.45192">
        <ele>261.8</ele>
        <time>2019-05-04T19:10:22.999Z</time>
      </trkpt>
      <trkpt lat="46.63123" lon="-0.45188">
        <ele>262.15</ele>
        <time>2019-05-04T19:10:24.999Z</time>
      </trkpt>
      <trkpt lat="46.63113" lon="-0.45184">
        <ele>262.22</ele>
        <time>2019-05-04T19:10:26.999Z</time>
      </trkpt>
      <trkpt lat="46.63102" lon="-0.45181">
        <ele>262.5</ele>
        <time>2019-05-04T19:10:28.999Z</time>
      </trkpt>
      <trkpt lat="46.63092" lon="-0.45178">
        <ele>263.19</ele>
        <time>2019-05-04T19:10:30.999Z</time>
      </trkpt>
      <trkpt lat="46.63081" lon="-0.45178">
        <ele>263.72</ele>
        <time>2019-05-04T19:10:33.999Z</time>
      </trkpt>
      <trkpt lat="46.63086" lon="-0.45189">
        <ele>263.96</ele>
        <time>2019-05-04T19:10:49.999Z</time>
      </trkpt>
      <trkpt lat="46.63092" lon="-0.45201">
        <ele>264.11</ele>
        <time>2019-05-04T19:10:53.999Z</time>
      </trkpt>
      <trkpt lat="46.63096" lon="-0.45216">
        <ele>264.27</ele>
        <time>2019-05-04T19:10:56.999Z</time>
      </trkpt>
      <trkpt lat="46.63099" lon="-0.45231">
        <ele>264.58</ele>
        <time>2019-05-04T19:10:59.999Z</time>
      </trkpt>
      <trkpt lat="46.63102" lon="-0.45245">
        <ele>264.82</ele>
        <time>2019-05-04T19:11:02.999Z</time>
      </trkpt>
      <trkpt lat="46.63104" lon="-0.45259">
        <ele>265.1</ele>
        <time>2019-05-04T19:11:05.999Z</time>
      </trkpt>
      <trkpt lat="46.63106" lon="-0.45274">
        <ele>265.36</ele>
        <time>2019-05-04T19:11:08.999Z</time>
      </trkpt>
      <trkpt lat="46.6311" lon="-0.45289">
        <ele>265.5</ele>
        <time>2019-05-04T19:11:11.999Z</time>
      </trkpt>
      <trkpt lat="46.63113" lon="-0.45305">
        <ele>265.62</ele>
        <time>2019-05-04T19:11:14.999Z</time>
      </trkpt>
      <trkpt lat="46.63118" lon="-0.45323">
        <ele>265.86</ele>
        <time>2019-05-04T19:11:17.999Z</time>
      </trkpt>
      <trkpt lat="46.63123" lon="-0.45339">
        <ele>266.03</ele>
        <time>2019-05-04T19:11:20.999Z</time>
      </trkpt>
      <trkpt lat="46.63128" lon="-0.45355">
        <ele>266.19</ele>
        <time>2019-05-04T19:11:23.999Z</time>
      </trkpt>
      <trkpt lat="46.6313" lon="-0.45371">
        <ele>266.29</ele>
        <time>2019-05-04T19:11:26.999Z</time>
      </trkpt>
      <trkpt lat="46.63135" lon="-0.45391">
        <ele>266.38</ele>
        <time>2019-05-04T19:11:29.999Z</time>
      </trkpt>
      <trkpt lat="46.63137" lon="-0.45407">
        <ele>266.36</ele>
        <time>2019-05-04T19:11:32.999Z</time>
      </trkpt>
      <trkpt lat="46.63134" lon="-0.45423">
        <ele>266.31</ele>
        <time>2019-05-04T19:11:34.999Z</time>
      </trkpt>
      <trkpt lat="46.63129" lon="-0.45436">
        <ele>266.23</ele>
        <time>2019-05-04T19:11:36.999Z</time>
      </trkpt>
      <trkpt lat="46.63126" lon="-0.4545">
        <ele>266.15</ele>
        <time>2019-05-04T19:11:38.999Z</time>
      </trkpt>
      <trkpt lat="46.63124" lon="-0.45466">
        <ele>265.99</ele>
        <time>2019-05-04T19:11:42.999Z</time>
      </trkpt>
      <trkpt lat="46.63125" lon="-0.45482">
        <ele>265.91</ele>
        <time>2019-05-04T19:11:45.999Z</time>
      </trkpt>
      <trkpt lat="46.63121" lon="-0.45497">
        <ele>265.75</ele>
        <time>2019-05-04T19:11:49.999Z</time>
      </trkpt>
      <trkpt lat="46.63118" lon="-0.45511">
        <ele>265.54</ele>
        <time>2019-05-04T19:11:53.999Z</time>
      </trkpt>
      <trkpt lat="46.63108" lon="-0.45523">
        <ele>265.35</ele>
        <time>2019-05-04T19:11:57.999Z</time>
      </trkpt>
      <trkpt lat="46.63097" lon="-0.45529">
        <ele>265.17</ele>
        <time>2019-05-04T19:12:01.999Z</time>
      </trkpt>
      <trkpt lat="46.63085" lon="-0.45528">
        <ele>264.98</ele>
        <time>2019-05-04T19:12:05.999Z</time>
      </trkpt>
      <trkpt lat="46.63072" lon="-0.45525">
        <ele>264.91</ele>
        <time>2019-05-04T19:12:08.999Z</time>
      </trkpt>
      <trkpt lat="46.63062" lon="-0.45525">
        <ele>264.88</ele>
        <time>2019-05-04T19:12:10.999Z</time>
      </trkpt>
      <trkpt lat="46.63051" lon="-0.45524">
        <ele>264.81</ele>
        <time>2019-05-04T19:12:12.999Z</time>
      </trkpt>
      <trkpt lat="46.63041" lon="-0.45521">
        <ele>265.01</ele>
        <time>2019-05-04T19:12:14.999Z</time>
      </trkpt>
      <trkpt lat="46.6303" lon="-0.45516">
        <ele>265.03</ele>
        <time>2019-05-04T19:12:16.999Z</time>
      </trkpt>
      <trkpt lat="46.6302" lon="-0.45514">
        <ele>264.97</ele>
        <time>2019-05-04T19:12:18.999Z</time>
      </trkpt>
      <trkpt lat="46.6301" lon="-0.45513">
        <ele>264.78</ele>
        <time>2019-05-04T19:12:21.999Z</time>
      </trkpt>
      <trkpt lat="46.63001" lon="-0.4551">
        <ele>264.33</ele>
        <time>2019-05-04T19:12:25.999Z</time>
      </trkpt>
      <trkpt lat="46.6299" lon="-0.45513">
        <ele>264.02</ele>
        <time>2019-05-04T19:12:28.999Z</time>
      </trkpt>
      <trkpt lat="46.62979" lon="-0.45515">
        <ele>263.76</ele>
        <time>2019-05-04T19:12:31.999Z</time>
      </trkpt>
      <trkpt lat="46.6297" lon="-0.45518">
        <ele>263.33</ele>
        <time>2019-05-04T19:12:35.999Z</time>
      </trkpt>
      <trkpt lat="46.62963" lon="-0.45526">
        <ele>262.41</ele>
        <time>2019-05-04T19:12:41.999Z</time>
      </trkpt>
      <trkpt lat="46.62959" lon="-0.45539">
        <ele>261.85</ele>
        <time>2019-05-04T19:12:45.999Z</time>
      </trkpt>
      <trkpt lat="46.62956" lon="-0.45554">
        <ele>261.61</ele>
        <time>2019-05-04T19:12:48.999Z</time>
      </trkpt>
      <trkpt lat="46.6295" lon="-0.45567">
        <ele>261.53</ele>
        <time>2019-05-04T19:12:52.999Z</time>
      </trkpt>
      <trkpt lat="46.62945" lon="-0.45581">
        <ele>261.5</ele>
        <time>2019-05-04T19:12:55.999Z</time>
      </trkpt>
      <trkpt lat="46.62942" lon="-0.45595">
        <ele>261.42</ele>
        <time>2019-05-04T19:12:58.999Z</time>
      </trkpt>
      <trkpt lat="46.6294" lon="-0.45608">
        <ele>261.31</ele>
        <time>2019-05-04T19:13:01.999Z</time>
      </trkpt>
      <trkpt lat="46.62937" lon="-0.45624">
        <ele>261.22</ele>
        <time>2019-05-04T19:13:04.999Z</time>
      </trkpt>
      <trkpt lat="46.62935" lon="-0.45636">
        <ele>261.3</ele>
        <time>2019-05-04T19:13:07.999Z</time>
      </trkpt>
      <trkpt lat="46.62932" lon="-0.4565">
        <ele>261.7</ele>
        <time>2019-05-04T19:13:11.999Z</time>
      </trkpt>
      <trkpt lat="46.62927" lon="-0.45666">
        <ele>262.11</ele>
        <time>2019-05-04T19:13:15.999Z</time>
      </trkpt>
      <trkpt lat="46.62918" lon="-0.45674">
        <ele>262.18</ele>
        <time>2019-05-04T19:13:19.999Z</time>
      </trkpt>
      <trkpt lat="46.62909" lon="-0.45671">
        <ele>262.12</ele>
        <time>2019-05-04T19:13:22.999Z</time>
      </trkpt>
      <trkpt lat="46.62899" lon="-0.45668">
        <ele>261.72</ele>
        <time>2019-05-04T19:13:24.999Z</time>
      </trkpt>
      <trkpt lat="46.62888" lon="-0.45664">
        <ele>261.14</ele>
        <time>2019-05-04T19:13:26.999Z</time>
      </trkpt>
      <trkpt lat="46.62877" lon="-0.45659">
        <ele>261.03</ele>
        <time>2019-05-04T19:13:28.999Z</time>
      </trkpt>
      <trkpt lat="46.62867" lon="-0.45653">
        <ele>261.17</ele>
        <time>2019-05-04T19:13:30.999Z</time>
      </trkpt>
      <trkpt lat="46.62856" lon="-0.45646">
        <ele>261.07</ele>
        <time>2019-05-04T19:13:32.999Z</time>
      </trkpt>
      <trkpt lat="46.62843" lon="-0.45641">
        <ele>260.4</ele>
        <time>2019-05-04T19:13:34.999Z</time>
      </trkpt>
      <trkpt lat="46.62831" lon="-0.45642">
        <ele>259.29</ele>
        <time>2019-05-04T19:13:36.999Z</time>
      </trkpt>
      <trkpt lat="46.62822" lon="-0.45645">
        <ele>258.66</ele>
        <time>2019-05-04T19:13:38.999Z</time>
      </trkpt>
      <trkpt lat="46.62813" lon="-0.45656">
        <ele>258.63</ele>
        <time>2019-05-04T19:13:40.999Z</time>
      </trkpt>
      <trkpt lat="46.62803" lon="-0.45664">
        <ele>258.82</ele>
        <time>2019-05-04T19:13:42.999Z</time>
      </trkpt>
      <trkpt lat="46.62796" lon="-0.45673">
        <ele>258.62</ele>
        <time>2019-05-04T19:13:44.999Z</time>
      </trkpt>
      <trkpt lat="46.62795" lon="-0.4569">
        <ele>259.18</ele>
        <time>2019-05-04T19:13:47.999Z</time>
      </trkpt>
      <trkpt lat="46.62796" lon="-0.45707">
        <ele>259.29</ele>
        <time>2019-05-04T19:13:49.999Z</time>
      </trkpt>
      <trkpt lat="46.62795" lon="-0.45721">
        <ele>259.43</ele>
        <time>2019-05-04T19:13:51.999Z</time>
      </trkpt>
      <trkpt lat="46.62794" lon="-0.45737">
        <ele>259.24</ele>
        <time>2019-05-04T19:13:53.999Z</time>
      </trkpt>
      <trkpt lat="46.62793" lon="-0.45755">
        <ele>258.46</ele>
        <time>2019-05-04T19:13:55.999Z</time>
      </trkpt>
      <trkpt lat="46.6279" lon="-0.45772">
        <ele>258.18</ele>
        <time>2019-05-04T19:13:57.999Z</time>
      </trkpt>
      <trkpt lat="46.62783" lon="-0.45792">
        <ele>257.79</ele>
        <time>2019-05-04T19:13:59.999Z</time>
      </trkpt>
      <trkpt lat="46.62772" lon="-0.45809">
        <ele>257.63</ele>
        <time>2019-05-04T19:14:01.999Z</time>
      </trkpt>
      <trkpt lat="46.6276" lon="-0.45823">
        <ele>257.43</ele>
        <time>2019-05-04T19:14:03.999Z</time>
      </trkpt>
      <trkpt lat="46.62747" lon="-0.45833">
        <ele>256.91</ele>
        <time>2019-05-04T19:14:05.999Z</time>
      </trkpt>
      <trkpt lat="46.62733" lon="-0.45839">
        <ele>256.21</ele>
        <time>2019-05-04T19:14:07.999Z</time>
      </trkpt>
      <trkpt lat="46.6272" lon="-0.45847">
        <ele>255.57</ele>
        <time>2019-05-04T19:14:09.999Z</time>
      </trkpt>
      <trkpt lat="46.62709" lon="-0.4586">
        <ele>255.06</ele>
        <time>2019-05-04T19:14:11.999Z</time>
      </trkpt>
      <trkpt lat="46.62702" lon="-0.45874">
        <ele>254.83</ele>
        <time>2019-05-04T19:14:13.999Z</time>
      </trkpt>
      <trkpt lat="46.62697" lon="-0.4589">
        <ele>254.52</ele>
        <time>2019-05-04T19:14:15.999Z</time>
      </trkpt>
      <trkpt lat="46.62693" lon="-0.45909">
        <ele>254.58</ele>
        <time>2019-05-04T19:14:17.999Z</time>
      </trkpt>
      <trkpt lat="46.62687" lon="-0.45925">
        <ele>255</ele>
        <time>2019-05-04T19:14:19.999Z</time>
      </trkpt>
      <trkpt lat="46.62677" lon="-0.45938">
        <ele>255.52</ele>
        <time>2019-05-04T19:14:21.999Z</time>
      </trkpt>
      <trkpt lat="46.62668" lon="-0.45947">
        <ele>255.9</ele>
        <time>2019-05-04T19:14:23.999Z</time>
      </trkpt>
      <trkpt lat="46.62655" lon="-0.45951">
        <ele>255.86</ele>
        <time>2019-05-04T19:14:25.999Z</time>
      </trkpt>
      <trkpt lat="46.62641" lon="-0.45948">
        <ele>255.62</ele>
        <time>2019-05-04T19:14:27.999Z</time>
      </trkpt>
      <trkpt lat="46.62626" lon="-0.45945">
        <ele>255.26</ele>
        <time>2019-05-04T19:14:29.999Z</time>
      </trkpt>
      <trkpt lat="46.62612" lon="-0.45945">
        <ele>254.89</ele>
        <time>2019-05-04T19:14:31.999Z</time>
      </trkpt>
      <trkpt lat="46.626" lon="-0.45948">
        <ele>254.56</ele>
        <time>2019-05-04T19:14:33.999Z</time>
      </trkpt>
      <trkpt lat="46.62589" lon="-0.45954">
        <ele>254.51</ele>
        <time>2019-05-04T19:14:35.999Z</time>
      </trkpt>
      <trkpt lat="46.62579" lon="-0.45965">
        <ele>254.59</ele>
        <time>2019-05-04T19:14:37.999Z</time>
      </trkpt>
      <trkpt lat="46.62573" lon="-0.45977">
        <ele>255</ele>
        <time>2019-05-04T19:14:39.999Z</time>
      </trkpt>
      <trkpt lat="46.62568" lon="-0.45989">
        <ele>255.46</ele>
        <time>2019-05-04T19:14:41.999Z</time>
      </trkpt>
      <trkpt lat="46.62564" lon="-0.46007">
        <ele>256.82</ele>
        <time>2019-05-04T19:14:44.999Z</time>
      </trkpt>
      <trkpt lat="46.62561" lon="-0.46025">
        <ele>258.27</ele>
        <time>2019-05-04T19:14:47.999Z</time>
      </trkpt>
      <trkpt lat="46.62559" lon="-0.46038">
        <ele>259.22</ele>
        <time>2019-05-04T19:14:49.999Z</time>
      </trkpt>
      <trkpt lat="46.62557" lon="-0.46052">
        <ele>260.03</ele>
        <time>2019-05-04T19:14:51.999Z</time>
      </trkpt>
      <trkpt lat="46.62556" lon="-0.46068">
        <ele>260.55</ele>
        <time>2019-05-04T19:14:53.999Z</time>
      </trkpt>
      <trkpt lat="46.62554" lon="-0.46083">
        <ele>260.9</ele>
        <time>2019-05-04T19:14:55.999Z</time>
      </trkpt>
      <trkpt lat="46.62553" lon="-0.46099">
        <ele>261.21</ele>
        <time>2019-05-04T19:14:57.999Z</time>
      </trkpt>
      <trkpt lat="46.62552" lon="-0.46114">
        <ele>261.62</ele>
        <time>2019-05-04T19:14:59.999Z</time>
      </trkpt>
      <trkpt lat="46.6255" lon="-0.46129">
        <ele>262</ele>
        <time>2019-05-04T19:15:01.999Z</time>
      </trkpt>
      <trkpt lat="46.62548" lon="-0.46142">
        <ele>262.28</ele>
        <time>2019-05-04T19:15:03.999Z</time>
      </trkpt>
      <trkpt lat="46.62544" lon="-0.46155">
        <ele>262.73</ele>
        <time>2019-05-04T19:15:05.999Z</time>
      </trkpt>
      <trkpt lat="46.62539" lon="-0.46165">
        <ele>263.2</ele>
        <time>2019-05-04T19:15:07.999Z</time>
      </trkpt>
      <trkpt lat="46.6253" lon="-0.46173">
        <ele>263.73</ele>
        <time>2019-05-04T19:15:09.999Z</time>
      </trkpt>
      <trkpt lat="46.62519" lon="-0.46179">
        <ele>264.24</ele>
        <time>2019-05-04T19:15:11.999Z</time>
      </trkpt>
      <trkpt lat="46.62509" lon="-0.46182">
        <ele>264.52</ele>
        <time>2019-05-04T19:15:13.999Z</time>
      </trkpt>
      <trkpt lat="46.62499" lon="-0.46184">
        <ele>264.19</ele>
        <time>2019-05-04T19:15:15.999Z</time>
      </trkpt>
      <trkpt lat="46.62489" lon="-0.46185">
        <ele>264.39</ele>
        <time>2019-05-04T19:15:17.999Z</time>
      </trkpt>
      <trkpt lat="46.62476" lon="-0.46187">
        <ele>264.8</ele>
        <time>2019-05-04T19:15:20.999Z</time>
      </trkpt>
      <trkpt lat="46.62467" lon="-0.46188">
        <ele>264.85</ele>
        <time>2019-05-04T19:15:22.999Z</time>
      </trkpt>
      <trkpt lat="46.62455" lon="-0.4619">
        <ele>265.01</ele>
        <time>2019-05-04T19:15:25.999Z</time>
      </trkpt>
      <trkpt lat="46.62446" lon="-0.46193">
        <ele>264.52</ele>
        <time>2019-05-04T19:15:27.999Z</time>
      </trkpt>
      <trkpt lat="46.62434" lon="-0.46193">
        <ele>263.89</ele>
        <time>2019-05-04T19:15:30.999Z</time>
      </trkpt>
      <trkpt lat="46.62422" lon="-0.46191">
        <ele>263.9</ele>
        <time>2019-05-04T19:15:33.999Z</time>
      </trkpt>
      <trkpt lat="46.62413" lon="-0.4619">
        <ele>263.85</ele>
        <time>2019-05-04T19:15:35.999Z</time>
      </trkpt>
      <trkpt lat="46.62401" lon="-0.4619">
        <ele>263.41</ele>
        <time>2019-05-04T19:15:38.999Z</time>
      </trkpt>
      <trkpt lat="46.62389" lon="-0.46191">
        <ele>264.91</ele>
        <time>2019-05-04T19:15:41.999Z</time>
      </trkpt>
      <trkpt lat="46.62378" lon="-0.46191">
        <ele>265.86</ele>
        <time>2019-05-04T19:15:44.999Z</time>
      </trkpt>
      <trkpt lat="46.62367" lon="-0.4619">
        <ele>266.12</ele>
        <time>2019-05-04T19:15:47.999Z</time>
      </trkpt>
      <trkpt lat="46.62358" lon="-0.46189">
        <ele>266.39</ele>
        <time>2019-05-04T19:15:50.999Z</time>
      </trkpt>
      <trkpt lat="46.62347" lon="-0.46188">
        <ele>266.55</ele>
        <time>2019-05-04T19:15:53.999Z</time>
      </trkpt>
      <trkpt lat="46.62337" lon="-0.46187">
        <ele>266.73</ele>
        <time>2019-05-04T19:15:56.999Z</time>
      </trkpt>
      <trkpt lat="46.62326" lon="-0.46187">
        <ele>267.34</ele>
        <time>2019-05-04T19:15:59.999Z</time>
      </trkpt>
      <trkpt lat="46.62314" lon="-0.46186">
        <ele>267.79</ele>
        <time>2019-05-04T19:16:02.999Z</time>
      </trkpt>
      <trkpt lat="46.62301" lon="-0.46185">
        <ele>267.84</ele>
        <time>2019-05-04T19:16:05.999Z</time>
      </trkpt>
      <trkpt lat="46.62289" lon="-0.46184">
        <ele>267.7</ele>
        <time>2019-05-04T19:16:08.999Z</time>
      </trkpt>
      <trkpt lat="46.62285" lon="-0.46171">
        <ele>267.51</ele>
        <time>2019-05-04T19:16:12.999Z</time>
      </trkpt>
      <trkpt lat="46.62293" lon="-0.46165">
        <ele>267.31</ele>
        <time>2019-05-04T19:16:14.999Z</time>
      </trkpt>
      <trkpt lat="46.62302" lon="-0.46156">
        <ele>265.73</ele>
        <time>2019-05-04T19:16:16.999Z</time>
      </trkpt>
      <trkpt lat="46.62314" lon="-0.46144">
        <ele>265.31</ele>
        <time>2019-05-04T19:16:19.999Z</time>
      </trkpt>
      <trkpt lat="46.62322" lon="-0.46133">
        <ele>265.77</ele>
        <time>2019-05-04T19:16:21.999Z</time>
      </trkpt>
      <trkpt lat="46.62325" lon="-0.46118">
        <ele>265.89</ele>
        <time>2019-05-04T19:16:24.999Z</time>
      </trkpt>
      <trkpt lat="46.62327" lon="-0.46101">
        <ele>265.9</ele>
        <time>2019-05-04T19:16:27.999Z</time>
      </trkpt>
      <trkpt lat="46.6233" lon="-0.46085">
        <ele>265.81</ele>
        <time>2019-05-04T19:16:30.999Z</time>
      </trkpt>
      <trkpt lat="46.62333" lon="-0.46068">
        <ele>265.71</ele>
        <time>2019-05-04T19:16:33.999Z</time>
      </trkpt>
      <trkpt lat="46.62337" lon="-0.46051">
        <ele>265.7</ele>
        <time>2019-05-04T19:16:36.999Z</time>
      </trkpt>
      <trkpt lat="46.62341" lon="-0.46036">
        <ele>265.63</ele>
        <time>2019-05-04T19:16:39.999Z</time>
      </trkpt>
      <trkpt lat="46.62343" lon="-0.46022">
        <ele>265.54</ele>
        <time>2019-05-04T19:16:41.999Z</time>
      </trkpt>
      <trkpt lat="46.62345" lon="-0.46006">
        <ele>265.4</ele>
        <time>2019-05-04T19:16:43.999Z</time>
      </trkpt>
      <trkpt lat="46.62347" lon="-0.45992">
        <ele>265.2</ele>
        <time>2019-05-04T19:16:45.999Z</time>
      </trkpt>
      <trkpt lat="46.62348" lon="-0.45976">
        <ele>264.83</ele>
        <time>2019-05-04T19:16:48.999Z</time>
      </trkpt>
      <trkpt lat="46.62341" lon="-0.45968">
        <ele>264.42</ele>
        <time>2019-05-04T19:16:51.999Z</time>
      </trkpt>
      <trkpt lat="46.62331" lon="-0.45962">
        <ele>263.99</ele>
        <time>2019-05-04T19:16:54.999Z</time>
      </trkpt>
      <trkpt lat="46.62323" lon="-0.45953">
        <ele>263.77</ele>
        <time>2019-05-04T19:16:56.999Z</time>
      </trkpt>
      <trkpt lat="46.62318" lon="-0.45941">
        <ele>263.58</ele>
        <time>2019-05-04T19:16:58.999Z</time>
      </trkpt>
      <trkpt lat="46.62313" lon="-0.45927">
        <ele>263.35</ele>
        <time>2019-05-04T19:17:00.999Z</time>
      </trkpt>
      <trkpt lat="46.62308" lon="-0.45912">
        <ele>261.32</ele>
        <time>2019-05-04T19:17:02.999Z</time>
      </trkpt>
      <trkpt lat="46.62304" lon="-0.45899">
        <ele>259.95</ele>
        <time>2019-05-04T19:17:04.999Z</time>
      </trkpt>
      <trkpt lat="46.623" lon="-0.45881">
        <ele>258.29</ele>
        <time>2019-05-04T19:17:06.999Z</time>
      </trkpt>
      <trkpt lat="46.62296" lon="-0.45865">
        <ele>256.44</ele>
        <time>2019-05-04T19:17:08.999Z</time>
      </trkpt>
      <trkpt lat="46.62293" lon="-0.45849">
        <ele>255.38</ele>
        <time>2019-05-04T19:17:10.999Z</time>
      </trkpt>
      <trkpt lat="46.6229" lon="-0.45832">
        <ele>253.96</ele>
        <time>2019-05-04T19:17:12.999Z</time>
      </trkpt>
      <trkpt lat="46.62288" lon="-0.45818">
        <ele>253.21</ele>
        <time>2019-05-04T19:17:14.999Z</time>
      </trkpt>
      <trkpt lat="46.62285" lon="-0.45803">
        <ele>253.4</ele>
        <time>2019-05-04T19:17:16.999Z</time>
      </trkpt>
      <trkpt lat="46.62285" lon="-0.45788">
        <ele>254.22</ele>
        <time>2019-05-04T19:17:18.999Z</time>
      </trkpt>
      <trkpt lat="46.62289" lon="-0.45773">
        <ele>255.14</ele>
        <time>2019-05-04T19:17:20.999Z</time>
      </trkpt>
      <trkpt lat="46.62291" lon="-0.4576">
        <ele>256.04</ele>
        <time>2019-05-04T19:17:22.999Z</time>
      </trkpt>
      <trkpt lat="46.62287" lon="-0.45744">
        <ele>256.54</ele>
        <time>2019-05-04T19:17:26.999Z</time>
      </trkpt>
      <trkpt lat="46.62287" lon="-0.45727">
        <ele>256.87</ele>
        <time>2019-05-04T19:17:29.999Z</time>
      </trkpt>
      <trkpt lat="46.62296" lon="-0.45713">
        <ele>259.41</ele>
        <time>2019-05-04T19:17:32.999Z</time>
      </trkpt>
      <trkpt lat="46.62302" lon="-0.45703">
        <ele>260.62</ele>
        <time>2019-05-04T19:17:34.999Z</time>
      </trkpt>
      <trkpt lat="46.6231" lon="-0.45691">
        <ele>261.64</ele>
        <time>2019-05-04T19:17:37.999Z</time>
      </trkpt>
      <trkpt lat="46.62317" lon="-0.45677">
        <ele>262.17</ele>
        <time>2019-05-04T19:17:40.999Z</time>
      </trkpt>
      <trkpt lat="46.62325" lon="-0.45665">
        <ele>261.73</ele>
        <time>2019-05-04T19:17:42.999Z</time>
      </trkpt>
      <trkpt lat="46.62333" lon="-0.45651">
        <ele>260.77</ele>
        <time>2019-05-04T19:17:45.999Z</time>
      </trkpt>
      <trkpt lat="46.62344" lon="-0.45637">
        <ele>260.1</ele>
        <time>2019-05-04T19:17:48.999Z</time>
      </trkpt>
      <trkpt lat="46.6235" lon="-0.45626">
        <ele>259.88</ele>
        <time>2019-05-04T19:17:50.999Z</time>
      </trkpt>
      <trkpt lat="46.62357" lon="-0.45615">
        <ele>259.95</ele>
        <time>2019-05-04T19:17:52.999Z</time>
      </trkpt>
      <trkpt lat="46.62365" lon="-0.456">
        <ele>259.72</ele>
        <time>2019-05-04T19:17:55.999Z</time>
      </trkpt>
      <trkpt lat="46.62361" lon="-0.45583">
        <ele>259.77</ele>
        <time>2019-05-04T19:17:58.999Z</time>
      </trkpt>
      <trkpt lat="46.62353" lon="-0.45572">
        <ele>259.92</ele>
        <time>2019-05-04T19:18:01.999Z</time>
      </trkpt>
      <trkpt lat="46.62344" lon="-0.45562">
        <ele>260.22</ele>
        <time>2019-05-04T19:18:04.999Z</time>
      </trkpt>
      <trkpt lat="46.62338" lon="-0.45547">
        <ele>260.65</ele>
        <time>2019-05-04T19:18:07.999Z</time>
      </trkpt>
      <trkpt lat="46.62327" lon="-0.45538">
        <ele>261.01</ele>
        <time>2019-05-04T19:18:10.999Z</time>
      </trkpt>
      <trkpt lat="46.62316" lon="-0.45536">
        <ele>262.6</ele>
        <time>2019-05-04T19:18:13.999Z</time>
      </trkpt>
      <trkpt lat="46.62304" lon="-0.45534">
        <ele>262.94</ele>
        <time>2019-05-04T19:18:16.999Z</time>
      </trkpt>
      <trkpt lat="46.62292" lon="-0.45531">
        <ele>263.23</ele>
        <time>2019-05-04T19:18:19.999Z</time>
      </trkpt>
      <trkpt lat="46.62281" lon="-0.45528">
        <ele>263.5</ele>
        <time>2019-05-04T19:18:22.999Z</time>
      </trkpt>
      <trkpt lat="46.62271" lon="-0.45525">
        <ele>263.79</ele>
        <time>2019-05-04T19:18:25.999Z</time>
      </trkpt>
      <trkpt lat="46.6226" lon="-0.45523">
        <ele>264.1</ele>
        <time>2019-05-04T19:18:28.999Z</time>
      </trkpt>
      <trkpt lat="46.62248" lon="-0.4552">
        <ele>266.06</ele>
        <time>2019-05-04T19:18:31.999Z</time>
      </trkpt>
      <trkpt lat="46.62236" lon="-0.45519">
        <ele>266.68</ele>
        <time>2019-05-04T19:18:34.999Z</time>
      </trkpt>
      <trkpt lat="46.62225" lon="-0.45517">
        <ele>266.81</ele>
        <time>2019-05-04T19:18:37.999Z</time>
      </trkpt>
      <trkpt lat="46.62214" lon="-0.45515">
        <ele>267.63</ele>
        <time>2019-05-04T19:18:40.999Z</time>
      </trkpt>
      <trkpt lat="46.62201" lon="-0.45511">
        <ele>268.08</ele>
        <time>2019-05-04T19:18:43.999Z</time>
      </trkpt>
      <trkpt lat="46.62192" lon="-0.45506">
        <ele>268.23</ele>
        <time>2019-05-04T19:18:46.999Z</time>
      </trkpt>
      <trkpt lat="46.62181" lon="-0.45498">
        <ele>269.53</ele>
        <time>2019-05-04T19:18:49.999Z</time>
      </trkpt>
      <trkpt lat="46.62171" lon="-0.4549">
        <ele>270.06</ele>
        <time>2019-05-04T19:18:52.999Z</time>
      </trkpt>
      <trkpt lat="46.62161" lon="-0.45483">
        <ele>270.19</ele>
        <time>2019-05-04T19:18:55.999Z</time>
      </trkpt>
      <trkpt lat="46.62154" lon="-0.45474">
        <ele>270.35</ele>
        <time>2019-05-04T19:18:58.999Z</time>
      </trkpt>
      <trkpt lat="46.62145" lon="-0.45464">
        <ele>270.55</ele>
        <time>2019-05-04T19:19:01.999Z</time>
      </trkpt>
      <trkpt lat="46.62135" lon="-0.45453">
        <ele>271.98</ele>
        <time>2019-05-04T19:19:04.999Z</time>
      </trkpt>
      <trkpt lat="46.62128" lon="-0.45444">
        <ele>272.03</ele>
        <time>2019-05-04T19:19:06.999Z</time>
      </trkpt>
      <trkpt lat="46.62122" lon="-0.45434">
        <ele>271.83</ele>
        <time>2019-05-04T19:19:08.999Z</time>
      </trkpt>
      <trkpt lat="46.62114" lon="-0.45421">
        <ele>271.67</ele>
        <time>2019-05-04T19:19:10.999Z</time>
      </trkpt>
      <trkpt lat="46.62108" lon="-0.45409">
        <ele>271.37</ele>
        <time>2019-05-04T19:19:12.999Z</time>
      </trkpt>
      <trkpt lat="46.62098" lon="-0.45394">
        <ele>271.82</ele>
        <time>2019-05-04T19:19:15.999Z</time>
      </trkpt>
      <trkpt lat="46.62091" lon="-0.45383">
        <ele>272.52</ele>
        <time>2019-05-04T19:19:17.999Z</time>
      </trkpt>
      <trkpt lat="46.62084" lon="-0.45372">
        <ele>273.45</ele>
        <time>2019-05-04T19:19:19.999Z</time>
      </trkpt>
      <trkpt lat="46.62077" lon="-0.45362">
        <ele>273.9</ele>
        <time>2019-05-04T19:19:21.999Z</time>
      </trkpt>
      <trkpt lat="46.62069" lon="-0.45351">
        <ele>273.54</ele>
        <time>2019-05-04T19:19:23.999Z</time>
      </trkpt>
      <trkpt lat="46.62059" lon="-0.45347">
        <ele>272.94</ele>
        <time>2019-05-04T19:19:25.999Z</time>
      </trkpt>
      <trkpt lat="46.6205" lon="-0.45354">
        <ele>272.42</ele>
        <time>2019-05-04T19:19:27.999Z</time>
      </trkpt>
      <trkpt lat="46.62048" lon="-0.45367">
        <ele>272.34</ele>
        <time>2019-05-04T19:19:29.999Z</time>
      </trkpt>
      <trkpt lat="46.62049" lon="-0.45381">
        <ele>272.75</ele>
        <time>2019-05-04T19:19:31.999Z</time>
      </trkpt>
      <trkpt lat="46.62047" lon="-0.45398">
        <ele>273.02</ele>
        <time>2019-05-04T19:19:33.999Z</time>
      </trkpt>
      <trkpt lat="46.62045" lon="-0.45411">
        <ele>273.56</ele>
        <time>2019-05-04T19:19:35.999Z</time>
      </trkpt>
      <trkpt lat="46.62041" lon="-0.45426">
        <ele>274.9</ele>
        <time>2019-05-04T19:19:37.999Z</time>
      </trkpt>
      <trkpt lat="46.62037" lon="-0.45441">
        <ele>275.79</ele>
        <time>2019-05-04T19:19:39.999Z</time>
      </trkpt>
      <trkpt lat="46.62032" lon="-0.45454">
        <ele>275.7</ele>
        <time>2019-05-04T19:19:41.999Z</time>
      </trkpt>
      <trkpt lat="46.62028" lon="-0.45466">
        <ele>275.58</ele>
        <time>2019-05-04T19:19:43.999Z</time>
      </trkpt>
      <trkpt lat="46.62023" lon="-0.45479">
        <ele>275.37</ele>
        <time>2019-05-04T19:19:45.999Z</time>
      </trkpt>
      <trkpt lat="46.62016" lon="-0.45493">
        <ele>274.72</ele>
        <time>2019-05-04T19:19:47.999Z</time>
      </trkpt>
      <trkpt lat="46.62009" lon="-0.45507">
        <ele>274.65</ele>
        <time>2019-05-04T19:19:49.999Z</time>
      </trkpt>
      <trkpt lat="46.62002" lon="-0.45519">
        <ele>274.65</ele>
        <time>2019-05-04T19:19:51.999Z</time>
      </trkpt>
      <trkpt lat="46.61994" lon="-0.45534">
        <ele>275.48</ele>
        <time>2019-05-04T19:19:53.999Z</time>
      </trkpt>
      <trkpt lat="46.61986" lon="-0.45547">
        <ele>276.62</ele>
        <time>2019-05-04T19:19:55.999Z</time>
      </trkpt>
      <trkpt lat="46.61979" lon="-0.45559">
        <ele>276.82</ele>
        <time>2019-05-04T19:19:57.999Z</time>
      </trkpt>
      <trkpt lat="46.61973" lon="-0.45571">
        <ele>277.72</ele>
        <time>2019-05-04T19:19:59.999Z</time>
      </trkpt>
      <trkpt lat="46.61966" lon="-0.45587">
        <ele>279.64</ele>
        <time>2019-05-04T19:20:02.999Z</time>
      </trkpt>
      <trkpt lat="46.6196" lon="-0.45599">
        <ele>280.78</ele>
        <time>2019-05-04T19:20:04.999Z</time>
      </trkpt>
      <trkpt lat="46.61953" lon="-0.45612">
        <ele>281.5</ele>
        <time>2019-05-04T19:20:06.999Z</time>
      </trkpt>
      <trkpt lat="46.61946" lon="-0.45624">
        <ele>281.95</ele>
        <time>2019-05-04T19:20:08.999Z</time>
      </trkpt>
      <trkpt lat="46.61939" lon="-0.45634">
        <ele>281.55</ele>
        <time>2019-05-04T19:20:10.999Z</time>
      </trkpt>
      <trkpt lat="46.61932" lon="-0.45645">
        <ele>280.89</ele>
        <time>2019-05-04T19:20:12.999Z</time>
      </trkpt>
      <trkpt lat="46.61927" lon="-0.45658">
        <ele>280.14</ele>
        <time>2019-05-04T19:20:14.999Z</time>
      </trkpt>
      <trkpt lat="46.61922" lon="-0.45672">
        <ele>279.23</ele>
        <time>2019-05-04T19:20:16.999Z</time>
      </trkpt>
      <trkpt lat="46.61917" lon="-0.45685">
        <ele>278.4</ele>
        <time>2019-05-04T19:20:18.999Z</time>
      </trkpt>
      <trkpt lat="46.61913" lon="-0.45701">
        <ele>277.8</ele>
        <time>2019-05-04T19:20:20.999Z</time>
      </trkpt>
      <trkpt lat="46.61909" lon="-0.45714">
        <ele>277.42</ele>
        <time>2019-05-04T19:20:22.999Z</time>
      </trkpt>
      <trkpt lat="46.61906" lon="-0.45728">
        <ele>276.98</ele>
        <time>2019-05-04T19:20:24.999Z</time>
      </trkpt>
      <trkpt lat="46.61902" lon="-0.45745">
        <ele>276.63</ele>
        <time>2019-05-04T19:20:27.999Z</time>
      </trkpt>
      <trkpt lat="46.61899" lon="-0.45757">
        <ele>276.59</ele>
        <time>2019-05-04T19:20:29.999Z</time>
      </trkpt>
      <trkpt lat="46.61895" lon="-0.45769">
        <ele>276.7</ele>
        <time>2019-05-04T19:20:32.999Z</time>
      </trkpt>
      <trkpt lat="46.61892" lon="-0.45784">
        <ele>276.84</ele>
        <time>2019-05-04T19:20:37.999Z</time>
      </trkpt>
      <trkpt lat="46.61886" lon="-0.45798">
        <ele>276.92</ele>
        <time>2019-05-04T19:20:42.999Z</time>
      </trkpt>
      <trkpt lat="46.61885" lon="-0.45813">
        <ele>276.97</ele>
        <time>2019-05-04T19:20:46.999Z</time>
      </trkpt>
      <trkpt lat="46.61879" lon="-0.45828">
        <ele>276.8</ele>
        <time>2019-05-04T19:20:49.999Z</time>
      </trkpt>
      <trkpt lat="46.61871" lon="-0.45843">
        <ele>276.05</ele>
        <time>2019-05-04T19:20:52.999Z</time>
      </trkpt>
      <trkpt lat="46.61867" lon="-0.45856">
        <ele>275.32</ele>
        <time>2019-05-04T19:20:54.999Z</time>
      </trkpt>
      <trkpt lat="46.61863" lon="-0.45874">
        <ele>275.29</ele>
        <time>2019-05-04T19:20:57.999Z</time>
      </trkpt>
      <trkpt lat="46.6186" lon="-0.45887">
        <ele>275.56</ele>
        <time>2019-05-04T19:20:59.999Z</time>
      </trkpt>
      <trkpt lat="46.61857" lon="-0.459">
        <ele>275.71</ele>
        <time>2019-05-04T19:21:01.999Z</time>
      </trkpt>
      <trkpt lat="46.61855" lon="-0.45913">
        <ele>275.92</ele>
        <time>2019-05-04T19:21:03.999Z</time>
      </trkpt>
      <trkpt lat="46.61851" lon="-0.45933">
        <ele>276.3</ele>
        <time>2019-05-04T19:21:06.999Z</time>
      </trkpt>
      <trkpt lat="46.6185" lon="-0.45946">
        <ele>276.49</ele>
        <time>2019-05-04T19:21:08.999Z</time>
      </trkpt>
      <trkpt lat="46.61847" lon="-0.4596">
        <ele>277.13</ele>
        <time>2019-05-04T19:21:10.999Z</time>
      </trkpt>
      <trkpt lat="46.61845" lon="-0.45976">
        <ele>277.64</ele>
        <time>2019-05-04T19:21:12.999Z</time>
      </trkpt>
      <trkpt lat="46.61842" lon="-0.45992">
        <ele>277.81</ele>
        <time>2019-05-04T19:21:14.999Z</time>
      </trkpt>
      <trkpt lat="46.6184" lon="-0.46007">
        <ele>277.74</ele>
        <time>2019-05-04T19:21:16.999Z</time>
      </trkpt>
      <trkpt lat="46.61839" lon="-0.46025">
        <ele>277.3</ele>
        <time>2019-05-04T19:21:18.999Z</time>
      </trkpt>
      <trkpt lat="46.61835" lon="-0.46043">
        <ele>277.14</ele>
        <time>2019-05-04T19:21:20.999Z</time>
      </trkpt>
      <trkpt lat="46.61831" lon="-0.46059">
        <ele>276.75</ele>
        <time>2019-05-04T19:21:22.999Z</time>
      </trkpt>
      <trkpt lat="46.61825" lon="-0.46072">
        <ele>276.23</ele>
        <time>2019-05-04T19:21:24.999Z</time>
      </trkpt>
      <trkpt lat="46.61817" lon="-0.46084">
        <ele>276.09</ele>
        <time>2019-05-04T19:21:26.999Z</time>
      </trkpt>
      <trkpt lat="46.61808" lon="-0.46094">
        <ele>275.72</ele>
        <time>2019-05-04T19:21:28.999Z</time>
      </trkpt>
      <trkpt lat="46.618" lon="-0.46104">
        <ele>275.59</ele>
        <time>2019-05-04T19:21:30.999Z</time>
      </trkpt>
      <trkpt lat="46.61791" lon="-0.46116">
        <ele>275.35</ele>
        <time>2019-05-04T19:21:32.999Z</time>
      </trkpt>
      <trkpt lat="46.6178" lon="-0.46128">
        <ele>275.32</ele>
        <time>2019-05-04T19:21:34.999Z</time>
      </trkpt>
      <trkpt lat="46.61771" lon="-0.46139">
        <ele>275.89</ele>
        <time>2019-05-04T19:21:36.999Z</time>
      </trkpt>
      <trkpt lat="46.61762" lon="-0.46151">
        <ele>276.86</ele>
        <time>2019-05-04T19:21:38.999Z</time>
      </trkpt>
      <trkpt lat="46.61753" lon="-0.46163">
        <ele>278.1</ele>
        <time>2019-05-04T19:21:40.999Z</time>
      </trkpt>
      <trkpt lat="46.61744" lon="-0.46174">
        <ele>279.13</ele>
        <time>2019-05-04T19:21:42.999Z</time>
      </trkpt>
      <trkpt lat="46.61735" lon="-0.46185">
        <ele>279.87</ele>
        <time>2019-05-04T19:21:44.999Z</time>
      </trkpt>
      <trkpt lat="46.61726" lon="-0.46197">
        <ele>280.78</ele>
        <time>2019-05-04T19:21:46.999Z</time>
      </trkpt>
      <trkpt lat="46.61717" lon="-0.46209">
        <ele>281.63</ele>
        <time>2019-05-04T19:21:48.999Z</time>
      </trkpt>
      <trkpt lat="46.61708" lon="-0.4622">
        <ele>282.31</ele>
        <time>2019-05-04T19:21:50.999Z</time>
      </trkpt>
      <trkpt lat="46.617" lon="-0.4623">
        <ele>283.05</ele>
        <time>2019-05-04T19:21:52.999Z</time>
      </trkpt>
      <trkpt lat="46.61693" lon="-0.4624">
        <ele>283.13</ele>
        <time>2019-05-04T19:21:54.999Z</time>
      </trkpt>
      <trkpt lat="46.61684" lon="-0.46252">
        <ele>283.61</ele>
        <time>2019-05-04T19:21:56.999Z</time>
      </trkpt>
      <trkpt lat="46.61676" lon="-0.46263">
        <ele>283.99</ele>
        <time>2019-05-04T19:21:58.999Z</time>
      </trkpt>
      <trkpt lat="46.61668" lon="-0.46274">
        <ele>284.05</ele>
        <time>2019-05-04T19:22:00.999Z</time>
      </trkpt>
      <trkpt lat="46.61661" lon="-0.46283">
        <ele>284.25</ele>
        <time>2019-05-04T19:22:02.999Z</time>
      </trkpt>
      <trkpt lat="46.61654" lon="-0.46295">
        <ele>284.55</ele>
        <time>2019-05-04T19:22:04.999Z</time>
      </trkpt>
      <trkpt lat="46.61647" lon="-0.46308">
        <ele>284.46</ele>
        <time>2019-05-04T19:22:06.999Z</time>
      </trkpt>
      <trkpt lat="46.61643" lon="-0.46324">
        <ele>284.41</ele>
        <time>2019-05-04T19:22:08.999Z</time>
      </trkpt>
      <trkpt lat="46.6164" lon="-0.46341">
        <ele>284.68</ele>
        <time>2019-05-04T19:22:10.999Z</time>
      </trkpt>
      <trkpt lat="46.61638" lon="-0.46359">
        <ele>284.76</ele>
        <time>2019-05-04T19:22:12.999Z</time>
      </trkpt>
      <trkpt lat="46.61636" lon="-0.46376">
        <ele>284.66</ele>
        <time>2019-05-04T19:22:14.999Z</time>
      </trkpt>
      <trkpt lat="46.61634" lon="-0.46393">
        <ele>284.21</ele>
        <time>2019-05-04T19:22:16.999Z</time>
      </trkpt>
      <trkpt lat="46.61632" lon="-0.4641">
        <ele>283.98</ele>
        <time>2019-05-04T19:22:18.999Z</time>
      </trkpt>
      <trkpt lat="46.6163" lon="-0.46426">
        <ele>283.97</ele>
        <time>2019-05-04T19:22:20.999Z</time>
      </trkpt>
      <trkpt lat="46.61627" lon="-0.46443">
        <ele>283.92</ele>
        <time>2019-05-04T19:22:22.999Z</time>
      </trkpt>
      <trkpt lat="46.61625" lon="-0.46459">
        <ele>283.87</ele>
        <time>2019-05-04T19:22:24.999Z</time>
      </trkpt>
      <trkpt lat="46.61622" lon="-0.46475">
        <ele>283.89</ele>
        <time>2019-05-04T19:22:26.999Z</time>
      </trkpt>
      <trkpt lat="46.61613" lon="-0.46488">
        <ele>283.85</ele>
        <time>2019-05-04T19:22:28.999Z</time>
      </trkpt>
      <trkpt lat="46.61601" lon="-0.46495">
        <ele>283.75</ele>
        <time>2019-05-04T19:22:30.999Z</time>
      </trkpt>
      <trkpt lat="46.61587" lon="-0.46502">
        <ele>283.81</ele>
        <time>2019-05-04T19:22:32.999Z</time>
      </trkpt>
      <trkpt lat="46.61572" lon="-0.46508">
        <ele>283.68</ele>
        <time>2019-05-04T19:22:34.999Z</time>
      </trkpt>
      <trkpt lat="46.61556" lon="-0.46516">
        <ele>283.41</ele>
        <time>2019-05-04T19:22:36.999Z</time>
      </trkpt>
      <trkpt lat="46.61539" lon="-0.46522">
        <ele>283.16</ele>
        <time>2019-05-04T19:22:38.999Z</time>
      </trkpt>
      <trkpt lat="46.6153" lon="-0.46526">
        <ele>283.01</ele>
        <time>2019-05-04T19:22:39.999Z</time>
      </trkpt>
      <trkpt lat="46.61522" lon="-0.46529">
        <ele>282.84</ele>
        <time>2019-05-04T19:22:40.999Z</time>
      </trkpt>
      <trkpt lat="46.61513" lon="-0.46533">
        <ele>282.64</ele>
        <time>2019-05-04T19:22:41.999Z</time>
      </trkpt>
      <trkpt lat="46.61504" lon="-0.46536">
        <ele>282.43</ele>
        <time>2019-05-04T19:22:42.999Z</time>
      </trkpt>
      <trkpt lat="46.61495" lon="-0.4654">
        <ele>282.26</ele>
        <time>2019-05-04T19:22:43.999Z</time>
      </trkpt>
      <trkpt lat="46.61478" lon="-0.4654">
        <ele>281.95</ele>
        <time>2019-05-04T19:22:45.999Z</time>
      </trkpt>
      <trkpt lat="46.61462" lon="-0.46538">
        <ele>281.51</ele>
        <time>2019-05-04T19:22:47.999Z</time>
      </trkpt>
      <trkpt lat="46.61446" lon="-0.46536">
        <ele>281.14</ele>
        <time>2019-05-04T19:22:49.999Z</time>
      </trkpt>
      <trkpt lat="46.61432" lon="-0.46534">
        <ele>281.03</ele>
        <time>2019-05-04T19:22:51.999Z</time>
      </trkpt>
      <trkpt lat="46.61418" lon="-0.46532">
        <ele>280.93</ele>
        <time>2019-05-04T19:22:53.999Z</time>
      </trkpt>
      <trkpt lat="46.61406" lon="-0.4653">
        <ele>280.94</ele>
        <time>2019-05-04T19:22:55.999Z</time>
      </trkpt>
      <trkpt lat="46.61396" lon="-0.46529">
        <ele>280.99</ele>
        <time>2019-05-04T19:22:57.999Z</time>
      </trkpt>
      <trkpt lat="46.61385" lon="-0.46528">
        <ele>281.1</ele>
        <time>2019-05-04T19:22:59.999Z</time>
      </trkpt>
      <trkpt lat="46.61374" lon="-0.46527">
        <ele>281.4</ele>
        <time>2019-05-04T19:23:01.999Z</time>
      </trkpt>
      <trkpt lat="46.61363" lon="-0.46527">
        <ele>281.7</ele>
        <time>2019-05-04T19:23:03.999Z</time>
      </trkpt>
      <trkpt lat="46.61354" lon="-0.46528">
        <ele>282.05</ele>
        <time>2019-05-04T19:23:05.999Z</time>
      </trkpt>
      <trkpt lat="46.61341" lon="-0.46531">
        <ele>282.15</ele>
        <time>2019-05-04T19:23:08.999Z</time>
      </trkpt>
      <trkpt lat="46.61331" lon="-0.46533">
        <ele>282.19</ele>
        <time>2019-05-04T19:23:10.999Z</time>
      </trkpt>
      <trkpt lat="46.61321" lon="-0.46536">
        <ele>282.41</ele>
        <time>2019-05-04T19:23:12.999Z</time>
      </trkpt>
      <trkpt lat="46.61311" lon="-0.46538">
        <ele>282.5</ele>
        <time>2019-05-04T19:23:14.999Z</time>
      </trkpt>
      <trkpt lat="46.61299" lon="-0.46538">
        <ele>282.51</ele>
        <time>2019-05-04T19:23:16.999Z</time>
      </trkpt>
      <trkpt lat="46.61287" lon="-0.46537">
        <ele>282.43</ele>
        <time>2019-05-04T19:23:18.999Z</time>
      </trkpt>
      <trkpt lat="46.61275" lon="-0.46535">
        <ele>282.43</ele>
        <time>2019-05-04T19:23:20.999Z</time>
      </trkpt>
      <trkpt lat="46.61261" lon="-0.46533">
        <ele>282.16</ele>
        <time>2019-05-04T19:23:22.999Z</time>
      </trkpt>
      <trkpt lat="46.61247" lon="-0.46533">
        <ele>282.12</ele>
        <time>2019-05-04T19:23:24.999Z</time>
      </trkpt>
      <trkpt lat="46.61232" lon="-0.46535">
        <ele>282.11</ele>
        <time>2019-05-04T19:23:26.999Z</time>
      </trkpt>
      <trkpt lat="46.61216" lon="-0.46535">
        <ele>281.79</ele>
        <time>2019-05-04T19:23:28.999Z</time>
      </trkpt>
      <trkpt lat="46.61201" lon="-0.46532">
        <ele>281.34</ele>
        <time>2019-05-04T19:23:30.999Z</time>
      </trkpt>
      <trkpt lat="46.61186" lon="-0.46531">
        <ele>280.64</ele>
        <time>2019-05-04T19:23:32.999Z</time>
      </trkpt>
      <trkpt lat="46.61173" lon="-0.46527">
        <ele>279.72</ele>
        <time>2019-05-04T19:23:34.999Z</time>
      </trkpt>
      <trkpt lat="46.61161" lon="-0.46523">
        <ele>278.97</ele>
        <time>2019-05-04T19:23:36.999Z</time>
      </trkpt>
      <trkpt lat="46.61149" lon="-0.46521">
        <ele>278.49</ele>
        <time>2019-05-04T19:23:38.999Z</time>
      </trkpt>
      <trkpt lat="46.61137" lon="-0.46519">
        <ele>278.32</ele>
        <time>2019-05-04T19:23:40.999Z</time>
      </trkpt>
      <trkpt lat="46.61126" lon="-0.4652">
        <ele>278.17</ele>
        <time>2019-05-04T19:23:42.999Z</time>
      </trkpt>
      <trkpt lat="46.61116" lon="-0.46526">
        <ele>277.69</ele>
        <time>2019-05-04T19:23:44.999Z</time>
      </trkpt>
      <trkpt lat="46.61105" lon="-0.46533">
        <ele>277.54</ele>
        <time>2019-05-04T19:23:46.999Z</time>
      </trkpt>
      <trkpt lat="46.61096" lon="-0.4654">
        <ele>277.28</ele>
        <time>2019-05-04T19:23:48.999Z</time>
      </trkpt>
      <trkpt lat="46.61087" lon="-0.46545">
        <ele>276.76</ele>
        <time>2019-05-04T19:23:50.999Z</time>
      </trkpt>
      <trkpt lat="46.61074" lon="-0.46552">
        <ele>275.18</ele>
        <time>2019-05-04T19:23:53.999Z</time>
      </trkpt>
      <trkpt lat="46.61066" lon="-0.46556">
        <ele>273.81</ele>
        <time>2019-05-04T19:23:55.999Z</time>
      </trkpt>
      <trkpt lat="46.61057" lon="-0.4656">
        <ele>272.63</ele>
        <time>2019-05-04T19:23:57.999Z</time>
      </trkpt>
      <trkpt lat="46.61049" lon="-0.46564">
        <ele>271.54</ele>
        <time>2019-05-04T19:23:59.999Z</time>
      </trkpt>
      <trkpt lat="46.61036" lon="-0.46568">
        <ele>270.7</ele>
        <time>2019-05-04T19:24:02.999Z</time>
      </trkpt>
      <trkpt lat="46.61026" lon="-0.46574">
        <ele>270.66</ele>
        <time>2019-05-04T19:24:05.999Z</time>
      </trkpt>
      <trkpt lat="46.61017" lon="-0.46578">
        <ele>270.58</ele>
        <time>2019-05-04T19:24:07.999Z</time>
      </trkpt>
      <trkpt lat="46.61007" lon="-0.46584">
        <ele>270.39</ele>
        <time>2019-05-04T19:24:09.999Z</time>
      </trkpt>
      <trkpt lat="46.60995" lon="-0.46589">
        <ele>270.2</ele>
        <time>2019-05-04T19:24:12.999Z</time>
      </trkpt>
      <trkpt lat="46.60985" lon="-0.46593">
        <ele>270.01</ele>
        <time>2019-05-04T19:24:16.999Z</time>
      </trkpt>
      <trkpt lat="46.60973" lon="-0.46596">
        <ele>269.9</ele>
        <time>2019-05-04T19:24:19.999Z</time>
      </trkpt>
      <trkpt lat="46.6096" lon="-0.46595">
        <ele>269.72</ele>
        <time>2019-05-04T19:24:22.999Z</time>
      </trkpt>
      <trkpt lat="46.60948" lon="-0.46593">
        <ele>269.54</ele>
        <time>2019-05-04T19:24:25.999Z</time>
      </trkpt>
      <trkpt lat="46.60935" lon="-0.46594">
        <ele>269.43</ele>
        <time>2019-05-04T19:24:28.999Z</time>
      </trkpt>
      <trkpt lat="46.60926" lon="-0.46597">
        <ele>269.48</ele>
        <time>2019-05-04T19:24:32.999Z</time>
      </trkpt>
      <trkpt lat="46.60917" lon="-0.46604">
        <ele>269.56</ele>
        <time>2019-05-04T19:24:35.999Z</time>
      </trkpt>
      <trkpt lat="46.60903" lon="-0.46612">
        <ele>269.58</ele>
        <time>2019-05-04T19:24:38.999Z</time>
      </trkpt>
      <trkpt lat="46.60892" lon="-0.46616">
        <ele>269.25</ele>
        <time>2019-05-04T19:24:41.999Z</time>
      </trkpt>
      <trkpt lat="46.60882" lon="-0.46619">
        <ele>268.76</ele>
        <time>2019-05-04T19:24:43.999Z</time>
      </trkpt>
      <trkpt lat="46.6087" lon="-0.46622">
        <ele>268.41</ele>
        <time>2019-05-04T19:24:45.999Z</time>
      </trkpt>
      <trkpt lat="46.6086" lon="-0.46623">
        <ele>268.41</ele>
        <time>2019-05-04T19:24:47.999Z</time>
      </trkpt>
      <trkpt lat="46.60852" lon="-0.46628">
        <ele>268.39</ele>
        <time>2019-05-04T19:24:50.999Z</time>
      </trkpt>
      <trkpt lat="46.60842" lon="-0.46627">
        <ele>268.36</ele>
        <time>2019-05-04T19:24:55.999Z</time>
      </trkpt>
      <trkpt lat="46.60833" lon="-0.46637">
        <ele>268.21</ele>
        <time>2019-05-04T19:25:00.999Z</time>
      </trkpt>
      <trkpt lat="46.60823" lon="-0.46634">
        <ele>267.97</ele>
        <time>2019-05-04T19:25:04.999Z</time>
      </trkpt>
      <trkpt lat="46.60815" lon="-0.46629">
        <ele>267.9</ele>
        <time>2019-05-04T19:25:07.999Z</time>
      </trkpt>
      <trkpt lat="46.60805" lon="-0.46622">
        <ele>267.68</ele>
        <time>2019-05-04T19:25:11.999Z</time>
      </trkpt>
      <trkpt lat="46.60794" lon="-0.4662">
        <ele>267.57</ele>
        <time>2019-05-04T19:25:16.999Z</time>
      </trkpt>
      <trkpt lat="46.60783" lon="-0.46619">
        <ele>267.43</ele>
        <time>2019-05-04T19:25:19.999Z</time>
      </trkpt>
      <trkpt lat="46.60771" lon="-0.46614">
        <ele>267.42</ele>
        <time>2019-05-04T19:25:23.999Z</time>
      </trkpt>
      <trkpt lat="46.60762" lon="-0.4661">
        <ele>267.34</ele>
        <time>2019-05-04T19:25:26.999Z</time>
      </trkpt>
      <trkpt lat="46.60753" lon="-0.46604">
        <ele>267.4</ele>
        <time>2019-05-04T19:25:29.999Z</time>
      </trkpt>
      <trkpt lat="46.60745" lon="-0.46598">
        <ele>267.72</ele>
        <time>2019-05-04T19:25:32.999Z</time>
      </trkpt>
      <trkpt lat="46.60735" lon="-0.46589">
        <ele>268.67</ele>
        <time>2019-05-04T19:25:38.999Z</time>
      </trkpt>
      <trkpt lat="46.60727" lon="-0.46581">
        <ele>269.61</ele>
        <time>2019-05-04T19:25:42.999Z</time>
      </trkpt>
      <trkpt lat="46.60719" lon="-0.46571">
        <ele>271.11</ele>
        <time>2019-05-04T19:25:47.999Z</time>
      </trkpt>
      <trkpt lat="46.60714" lon="-0.46559">
        <ele>272.62</ele>
        <time>2019-05-04T19:25:52.999Z</time>
      </trkpt>
      <trkpt lat="46.60705" lon="-0.46547">
        <ele>274.91</ele>
        <time>2019-05-04T19:25:59.999Z</time>
      </trkpt>
      <trkpt lat="46.60696" lon="-0.46535">
        <ele>275.63</ele>
        <time>2019-05-04T19:26:02.999Z</time>
      </trkpt>
      <trkpt lat="46.60688" lon="-0.46527">
        <ele>276.14</ele>
        <time>2019-05-04T19:26:05.999Z</time>
      </trkpt>
      <trkpt lat="46.6068" lon="-0.46519">
        <ele>276.86</ele>
        <time>2019-05-04T19:26:09.999Z</time>
      </trkpt>
      <trkpt lat="46.60672" lon="-0.46512">
        <ele>277.38</ele>
        <time>2019-05-04T19:26:12.999Z</time>
      </trkpt>
      <trkpt lat="46.60663" lon="-0.465">
        <ele>279.24</ele>
        <time>2019-05-04T19:26:15.999Z</time>
      </trkpt>
      <trkpt lat="46.60656" lon="-0.46491">
        <ele>281.18</ele>
        <time>2019-05-04T19:26:17.999Z</time>
      </trkpt>
      <trkpt lat="46.60648" lon="-0.46483">
        <ele>282.17</ele>
        <time>2019-05-04T19:26:19.999Z</time>
      </trkpt>
      <trkpt lat="46.60637" lon="-0.46473">
        <ele>282.79</ele>
        <time>2019-05-04T19:26:22.999Z</time>
      </trkpt>
      <trkpt lat="46.6063" lon="-0.46465">
        <ele>282.96</ele>
        <time>2019-05-04T19:26:24.999Z</time>
      </trkpt>
      <trkpt lat="46.60622" lon="-0.46456">
        <ele>282.93</ele>
        <time>2019-05-04T19:26:26.999Z</time>
      </trkpt>
      <trkpt lat="46.60614" lon="-0.46447">
        <ele>282.44</ele>
        <time>2019-05-04T19:26:28.999Z</time>
      </trkpt>
      <trkpt lat="46.60607" lon="-0.46439">
        <ele>281.34</ele>
        <time>2019-05-04T19:26:30.999Z</time>
      </trkpt>
      <trkpt lat="46.60597" lon="-0.4643">
        <ele>279.61</ele>
        <time>2019-05-04T19:26:33.999Z</time>
      </trkpt>
      <trkpt lat="46.60588" lon="-0.46419">
        <ele>279.06</ele>
        <time>2019-05-04T19:26:36.999Z</time>
      </trkpt>
      <trkpt lat="46.60581" lon="-0.46407">
        <ele>279.68</ele>
        <time>2019-05-04T19:26:38.999Z</time>
      </trkpt>
      <trkpt lat="46.60573" lon="-0.46393">
        <ele>280.14</ele>
        <time>2019-05-04T19:26:40.999Z</time>
      </trkpt>
      <trkpt lat="46.60566" lon="-0.4638">
        <ele>280.32</ele>
        <time>2019-05-04T19:26:42.999Z</time>
      </trkpt>
      <trkpt lat="46.6056" lon="-0.46369">
        <ele>280.29</ele>
        <time>2019-05-04T19:26:44.999Z</time>
      </trkpt>
      <trkpt lat="46.60555" lon="-0.46358">
        <ele>280.02</ele>
        <time>2019-05-04T19:26:46.999Z</time>
      </trkpt>
      <trkpt lat="46.60549" lon="-0.46344">
        <ele>279.56</ele>
        <time>2019-05-04T19:26:49.999Z</time>
      </trkpt>
      <trkpt lat="46.60542" lon="-0.46327">
        <ele>278.89</ele>
        <time>2019-05-04T19:26:52.999Z</time>
      </trkpt>
      <trkpt lat="46.60534" lon="-0.46314">
        <ele>278.54</ele>
        <time>2019-05-04T19:26:55.999Z</time>
      </trkpt>
      <trkpt lat="46.60525" lon="-0.46311">
        <ele>278.55</ele>
        <time>2019-05-04T19:26:58.999Z</time>
      </trkpt>
      <trkpt lat="46.60513" lon="-0.46309">
        <ele>278.53</ele>
        <time>2019-05-04T19:27:01.999Z</time>
      </trkpt>
      <trkpt lat="46.60503" lon="-0.46307">
        <ele>278.54</ele>
        <time>2019-05-04T19:27:04.999Z</time>
      </trkpt>
      <trkpt lat="46.60495" lon="-0.46304">
        <ele>278.63</ele>
        <time>2019-05-04T19:27:07.999Z</time>
      </trkpt>
      <trkpt lat="46.60484" lon="-0.46302">
        <ele>278.81</ele>
        <time>2019-05-04T19:27:10.999Z</time>
      </trkpt>
      <trkpt lat="46.60473" lon="-0.46299">
        <ele>278.95</ele>
        <time>2019-05-04T19:27:13.999Z</time>
      </trkpt>
      <trkpt lat="46.60463" lon="-0.46298">
        <ele>279.06</ele>
        <time>2019-05-04T19:27:16.999Z</time>
      </trkpt>
      <trkpt lat="46.60453" lon="-0.46299">
        <ele>279.2</ele>
        <time>2019-05-04T19:27:19.999Z</time>
      </trkpt>
      <trkpt lat="46.60442" lon="-0.46296">
        <ele>280.02</ele>
        <time>2019-05-04T19:27:22.999Z</time>
      </trkpt>
      <trkpt lat="46.60433" lon="-0.46293">
        <ele>280.47</ele>
        <time>2019-05-04T19:27:24.999Z</time>
      </trkpt>
      <trkpt lat="46.60423" lon="-0.46289">
        <ele>280.11</ele>
        <time>2019-05-04T19:27:26.999Z</time>
      </trkpt>
      <trkpt lat="46.60414" lon="-0.46285">
        <ele>280</ele>
        <time>2019-05-04T19:27:28.999Z</time>
      </trkpt>
      <trkpt lat="46.60403" lon="-0.46278">
        <ele>280.05</ele>
        <time>2019-05-04T19:27:30.999Z</time>
      </trkpt>
      <trkpt lat="46.60393" lon="-0.46267">
        <ele>280.03</ele>
        <time>2019-05-04T19:27:32.999Z</time>
      </trkpt>
      <trkpt lat="46.60386" lon="-0.46257">
        <ele>279.86</ele>
        <time>2019-05-04T19:27:34.999Z</time>
      </trkpt>
      <trkpt lat="46.60379" lon="-0.46248">
        <ele>279.76</ele>
        <time>2019-05-04T19:27:36.999Z</time>
      </trkpt>
      <trkpt lat="46.6037" lon="-0.4624">
        <ele>280.3</ele>
        <time>2019-05-04T19:27:38.999Z</time>
      </trkpt>
      <trkpt lat="46.60357" lon="-0.46234">
        <ele>280.45</ele>
        <time>2019-05-04T19:27:40.999Z</time>
      </trkpt>
      <trkpt lat="46.60343" lon="-0.46227">
        <ele>280.2</ele>
        <time>2019-05-04T19:27:42.999Z</time>
      </trkpt>
      <trkpt lat="46.6033" lon="-0.46218">
        <ele>279.88</ele>
        <time>2019-05-04T19:27:44.999Z</time>
      </trkpt>
      <trkpt lat="46.60316" lon="-0.4621">
        <ele>279.16</ele>
        <time>2019-05-04T19:27:46.999Z</time>
      </trkpt>
      <trkpt lat="46.60302" lon="-0.46204">
        <ele>278.57</ele>
        <time>2019-05-04T19:27:48.999Z</time>
      </trkpt>
      <trkpt lat="46.60281" lon="-0.462">
        <ele>277.57</ele>
        <time>2019-05-04T19:27:51.999Z</time>
      </trkpt>
      <trkpt lat="46.60267" lon="-0.46202">
        <ele>277.05</ele>
        <time>2019-05-04T19:27:53.999Z</time>
      </trkpt>
      <trkpt lat="46.60245" lon="-0.4621">
        <ele>276.41</ele>
        <time>2019-05-04T19:27:56.999Z</time>
      </trkpt>
      <trkpt lat="46.60231" lon="-0.46218">
        <ele>276.32</ele>
        <time>2019-05-04T19:27:58.999Z</time>
      </trkpt>
      <trkpt lat="46.60217" lon="-0.46222">
        <ele>276.15</ele>
        <time>2019-05-04T19:28:00.999Z</time>
      </trkpt>
      <trkpt lat="46.60204" lon="-0.46227">
        <ele>276.09</ele>
        <time>2019-05-04T19:28:02.999Z</time>
      </trkpt>
      <trkpt lat="46.6019" lon="-0.46233">
        <ele>276</ele>
        <time>2019-05-04T19:28:04.999Z</time>
      </trkpt>
      <trkpt lat="46.60178" lon="-0.46237">
        <ele>276.11</ele>
        <time>2019-05-04T19:28:06.999Z</time>
      </trkpt>
      <trkpt lat="46.60167" lon="-0.46237">
        <ele>276.13</ele>
        <time>2019-05-04T19:28:08.999Z</time>
      </trkpt>
      <trkpt lat="46.60155" lon="-0.46238">
        <ele>276.03</ele>
        <time>2019-05-04T19:28:10.999Z</time>
      </trkpt>
      <trkpt lat="46.60141" lon="-0.46238">
        <ele>275.8</ele>
        <time>2019-05-04T19:28:12.999Z</time>
      </trkpt>
      <trkpt lat="46.60127" lon="-0.4624">
        <ele>275.44</ele>
        <time>2019-05-04T19:28:14.999Z</time>
      </trkpt>
      <trkpt lat="46.60111" lon="-0.46241">
        <ele>274.78</ele>
        <time>2019-05-04T19:28:16.999Z</time>
      </trkpt>
      <trkpt lat="46.60093" lon="-0.46243">
        <ele>274.06</ele>
        <time>2019-05-04T19:28:18.999Z</time>
      </trkpt>
      <trkpt lat="46.60084" lon="-0.46243">
        <ele>273.75</ele>
        <time>2019-05-04T19:28:19.999Z</time>
      </trkpt>
      <trkpt lat="46.60074" lon="-0.46244">
        <ele>273.39</ele>
        <time>2019-05-04T19:28:20.999Z</time>
      </trkpt>
      <trkpt lat="46.60065" lon="-0.46242">
        <ele>273.14</ele>
        <time>2019-05-04T19:28:21.999Z</time>
      </trkpt>
      <trkpt lat="46.60049" lon="-0.46233">
        <ele>272.57</ele>
        <time>2019-05-04T19:28:23.999Z</time>
      </trkpt>
      <trkpt lat="46.6004" lon="-0.46214">
        <ele>271.94</ele>
        <time>2019-05-04T19:28:25.999Z</time>
      </trkpt>
      <trkpt lat="46.60033" lon="-0.46192">
        <ele>271.33</ele>
        <time>2019-05-04T19:28:27.999Z</time>
      </trkpt>
      <trkpt lat="46.60027" lon="-0.4617">
        <ele>270.91</ele>
        <time>2019-05-04T19:28:29.999Z</time>
      </trkpt>
      <trkpt lat="46.60019" lon="-0.46149">
        <ele>270.42</ele>
        <time>2019-05-04T19:28:31.999Z</time>
      </trkpt>
      <trkpt lat="46.60008" lon="-0.46134">
        <ele>270.05</ele>
        <time>2019-05-04T19:28:33.999Z</time>
      </trkpt>
      <trkpt lat="46.59993" lon="-0.46127">
        <ele>269.58</ele>
        <time>2019-05-04T19:28:35.999Z</time>
      </trkpt>
      <trkpt lat="46.59978" lon="-0.46121">
        <ele>269.48</ele>
        <time>2019-05-04T19:28:37.999Z</time>
      </trkpt>
      <trkpt lat="46.59964" lon="-0.46115">
        <ele>269.41</ele>
        <time>2019-05-04T19:28:39.999Z</time>
      </trkpt>
      <trkpt lat="46.5995" lon="-0.46109">
        <ele>269.26</ele>
        <time>2019-05-04T19:28:41.999Z</time>
      </trkpt>
      <trkpt lat="46.59936" lon="-0.46102">
        <ele>269.14</ele>
        <time>2019-05-04T19:28:43.999Z</time>
      </trkpt>
      <trkpt lat="46.59924" lon="-0.46092">
        <ele>269.02</ele>
        <time>2019-05-04T19:28:45.999Z</time>
      </trkpt>
      <trkpt lat="46.59912" lon="-0.46081">
        <ele>268.88</ele>
        <time>2019-05-04T19:28:47.999Z</time>
      </trkpt>
      <trkpt lat="46.59902" lon="-0.46068">
        <ele>269.03</ele>
        <time>2019-05-04T19:28:49.999Z</time>
      </trkpt>
      <trkpt lat="46.59893" lon="-0.46057">
        <ele>268.89</ele>
        <time>2019-05-04T19:28:51.999Z</time>
      </trkpt>
      <trkpt lat="46.59883" lon="-0.46046">
        <ele>268.88</ele>
        <time>2019-05-04T19:28:53.999Z</time>
      </trkpt>
      <trkpt lat="46.59874" lon="-0.46034">
        <ele>268.96</ele>
        <time>2019-05-04T19:28:55.999Z</time>
      </trkpt>
      <trkpt lat="46.59865" lon="-0.46024">
        <ele>269.17</ele>
        <time>2019-05-04T19:28:57.999Z</time>
      </trkpt>
      <trkpt lat="46.59858" lon="-0.46016">
        <ele>269.86</ele>
        <time>2019-05-04T19:28:59.999Z</time>
      </trkpt>
      <trkpt lat="46.59848" lon="-0.46005">
        <ele>271.16</ele>
        <time>2019-05-04T19:29:02.999Z</time>
      </trkpt>
      <trkpt lat="46.59839" lon="-0.45996">
        <ele>271.34</ele>
        <time>2019-05-04T19:29:05.999Z</time>
      </trkpt>
      <trkpt lat="46.59829" lon="-0.46">
        <ele>271.57</ele>
        <time>2019-05-04T19:29:08.999Z</time>
      </trkpt>
      <trkpt lat="46.59823" lon="-0.46015">
        <ele>273.71</ele>
        <time>2019-05-04T19:29:11.999Z</time>
      </trkpt>
      <trkpt lat="46.59815" lon="-0.4603">
        <ele>275.04</ele>
        <time>2019-05-04T19:29:14.999Z</time>
      </trkpt>
      <trkpt lat="46.59806" lon="-0.46044">
        <ele>275.63</ele>
        <time>2019-05-04T19:29:17.999Z</time>
      </trkpt>
      <trkpt lat="46.59798" lon="-0.46058">
        <ele>275.8</ele>
        <time>2019-05-04T19:29:20.999Z</time>
      </trkpt>
      <trkpt lat="46.59792" lon="-0.46074">
        <ele>276.1</ele>
        <time>2019-05-04T19:29:23.999Z</time>
      </trkpt>
      <trkpt lat="46.59787" lon="-0.4609">
        <ele>276.34</ele>
        <time>2019-05-04T19:29:26.999Z</time>
      </trkpt>
      <trkpt lat="46.59784" lon="-0.46103">
        <ele>276.09</ele>
        <time>2019-05-04T19:29:28.999Z</time>
      </trkpt>
      <trkpt lat="46.59776" lon="-0.46114">
        <ele>275.86</ele>
        <time>2019-05-04T19:29:32.999Z</time>
      </trkpt>
      <trkpt lat="46.59767" lon="-0.46103">
        <ele>275.31</ele>
        <time>2019-05-04T19:29:36.999Z</time>
      </trkpt>
      <trkpt lat="46.5976" lon="-0.46089">
        <ele>275.11</ele>
        <time>2019-05-04T19:29:39.999Z</time>
      </trkpt>
      <trkpt lat="46.59753" lon="-0.4608">
        <ele>275.1</ele>
        <time>2019-05-04T19:29:42.999Z</time>
      </trkpt>
      <trkpt lat="46.59747" lon="-0.46069">
        <ele>275.26</ele>
        <time>2019-05-04T19:29:47.999Z</time>
      </trkpt>
      <trkpt lat="46.5974" lon="-0.46054">
        <ele>275.6</ele>
        <time>2019-05-04T19:29:51.999Z</time>
      </trkpt>
      <trkpt lat="46.59732" lon="-0.46043">
        <ele>276.01</ele>
        <time>2019-05-04T19:29:55.999Z</time>
      </trkpt>
      <trkpt lat="46.59724" lon="-0.46036">
        <ele>276.28</ele>
        <time>2019-05-04T19:29:59.999Z</time>
      </trkpt>
      <trkpt lat="46.59716" lon="-0.46027">
        <ele>276.68</ele>
        <time>2019-05-04T19:30:03.999Z</time>
      </trkpt>
      <trkpt lat="46.59709" lon="-0.46017">
        <ele>277.35</ele>
        <time>2019-05-04T19:30:07.999Z</time>
      </trkpt>
      <trkpt lat="46.59701" lon="-0.46008">
        <ele>278.07</ele>
        <time>2019-05-04T19:30:11.999Z</time>
      </trkpt>
      <trkpt lat="46.59693" lon="-0.45997">
        <ele>278.72</ele>
        <time>2019-05-04T19:30:15.999Z</time>
      </trkpt>
      <trkpt lat="46.59685" lon="-0.45988">
        <ele>279.12</ele>
        <time>2019-05-04T19:30:20.999Z</time>
      </trkpt>
      <trkpt lat="46.59674" lon="-0.45987">
        <ele>279.22</ele>
        <time>2019-05-04T19:30:25.999Z</time>
      </trkpt>
      <trkpt lat="46.59664" lon="-0.4599">
        <ele>279.69</ele>
        <time>2019-05-04T19:30:32.999Z</time>
      </trkpt>
      <trkpt lat="46.59655" lon="-0.45995">
        <ele>280.61</ele>
        <time>2019-05-04T19:30:40.999Z</time>
      </trkpt>
      <trkpt lat="46.59647" lon="-0.46002">
        <ele>281.68</ele>
        <time>2019-05-04T19:30:47.999Z</time>
      </trkpt>
      <trkpt lat="46.59637" lon="-0.46007">
        <ele>284.05</ele>
        <time>2019-05-04T19:30:56.999Z</time>
      </trkpt>
      <trkpt lat="46.59628" lon="-0.46013">
        <ele>285.37</ele>
        <time>2019-05-04T19:31:03.999Z</time>
      </trkpt>
      <trkpt lat="46.5962" lon="-0.4602">
        <ele>286.08</ele>
        <time>2019-05-04T19:31:10.999Z</time>
      </trkpt>
      <trkpt lat="46.5961" lon="-0.46029">
        <ele>286.46</ele>
        <time>2019-05-04T19:31:17.999Z</time>
      </trkpt>
      <trkpt lat="46.59602" lon="-0.4604">
        <ele>286.84</ele>
        <time>2019-05-04T19:31:22.999Z</time>
      </trkpt>
      <trkpt lat="46.59595" lon="-0.46049">
        <ele>288.3</ele>
        <time>2019-05-04T19:31:29.999Z</time>
      </trkpt>
      <trkpt lat="46.59589" lon="-0.46061">
        <ele>289.49</ele>
        <time>2019-05-04T19:31:35.999Z</time>
      </trkpt>
      <trkpt lat="46.59578" lon="-0.4607">
        <ele>289.97</ele>
        <time>2019-05-04T19:31:39.999Z</time>
      </trkpt>
      <trkpt lat="46.59568" lon="-0.46069">
        <ele>290</ele>
        <time>2019-05-04T19:31:43.999Z</time>
      </trkpt>
      <trkpt lat="46.59562" lon="-0.46054">
        <ele>290.3</ele>
        <time>2019-05-04T19:31:47.999Z</time>
      </trkpt>
      <trkpt lat="46.59558" lon="-0.4604">
        <ele>290.73</ele>
        <time>2019-05-04T19:31:50.999Z</time>
      </trkpt>
      <trkpt lat="46.59554" lon="-0.46024">
        <ele>291.23</ele>
        <time>2019-05-04T19:31:53.999Z</time>
      </trkpt>
      <trkpt lat="46.59551" lon="-0.46008">
        <ele>291.65</ele>
        <time>2019-05-04T19:31:56.999Z</time>
      </trkpt>
      <trkpt lat="46.59548" lon="-0.45992">
        <ele>291.95</ele>
        <time>2019-05-04T19:31:59.999Z</time>
      </trkpt>
      <trkpt lat="46.59546" lon="-0.45979">
        <ele>292.16</ele>
        <time>2019-05-04T19:32:02.999Z</time>
      </trkpt>
      <trkpt lat="46.59546" lon="-0.45966">
        <ele>292.43</ele>
        <time>2019-05-04T19:32:05.999Z</time>
      </trkpt>
      <trkpt lat="46.59542" lon="-0.45953">
        <ele>292.77</ele>
        <time>2019-05-04T19:32:08.999Z</time>
      </trkpt>
      <trkpt lat="46.59539" lon="-0.45938">
        <ele>293.1</ele>
        <time>2019-05-04T19:32:11.999Z</time>
      </trkpt>
      <trkpt lat="46.59535" lon="-0.45922">
        <ele>295.5</ele>
        <time>2019-05-04T19:32:14.999Z</time>
      </trkpt>
      <trkpt lat="46.59531" lon="-0.45904">
        <ele>297.33</ele>
        <time>2019-05-04T19:32:17.999Z</time>
      </trkpt>
      <trkpt lat="46.59527" lon="-0.4589">
        <ele>297.39</ele>
        <time>2019-05-04T19:32:19.999Z</time>
      </trkpt>
      <trkpt lat="46.59524" lon="-0.45877">
        <ele>297.59</ele>
        <time>2019-05-04T19:32:21.999Z</time>
      </trkpt>
      <trkpt lat="46.59521" lon="-0.45863">
        <ele>297</ele>
        <time>2019-05-04T19:32:23.999Z</time>
      </trkpt>
      <trkpt lat="46.59517" lon="-0.4585">
        <ele>296.42</ele>
        <time>2019-05-04T19:32:25.999Z</time>
      </trkpt>
      <trkpt lat="46.59514" lon="-0.45836">
        <ele>295.98</ele>
        <time>2019-05-04T19:32:27.999Z</time>
      </trkpt>
      <trkpt lat="46.5951" lon="-0.45821">
        <ele>295.79</ele>
        <time>2019-05-04T19:32:29.999Z</time>
      </trkpt>
      <trkpt lat="46.59507" lon="-0.45806">
        <ele>295.42</ele>
        <time>2019-05-04T19:32:31.999Z</time>
      </trkpt>
      <trkpt lat="46.59503" lon="-0.45792">
        <ele>295.39</ele>
        <time>2019-05-04T19:32:33.999Z</time>
      </trkpt>
      <trkpt lat="46.59499" lon="-0.45777">
        <ele>295.32</ele>
        <time>2019-05-04T19:32:35.999Z</time>
      </trkpt>
      <trkpt lat="46.59496" lon="-0.45763">
        <ele>295.56</ele>
        <time>2019-05-04T19:32:37.999Z</time>
      </trkpt>
      <trkpt lat="46.59492" lon="-0.45748">
        <ele>295.52</ele>
        <time>2019-05-04T19:32:39.999Z</time>
      </trkpt>
      <trkpt lat="46.59489" lon="-0.45734">
        <ele>295.53</ele>
        <time>2019-05-04T19:32:41.999Z</time>
      </trkpt>
      <trkpt lat="46.59486" lon="-0.45721">
        <ele>295.51</ele>
        <time>2019-05-04T19:32:43.999Z</time>
      </trkpt>
      <trkpt lat="46.59482" lon="-0.45706">
        <ele>295.24</ele>
        <time>2019-05-04T19:32:45.999Z</time>
      </trkpt>
      <trkpt lat="46.59477" lon="-0.45686">
        <ele>294.31</ele>
        <time>2019-05-04T19:32:48.999Z</time>
      </trkpt>
      <trkpt lat="46.59475" lon="-0.45672">
        <ele>293.83</ele>
        <time>2019-05-04T19:32:50.999Z</time>
      </trkpt>
      <trkpt lat="46.59471" lon="-0.45654">
        <ele>293.71</ele>
        <time>2019-05-04T19:32:53.999Z</time>
      </trkpt>
      <trkpt lat="46.59468" lon="-0.4564">
        <ele>293.74</ele>
        <time>2019-05-04T19:32:55.999Z</time>
      </trkpt>
      <trkpt lat="46.59463" lon="-0.45624">
        <ele>293.66</ele>
        <time>2019-05-04T19:32:57.999Z</time>
      </trkpt>
      <trkpt lat="46.59459" lon="-0.45608">
        <ele>293.47</ele>
        <time>2019-05-04T19:32:59.999Z</time>
      </trkpt>
      <trkpt lat="46.59456" lon="-0.4559">
        <ele>292.85</ele>
        <time>2019-05-04T19:33:01.999Z</time>
      </trkpt>
      <trkpt lat="46.59451" lon="-0.45573">
        <ele>292.22</ele>
        <time>2019-05-04T19:33:03.999Z</time>
      </trkpt>
      <trkpt lat="46.59447" lon="-0.45556">
        <ele>291.55</ele>
        <time>2019-05-04T19:33:05.999Z</time>
      </trkpt>
      <trkpt lat="46.59443" lon="-0.45539">
        <ele>290.96</ele>
        <time>2019-05-04T19:33:07.999Z</time>
      </trkpt>
      <trkpt lat="46.59439" lon="-0.45522">
        <ele>290.61</ele>
        <time>2019-05-04T19:33:09.999Z</time>
      </trkpt>
      <trkpt lat="46.59435" lon="-0.45505">
        <ele>290.25</ele>
        <time>2019-05-04T19:33:11.999Z</time>
      </trkpt>
      <trkpt lat="46.59429" lon="-0.45488">
        <ele>289.98</ele>
        <time>2019-05-04T19:33:13.999Z</time>
      </trkpt>
      <trkpt lat="46.59425" lon="-0.4547">
        <ele>289.76</ele>
        <time>2019-05-04T19:33:15.999Z</time>
      </trkpt>
      <trkpt lat="46.59419" lon="-0.45452">
        <ele>289.58</ele>
        <time>2019-05-04T19:33:17.999Z</time>
      </trkpt>
      <trkpt lat="46.59412" lon="-0.45433">
        <ele>289.34</ele>
        <time>2019-05-04T19:33:19.999Z</time>
      </trkpt>
      <trkpt lat="46.59405" lon="-0.45416">
        <ele>289.04</ele>
        <time>2019-05-04T19:33:21.999Z</time>
      </trkpt>
      <trkpt lat="46.59395" lon="-0.45401">
        <ele>288.82</ele>
        <time>2019-05-04T19:33:23.999Z</time>
      </trkpt>
      <trkpt lat="46.59385" lon="-0.45384">
        <ele>288.47</ele>
        <time>2019-05-04T19:33:25.999Z</time>
      </trkpt>
      <trkpt lat="46.59373" lon="-0.45369">
        <ele>288.07</ele>
        <time>2019-05-04T19:33:27.999Z</time>
      </trkpt>
      <trkpt lat="46.5936" lon="-0.45355">
        <ele>287.67</ele>
        <time>2019-05-04T19:33:29.999Z</time>
      </trkpt>
      <trkpt lat="46.59347" lon="-0.45338">
        <ele>287.21</ele>
        <time>2019-05-04T19:33:31.999Z</time>
      </trkpt>
      <trkpt lat="46.59335" lon="-0.45322">
        <ele>286.79</ele>
        <time>2019-05-04T19:33:33.999Z</time>
      </trkpt>
      <trkpt lat="46.59322" lon="-0.45308">
        <ele>286.51</ele>
        <time>2019-05-04T19:33:35.999Z</time>
      </trkpt>
      <trkpt lat="46.5931" lon="-0.45294">
        <ele>286.31</ele>
        <time>2019-05-04T19:33:37.999Z</time>
      </trkpt>
      <trkpt lat="46.593" lon="-0.4528">
        <ele>286.25</ele>
        <time>2019-05-04T19:33:39.999Z</time>
      </trkpt>
      <trkpt lat="46.59289" lon="-0.45267">
        <ele>286.19</ele>
        <time>2019-05-04T19:33:41.999Z</time>
      </trkpt>
      <trkpt lat="46.5928" lon="-0.45255">
        <ele>286.47</ele>
        <time>2019-05-04T19:33:43.999Z</time>
      </trkpt>
      <trkpt lat="46.59272" lon="-0.45245">
        <ele>286.88</ele>
        <time>2019-05-04T19:33:45.999Z</time>
      </trkpt>
      <trkpt lat="46.59265" lon="-0.45235">
        <ele>287.6</ele>
        <time>2019-05-04T19:33:47.999Z</time>
      </trkpt>
      <trkpt lat="46.59256" lon="-0.45225">
        <ele>288.55</ele>
        <time>2019-05-04T19:33:50.999Z</time>
      </trkpt>
      <trkpt lat="46.59247" lon="-0.45215">
        <ele>290.45</ele>
        <time>2019-05-04T19:33:53.999Z</time>
      </trkpt>
      <trkpt lat="46.59238" lon="-0.45204">
        <ele>292.87</ele>
        <time>2019-05-04T19:33:56.999Z</time>
      </trkpt>
      <trkpt lat="46.59229" lon="-0.45193">
        <ele>294.36</ele>
        <time>2019-05-04T19:33:59.999Z</time>
      </trkpt>
      <trkpt lat="46.59221" lon="-0.45183">
        <ele>294.61</ele>
        <time>2019-05-04T19:34:02.999Z</time>
      </trkpt>
      <trkpt lat="46.59213" lon="-0.45173">
        <ele>294.92</ele>
        <time>2019-05-04T19:34:05.999Z</time>
      </trkpt>
      <trkpt lat="46.59206" lon="-0.45162">
        <ele>295.31</ele>
        <time>2019-05-04T19:34:08.999Z</time>
      </trkpt>
      <trkpt lat="46.59197" lon="-0.4515">
        <ele>298.38</ele>
        <time>2019-05-04T19:34:11.999Z</time>
      </trkpt>
      <trkpt lat="46.59188" lon="-0.45139">
        <ele>300.85</ele>
        <time>2019-05-04T19:34:14.999Z</time>
      </trkpt>
      <trkpt lat="46.5918" lon="-0.45128">
        <ele>301.13</ele>
        <time>2019-05-04T19:34:17.999Z</time>
      </trkpt>
      <trkpt lat="46.59172" lon="-0.45117">
        <ele>301.3</ele>
        <time>2019-05-04T19:34:20.999Z</time>
      </trkpt>
      <trkpt lat="46.59164" lon="-0.45106">
        <ele>301.45</ele>
        <time>2019-05-04T19:34:23.999Z</time>
      </trkpt>
      <trkpt lat="46.59157" lon="-0.45095">
        <ele>301.56</ele>
        <time>2019-05-04T19:34:26.999Z</time>
      </trkpt>
      <trkpt lat="46.5915" lon="-0.45083">
        <ele>301.68</ele>
        <time>2019-05-04T19:34:29.999Z</time>
      </trkpt>
      <trkpt lat="46.59143" lon="-0.45072">
        <ele>301.72</ele>
        <time>2019-05-04T19:34:32.999Z</time>
      </trkpt>
      <trkpt lat="46.59137" lon="-0.45062">
        <ele>301.71</ele>
        <time>2019-05-04T19:34:35.999Z</time>
      </trkpt>
      <trkpt lat="46.59131" lon="-0.4505">
        <ele>301.7</ele>
        <time>2019-05-04T19:34:38.999Z</time>
      </trkpt>
      <trkpt lat="46.59123" lon="-0.4504">
        <ele>301.64</ele>
        <time>2019-05-04T19:34:41.999Z</time>
      </trkpt>
      <trkpt lat="46.59117" lon="-0.45029">
        <ele>301.53</ele>
        <time>2019-05-04T19:34:44.999Z</time>
      </trkpt>
      <trkpt lat="46.59109" lon="-0.45021">
        <ele>301.5</ele>
        <time>2019-05-04T19:34:47.999Z</time>
      </trkpt>
      <trkpt lat="46.59101" lon="-0.45006">
        <ele>302.14</ele>
        <time>2019-05-04T19:34:50.999Z</time>
      </trkpt>
      <trkpt lat="46.59093" lon="-0.44991">
        <ele>303.04</ele>
        <time>2019-05-04T19:34:53.999Z</time>
      </trkpt>
      <trkpt lat="46.59085" lon="-0.44977">
        <ele>303.29</ele>
        <time>2019-05-04T19:34:56.999Z</time>
      </trkpt>
      <trkpt lat="46.59079" lon="-0.44965">
        <ele>303.64</ele>
        <time>2019-05-04T19:34:58.999Z</time>
      </trkpt>
      <trkpt lat="46.59071" lon="-0.44953">
        <ele>304.21</ele>
        <time>2019-05-04T19:35:01.999Z</time>
      </trkpt>
      <trkpt lat="46.59064" lon="-0.44942">
        <ele>304.11</ele>
        <time>2019-05-04T19:35:03.999Z</time>
      </trkpt>
      <trkpt lat="46.59057" lon="-0.44928">
        <ele>303.47</ele>
        <time>2019-05-04T19:35:06.999Z</time>
      </trkpt>
      <trkpt lat="46.59051" lon="-0.44918">
        <ele>302.84</ele>
        <time>2019-05-04T19:35:08.999Z</time>
      </trkpt>
      <trkpt lat="46.59045" lon="-0.44907">
        <ele>302.04</ele>
        <time>2019-05-04T19:35:10.999Z</time>
      </trkpt>
      <trkpt lat="46.59039" lon="-0.44896">
        <ele>301.28</ele>
        <time>2019-05-04T19:35:12.999Z</time>
      </trkpt>
      <trkpt lat="46.59029" lon="-0.44881">
        <ele>300.64</ele>
        <time>2019-05-04T19:35:15.999Z</time>
      </trkpt>
      <trkpt lat="46.59023" lon="-0.44871">
        <ele>300.33</ele>
        <time>2019-05-04T19:35:20.999Z</time>
      </trkpt>
      <trkpt lat="46.59032" lon="-0.44858">
        <ele>299.5</ele>
        <time>2019-05-04T19:35:24.999Z</time>
      </trkpt>
      <trkpt lat="46.59041" lon="-0.44851">
        <ele>299.37</ele>
        <time>2019-05-04T19:35:26.999Z</time>
      </trkpt>
      <trkpt lat="46.59053" lon="-0.44844">
        <ele>299.37</ele>
        <time>2019-05-04T19:35:28.999Z</time>
      </trkpt>
      <trkpt lat="46.59065" lon="-0.4484">
        <ele>299.22</ele>
        <time>2019-05-04T19:35:30.999Z</time>
      </trkpt>
      <trkpt lat="46.59076" lon="-0.44836">
        <ele>299.19</ele>
        <time>2019-05-04T19:35:32.999Z</time>
      </trkpt>
      <trkpt lat="46.59085" lon="-0.44827">
        <ele>298.78</ele>
        <time>2019-05-04T19:35:34.999Z</time>
      </trkpt>
      <trkpt lat="46.5909" lon="-0.44814">
        <ele>298.14</ele>
        <time>2019-05-04T19:35:36.999Z</time>
      </trkpt>
      <trkpt lat="46.59093" lon="-0.448">
        <ele>297.37</ele>
        <time>2019-05-04T19:35:38.999Z</time>
      </trkpt>
      <trkpt lat="46.59095" lon="-0.44783">
        <ele>296.94</ele>
        <time>2019-05-04T19:35:40.999Z</time>
      </trkpt>
      <trkpt lat="46.59096" lon="-0.44768">
        <ele>296.65</ele>
        <time>2019-05-04T19:35:42.999Z</time>
      </trkpt>
      <trkpt lat="46.59094" lon="-0.44752">
        <ele>296.45</ele>
        <time>2019-05-04T19:35:44.999Z</time>
      </trkpt>
      <trkpt lat="46.59092" lon="-0.44737">
        <ele>296.17</ele>
        <time>2019-05-04T19:35:46.999Z</time>
      </trkpt>
      <trkpt lat="46.59089" lon="-0.44722">
        <ele>295.87</ele>
        <time>2019-05-04T19:35:48.999Z</time>
      </trkpt>
      <trkpt lat="46.59087" lon="-0.44706">
        <ele>295.86</ele>
        <time>2019-05-04T19:35:50.999Z</time>
      </trkpt>
      <trkpt lat="46.59085" lon="-0.44689">
        <ele>295.63</ele>
        <time>2019-05-04T19:35:52.999Z</time>
      </trkpt>
      <trkpt lat="46.59083" lon="-0.44674">
        <ele>295.6</ele>
        <time>2019-05-04T19:35:54.999Z</time>
      </trkpt>
      <trkpt lat="46.59086" lon="-0.44659">
        <ele>296.22</ele>
        <time>2019-05-04T19:35:56.999Z</time>
      </trkpt>
      <trkpt lat="46.5909" lon="-0.44646">
        <ele>296.54</ele>
        <time>2019-05-04T19:35:58.999Z</time>
      </trkpt>
      <trkpt lat="46.59095" lon="-0.44626">
        <ele>297.12</ele>
        <time>2019-05-04T19:36:01.999Z</time>
      </trkpt>
      <trkpt lat="46.59097" lon="-0.44611">
        <ele>297.3</ele>
        <time>2019-05-04T19:36:03.999Z</time>
      </trkpt>
      <trkpt lat="46.59098" lon="-0.44596">
        <ele>297</ele>
        <time>2019-05-04T19:36:05.999Z</time>
      </trkpt>
      <trkpt lat="46.591" lon="-0.4458">
        <ele>296.92</ele>
        <time>2019-05-04T19:36:07.999Z</time>
      </trkpt>
      <trkpt lat="46.59102" lon="-0.44567">
        <ele>297.06</ele>
        <time>2019-05-04T19:36:09.999Z</time>
      </trkpt>
      <trkpt lat="46.59106" lon="-0.44553">
        <ele>297.35</ele>
        <time>2019-05-04T19:36:11.999Z</time>
      </trkpt>
      <trkpt lat="46.59108" lon="-0.44539">
        <ele>298.02</ele>
        <time>2019-05-04T19:36:13.999Z</time>
      </trkpt>
      <trkpt lat="46.59108" lon="-0.44523">
        <ele>298.55</ele>
        <time>2019-05-04T19:36:15.999Z</time>
      </trkpt>
      <trkpt lat="46.59108" lon="-0.44507">
        <ele>298.83</ele>
        <time>2019-05-04T19:36:17.999Z</time>
      </trkpt>
      <trkpt lat="46.5911" lon="-0.44491">
        <ele>298.5</ele>
        <time>2019-05-04T19:36:19.999Z</time>
      </trkpt>
      <trkpt lat="46.59113" lon="-0.44477">
        <ele>298.41</ele>
        <time>2019-05-04T19:36:21.999Z</time>
      </trkpt>
      <trkpt lat="46.59117" lon="-0.44464">
        <ele>298.45</ele>
        <time>2019-05-04T19:36:23.999Z</time>
      </trkpt>
      <trkpt lat="46.5912" lon="-0.44449">
        <ele>298.29</ele>
        <time>2019-05-04T19:36:25.999Z</time>
      </trkpt>
      <trkpt lat="46.59123" lon="-0.44434">
        <ele>298.12</ele>
        <time>2019-05-04T19:36:27.999Z</time>
      </trkpt>
      <trkpt lat="46.59125" lon="-0.44418">
        <ele>297.69</ele>
        <time>2019-05-04T19:36:29.999Z</time>
      </trkpt>
      <trkpt lat="46.59128" lon="-0.44404">
        <ele>297.48</ele>
        <time>2019-05-04T19:36:31.999Z</time>
      </trkpt>
      <trkpt lat="46.59131" lon="-0.4439">
        <ele>297.31</ele>
        <time>2019-05-04T19:36:33.999Z</time>
      </trkpt>
      <trkpt lat="46.59134" lon="-0.44376">
        <ele>297.01</ele>
        <time>2019-05-04T19:36:35.999Z</time>
      </trkpt>
      <trkpt lat="46.59135" lon="-0.44361">
        <ele>296.72</ele>
        <time>2019-05-04T19:36:37.999Z</time>
      </trkpt>
      <trkpt lat="46.59137" lon="-0.44347">
        <ele>296.44</ele>
        <time>2019-05-04T19:36:39.999Z</time>
      </trkpt>
      <trkpt lat="46.5914" lon="-0.44333">
        <ele>296.19</ele>
        <time>2019-05-04T19:36:41.999Z</time>
      </trkpt>
      <trkpt lat="46.59143" lon="-0.44318">
        <ele>296.17</ele>
        <time>2019-05-04T19:36:43.999Z</time>
      </trkpt>
      <trkpt lat="46.59148" lon="-0.44306">
        <ele>296.26</ele>
        <time>2019-05-04T19:36:45.999Z</time>
      </trkpt>
      <trkpt lat="46.59153" lon="-0.44295">
        <ele>296.27</ele>
        <time>2019-05-04T19:36:47.999Z</time>
      </trkpt>
      <trkpt lat="46.59157" lon="-0.4428">
        <ele>296.05</ele>
        <time>2019-05-04T19:36:50.999Z</time>
      </trkpt>
      <trkpt lat="46.59155" lon="-0.44263">
        <ele>296</ele>
        <time>2019-05-04T19:36:53.999Z</time>
      </trkpt>
      <trkpt lat="46.59151" lon="-0.44245">
        <ele>295.8</ele>
        <time>2019-05-04T19:36:56.999Z</time>
      </trkpt>
      <trkpt lat="46.59155" lon="-0.44232">
        <ele>296.4</ele>
        <time>2019-05-04T19:37:04.999Z</time>
      </trkpt>
      <trkpt lat="46.59165" lon="-0.44223">
        <ele>296.65</ele>
        <time>2019-05-04T19:37:08.999Z</time>
      </trkpt>
      <trkpt lat="46.59174" lon="-0.44219">
        <ele>297.2</ele>
        <time>2019-05-04T19:37:11.999Z</time>
      </trkpt>
      <trkpt lat="46.59184" lon="-0.44214">
        <ele>297.11</ele>
        <time>2019-05-04T19:37:13.999Z</time>
      </trkpt>
      <trkpt lat="46.59192" lon="-0.44209">
        <ele>295.87</ele>
        <time>2019-05-04T19:37:15.999Z</time>
      </trkpt>
      <trkpt lat="46.59201" lon="-0.442">
        <ele>294.79</ele>
        <time>2019-05-04T19:37:17.999Z</time>
      </trkpt>
      <trkpt lat="46.59211" lon="-0.44189">
        <ele>294.09</ele>
        <time>2019-05-04T19:37:19.999Z</time>
      </trkpt>
      <trkpt lat="46.59217" lon="-0.44177">
        <ele>293.16</ele>
        <time>2019-05-04T19:37:21.999Z</time>
      </trkpt>
      <trkpt lat="46.59218" lon="-0.44157">
        <ele>292.16</ele>
        <time>2019-05-04T19:37:24.999Z</time>
      </trkpt>
      <trkpt lat="46.59221" lon="-0.44142">
        <ele>292.66</ele>
        <time>2019-05-04T19:37:27.999Z</time>
      </trkpt>
      <trkpt lat="46.59231" lon="-0.44133">
        <ele>292.95</ele>
        <time>2019-05-04T19:37:30.999Z</time>
      </trkpt>
      <trkpt lat="46.59242" lon="-0.44127">
        <ele>292.95</ele>
        <time>2019-05-04T19:37:33.999Z</time>
      </trkpt>
      <trkpt lat="46.59253" lon="-0.44119">
        <ele>294.13</ele>
        <time>2019-05-04T19:37:36.999Z</time>
      </trkpt>
      <trkpt lat="46.59261" lon="-0.44112">
        <ele>294.96</ele>
        <time>2019-05-04T19:37:38.999Z</time>
      </trkpt>
      <trkpt lat="46.5927" lon="-0.44105">
        <ele>295.16</ele>
        <time>2019-05-04T19:37:40.999Z</time>
      </trkpt>
      <trkpt lat="46.5928" lon="-0.44096">
        <ele>295.97</ele>
        <time>2019-05-04T19:37:42.999Z</time>
      </trkpt>
      <trkpt lat="46.59293" lon="-0.44087">
        <ele>297.26</ele>
        <time>2019-05-04T19:37:44.999Z</time>
      </trkpt>
      <trkpt lat="46.59303" lon="-0.44075">
        <ele>297.66</ele>
        <time>2019-05-04T19:37:46.999Z</time>
      </trkpt>
      <trkpt lat="46.59305" lon="-0.44061">
        <ele>297.55</ele>
        <time>2019-05-04T19:37:49.999Z</time>
      </trkpt>
      <trkpt lat="46.59304" lon="-0.44044">
        <ele>297.55</ele>
        <time>2019-05-04T19:37:52.999Z</time>
      </trkpt>
      <trkpt lat="46.59303" lon="-0.44032">
        <ele>297.63</ele>
        <time>2019-05-04T19:37:54.999Z</time>
      </trkpt>
      <trkpt lat="46.593" lon="-0.44014">
        <ele>297.87</ele>
        <time>2019-05-04T19:37:57.999Z</time>
      </trkpt>
      <trkpt lat="46.59298" lon="-0.43998">
        <ele>298.04</ele>
        <time>2019-05-04T19:38:00.999Z</time>
      </trkpt>
      <trkpt lat="46.59295" lon="-0.43982">
        <ele>298.18</ele>
        <time>2019-05-04T19:38:03.999Z</time>
      </trkpt>
      <trkpt lat="46.59293" lon="-0.43968">
        <ele>298.29</ele>
        <time>2019-05-04T19:38:06.999Z</time>
      </trkpt>
      <trkpt lat="46.5929" lon="-0.43953">
        <ele>298.36</ele>
        <time>2019-05-04T19:38:09.999Z</time>
      </trkpt>
      <trkpt lat="46.59285" lon="-0.43941">
        <ele>298.64</ele>
        <time>2019-05-04T19:38:12.999Z</time>
      </trkpt>
      <trkpt lat="46.59281" lon="-0.43925">
        <ele>299.11</ele>
        <time>2019-05-04T19:38:15.999Z</time>
      </trkpt>
      <trkpt lat="46.59278" lon="-0.43911">
        <ele>299.86</ele>
        <time>2019-05-04T19:38:19.999Z</time>
      </trkpt>
      <trkpt lat="46.59274" lon="-0.43895">
        <ele>300.28</ele>
        <time>2019-05-04T19:38:22.999Z</time>
      </trkpt>
      <trkpt lat="46.59272" lon="-0.4388">
        <ele>300.61</ele>
        <time>2019-05-04T19:38:25.999Z</time>
      </trkpt>
      <trkpt lat="46.59272" lon="-0.43866">
        <ele>300.85</ele>
        <time>2019-05-04T19:38:28.999Z</time>
      </trkpt>
      <trkpt lat="46.59278" lon="-0.43854">
        <ele>300.93</ele>
        <time>2019-05-04T19:38:31.999Z</time>
      </trkpt>
      <trkpt lat="46.59282" lon="-0.4384">
        <ele>300.85</ele>
        <time>2019-05-04T19:38:34.999Z</time>
      </trkpt>
      <trkpt lat="46.59287" lon="-0.43825">
        <ele>300.85</ele>
        <time>2019-05-04T19:38:37.999Z</time>
      </trkpt>
      <trkpt lat="46.59291" lon="-0.43811">
        <ele>300.82</ele>
        <time>2019-05-04T19:38:40.999Z</time>
      </trkpt>
      <trkpt lat="46.59293" lon="-0.43798">
        <ele>300.76</ele>
        <time>2019-05-04T19:38:43.999Z</time>
      </trkpt>
      <trkpt lat="46.59293" lon="-0.4378">
        <ele>300.78</ele>
        <time>2019-05-04T19:38:47.999Z</time>
      </trkpt>
      <trkpt lat="46.59291" lon="-0.43761">
        <ele>300.63</ele>
        <time>2019-05-04T19:38:50.999Z</time>
      </trkpt>
      <trkpt lat="46.59289" lon="-0.43743">
        <ele>300.47</ele>
        <time>2019-05-04T19:38:53.999Z</time>
      </trkpt>
      <trkpt lat="46.59287" lon="-0.4373">
        <ele>300.38</ele>
        <time>2019-05-04T19:38:55.999Z</time>
      </trkpt>
      <trkpt lat="46.59286" lon="-0.43714">
        <ele>299.6</ele>
        <time>2019-05-04T19:38:57.999Z</time>
      </trkpt>
      <trkpt lat="46.59284" lon="-0.43702">
        <ele>299.31</ele>
        <time>2019-05-04T19:38:59.999Z</time>
      </trkpt>
      <trkpt lat="46.59283" lon="-0.43688">
        <ele>299.49</ele>
        <time>2019-05-04T19:39:06.999Z</time>
      </trkpt>
      <trkpt lat="46.59292" lon="-0.43674">
        <ele>299.62</ele>
        <time>2019-05-04T19:39:09.999Z</time>
      </trkpt>
      <trkpt lat="46.59298" lon="-0.43664">
        <ele>299.67</ele>
        <time>2019-05-04T19:39:12.999Z</time>
      </trkpt>
      <trkpt lat="46.59301" lon="-0.43652">
        <ele>299.13</ele>
        <time>2019-05-04T19:39:14.999Z</time>
      </trkpt>
      <trkpt lat="46.59306" lon="-0.43636">
        <ele>297.89</ele>
        <time>2019-05-04T19:39:17.999Z</time>
      </trkpt>
      <trkpt lat="46.59311" lon="-0.43624">
        <ele>296.46</ele>
        <time>2019-05-04T19:39:19.999Z</time>
      </trkpt>
      <trkpt lat="46.59314" lon="-0.43612">
        <ele>295.45</ele>
        <time>2019-05-04T19:39:21.999Z</time>
      </trkpt>
      <trkpt lat="46.59318" lon="-0.43595">
        <ele>294.69</ele>
        <time>2019-05-04T19:39:24.999Z</time>
      </trkpt>
      <trkpt lat="46.59319" lon="-0.43574">
        <ele>294.86</ele>
        <time>2019-05-04T19:39:27.999Z</time>
      </trkpt>
      <trkpt lat="46.59321" lon="-0.4356">
        <ele>295.23</ele>
        <time>2019-05-04T19:39:29.999Z</time>
      </trkpt>
      <trkpt lat="46.5932" lon="-0.43547">
        <ele>295.52</ele>
        <time>2019-05-04T19:39:31.999Z</time>
      </trkpt>
      <trkpt lat="46.59321" lon="-0.43529">
        <ele>295.31</ele>
        <time>2019-05-04T19:39:33.999Z</time>
      </trkpt>
      <trkpt lat="46.59319" lon="-0.43512">
        <ele>295.14</ele>
        <time>2019-05-04T19:39:35.999Z</time>
      </trkpt>
      <trkpt lat="46.59318" lon="-0.43494">
        <ele>294.82</ele>
        <time>2019-05-04T19:39:37.999Z</time>
      </trkpt>
      <trkpt lat="46.59316" lon="-0.43475">
        <ele>294.85</ele>
        <time>2019-05-04T19:39:39.999Z</time>
      </trkpt>
      <trkpt lat="46.59314" lon="-0.43454">
        <ele>294.99</ele>
        <time>2019-05-04T19:39:41.999Z</time>
      </trkpt>
      <trkpt lat="46.59312" lon="-0.43434">
        <ele>294.96</ele>
        <time>2019-05-04T19:39:43.999Z</time>
      </trkpt>
      <trkpt lat="46.59309" lon="-0.43416">
        <ele>294.83</ele>
        <time>2019-05-04T19:39:45.999Z</time>
      </trkpt>
      <trkpt lat="46.59305" lon="-0.43399">
        <ele>294.88</ele>
        <time>2019-05-04T19:39:47.999Z</time>
      </trkpt>
      <trkpt lat="46.593" lon="-0.43384">
        <ele>294.94</ele>
        <time>2019-05-04T19:39:49.999Z</time>
      </trkpt>
      <trkpt lat="46.59295" lon="-0.43369">
        <ele>295.03</ele>
        <time>2019-05-04T19:39:51.999Z</time>
      </trkpt>
      <trkpt lat="46.59291" lon="-0.43353">
        <ele>295.06</ele>
        <time>2019-05-04T19:39:53.999Z</time>
      </trkpt>
      <trkpt lat="46.5929" lon="-0.43334">
        <ele>295</ele>
        <time>2019-05-04T19:39:55.999Z</time>
      </trkpt>
      <trkpt lat="46.5929" lon="-0.43315">
        <ele>295.09</ele>
        <time>2019-05-04T19:39:57.999Z</time>
      </trkpt>
      <trkpt lat="46.59285" lon="-0.43297">
        <ele>294.96</ele>
        <time>2019-05-04T19:39:59.999Z</time>
      </trkpt>
      <trkpt lat="46.59279" lon="-0.43282">
        <ele>294.82</ele>
        <time>2019-05-04T19:40:01.999Z</time>
      </trkpt>
      <trkpt lat="46.59271" lon="-0.43269">
        <ele>294.55</ele>
        <time>2019-05-04T19:40:03.999Z</time>
      </trkpt>
      <trkpt lat="46.59264" lon="-0.43257">
        <ele>294.23</ele>
        <time>2019-05-04T19:40:05.999Z</time>
      </trkpt>
      <trkpt lat="46.5926" lon="-0.43242">
        <ele>294.01</ele>
        <time>2019-05-04T19:40:07.999Z</time>
      </trkpt>
      <trkpt lat="46.59255" lon="-0.43228">
        <ele>293.92</ele>
        <time>2019-05-04T19:40:09.999Z</time>
      </trkpt>
      <trkpt lat="46.59248" lon="-0.43213">
        <ele>293.98</ele>
        <time>2019-05-04T19:40:11.999Z</time>
      </trkpt>
      <trkpt lat="46.59243" lon="-0.43196">
        <ele>294.15</ele>
        <time>2019-05-04T19:40:13.999Z</time>
      </trkpt>
      <trkpt lat="46.59238" lon="-0.43181">
        <ele>294.26</ele>
        <time>2019-05-04T19:40:15.999Z</time>
      </trkpt>
      <trkpt lat="46.59232" lon="-0.43165">
        <ele>294.29</ele>
        <time>2019-05-04T19:40:17.999Z</time>
      </trkpt>
      <trkpt lat="46.59227" lon="-0.4315">
        <ele>294.18</ele>
        <time>2019-05-04T19:40:19.999Z</time>
      </trkpt>
      <trkpt lat="46.59222" lon="-0.43135">
        <ele>294.18</ele>
        <time>2019-05-04T19:40:21.999Z</time>
      </trkpt>
      <trkpt lat="46.5922" lon="-0.4312">
        <ele>294.47</ele>
        <time>2019-05-04T19:40:23.999Z</time>
      </trkpt>
      <trkpt lat="46.59218" lon="-0.43105">
        <ele>294.52</ele>
        <time>2019-05-04T19:40:25.999Z</time>
      </trkpt>
      <trkpt lat="46.59217" lon="-0.43087">
        <ele>294.54</ele>
        <time>2019-05-04T19:40:28.999Z</time>
      </trkpt>
      <trkpt lat="46.59222" lon="-0.43076">
        <ele>294.53</ele>
        <time>2019-05-04T19:40:31.999Z</time>
      </trkpt>
      <trkpt lat="46.59234" lon="-0.43069">
        <ele>294.56</ele>
        <time>2019-05-04T19:40:34.999Z</time>
      </trkpt>
      <trkpt lat="46.59245" lon="-0.43066">
        <ele>294.75</ele>
        <time>2019-05-04T19:40:36.999Z</time>
      </trkpt>
      <trkpt lat="46.59255" lon="-0.43061">
        <ele>294.74</ele>
        <time>2019-05-04T19:40:38.999Z</time>
      </trkpt>
      <trkpt lat="46.59267" lon="-0.43056">
        <ele>294.42</ele>
        <time>2019-05-04T19:40:40.999Z</time>
      </trkpt>
      <trkpt lat="46.5928" lon="-0.43052">
        <ele>294.13</ele>
        <time>2019-05-04T19:40:42.999Z</time>
      </trkpt>
      <trkpt lat="46.59293" lon="-0.43048">
        <ele>293.75</ele>
        <time>2019-05-04T19:40:44.999Z</time>
      </trkpt>
      <trkpt lat="46.59309" lon="-0.43045">
        <ele>293.59</ele>
        <time>2019-05-04T19:40:46.999Z</time>
      </trkpt>
      <trkpt lat="46.59326" lon="-0.43042">
        <ele>293.58</ele>
        <time>2019-05-04T19:40:48.999Z</time>
      </trkpt>
      <trkpt lat="46.59335" lon="-0.4304">
        <ele>293.58</ele>
        <time>2019-05-04T19:40:49.999Z</time>
      </trkpt>
      <trkpt lat="46.59344" lon="-0.43037">
        <ele>293.38</ele>
        <time>2019-05-04T19:40:50.999Z</time>
      </trkpt>
      <trkpt lat="46.59353" lon="-0.43035">
        <ele>293.09</ele>
        <time>2019-05-04T19:40:51.999Z</time>
      </trkpt>
      <trkpt lat="46.5937" lon="-0.43029">
        <ele>292.26</ele>
        <time>2019-05-04T19:40:53.999Z</time>
      </trkpt>
      <trkpt lat="46.59386" lon="-0.43024">
        <ele>291.28</ele>
        <time>2019-05-04T19:40:55.999Z</time>
      </trkpt>
      <trkpt lat="46.59402" lon="-0.43017">
        <ele>290.57</ele>
        <time>2019-05-04T19:40:57.999Z</time>
      </trkpt>
      <trkpt lat="46.59417" lon="-0.43008">
        <ele>289.93</ele>
        <time>2019-05-04T19:40:59.999Z</time>
      </trkpt>
      <trkpt lat="46.59431" lon="-0.43">
        <ele>289.41</ele>
        <time>2019-05-04T19:41:01.999Z</time>
      </trkpt>
      <trkpt lat="46.59446" lon="-0.42991">
        <ele>289.13</ele>
        <time>2019-05-04T19:41:03.999Z</time>
      </trkpt>
      <trkpt lat="46.5946" lon="-0.42983">
        <ele>288.95</ele>
        <time>2019-05-04T19:41:05.999Z</time>
      </trkpt>
      <trkpt lat="46.59475" lon="-0.42976">
        <ele>288.66</ele>
        <time>2019-05-04T19:41:07.999Z</time>
      </trkpt>
      <trkpt lat="46.5949" lon="-0.4297">
        <ele>288.42</ele>
        <time>2019-05-04T19:41:09.999Z</time>
      </trkpt>
      <trkpt lat="46.59504" lon="-0.42966">
        <ele>288.04</ele>
        <time>2019-05-04T19:41:11.999Z</time>
      </trkpt>
      <trkpt lat="46.59518" lon="-0.42961">
        <ele>287.49</ele>
        <time>2019-05-04T19:41:13.999Z</time>
      </trkpt>
      <trkpt lat="46.59531" lon="-0.42954">
        <ele>286.96</ele>
        <time>2019-05-04T19:41:15.999Z</time>
      </trkpt>
      <trkpt lat="46.59543" lon="-0.42948">
        <ele>286.65</ele>
        <time>2019-05-04T19:41:17.999Z</time>
      </trkpt>
      <trkpt lat="46.59554" lon="-0.42943">
        <ele>286.78</ele>
        <time>2019-05-04T19:41:19.999Z</time>
      </trkpt>
      <trkpt lat="46.59562" lon="-0.42932">
        <ele>286.85</ele>
        <time>2019-05-04T19:41:22.999Z</time>
      </trkpt>
      <trkpt lat="46.59559" lon="-0.42917">
        <ele>287.03</ele>
        <time>2019-05-04T19:41:25.999Z</time>
      </trkpt>
      <trkpt lat="46.59557" lon="-0.42899">
        <ele>289.12</ele>
        <time>2019-05-04T19:41:28.999Z</time>
      </trkpt>
      <trkpt lat="46.59557" lon="-0.42883">
        <ele>290.67</ele>
        <time>2019-05-04T19:41:30.999Z</time>
      </trkpt>
      <trkpt lat="46.59557" lon="-0.42868">
        <ele>291.78</ele>
        <time>2019-05-04T19:41:32.999Z</time>
      </trkpt>
      <trkpt lat="46.59555" lon="-0.42852">
        <ele>292.41</ele>
        <time>2019-05-04T19:41:34.999Z</time>
      </trkpt>
      <trkpt lat="46.59554" lon="-0.42836">
        <ele>293.12</ele>
        <time>2019-05-04T19:41:36.999Z</time>
      </trkpt>
      <trkpt lat="46.59553" lon="-0.42823">
        <ele>293.75</ele>
        <time>2019-05-04T19:41:38.999Z</time>
      </trkpt>
      <trkpt lat="46.5955" lon="-0.4281">
        <ele>294.14</ele>
        <time>2019-05-04T19:41:40.999Z</time>
      </trkpt>
      <trkpt lat="46.59546" lon="-0.42798">
        <ele>294.19</ele>
        <time>2019-05-04T19:41:42.999Z</time>
      </trkpt>
      <trkpt lat="46.59546" lon="-0.42784">
        <ele>294.37</ele>
        <time>2019-05-04T19:41:44.999Z</time>
      </trkpt>
      <trkpt lat="46.59546" lon="-0.42768">
        <ele>294.1</ele>
        <time>2019-05-04T19:41:46.999Z</time>
      </trkpt>
      <trkpt lat="46.59546" lon="-0.42751">
        <ele>293.4</ele>
        <time>2019-05-04T19:41:48.999Z</time>
      </trkpt>
      <trkpt lat="46.59547" lon="-0.42734">
        <ele>292.91</ele>
        <time>2019-05-04T19:41:50.999Z</time>
      </trkpt>
      <trkpt lat="46.59548" lon="-0.42718">
        <ele>292.32</ele>
        <time>2019-05-04T19:41:52.999Z</time>
      </trkpt>
      <trkpt lat="46.59551" lon="-0.42699">
        <ele>290.79</ele>
        <time>2019-05-04T19:41:55.999Z</time>
      </trkpt>
      <trkpt lat="46.59553" lon="-0.42685">
        <ele>288.8</ele>
        <time>2019-05-04T19:41:57.999Z</time>
      </trkpt>
      <trkpt lat="46.59554" lon="-0.42671">
        <ele>287.4</ele>
        <time>2019-05-04T19:41:59.999Z</time>
      </trkpt>
      <trkpt lat="46.59554" lon="-0.42655">
        <ele>286.15</ele>
        <time>2019-05-04T19:42:01.999Z</time>
      </trkpt>
      <trkpt lat="46.59554" lon="-0.42641">
        <ele>285.03</ele>
        <time>2019-05-04T19:42:03.999Z</time>
      </trkpt>
      <trkpt lat="46.59554" lon="-0.42627">
        <ele>284.61</ele>
        <time>2019-05-04T19:42:05.999Z</time>
      </trkpt>
      <trkpt lat="46.59556" lon="-0.42608">
        <ele>284.36</ele>
        <time>2019-05-04T19:42:08.999Z</time>
      </trkpt>
      <trkpt lat="46.59559" lon="-0.42594">
        <ele>283.89</ele>
        <time>2019-05-04T19:42:10.999Z</time>
      </trkpt>
      <trkpt lat="46.59562" lon="-0.42579">
        <ele>282.91</ele>
        <time>2019-05-04T19:42:12.999Z</time>
      </trkpt>
      <trkpt lat="46.59566" lon="-0.42561">
        <ele>281.23</ele>
        <time>2019-05-04T19:42:14.999Z</time>
      </trkpt>
      <trkpt lat="46.5957" lon="-0.42541">
        <ele>278.71</ele>
        <time>2019-05-04T19:42:16.999Z</time>
      </trkpt>
      <trkpt lat="46.59571" lon="-0.42523">
        <ele>277.28</ele>
        <time>2019-05-04T19:42:18.999Z</time>
      </trkpt>
      <trkpt lat="46.59571" lon="-0.42504">
        <ele>276.64</ele>
        <time>2019-05-04T19:42:20.999Z</time>
      </trkpt>
      <trkpt lat="46.59571" lon="-0.42486">
        <ele>276.71</ele>
        <time>2019-05-04T19:42:22.999Z</time>
      </trkpt>
      <trkpt lat="46.59572" lon="-0.42471">
        <ele>277</ele>
        <time>2019-05-04T19:42:24.999Z</time>
      </trkpt>
      <trkpt lat="46.59575" lon="-0.42454">
        <ele>277.67</ele>
        <time>2019-05-04T19:42:27.999Z</time>
      </trkpt>
      <trkpt lat="46.59577" lon="-0.42439">
        <ele>277.29</ele>
        <time>2019-05-04T19:42:29.999Z</time>
      </trkpt>
      <trkpt lat="46.5958" lon="-0.42427">
        <ele>276.95</ele>
        <time>2019-05-04T19:42:31.999Z</time>
      </trkpt>
      <trkpt lat="46.59592" lon="-0.42425">
        <ele>276.83</ele>
        <time>2019-05-04T19:42:35.999Z</time>
      </trkpt>
      <trkpt lat="46.59603" lon="-0.42422">
        <ele>275.76</ele>
        <time>2019-05-04T19:42:37.999Z</time>
      </trkpt>
      <trkpt lat="46.59614" lon="-0.42419">
        <ele>274.75</ele>
        <time>2019-05-04T19:42:39.999Z</time>
      </trkpt>
      <trkpt lat="46.59625" lon="-0.42416">
        <ele>274.49</ele>
        <time>2019-05-04T19:42:41.999Z</time>
      </trkpt>
      <trkpt lat="46.59635" lon="-0.42414">
        <ele>274.5</ele>
        <time>2019-05-04T19:42:43.999Z</time>
      </trkpt>
      <trkpt lat="46.59646" lon="-0.42412">
        <ele>274.32</ele>
        <time>2019-05-04T19:42:45.999Z</time>
      </trkpt>
      <trkpt lat="46.59657" lon="-0.42408">
        <ele>274.78</ele>
        <time>2019-05-04T19:42:47.999Z</time>
      </trkpt>
      <trkpt lat="46.59668" lon="-0.42404">
        <ele>275.13</ele>
        <time>2019-05-04T19:42:49.999Z</time>
      </trkpt>
      <trkpt lat="46.59679" lon="-0.42399">
        <ele>273.82</ele>
        <time>2019-05-04T19:42:51.999Z</time>
      </trkpt>
      <trkpt lat="46.59689" lon="-0.42398">
        <ele>272.24</ele>
        <time>2019-05-04T19:42:53.999Z</time>
      </trkpt>
      <trkpt lat="46.59699" lon="-0.42397">
        <ele>271.43</ele>
        <time>2019-05-04T19:42:55.999Z</time>
      </trkpt>
      <trkpt lat="46.5971" lon="-0.42399">
        <ele>269.79</ele>
        <time>2019-05-04T19:42:59.999Z</time>
      </trkpt>
      <trkpt lat="46.59722" lon="-0.424">
        <ele>268.7</ele>
        <time>2019-05-04T19:43:01.999Z</time>
      </trkpt>
      <trkpt lat="46.59734" lon="-0.42396">
        <ele>268.15</ele>
        <time>2019-05-04T19:43:03.999Z</time>
      </trkpt>
      <trkpt lat="46.59745" lon="-0.42392">
        <ele>266.97</ele>
        <time>2019-05-04T19:43:05.999Z</time>
      </trkpt>
      <trkpt lat="46.59758" lon="-0.42385">
        <ele>266.31</ele>
        <time>2019-05-04T19:43:07.999Z</time>
      </trkpt>
      <trkpt lat="46.59765" lon="-0.42376">
        <ele>265.59</ele>
        <time>2019-05-04T19:43:09.999Z</time>
      </trkpt>
      <trkpt lat="46.59771" lon="-0.42361">
        <ele>265.22</ele>
        <time>2019-05-04T19:43:11.999Z</time>
      </trkpt>
      <trkpt lat="46.59778" lon="-0.42348">
        <ele>265.03</ele>
        <time>2019-05-04T19:43:13.999Z</time>
      </trkpt>
      <trkpt lat="46.59787" lon="-0.42337">
        <ele>264.44</ele>
        <time>2019-05-04T19:43:15.999Z</time>
      </trkpt>
      <trkpt lat="46.59797" lon="-0.42323">
        <ele>264.25</ele>
        <time>2019-05-04T19:43:17.999Z</time>
      </trkpt>
      <trkpt lat="46.59808" lon="-0.42311">
        <ele>264.09</ele>
        <time>2019-05-04T19:43:19.999Z</time>
      </trkpt>
      <trkpt lat="46.59818" lon="-0.42301">
        <ele>264.29</ele>
        <time>2019-05-04T19:43:21.999Z</time>
      </trkpt>
      <trkpt lat="46.5983" lon="-0.42294">
        <ele>264.58</ele>
        <time>2019-05-04T19:43:23.999Z</time>
      </trkpt>
      <trkpt lat="46.59842" lon="-0.42289">
        <ele>264.88</ele>
        <time>2019-05-04T19:43:25.999Z</time>
      </trkpt>
      <trkpt lat="46.59852" lon="-0.42281">
        <ele>265.29</ele>
        <time>2019-05-04T19:43:27.999Z</time>
      </trkpt>
      <trkpt lat="46.59861" lon="-0.42268">
        <ele>265.85</ele>
        <time>2019-05-04T19:43:29.999Z</time>
      </trkpt>
      <trkpt lat="46.59869" lon="-0.42254">
        <ele>266.42</ele>
        <time>2019-05-04T19:43:31.999Z</time>
      </trkpt>
      <trkpt lat="46.59878" lon="-0.4224">
        <ele>266.38</ele>
        <time>2019-05-04T19:43:34.999Z</time>
      </trkpt>
      <trkpt lat="46.59884" lon="-0.42229">
        <ele>266.35</ele>
        <time>2019-05-04T19:43:36.999Z</time>
      </trkpt>
      <trkpt lat="46.59891" lon="-0.42218">
        <ele>265.94</ele>
        <time>2019-05-04T19:43:38.999Z</time>
      </trkpt>
      <trkpt lat="46.59901" lon="-0.4221">
        <ele>265.31</ele>
        <time>2019-05-04T19:43:40.999Z</time>
      </trkpt>
      <trkpt lat="46.59912" lon="-0.42203">
        <ele>264.48</ele>
        <time>2019-05-04T19:43:42.999Z</time>
      </trkpt>
      <trkpt lat="46.5992" lon="-0.42192">
        <ele>263.67</ele>
        <time>2019-05-04T19:43:44.999Z</time>
      </trkpt>
      <trkpt lat="46.59923" lon="-0.42175">
        <ele>263.17</ele>
        <time>2019-05-04T19:43:46.999Z</time>
      </trkpt>
      <trkpt lat="46.59927" lon="-0.4216">
        <ele>262.86</ele>
        <time>2019-05-04T19:43:48.999Z</time>
      </trkpt>
      <trkpt lat="46.59932" lon="-0.42147">
        <ele>262.63</ele>
        <time>2019-05-04T19:43:50.999Z</time>
      </trkpt>
      <trkpt lat="46.59941" lon="-0.42133">
        <ele>262.43</ele>
        <time>2019-05-04T19:43:52.999Z</time>
      </trkpt>
      <trkpt lat="46.5995" lon="-0.42121">
        <ele>262.24</ele>
        <time>2019-05-04T19:43:54.999Z</time>
      </trkpt>
      <trkpt lat="46.59962" lon="-0.4211">
        <ele>261.78</ele>
        <time>2019-05-04T19:43:56.999Z</time>
      </trkpt>
      <trkpt lat="46.59975" lon="-0.42102">
        <ele>261.24</ele>
        <time>2019-05-04T19:43:58.999Z</time>
      </trkpt>
      <trkpt lat="46.59988" lon="-0.42094">
        <ele>260.62</ele>
        <time>2019-05-04T19:44:00.999Z</time>
      </trkpt>
      <trkpt lat="46.60001" lon="-0.42085">
        <ele>259.99</ele>
        <time>2019-05-04T19:44:02.999Z</time>
      </trkpt>
      <trkpt lat="46.60014" lon="-0.42076">
        <ele>259.44</ele>
        <time>2019-05-04T19:44:04.999Z</time>
      </trkpt>
      <trkpt lat="46.60027" lon="-0.42066">
        <ele>259.07</ele>
        <time>2019-05-04T19:44:06.999Z</time>
      </trkpt>
      <trkpt lat="46.60038" lon="-0.42054">
        <ele>258.81</ele>
        <time>2019-05-04T19:44:08.999Z</time>
      </trkpt>
      <trkpt lat="46.60048" lon="-0.42039">
        <ele>258.6</ele>
        <time>2019-05-04T19:44:10.999Z</time>
      </trkpt>
      <trkpt lat="46.60057" lon="-0.42021">
        <ele>258.3</ele>
        <time>2019-05-04T19:44:12.999Z</time>
      </trkpt>
      <trkpt lat="46.60065" lon="-0.42001">
        <ele>257.95</ele>
        <time>2019-05-04T19:44:14.999Z</time>
      </trkpt>
      <trkpt lat="46.60074" lon="-0.41982">
        <ele>257.67</ele>
        <time>2019-05-04T19:44:16.999Z</time>
      </trkpt>
      <trkpt lat="46.60084" lon="-0.41964">
        <ele>257.38</ele>
        <time>2019-05-04T19:44:18.999Z</time>
      </trkpt>
      <trkpt lat="46.60096" lon="-0.41946">
        <ele>257.25</ele>
        <time>2019-05-04T19:44:20.999Z</time>
      </trkpt>
      <trkpt lat="46.60109" lon="-0.41933">
        <ele>257</ele>
        <time>2019-05-04T19:44:22.999Z</time>
      </trkpt>
      <trkpt lat="46.60122" lon="-0.4192">
        <ele>256.78</ele>
        <time>2019-05-04T19:44:24.999Z</time>
      </trkpt>
      <trkpt lat="46.60136" lon="-0.4191">
        <ele>256.57</ele>
        <time>2019-05-04T19:44:26.999Z</time>
      </trkpt>
      <trkpt lat="46.60149" lon="-0.41902">
        <ele>256.33</ele>
        <time>2019-05-04T19:44:28.999Z</time>
      </trkpt>
      <trkpt lat="46.60164" lon="-0.41895">
        <ele>256.1</ele>
        <time>2019-05-04T19:44:30.999Z</time>
      </trkpt>
      <trkpt lat="46.60178" lon="-0.41888">
        <ele>255.77</ele>
        <time>2019-05-04T19:44:32.999Z</time>
      </trkpt>
      <trkpt lat="46.60193" lon="-0.41881">
        <ele>255.48</ele>
        <time>2019-05-04T19:44:34.999Z</time>
      </trkpt>
      <trkpt lat="46.60207" lon="-0.41873">
        <ele>255.11</ele>
        <time>2019-05-04T19:44:36.999Z</time>
      </trkpt>
      <trkpt lat="46.60222" lon="-0.41867">
        <ele>254.79</ele>
        <time>2019-05-04T19:44:38.999Z</time>
      </trkpt>
      <trkpt lat="46.60236" lon="-0.41861">
        <ele>254.51</ele>
        <time>2019-05-04T19:44:40.999Z</time>
      </trkpt>
      <trkpt lat="46.60248" lon="-0.41852">
        <ele>254.24</ele>
        <time>2019-05-04T19:44:42.999Z</time>
      </trkpt>
      <trkpt lat="46.60259" lon="-0.41844">
        <ele>253.85</ele>
        <time>2019-05-04T19:44:44.999Z</time>
      </trkpt>
      <trkpt lat="46.60268" lon="-0.41835">
        <ele>253.59</ele>
        <time>2019-05-04T19:44:46.999Z</time>
      </trkpt>
      <trkpt lat="46.60277" lon="-0.41826">
        <ele>253.3</ele>
        <time>2019-05-04T19:44:48.999Z</time>
      </trkpt>
      <trkpt lat="46.60286" lon="-0.41813">
        <ele>252.97</ele>
        <time>2019-05-04T19:44:51.999Z</time>
      </trkpt>
      <trkpt lat="46.60297" lon="-0.41802">
        <ele>252.67</ele>
        <time>2019-05-04T19:44:54.999Z</time>
      </trkpt>
      <trkpt lat="46.60308" lon="-0.41793">
        <ele>252.3</ele>
        <time>2019-05-04T19:44:56.999Z</time>
      </trkpt>
      <trkpt lat="46.60319" lon="-0.4178">
        <ele>251.99</ele>
        <time>2019-05-04T19:44:58.999Z</time>
      </trkpt>
      <trkpt lat="46.6033" lon="-0.41772">
        <ele>251.28</ele>
        <time>2019-05-04T19:45:00.999Z</time>
      </trkpt>
      <trkpt lat="46.60341" lon="-0.41763">
        <ele>250.57</ele>
        <time>2019-05-04T19:45:02.999Z</time>
      </trkpt>
      <trkpt lat="46.60354" lon="-0.41759">
        <ele>250.04</ele>
        <time>2019-05-04T19:45:04.999Z</time>
      </trkpt>
      <trkpt lat="46.60365" lon="-0.41754">
        <ele>249.73</ele>
        <time>2019-05-04T19:45:06.999Z</time>
      </trkpt>
      <trkpt lat="46.60374" lon="-0.41742">
        <ele>249.34</ele>
        <time>2019-05-04T19:45:08.999Z</time>
      </trkpt>
      <trkpt lat="46.60382" lon="-0.41728">
        <ele>249.07</ele>
        <time>2019-05-04T19:45:10.999Z</time>
      </trkpt>
      <trkpt lat="46.60388" lon="-0.41713">
        <ele>248.96</ele>
        <time>2019-05-04T19:45:12.999Z</time>
      </trkpt>
      <trkpt lat="46.60395" lon="-0.41701">
        <ele>248.87</ele>
        <time>2019-05-04T19:45:14.999Z</time>
      </trkpt>
      <trkpt lat="46.60403" lon="-0.41688">
        <ele>248.43</ele>
        <time>2019-05-04T19:45:16.999Z</time>
      </trkpt>
      <trkpt lat="46.60412" lon="-0.41676">
        <ele>248.27</ele>
        <time>2019-05-04T19:45:18.999Z</time>
      </trkpt>
      <trkpt lat="46.60419" lon="-0.41665">
        <ele>248.3</ele>
        <time>2019-05-04T19:45:20.999Z</time>
      </trkpt>
      <trkpt lat="46.60428" lon="-0.41655">
        <ele>248.44</ele>
        <time>2019-05-04T19:45:22.999Z</time>
      </trkpt>
      <trkpt lat="46.60437" lon="-0.41643">
        <ele>248.87</ele>
        <time>2019-05-04T19:45:24.999Z</time>
      </trkpt>
      <trkpt lat="46.60446" lon="-0.41628">
        <ele>249.32</ele>
        <time>2019-05-04T19:45:26.999Z</time>
      </trkpt>
      <trkpt lat="46.60455" lon="-0.41619">
        <ele>250.2</ele>
        <time>2019-05-04T19:45:28.999Z</time>
      </trkpt>
      <trkpt lat="46.60463" lon="-0.41612">
        <ele>251.19</ele>
        <time>2019-05-04T19:45:30.999Z</time>
      </trkpt>
      <trkpt lat="46.60472" lon="-0.41607">
        <ele>251.2</ele>
        <time>2019-05-04T19:45:32.999Z</time>
      </trkpt>
      <trkpt lat="46.60481" lon="-0.41597">
        <ele>251.14</ele>
        <time>2019-05-04T19:45:35.999Z</time>
      </trkpt>
      <trkpt lat="46.60478" lon="-0.4158">
        <ele>249.72</ele>
        <time>2019-05-04T19:45:38.999Z</time>
      </trkpt>
      <trkpt lat="46.60473" lon="-0.41567">
        <ele>248.81</ele>
        <time>2019-05-04T19:45:40.999Z</time>
      </trkpt>
      <trkpt lat="46.60468" lon="-0.41554">
        <ele>247.88</ele>
        <time>2019-05-04T19:45:42.999Z</time>
      </trkpt>
      <trkpt lat="46.60464" lon="-0.41539">
        <ele>247.04</ele>
        <time>2019-05-04T19:45:44.999Z</time>
      </trkpt>
      <trkpt lat="46.6046" lon="-0.41523">
        <ele>246.67</ele>
        <time>2019-05-04T19:45:46.999Z</time>
      </trkpt>
      <trkpt lat="46.60454" lon="-0.41504">
        <ele>245.86</ele>
        <time>2019-05-04T19:45:48.999Z</time>
      </trkpt>
      <trkpt lat="46.6045" lon="-0.41484">
        <ele>245.08</ele>
        <time>2019-05-04T19:45:50.999Z</time>
      </trkpt>
      <trkpt lat="46.60448" lon="-0.41464">
        <ele>243.99</ele>
        <time>2019-05-04T19:45:52.999Z</time>
      </trkpt>
      <trkpt lat="46.60445" lon="-0.41442">
        <ele>242.3</ele>
        <time>2019-05-04T19:45:54.999Z</time>
      </trkpt>
      <trkpt lat="46.6044" lon="-0.41424">
        <ele>240.75</ele>
        <time>2019-05-04T19:45:56.999Z</time>
      </trkpt>
      <trkpt lat="46.60433" lon="-0.41406">
        <ele>239.11</ele>
        <time>2019-05-04T19:45:58.999Z</time>
      </trkpt>
      <trkpt lat="46.60426" lon="-0.41388">
        <ele>238.31</ele>
        <time>2019-05-04T19:46:00.999Z</time>
      </trkpt>
      <trkpt lat="46.60417" lon="-0.4137">
        <ele>237.92</ele>
        <time>2019-05-04T19:46:02.999Z</time>
      </trkpt>
      <trkpt lat="46.60408" lon="-0.41351">
        <ele>237.75</ele>
        <time>2019-05-04T19:46:04.999Z</time>
      </trkpt>
      <trkpt lat="46.60402" lon="-0.41332">
        <ele>237.83</ele>
        <time>2019-05-04T19:46:06.999Z</time>
      </trkpt>
      <trkpt lat="46.60393" lon="-0.41318">
        <ele>237.67</ele>
        <time>2019-05-04T19:46:08.999Z</time>
      </trkpt>
      <trkpt lat="46.60384" lon="-0.41304">
        <ele>237.63</ele>
        <time>2019-05-04T19:46:10.999Z</time>
      </trkpt>
      <trkpt lat="46.60376" lon="-0.41292">
        <ele>237.87</ele>
        <time>2019-05-04T19:46:12.999Z</time>
      </trkpt>
      <trkpt lat="46.60369" lon="-0.4128">
        <ele>238.08</ele>
        <time>2019-05-04T19:46:14.999Z</time>
      </trkpt>
      <trkpt lat="46.60361" lon="-0.41269">
        <ele>238.27</ele>
        <time>2019-05-04T19:46:16.999Z</time>
      </trkpt>
      <trkpt lat="46.60354" lon="-0.41259">
        <ele>238.69</ele>
        <time>2019-05-04T19:46:18.999Z</time>
      </trkpt>
      <trkpt lat="46.60346" lon="-0.4125">
        <ele>239.22</ele>
        <time>2019-05-04T19:46:20.999Z</time>
      </trkpt>
      <trkpt lat="46.60337" lon="-0.4124">
        <ele>239.68</ele>
        <time>2019-05-04T19:46:22.999Z</time>
      </trkpt>
      <trkpt lat="46.6033" lon="-0.41228">
        <ele>240.09</ele>
        <time>2019-05-04T19:46:24.999Z</time>
      </trkpt>
      <trkpt lat="46.60321" lon="-0.41214">
        <ele>240.37</ele>
        <time>2019-05-04T19:46:26.999Z</time>
      </trkpt>
      <trkpt lat="46.60312" lon="-0.41199">
        <ele>240.44</ele>
        <time>2019-05-04T19:46:28.999Z</time>
      </trkpt>
      <trkpt lat="46.60304" lon="-0.41184">
        <ele>240.41</ele>
        <time>2019-05-04T19:46:30.999Z</time>
      </trkpt>
      <trkpt lat="46.60297" lon="-0.41169">
        <ele>240.39</ele>
        <time>2019-05-04T19:46:32.999Z</time>
      </trkpt>
      <trkpt lat="46.60289" lon="-0.41156">
        <ele>240.23</ele>
        <time>2019-05-04T19:46:34.999Z</time>
      </trkpt>
      <trkpt lat="46.60282" lon="-0.41142">
        <ele>239.99</ele>
        <time>2019-05-04T19:46:36.999Z</time>
      </trkpt>
      <trkpt lat="46.60275" lon="-0.41129">
        <ele>239.62</ele>
        <time>2019-05-04T19:46:38.999Z</time>
      </trkpt>
      <trkpt lat="46.60267" lon="-0.41117">
        <ele>239.27</ele>
        <time>2019-05-04T19:46:40.999Z</time>
      </trkpt>
      <trkpt lat="46.60258" lon="-0.41105">
        <ele>238.83</ele>
        <time>2019-05-04T19:46:42.999Z</time>
      </trkpt>
      <trkpt lat="46.6025" lon="-0.41093">
        <ele>238.57</ele>
        <time>2019-05-04T19:46:45.999Z</time>
      </trkpt>
      <trkpt lat="46.6024" lon="-0.4109">
        <ele>238.5</ele>
        <time>2019-05-04T19:46:48.999Z</time>
      </trkpt>
      <trkpt lat="46.6023" lon="-0.41095">
        <ele>238.41</ele>
        <time>2019-05-04T19:46:53.999Z</time>
      </trkpt>
      <trkpt lat="46.60217" lon="-0.41099">
        <ele>239.43</ele>
        <time>2019-05-04T19:46:57.999Z</time>
      </trkpt>
      <trkpt lat="46.60208" lon="-0.41102">
        <ele>240.51</ele>
        <time>2019-05-04T19:46:59.999Z</time>
      </trkpt>
      <trkpt lat="46.60198" lon="-0.41105">
        <ele>241.47</ele>
        <time>2019-05-04T19:47:01.999Z</time>
      </trkpt>
      <trkpt lat="46.60188" lon="-0.41107">
        <ele>242.11</ele>
        <time>2019-05-04T19:47:03.999Z</time>
      </trkpt>
      <trkpt lat="46.60178" lon="-0.41109">
        <ele>242.4</ele>
        <time>2019-05-04T19:47:05.999Z</time>
      </trkpt>
      <trkpt lat="46.60166" lon="-0.4111">
        <ele>242.4</ele>
        <time>2019-05-04T19:47:08.999Z</time>
      </trkpt>
      <trkpt lat="46.60156" lon="-0.41115">
        <ele>242.24</ele>
        <time>2019-05-04T19:47:11.999Z</time>
      </trkpt>
      <trkpt lat="46.60147" lon="-0.41118">
        <ele>239.75</ele>
        <time>2019-05-04T19:47:38.999Z</time>
      </trkpt>
      <trkpt lat="46.6015" lon="-0.4113">
        <ele>238.96</ele>
        <time>2019-05-04T19:48:09.999Z</time>
      </trkpt>
      <trkpt lat="46.60146" lon="-0.41119">
        <ele>236.3</ele>
        <time>2019-05-04T19:52:12.999Z</time>
      </trkpt>
      <trkpt lat="46.60154" lon="-0.41113">
        <ele>236.76</ele>
        <time>2019-05-04T19:52:40.000Z</time>
      </trkpt>
      <trkpt lat="46.60155" lon="-0.41097">
        <ele>237.43</ele>
        <time>2019-05-04T19:53:31.000Z</time>
      </trkpt>
      <trkpt lat="46.60157" lon="-0.41109">
        <ele>236.82</ele>
        <time>2019-05-04T19:53:46.000Z</time>
      </trkpt>
      <trkpt lat="46.60165" lon="-0.41102">
        <ele>236.56</ele>
        <time>2019-05-04T19:55:07.000Z</time>
      </trkpt>
      <trkpt lat="46.60176" lon="-0.41102">
        <ele>236.68</ele>
        <time>2019-05-04T19:55:10.000Z</time>
      </trkpt>
      <trkpt lat="46.60185" lon="-0.41102">
        <ele>236.66</ele>
        <time>2019-05-04T19:55:13.000Z</time>
      </trkpt>
      <trkpt lat="46.60195" lon="-0.41099">
        <ele>236.47</ele>
        <time>2019-05-04T19:55:16.000Z</time>
      </trkpt>
      <trkpt lat="46.60204" lon="-0.41096">
        <ele>236.16</ele>
        <time>2019-05-04T19:55:19.000Z</time>
      </trkpt>
      <trkpt lat="46.60214" lon="-0.41094">
        <ele>235.66</ele>
        <time>2019-05-04T19:55:23.000Z</time>
      </trkpt>
      <trkpt lat="46.60224" lon="-0.41091">
        <ele>235.12</ele>
        <time>2019-05-04T19:55:27.000Z</time>
      </trkpt>
      <trkpt lat="46.60233" lon="-0.41087">
        <ele>234.72</ele>
        <time>2019-05-04T19:55:30.000Z</time>
      </trkpt>
      <trkpt lat="46.60238" lon="-0.41076">
        <ele>234.09</ele>
        <time>2019-05-04T19:55:36.000Z</time>
      </trkpt>
      <trkpt lat="46.6023" lon="-0.41067">
        <ele>234.08</ele>
        <time>2019-05-04T19:55:39.000Z</time>
      </trkpt>
      <trkpt lat="46.60223" lon="-0.41055">
        <ele>234.25</ele>
        <time>2019-05-04T19:55:42.000Z</time>
      </trkpt>
      <trkpt lat="46.60217" lon="-0.41041">
        <ele>234.91</ele>
        <time>2019-05-04T19:55:46.000Z</time>
      </trkpt>
      <trkpt lat="46.6021" lon="-0.41025">
        <ele>237.84</ele>
        <time>2019-05-04T19:55:49.000Z</time>
      </trkpt>
      <trkpt lat="46.60203" lon="-0.4101">
        <ele>239.34</ele>
        <time>2019-05-04T19:55:52.000Z</time>
      </trkpt>
      <trkpt lat="46.60199" lon="-0.40997">
        <ele>239.33</ele>
        <time>2019-05-04T19:55:54.000Z</time>
      </trkpt>
      <trkpt lat="46.60191" lon="-0.40982">
        <ele>238.09</ele>
        <time>2019-05-04T19:55:57.000Z</time>
      </trkpt>
      <trkpt lat="46.60187" lon="-0.4097">
        <ele>237.33</ele>
        <time>2019-05-04T19:55:59.000Z</time>
      </trkpt>
      <trkpt lat="46.6018" lon="-0.40955">
        <ele>235.14</ele>
        <time>2019-05-04T19:56:02.000Z</time>
      </trkpt>
      <trkpt lat="46.60174" lon="-0.40941">
        <ele>233.77</ele>
        <time>2019-05-04T19:56:05.000Z</time>
      </trkpt>
      <trkpt lat="46.60167" lon="-0.40927">
        <ele>233.22</ele>
        <time>2019-05-04T19:56:08.000Z</time>
      </trkpt>
      <trkpt lat="46.60162" lon="-0.40915">
        <ele>232.69</ele>
        <time>2019-05-04T19:56:10.000Z</time>
      </trkpt>
      <trkpt lat="46.60155" lon="-0.40899">
        <ele>232.51</ele>
        <time>2019-05-04T19:56:13.000Z</time>
      </trkpt>
      <trkpt lat="46.6015" lon="-0.40886">
        <ele>232.82</ele>
        <time>2019-05-04T19:56:15.000Z</time>
      </trkpt>
      <trkpt lat="46.60143" lon="-0.40866">
        <ele>233.06</ele>
        <time>2019-05-04T19:56:18.000Z</time>
      </trkpt>
      <trkpt lat="46.60137" lon="-0.40846">
        <ele>232.43</ele>
        <time>2019-05-04T19:56:21.000Z</time>
      </trkpt>
      <trkpt lat="46.60133" lon="-0.40829">
        <ele>231.81</ele>
        <time>2019-05-04T19:56:23.000Z</time>
      </trkpt>
      <trkpt lat="46.60132" lon="-0.40811">
        <ele>231.19</ele>
        <time>2019-05-04T19:56:25.000Z</time>
      </trkpt>
      <trkpt lat="46.60133" lon="-0.40791">
        <ele>230.4</ele>
        <time>2019-05-04T19:56:27.000Z</time>
      </trkpt>
      <trkpt lat="46.60136" lon="-0.40769">
        <ele>229.4</ele>
        <time>2019-05-04T19:56:29.000Z</time>
      </trkpt>
      <trkpt lat="46.60143" lon="-0.40748">
        <ele>228.38</ele>
        <time>2019-05-04T19:56:31.000Z</time>
      </trkpt>
      <trkpt lat="46.60151" lon="-0.40727">
        <ele>227.64</ele>
        <time>2019-05-04T19:56:33.000Z</time>
      </trkpt>
      <trkpt lat="46.60159" lon="-0.40706">
        <ele>227.68</ele>
        <time>2019-05-04T19:56:35.000Z</time>
      </trkpt>
      <trkpt lat="46.60162" lon="-0.40685">
        <ele>227.49</ele>
        <time>2019-05-04T19:56:37.000Z</time>
      </trkpt>
      <trkpt lat="46.60164" lon="-0.40664">
        <ele>227.28</ele>
        <time>2019-05-04T19:56:39.000Z</time>
      </trkpt>
      <trkpt lat="46.60167" lon="-0.40645">
        <ele>226.99</ele>
        <time>2019-05-04T19:56:41.000Z</time>
      </trkpt>
      <trkpt lat="46.6017" lon="-0.40627">
        <ele>226.64</ele>
        <time>2019-05-04T19:56:43.000Z</time>
      </trkpt>
      <trkpt lat="46.60173" lon="-0.40607">
        <ele>226.28</ele>
        <time>2019-05-04T19:56:45.000Z</time>
      </trkpt>
      <trkpt lat="46.60175" lon="-0.40586">
        <ele>225.92</ele>
        <time>2019-05-04T19:56:47.000Z</time>
      </trkpt>
      <trkpt lat="46.60175" lon="-0.40565">
        <ele>225.64</ele>
        <time>2019-05-04T19:56:49.000Z</time>
      </trkpt>
      <trkpt lat="46.60173" lon="-0.40545">
        <ele>225.4</ele>
        <time>2019-05-04T19:56:51.000Z</time>
      </trkpt>
      <trkpt lat="46.60171" lon="-0.40527">
        <ele>225.19</ele>
        <time>2019-05-04T19:56:53.000Z</time>
      </trkpt>
      <trkpt lat="46.60168" lon="-0.40508">
        <ele>225.02</ele>
        <time>2019-05-04T19:56:55.000Z</time>
      </trkpt>
      <trkpt lat="46.60165" lon="-0.40489">
        <ele>225.05</ele>
        <time>2019-05-04T19:56:57.000Z</time>
      </trkpt>
      <trkpt lat="46.60162" lon="-0.40471">
        <ele>225.03</ele>
        <time>2019-05-04T19:56:59.000Z</time>
      </trkpt>
      <trkpt lat="46.60162" lon="-0.40454">
        <ele>225.05</ele>
        <time>2019-05-04T19:57:01.000Z</time>
      </trkpt>
      <trkpt lat="46.60162" lon="-0.40437">
        <ele>225.21</ele>
        <time>2019-05-04T19:57:03.000Z</time>
      </trkpt>
      <trkpt lat="46.60162" lon="-0.40421">
        <ele>225.68</ele>
        <time>2019-05-04T19:57:05.000Z</time>
      </trkpt>
      <trkpt lat="46.60162" lon="-0.40404">
        <ele>226.38</ele>
        <time>2019-05-04T19:57:07.000Z</time>
      </trkpt>
      <trkpt lat="46.6016" lon="-0.40389">
        <ele>226.89</ele>
        <time>2019-05-04T19:57:09.000Z</time>
      </trkpt>
      <trkpt lat="46.60154" lon="-0.40375">
        <ele>227.26</ele>
        <time>2019-05-04T19:57:11.000Z</time>
      </trkpt>
      <trkpt lat="46.60149" lon="-0.40363">
        <ele>227.75</ele>
        <time>2019-05-04T19:57:13.000Z</time>
      </trkpt>
      <trkpt lat="46.60143" lon="-0.40352">
        <ele>228.34</ele>
        <time>2019-05-04T19:57:15.000Z</time>
      </trkpt>
      <trkpt lat="46.60136" lon="-0.40342">
        <ele>229.05</ele>
        <time>2019-05-04T19:57:17.000Z</time>
      </trkpt>
      <trkpt lat="46.6013" lon="-0.40331">
        <ele>229.96</ele>
        <time>2019-05-04T19:57:19.000Z</time>
      </trkpt>
      <trkpt lat="46.60123" lon="-0.40321">
        <ele>230.53</ele>
        <time>2019-05-04T19:57:22.000Z</time>
      </trkpt>
      <trkpt lat="46.60113" lon="-0.40331">
        <ele>231.69</ele>
        <time>2019-05-04T19:57:26.000Z</time>
      </trkpt>
      <trkpt lat="46.60105" lon="-0.40345">
        <ele>232.61</ele>
        <time>2019-05-04T19:57:29.000Z</time>
      </trkpt>
      <trkpt lat="46.60098" lon="-0.4036">
        <ele>233.35</ele>
        <time>2019-05-04T19:57:32.000Z</time>
      </trkpt>
      <trkpt lat="46.6009" lon="-0.40371">
        <ele>233.54</ele>
        <time>2019-05-04T19:57:35.000Z</time>
      </trkpt>
      <trkpt lat="46.60083" lon="-0.40383">
        <ele>233.79</ele>
        <time>2019-05-04T19:57:38.000Z</time>
      </trkpt>
      <trkpt lat="46.60074" lon="-0.40388">
        <ele>234.02</ele>
        <time>2019-05-04T19:57:42.000Z</time>
      </trkpt>
      <trkpt lat="46.60065" lon="-0.404">
        <ele>233.93</ele>
        <time>2019-05-04T19:57:46.000Z</time>
      </trkpt>
      <trkpt lat="46.60059" lon="-0.4041">
        <ele>233.91</ele>
        <time>2019-05-04T19:57:48.000Z</time>
      </trkpt>
      <trkpt lat="46.60052" lon="-0.40421">
        <ele>233.8</ele>
        <time>2019-05-04T19:57:51.000Z</time>
      </trkpt>
      <trkpt lat="46.60045" lon="-0.40433">
        <ele>233.75</ele>
        <time>2019-05-04T19:57:54.000Z</time>
      </trkpt>
      <trkpt lat="46.60038" lon="-0.40445">
        <ele>233.81</ele>
        <time>2019-05-04T19:57:57.000Z</time>
      </trkpt>
      <trkpt lat="46.6003" lon="-0.40457">
        <ele>233.85</ele>
        <time>2019-05-04T19:58:00.000Z</time>
      </trkpt>
      <trkpt lat="46.60023" lon="-0.40469">
        <ele>233.79</ele>
        <time>2019-05-04T19:58:03.000Z</time>
      </trkpt>
      <trkpt lat="46.60017" lon="-0.40481">
        <ele>233.76</ele>
        <time>2019-05-04T19:58:06.000Z</time>
      </trkpt>
      <trkpt lat="46.60011" lon="-0.40491">
        <ele>233.88</ele>
        <time>2019-05-04T19:58:09.000Z</time>
      </trkpt>
      <trkpt lat="46.60003" lon="-0.40502">
        <ele>233.98</ele>
        <time>2019-05-04T19:58:12.000Z</time>
      </trkpt>
      <trkpt lat="46.59996" lon="-0.40511">
        <ele>233.96</ele>
        <time>2019-05-04T19:58:15.000Z</time>
      </trkpt>
      <trkpt lat="46.5999" lon="-0.40522">
        <ele>233.91</ele>
        <time>2019-05-04T19:58:18.000Z</time>
      </trkpt>
      <trkpt lat="46.59982" lon="-0.40534">
        <ele>233.76</ele>
        <time>2019-05-04T19:58:22.000Z</time>
      </trkpt>
      <trkpt lat="46.59975" lon="-0.40548">
        <ele>233.73</ele>
        <time>2019-05-04T19:58:27.000Z</time>
      </trkpt>
      <trkpt lat="46.59966" lon="-0.40559">
        <ele>233.96</ele>
        <time>2019-05-04T19:58:31.000Z</time>
      </trkpt>
      <trkpt lat="46.59958" lon="-0.40567">
        <ele>234.19</ele>
        <time>2019-05-04T19:58:34.000Z</time>
      </trkpt>
      <trkpt lat="46.5995" lon="-0.40576">
        <ele>234.34</ele>
        <time>2019-05-04T19:58:37.000Z</time>
      </trkpt>
      <trkpt lat="46.59939" lon="-0.40589">
        <ele>234.65</ele>
        <time>2019-05-04T19:58:41.000Z</time>
      </trkpt>
      <trkpt lat="46.59932" lon="-0.40601">
        <ele>234.88</ele>
        <time>2019-05-04T19:58:44.000Z</time>
      </trkpt>
      <trkpt lat="46.59925" lon="-0.40614">
        <ele>235.13</ele>
        <time>2019-05-04T19:58:47.000Z</time>
      </trkpt>
      <trkpt lat="46.59918" lon="-0.40624">
        <ele>236.01</ele>
        <time>2019-05-04T19:58:49.000Z</time>
      </trkpt>
      <trkpt lat="46.59912" lon="-0.40634">
        <ele>236.25</ele>
        <time>2019-05-04T19:58:51.000Z</time>
      </trkpt>
      <trkpt lat="46.59905" lon="-0.40645">
        <ele>236.38</ele>
        <time>2019-05-04T19:58:53.000Z</time>
      </trkpt>
      <trkpt lat="46.59898" lon="-0.40656">
        <ele>236.36</ele>
        <time>2019-05-04T19:58:56.000Z</time>
      </trkpt>
      <trkpt lat="46.59891" lon="-0.40669">
        <ele>236.26</ele>
        <time>2019-05-04T19:58:59.000Z</time>
      </trkpt>
      <trkpt lat="46.59884" lon="-0.40679">
        <ele>236.12</ele>
        <time>2019-05-04T19:59:02.000Z</time>
      </trkpt>
      <trkpt lat="46.59874" lon="-0.4069">
        <ele>236.05</ele>
        <time>2019-05-04T19:59:05.000Z</time>
      </trkpt>
      <trkpt lat="46.59863" lon="-0.40701">
        <ele>236.2</ele>
        <time>2019-05-04T19:59:08.000Z</time>
      </trkpt>
      <trkpt lat="46.59853" lon="-0.40712">
        <ele>237.8</ele>
        <time>2019-05-04T19:59:11.000Z</time>
      </trkpt>
      <trkpt lat="46.59847" lon="-0.40721">
        <ele>239.8</ele>
        <time>2019-05-04T19:59:13.000Z</time>
      </trkpt>
      <trkpt lat="46.59839" lon="-0.40731">
        <ele>240.92</ele>
        <time>2019-05-04T19:59:15.000Z</time>
      </trkpt>
      <trkpt lat="46.5983" lon="-0.40739">
        <ele>241.73</ele>
        <time>2019-05-04T19:59:17.000Z</time>
      </trkpt>
      <trkpt lat="46.59819" lon="-0.40751">
        <ele>242.33</ele>
        <time>2019-05-04T19:59:19.000Z</time>
      </trkpt>
      <trkpt lat="46.5981" lon="-0.40762">
        <ele>243.08</ele>
        <time>2019-05-04T19:59:21.000Z</time>
      </trkpt>
      <trkpt lat="46.59799" lon="-0.40773">
        <ele>243.97</ele>
        <time>2019-05-04T19:59:23.000Z</time>
      </trkpt>
      <trkpt lat="46.59791" lon="-0.40782">
        <ele>244.12</ele>
        <time>2019-05-04T19:59:25.000Z</time>
      </trkpt>
      <trkpt lat="46.59784" lon="-0.4079">
        <ele>244.3</ele>
        <time>2019-05-04T19:59:27.000Z</time>
      </trkpt>
      <trkpt lat="46.59776" lon="-0.40798">
        <ele>244.22</ele>
        <time>2019-05-04T19:59:29.000Z</time>
      </trkpt>
      <trkpt lat="46.59768" lon="-0.40807">
        <ele>243.86</ele>
        <time>2019-05-04T19:59:31.000Z</time>
      </trkpt>
      <trkpt lat="46.59758" lon="-0.40816">
        <ele>243.75</ele>
        <time>2019-05-04T19:59:33.000Z</time>
      </trkpt>
      <trkpt lat="46.5975" lon="-0.40826">
        <ele>243.23</ele>
        <time>2019-05-04T19:59:35.000Z</time>
      </trkpt>
      <trkpt lat="46.59739" lon="-0.40838">
        <ele>243.04</ele>
        <time>2019-05-04T19:59:37.000Z</time>
      </trkpt>
      <trkpt lat="46.59728" lon="-0.4085">
        <ele>242.14</ele>
        <time>2019-05-04T19:59:39.000Z</time>
      </trkpt>
      <trkpt lat="46.59717" lon="-0.40864">
        <ele>240.74</ele>
        <time>2019-05-04T19:59:41.000Z</time>
      </trkpt>
      <trkpt lat="46.59707" lon="-0.40875">
        <ele>238.7</ele>
        <time>2019-05-04T19:59:43.000Z</time>
      </trkpt>
      <trkpt lat="46.59699" lon="-0.40887">
        <ele>235.76</ele>
        <time>2019-05-04T19:59:45.000Z</time>
      </trkpt>
      <trkpt lat="46.59689" lon="-0.40899">
        <ele>233.42</ele>
        <time>2019-05-04T19:59:47.000Z</time>
      </trkpt>
      <trkpt lat="46.59679" lon="-0.40911">
        <ele>231.63</ele>
        <time>2019-05-04T19:59:49.000Z</time>
      </trkpt>
      <trkpt lat="46.5967" lon="-0.4092">
        <ele>230.33</ele>
        <time>2019-05-04T19:59:51.000Z</time>
      </trkpt>
      <trkpt lat="46.59663" lon="-0.40928">
        <ele>229.2</ele>
        <time>2019-05-04T19:59:53.000Z</time>
      </trkpt>
      <trkpt lat="46.59655" lon="-0.40937">
        <ele>228.71</ele>
        <time>2019-05-04T19:59:55.000Z</time>
      </trkpt>
      <trkpt lat="46.59648" lon="-0.40953">
        <ele>228.46</ele>
        <time>2019-05-04T19:59:58.000Z</time>
      </trkpt>
      <trkpt lat="46.59641" lon="-0.40966">
        <ele>228.31</ele>
        <time>2019-05-04T20:00:00.000Z</time>
      </trkpt>
      <trkpt lat="46.59634" lon="-0.40978">
        <ele>228.28</ele>
        <time>2019-05-04T20:00:02.000Z</time>
      </trkpt>
      <trkpt lat="46.59626" lon="-0.4099">
        <ele>228.08</ele>
        <time>2019-05-04T20:00:04.000Z</time>
      </trkpt>
      <trkpt lat="46.59618" lon="-0.41">
        <ele>227.86</ele>
        <time>2019-05-04T20:00:06.000Z</time>
      </trkpt>
      <trkpt lat="46.5961" lon="-0.4101">
        <ele>227.6</ele>
        <time>2019-05-04T20:00:08.000Z</time>
      </trkpt>
      <trkpt lat="46.59602" lon="-0.41022">
        <ele>227.44</ele>
        <time>2019-05-04T20:00:10.000Z</time>
      </trkpt>
      <trkpt lat="46.59594" lon="-0.41033">
        <ele>227.21</ele>
        <time>2019-05-04T20:00:12.000Z</time>
      </trkpt>
      <trkpt lat="46.59587" lon="-0.41043">
        <ele>227.1</ele>
        <time>2019-05-04T20:00:14.000Z</time>
      </trkpt>
      <trkpt lat="46.59579" lon="-0.41053">
        <ele>227.11</ele>
        <time>2019-05-04T20:00:16.000Z</time>
      </trkpt>
      <trkpt lat="46.5957" lon="-0.41061">
        <ele>227.12</ele>
        <time>2019-05-04T20:00:18.000Z</time>
      </trkpt>
      <trkpt lat="46.59561" lon="-0.4107">
        <ele>227.13</ele>
        <time>2019-05-04T20:00:20.000Z</time>
      </trkpt>
      <trkpt lat="46.59552" lon="-0.41078">
        <ele>226.93</ele>
        <time>2019-05-04T20:00:22.000Z</time>
      </trkpt>
      <trkpt lat="46.59545" lon="-0.41086">
        <ele>226.87</ele>
        <time>2019-05-04T20:00:24.000Z</time>
      </trkpt>
      <trkpt lat="46.59533" lon="-0.41094">
        <ele>226.54</ele>
        <time>2019-05-04T20:00:27.000Z</time>
      </trkpt>
      <trkpt lat="46.59526" lon="-0.41101">
        <ele>226.75</ele>
        <time>2019-05-04T20:00:29.000Z</time>
      </trkpt>
      <trkpt lat="46.59515" lon="-0.41109">
        <ele>228.04</ele>
        <time>2019-05-04T20:00:32.000Z</time>
      </trkpt>
      <trkpt lat="46.59504" lon="-0.41109">
        <ele>228.94</ele>
        <time>2019-05-04T20:00:35.000Z</time>
      </trkpt>
      <trkpt lat="46.59495" lon="-0.41101">
        <ele>229.11</ele>
        <time>2019-05-04T20:00:38.000Z</time>
      </trkpt>
      <trkpt lat="46.59485" lon="-0.41088">
        <ele>229.45</ele>
        <time>2019-05-04T20:00:41.000Z</time>
      </trkpt>
      <trkpt lat="46.59479" lon="-0.41078">
        <ele>230.26</ele>
        <time>2019-05-04T20:00:44.000Z</time>
      </trkpt>
      <trkpt lat="46.59468" lon="-0.41079">
        <ele>231.34</ele>
        <time>2019-05-04T20:00:47.000Z</time>
      </trkpt>
      <trkpt lat="46.59457" lon="-0.41083">
        <ele>232.96</ele>
        <time>2019-05-04T20:00:52.000Z</time>
      </trkpt>
      <trkpt lat="46.59445" lon="-0.4109">
        <ele>234.35</ele>
        <time>2019-05-04T20:00:56.000Z</time>
      </trkpt>
      <trkpt lat="46.59436" lon="-0.41096">
        <ele>235.36</ele>
        <time>2019-05-04T20:00:59.000Z</time>
      </trkpt>
      <trkpt lat="46.59428" lon="-0.41098">
        <ele>236.2</ele>
        <time>2019-05-04T20:01:02.000Z</time>
      </trkpt>
      <trkpt lat="46.59419" lon="-0.41102">
        <ele>237.24</ele>
        <time>2019-05-04T20:01:06.000Z</time>
      </trkpt>
      <trkpt lat="46.59408" lon="-0.41108">
        <ele>237.88</ele>
        <time>2019-05-04T20:01:09.000Z</time>
      </trkpt>
      <trkpt lat="46.59398" lon="-0.4111">
        <ele>238.7</ele>
        <time>2019-05-04T20:01:13.000Z</time>
      </trkpt>
      <trkpt lat="46.59388" lon="-0.41108">
        <ele>239.59</ele>
        <time>2019-05-04T20:01:16.000Z</time>
      </trkpt>
      <trkpt lat="46.59379" lon="-0.41103">
        <ele>240.51</ele>
        <time>2019-05-04T20:01:19.000Z</time>
      </trkpt>
      <trkpt lat="46.5937" lon="-0.41097">
        <ele>241.42</ele>
        <time>2019-05-04T20:01:22.000Z</time>
      </trkpt>
      <trkpt lat="46.59362" lon="-0.41083">
        <ele>242.14</ele>
        <time>2019-05-04T20:01:25.000Z</time>
      </trkpt>
      <trkpt lat="46.59354" lon="-0.4107">
        <ele>242.61</ele>
        <time>2019-05-04T20:01:28.000Z</time>
      </trkpt>
      <trkpt lat="46.59348" lon="-0.41061">
        <ele>242.96</ele>
        <time>2019-05-04T20:01:31.000Z</time>
      </trkpt>
      <trkpt lat="46.5934" lon="-0.4105">
        <ele>243.35</ele>
        <time>2019-05-04T20:01:35.000Z</time>
      </trkpt>
      <trkpt lat="46.5933" lon="-0.41052">
        <ele>243.63</ele>
        <time>2019-05-04T20:01:39.000Z</time>
      </trkpt>
      <trkpt lat="46.59324" lon="-0.41064">
        <ele>243.64</ele>
        <time>2019-05-04T20:01:42.000Z</time>
      </trkpt>
      <trkpt lat="46.59319" lon="-0.41078">
        <ele>243.49</ele>
        <time>2019-05-04T20:01:45.000Z</time>
      </trkpt>
      <trkpt lat="46.59312" lon="-0.41092">
        <ele>243.34</ele>
        <time>2019-05-04T20:01:49.000Z</time>
      </trkpt>
      <trkpt lat="46.59306" lon="-0.41104">
        <ele>243.51</ele>
        <time>2019-05-04T20:01:54.000Z</time>
      </trkpt>
      <trkpt lat="46.59298" lon="-0.41115">
        <ele>243.61</ele>
        <time>2019-05-04T20:01:59.000Z</time>
      </trkpt>
      <trkpt lat="46.5929" lon="-0.4113">
        <ele>243.92</ele>
        <time>2019-05-04T20:02:03.000Z</time>
      </trkpt>
      <trkpt lat="46.59285" lon="-0.41141">
        <ele>244.38</ele>
        <time>2019-05-04T20:02:08.000Z</time>
      </trkpt>
      <trkpt lat="46.59277" lon="-0.41153">
        <ele>244.75</ele>
        <time>2019-05-04T20:02:13.000Z</time>
      </trkpt>
      <trkpt lat="46.59271" lon="-0.41163">
        <ele>245.59</ele>
        <time>2019-05-04T20:02:18.000Z</time>
      </trkpt>
      <trkpt lat="46.59264" lon="-0.41177">
        <ele>246.34</ele>
        <time>2019-05-04T20:02:22.000Z</time>
      </trkpt>
      <trkpt lat="46.59257" lon="-0.41188">
        <ele>246.51</ele>
        <time>2019-05-04T20:02:25.000Z</time>
      </trkpt>
      <trkpt lat="46.59249" lon="-0.41198">
        <ele>246.35</ele>
        <time>2019-05-04T20:02:29.000Z</time>
      </trkpt>
      <trkpt lat="46.59242" lon="-0.41206">
        <ele>246.49</ele>
        <time>2019-05-04T20:02:37.000Z</time>
      </trkpt>
      <trkpt lat="46.59235" lon="-0.41213">
        <ele>247.12</ele>
        <time>2019-05-04T20:02:41.000Z</time>
      </trkpt>
      <trkpt lat="46.59225" lon="-0.41222">
        <ele>248.01</ele>
        <time>2019-05-04T20:02:47.000Z</time>
      </trkpt>
      <trkpt lat="46.59216" lon="-0.41227">
        <ele>248.19</ele>
        <time>2019-05-04T20:02:49.000Z</time>
      </trkpt>
      <trkpt lat="46.59207" lon="-0.41232">
        <ele>248.6</ele>
        <time>2019-05-04T20:02:54.000Z</time>
      </trkpt>
      <trkpt lat="46.59198" lon="-0.41237">
        <ele>248.99</ele>
        <time>2019-05-04T20:03:00.000Z</time>
      </trkpt>
      <trkpt lat="46.59187" lon="-0.41241">
        <ele>249.49</ele>
        <time>2019-05-04T20:03:05.000Z</time>
      </trkpt>
      <trkpt lat="46.59176" lon="-0.41243">
        <ele>250.16</ele>
        <time>2019-05-04T20:03:10.000Z</time>
      </trkpt>
      <trkpt lat="46.59168" lon="-0.4125">
        <ele>250.74</ele>
        <time>2019-05-04T20:03:16.000Z</time>
      </trkpt>
      <trkpt lat="46.59159" lon="-0.41257">
        <ele>251.07</ele>
        <time>2019-05-04T20:03:20.000Z</time>
      </trkpt>
      <trkpt lat="46.59148" lon="-0.41266">
        <ele>251.28</ele>
        <time>2019-05-04T20:03:24.000Z</time>
      </trkpt>
      <trkpt lat="46.59137" lon="-0.41274">
        <ele>251.37</ele>
        <time>2019-05-04T20:03:27.000Z</time>
      </trkpt>
      <trkpt lat="46.59127" lon="-0.41282">
        <ele>251.39</ele>
        <time>2019-05-04T20:03:30.000Z</time>
      </trkpt>
      <trkpt lat="46.59117" lon="-0.41291">
        <ele>251.3</ele>
        <time>2019-05-04T20:03:33.000Z</time>
      </trkpt>
      <trkpt lat="46.59104" lon="-0.41299">
        <ele>250.06</ele>
        <time>2019-05-04T20:03:36.000Z</time>
      </trkpt>
      <trkpt lat="46.59095" lon="-0.41303">
        <ele>249.6</ele>
        <time>2019-05-04T20:03:38.000Z</time>
      </trkpt>
      <trkpt lat="46.59085" lon="-0.41309">
        <ele>249.44</ele>
        <time>2019-05-04T20:03:41.000Z</time>
      </trkpt>
      <trkpt lat="46.59074" lon="-0.41307">
        <ele>249.34</ele>
        <time>2019-05-04T20:03:44.000Z</time>
      </trkpt>
      <trkpt lat="46.59069" lon="-0.41295">
        <ele>249.26</ele>
        <time>2019-05-04T20:03:47.000Z</time>
      </trkpt>
      <trkpt lat="46.59064" lon="-0.4128">
        <ele>249.23</ele>
        <time>2019-05-04T20:03:50.000Z</time>
      </trkpt>
      <trkpt lat="46.59059" lon="-0.41268">
        <ele>249.37</ele>
        <time>2019-05-04T20:03:53.000Z</time>
      </trkpt>
      <trkpt lat="46.59056" lon="-0.41253">
        <ele>249.86</ele>
        <time>2019-05-04T20:03:57.000Z</time>
      </trkpt>
      <trkpt lat="46.59054" lon="-0.41241">
        <ele>250.91</ele>
        <time>2019-05-04T20:04:01.000Z</time>
      </trkpt>
      <trkpt lat="46.5905" lon="-0.41226">
        <ele>252.15</ele>
        <time>2019-05-04T20:04:05.000Z</time>
      </trkpt>
      <trkpt lat="46.59047" lon="-0.41212">
        <ele>253.09</ele>
        <time>2019-05-04T20:04:08.000Z</time>
      </trkpt>
      <trkpt lat="46.59047" lon="-0.41196">
        <ele>254.18</ele>
        <time>2019-05-04T20:04:12.000Z</time>
      </trkpt>
      <trkpt lat="46.59049" lon="-0.4118">
        <ele>255.44</ele>
        <time>2019-05-04T20:04:17.000Z</time>
      </trkpt>
      <trkpt lat="46.5905" lon="-0.41164">
        <ele>255.85</ele>
        <time>2019-05-04T20:04:20.000Z</time>
      </trkpt>
      <trkpt lat="46.59049" lon="-0.41148">
        <ele>256.36</ele>
        <time>2019-05-04T20:04:24.000Z</time>
      </trkpt>
      <trkpt lat="46.59043" lon="-0.41135">
        <ele>256.74</ele>
        <time>2019-05-04T20:04:27.000Z</time>
      </trkpt>
      <trkpt lat="46.59038" lon="-0.41121">
        <ele>257.4</ele>
        <time>2019-05-04T20:04:32.000Z</time>
      </trkpt>
      <trkpt lat="46.59031" lon="-0.41111">
        <ele>257.68</ele>
        <time>2019-05-04T20:04:35.000Z</time>
      </trkpt>
      <trkpt lat="46.59024" lon="-0.41102">
        <ele>257.92</ele>
        <time>2019-05-04T20:04:38.000Z</time>
      </trkpt>
      <trkpt lat="46.59014" lon="-0.41094">
        <ele>258.29</ele>
        <time>2019-05-04T20:04:42.000Z</time>
      </trkpt>
      <trkpt lat="46.59006" lon="-0.41087">
        <ele>258.52</ele>
        <time>2019-05-04T20:04:45.000Z</time>
      </trkpt>
      <trkpt lat="46.58996" lon="-0.41081">
        <ele>258.71</ele>
        <time>2019-05-04T20:04:49.000Z</time>
      </trkpt>
      <trkpt lat="46.58986" lon="-0.41073">
        <ele>258.95</ele>
        <time>2019-05-04T20:04:53.000Z</time>
      </trkpt>
      <trkpt lat="46.58978" lon="-0.41067">
        <ele>259.18</ele>
        <time>2019-05-04T20:04:56.000Z</time>
      </trkpt>
      <trkpt lat="46.5897" lon="-0.4106">
        <ele>259.42</ele>
        <time>2019-05-04T20:04:59.000Z</time>
      </trkpt>
      <trkpt lat="46.5896" lon="-0.41052">
        <ele>259.49</ele>
        <time>2019-05-04T20:05:02.000Z</time>
      </trkpt>
      <trkpt lat="46.58951" lon="-0.41044">
        <ele>259.53</ele>
        <time>2019-05-04T20:05:05.000Z</time>
      </trkpt>
      <trkpt lat="46.5894" lon="-0.41034">
        <ele>259.59</ele>
        <time>2019-05-04T20:05:08.000Z</time>
      </trkpt>
      <trkpt lat="46.58931" lon="-0.41026">
        <ele>259.76</ele>
        <time>2019-05-04T20:05:11.000Z</time>
      </trkpt>
      <trkpt lat="46.58921" lon="-0.41016">
        <ele>259.85</ele>
        <time>2019-05-04T20:05:14.000Z</time>
      </trkpt>
      <trkpt lat="46.58913" lon="-0.41008">
        <ele>260.01</ele>
        <time>2019-05-04T20:05:17.000Z</time>
      </trkpt>
      <trkpt lat="46.58904" lon="-0.40996">
        <ele>260.14</ele>
        <time>2019-05-04T20:05:20.000Z</time>
      </trkpt>
      <trkpt lat="46.58896" lon="-0.40988">
        <ele>260.92</ele>
        <time>2019-05-04T20:05:23.000Z</time>
      </trkpt>
      <trkpt lat="46.58887" lon="-0.40976">
        <ele>261.63</ele>
        <time>2019-05-04T20:05:26.000Z</time>
      </trkpt>
      <trkpt lat="46.58878" lon="-0.40964">
        <ele>262.66</ele>
        <time>2019-05-04T20:05:29.000Z</time>
      </trkpt>
      <trkpt lat="46.5887" lon="-0.40955">
        <ele>263.19</ele>
        <time>2019-05-04T20:05:32.000Z</time>
      </trkpt>
      <trkpt lat="46.58859" lon="-0.40943">
        <ele>263.58</ele>
        <time>2019-05-04T20:05:35.000Z</time>
      </trkpt>
      <trkpt lat="46.58852" lon="-0.40934">
        <ele>263.56</ele>
        <time>2019-05-04T20:05:37.000Z</time>
      </trkpt>
      <trkpt lat="46.58842" lon="-0.40922">
        <ele>263.15</ele>
        <time>2019-05-04T20:05:40.000Z</time>
      </trkpt>
      <trkpt lat="46.58831" lon="-0.4091">
        <ele>262.8</ele>
        <time>2019-05-04T20:05:43.000Z</time>
      </trkpt>
      <trkpt lat="46.58822" lon="-0.40907">
        <ele>262.62</ele>
        <time>2019-05-04T20:05:45.000Z</time>
      </trkpt>
      <trkpt lat="46.58811" lon="-0.4092">
        <ele>262.62</ele>
        <time>2019-05-04T20:05:48.000Z</time>
      </trkpt>
      <trkpt lat="46.58807" lon="-0.40932">
        <ele>262.73</ele>
        <time>2019-05-04T20:05:50.000Z</time>
      </trkpt>
      <trkpt lat="46.58801" lon="-0.40945">
        <ele>262.71</ele>
        <time>2019-05-04T20:05:52.000Z</time>
      </trkpt>
      <trkpt lat="46.58794" lon="-0.40959">
        <ele>262.24</ele>
        <time>2019-05-04T20:05:55.000Z</time>
      </trkpt>
      <trkpt lat="46.58789" lon="-0.4097">
        <ele>262.23</ele>
        <time>2019-05-04T20:05:57.000Z</time>
      </trkpt>
      <trkpt lat="46.58782" lon="-0.40982">
        <ele>262.23</ele>
        <time>2019-05-04T20:05:59.000Z</time>
      </trkpt>
      <trkpt lat="46.58775" lon="-0.40994">
        <ele>262.22</ele>
        <time>2019-05-04T20:06:01.000Z</time>
      </trkpt>
      <trkpt lat="46.58768" lon="-0.41006">
        <ele>262.17</ele>
        <time>2019-05-04T20:06:03.000Z</time>
      </trkpt>
      <trkpt lat="46.58761" lon="-0.41019">
        <ele>262.21</ele>
        <time>2019-05-04T20:06:05.000Z</time>
      </trkpt>
      <trkpt lat="46.58755" lon="-0.41031">
        <ele>262.28</ele>
        <time>2019-05-04T20:06:07.000Z</time>
      </trkpt>
      <trkpt lat="46.58748" lon="-0.41043">
        <ele>262.11</ele>
        <time>2019-05-04T20:06:09.000Z</time>
      </trkpt>
      <trkpt lat="46.58742" lon="-0.41057">
        <ele>262.06</ele>
        <time>2019-05-04T20:06:11.000Z</time>
      </trkpt>
      <trkpt lat="46.58735" lon="-0.4107">
        <ele>261.93</ele>
        <time>2019-05-04T20:06:13.000Z</time>
      </trkpt>
      <trkpt lat="46.58728" lon="-0.41082">
        <ele>261.58</ele>
        <time>2019-05-04T20:06:15.000Z</time>
      </trkpt>
      <trkpt lat="46.58722" lon="-0.41093">
        <ele>261.36</ele>
        <time>2019-05-04T20:06:17.000Z</time>
      </trkpt>
      <trkpt lat="46.58715" lon="-0.41106">
        <ele>261.2</ele>
        <time>2019-05-04T20:06:19.000Z</time>
      </trkpt>
      <trkpt lat="46.5871" lon="-0.41117">
        <ele>261.2</ele>
        <time>2019-05-04T20:06:21.000Z</time>
      </trkpt>
      <trkpt lat="46.58704" lon="-0.41127">
        <ele>261.15</ele>
        <time>2019-05-04T20:06:23.000Z</time>
      </trkpt>
      <trkpt lat="46.58698" lon="-0.41138">
        <ele>261.42</ele>
        <time>2019-05-04T20:06:25.000Z</time>
      </trkpt>
      <trkpt lat="46.58691" lon="-0.41151">
        <ele>261.67</ele>
        <time>2019-05-04T20:06:27.000Z</time>
      </trkpt>
      <trkpt lat="46.58685" lon="-0.41162">
        <ele>261.74</ele>
        <time>2019-05-04T20:06:29.000Z</time>
      </trkpt>
      <trkpt lat="46.58678" lon="-0.41173">
        <ele>262.03</ele>
        <time>2019-05-04T20:06:31.000Z</time>
      </trkpt>
      <trkpt lat="46.58669" lon="-0.41183">
        <ele>262.11</ele>
        <time>2019-05-04T20:06:33.000Z</time>
      </trkpt>
      <trkpt lat="46.58661" lon="-0.41194">
        <ele>262.22</ele>
        <time>2019-05-04T20:06:35.000Z</time>
      </trkpt>
      <trkpt lat="46.58652" lon="-0.41203">
        <ele>262.18</ele>
        <time>2019-05-04T20:06:37.000Z</time>
      </trkpt>
      <trkpt lat="46.58644" lon="-0.41213">
        <ele>262.29</ele>
        <time>2019-05-04T20:06:39.000Z</time>
      </trkpt>
      <trkpt lat="46.58637" lon="-0.41223">
        <ele>263.11</ele>
        <time>2019-05-04T20:06:41.000Z</time>
      </trkpt>
      <trkpt lat="46.58631" lon="-0.41234">
        <ele>264.07</ele>
        <time>2019-05-04T20:06:43.000Z</time>
      </trkpt>
      <trkpt lat="46.58627" lon="-0.4125">
        <ele>264.49</ele>
        <time>2019-05-04T20:06:45.000Z</time>
      </trkpt>
      <trkpt lat="46.58628" lon="-0.41269">
        <ele>263.89</ele>
        <time>2019-05-04T20:06:48.000Z</time>
      </trkpt>
      <trkpt lat="46.58628" lon="-0.41286">
        <ele>263.58</ele>
        <time>2019-05-04T20:06:51.000Z</time>
      </trkpt>
      <trkpt lat="46.58616" lon="-0.41288">
        <ele>263.47</ele>
        <time>2019-05-04T20:06:55.000Z</time>
      </trkpt>
      <trkpt lat="46.58604" lon="-0.41294">
        <ele>262.19</ele>
        <time>2019-05-04T20:06:58.000Z</time>
      </trkpt>
      <trkpt lat="46.58596" lon="-0.41305">
        <ele>260.98</ele>
        <time>2019-05-04T20:07:00.000Z</time>
      </trkpt>
      <trkpt lat="46.5859" lon="-0.41321">
        <ele>260.4</ele>
        <time>2019-05-04T20:07:03.000Z</time>
      </trkpt>
      <trkpt lat="46.58584" lon="-0.41337">
        <ele>261.02</ele>
        <time>2019-05-04T20:07:06.000Z</time>
      </trkpt>
      <trkpt lat="46.58579" lon="-0.4135">
        <ele>261.75</ele>
        <time>2019-05-04T20:07:08.000Z</time>
      </trkpt>
      <trkpt lat="46.58576" lon="-0.41362">
        <ele>262.33</ele>
        <time>2019-05-04T20:07:10.000Z</time>
      </trkpt>
      <trkpt lat="46.58569" lon="-0.41378">
        <ele>263.57</ele>
        <time>2019-05-04T20:07:13.000Z</time>
      </trkpt>
      <trkpt lat="46.58565" lon="-0.41391">
        <ele>264.07</ele>
        <time>2019-05-04T20:07:15.000Z</time>
      </trkpt>
      <trkpt lat="46.58563" lon="-0.41404">
        <ele>264.39</ele>
        <time>2019-05-04T20:07:17.000Z</time>
      </trkpt>
      <trkpt lat="46.58557" lon="-0.4142">
        <ele>264.9</ele>
        <time>2019-05-04T20:07:20.000Z</time>
      </trkpt>
      <trkpt lat="46.58551" lon="-0.41436">
        <ele>265.63</ele>
        <time>2019-05-04T20:07:23.000Z</time>
      </trkpt>
      <trkpt lat="46.58547" lon="-0.41448">
        <ele>266.1</ele>
        <time>2019-05-04T20:07:25.000Z</time>
      </trkpt>
      <trkpt lat="46.58542" lon="-0.41461">
        <ele>266.18</ele>
        <time>2019-05-04T20:07:27.000Z</time>
      </trkpt>
      <trkpt lat="46.58536" lon="-0.41475">
        <ele>265.84</ele>
        <time>2019-05-04T20:07:29.000Z</time>
      </trkpt>
      <trkpt lat="46.58528" lon="-0.41489">
        <ele>264.62</ele>
        <time>2019-05-04T20:07:32.000Z</time>
      </trkpt>
      <trkpt lat="46.58519" lon="-0.41501">
        <ele>263.65</ele>
        <time>2019-05-04T20:07:35.000Z</time>
      </trkpt>
      <trkpt lat="46.58507" lon="-0.41503">
        <ele>262.95</ele>
        <time>2019-05-04T20:07:38.000Z</time>
      </trkpt>
      <trkpt lat="46.58494" lon="-0.415">
        <ele>262.8</ele>
        <time>2019-05-04T20:07:41.000Z</time>
      </trkpt>
      <trkpt lat="46.58483" lon="-0.41497">
        <ele>262.4</ele>
        <time>2019-05-04T20:07:43.000Z</time>
      </trkpt>
      <trkpt lat="46.5847" lon="-0.41496">
        <ele>261.91</ele>
        <time>2019-05-04T20:07:46.000Z</time>
      </trkpt>
      <trkpt lat="46.58458" lon="-0.41496">
        <ele>260.81</ele>
        <time>2019-05-04T20:07:49.000Z</time>
      </trkpt>
      <trkpt lat="46.58445" lon="-0.41494">
        <ele>259.77</ele>
        <time>2019-05-04T20:07:52.000Z</time>
      </trkpt>
      <trkpt lat="46.58433" lon="-0.41491">
        <ele>260.64</ele>
        <time>2019-05-04T20:07:55.000Z</time>
      </trkpt>
      <trkpt lat="46.5842" lon="-0.41487">
        <ele>263.34</ele>
        <time>2019-05-04T20:07:58.000Z</time>
      </trkpt>
      <trkpt lat="46.5841" lon="-0.41484">
        <ele>265.4</ele>
        <time>2019-05-04T20:08:00.000Z</time>
      </trkpt>
      <trkpt lat="46.584" lon="-0.41481">
        <ele>266.56</ele>
        <time>2019-05-04T20:08:02.000Z</time>
      </trkpt>
      <trkpt lat="46.5839" lon="-0.41478">
        <ele>266.59</ele>
        <time>2019-05-04T20:08:04.000Z</time>
      </trkpt>
      <trkpt lat="46.58381" lon="-0.41476">
        <ele>266.07</ele>
        <time>2019-05-04T20:08:06.000Z</time>
      </trkpt>
      <trkpt lat="46.58369" lon="-0.41472">
        <ele>265.49</ele>
        <time>2019-05-04T20:08:09.000Z</time>
      </trkpt>
      <trkpt lat="46.58358" lon="-0.41469">
        <ele>265.56</ele>
        <time>2019-05-04T20:08:12.000Z</time>
      </trkpt>
      <trkpt lat="46.58345" lon="-0.41469">
        <ele>267.47</ele>
        <time>2019-05-04T20:08:15.000Z</time>
      </trkpt>
      <trkpt lat="46.58333" lon="-0.4147">
        <ele>267.83</ele>
        <time>2019-05-04T20:08:17.000Z</time>
      </trkpt>
      <trkpt lat="46.58322" lon="-0.41472">
        <ele>268.31</ele>
        <time>2019-05-04T20:08:19.000Z</time>
      </trkpt>
      <trkpt lat="46.58312" lon="-0.41475">
        <ele>268.84</ele>
        <time>2019-05-04T20:08:21.000Z</time>
      </trkpt>
      <trkpt lat="46.58301" lon="-0.41477">
        <ele>269.31</ele>
        <time>2019-05-04T20:08:23.000Z</time>
      </trkpt>
      <trkpt lat="46.58289" lon="-0.41481">
        <ele>269.49</ele>
        <time>2019-05-04T20:08:25.000Z</time>
      </trkpt>
      <trkpt lat="46.58275" lon="-0.41485">
        <ele>269.17</ele>
        <time>2019-05-04T20:08:28.000Z</time>
      </trkpt>
      <trkpt lat="46.58265" lon="-0.41488">
        <ele>269.4</ele>
        <time>2019-05-04T20:08:30.000Z</time>
      </trkpt>
      <trkpt lat="46.58255" lon="-0.41498">
        <ele>269.67</ele>
        <time>2019-05-04T20:08:32.000Z</time>
      </trkpt>
      <trkpt lat="46.58252" lon="-0.41515">
        <ele>269.29</ele>
        <time>2019-05-04T20:08:34.000Z</time>
      </trkpt>
      <trkpt lat="46.5825" lon="-0.41531">
        <ele>268.13</ele>
        <time>2019-05-04T20:08:36.000Z</time>
      </trkpt>
      <trkpt lat="46.58249" lon="-0.41548">
        <ele>267.18</ele>
        <time>2019-05-04T20:08:38.000Z</time>
      </trkpt>
      <trkpt lat="46.58248" lon="-0.41563">
        <ele>266.71</ele>
        <time>2019-05-04T20:08:40.000Z</time>
      </trkpt>
      <trkpt lat="46.58247" lon="-0.4158">
        <ele>266.29</ele>
        <time>2019-05-04T20:08:42.000Z</time>
      </trkpt>
      <trkpt lat="46.58247" lon="-0.41595">
        <ele>265.62</ele>
        <time>2019-05-04T20:08:44.000Z</time>
      </trkpt>
      <trkpt lat="46.58246" lon="-0.41611">
        <ele>265.38</ele>
        <time>2019-05-04T20:08:47.000Z</time>
      </trkpt>
      <trkpt lat="46.58244" lon="-0.41631">
        <ele>265.71</ele>
        <time>2019-05-04T20:08:50.000Z</time>
      </trkpt>
      <trkpt lat="46.58242" lon="-0.41646">
        <ele>266.37</ele>
        <time>2019-05-04T20:08:52.000Z</time>
      </trkpt>
      <trkpt lat="46.58241" lon="-0.41661">
        <ele>266.6</ele>
        <time>2019-05-04T20:08:54.000Z</time>
      </trkpt>
      <trkpt lat="46.58242" lon="-0.41674">
        <ele>266.44</ele>
        <time>2019-05-04T20:08:56.000Z</time>
      </trkpt>
      <trkpt lat="46.58247" lon="-0.41691">
        <ele>265.27</ele>
        <time>2019-05-04T20:08:59.000Z</time>
      </trkpt>
      <trkpt lat="46.58246" lon="-0.41705">
        <ele>264.74</ele>
        <time>2019-05-04T20:09:01.000Z</time>
      </trkpt>
      <trkpt lat="46.58243" lon="-0.41719">
        <ele>264.32</ele>
        <time>2019-05-04T20:09:03.000Z</time>
      </trkpt>
      <trkpt lat="46.58234" lon="-0.41733">
        <ele>263.77</ele>
        <time>2019-05-04T20:09:06.000Z</time>
      </trkpt>
      <trkpt lat="46.58223" lon="-0.41741">
        <ele>264.34</ele>
        <time>2019-05-04T20:09:09.000Z</time>
      </trkpt>
      <trkpt lat="46.58213" lon="-0.41746">
        <ele>264.46</ele>
        <time>2019-05-04T20:09:12.000Z</time>
      </trkpt>
      <trkpt lat="46.58201" lon="-0.41751">
        <ele>264.7</ele>
        <time>2019-05-04T20:09:15.000Z</time>
      </trkpt>
      <trkpt lat="46.58191" lon="-0.41755">
        <ele>264.93</ele>
        <time>2019-05-04T20:09:18.000Z</time>
      </trkpt>
      <trkpt lat="46.58186" lon="-0.41771">
        <ele>265.22</ele>
        <time>2019-05-04T20:09:22.000Z</time>
      </trkpt>
      <trkpt lat="46.58185" lon="-0.41786">
        <ele>265.94</ele>
        <time>2019-05-04T20:09:25.000Z</time>
      </trkpt>
      <trkpt lat="46.58185" lon="-0.41803">
        <ele>266.15</ele>
        <time>2019-05-04T20:09:28.000Z</time>
      </trkpt>
      <trkpt lat="46.58185" lon="-0.41816">
        <ele>266.3</ele>
        <time>2019-05-04T20:09:30.000Z</time>
      </trkpt>
      <trkpt lat="46.58186" lon="-0.41834">
        <ele>267.35</ele>
        <time>2019-05-04T20:09:33.000Z</time>
      </trkpt>
      <trkpt lat="46.58189" lon="-0.41846">
        <ele>268.52</ele>
        <time>2019-05-04T20:09:35.000Z</time>
      </trkpt>
      <trkpt lat="46.58192" lon="-0.41859">
        <ele>269</ele>
        <time>2019-05-04T20:09:37.000Z</time>
      </trkpt>
      <trkpt lat="46.58196" lon="-0.41873">
        <ele>269.05</ele>
        <time>2019-05-04T20:09:40.000Z</time>
      </trkpt>
      <trkpt lat="46.582" lon="-0.41892">
        <ele>268.39</ele>
        <time>2019-05-04T20:09:43.000Z</time>
      </trkpt>
      <trkpt lat="46.58204" lon="-0.41907">
        <ele>267.95</ele>
        <time>2019-05-04T20:09:45.000Z</time>
      </trkpt>
      <trkpt lat="46.58207" lon="-0.41922">
        <ele>267.67</ele>
        <time>2019-05-04T20:09:47.000Z</time>
      </trkpt>
      <trkpt lat="46.58211" lon="-0.41935">
        <ele>267.42</ele>
        <time>2019-05-04T20:09:49.000Z</time>
      </trkpt>
      <trkpt lat="46.58214" lon="-0.4195">
        <ele>266.92</ele>
        <time>2019-05-04T20:09:51.000Z</time>
      </trkpt>
      <trkpt lat="46.58217" lon="-0.41966">
        <ele>266.36</ele>
        <time>2019-05-04T20:09:53.000Z</time>
      </trkpt>
      <trkpt lat="46.58221" lon="-0.41979">
        <ele>266.06</ele>
        <time>2019-05-04T20:09:55.000Z</time>
      </trkpt>
      <trkpt lat="46.58225" lon="-0.41993">
        <ele>265.56</ele>
        <time>2019-05-04T20:09:57.000Z</time>
      </trkpt>
      <trkpt lat="46.58228" lon="-0.42006">
        <ele>265.19</ele>
        <time>2019-05-04T20:09:59.000Z</time>
      </trkpt>
      <trkpt lat="46.58235" lon="-0.42022">
        <ele>264.77</ele>
        <time>2019-05-04T20:10:02.000Z</time>
      </trkpt>
      <trkpt lat="46.58241" lon="-0.42035">
        <ele>265.01</ele>
        <time>2019-05-04T20:10:04.000Z</time>
      </trkpt>
      <trkpt lat="46.58247" lon="-0.42046">
        <ele>264.99</ele>
        <time>2019-05-04T20:10:06.000Z</time>
      </trkpt>
      <trkpt lat="46.58253" lon="-0.42058">
        <ele>265.17</ele>
        <time>2019-05-04T20:10:08.000Z</time>
      </trkpt>
      <trkpt lat="46.58258" lon="-0.4207">
        <ele>265.5</ele>
        <time>2019-05-04T20:10:10.000Z</time>
      </trkpt>
      <trkpt lat="46.58264" lon="-0.42082">
        <ele>265.54</ele>
        <time>2019-05-04T20:10:12.000Z</time>
      </trkpt>
      <trkpt lat="46.58272" lon="-0.42099">
        <ele>265.66</ele>
        <time>2019-05-04T20:10:15.000Z</time>
      </trkpt>
      <trkpt lat="46.58276" lon="-0.4211">
        <ele>265.38</ele>
        <time>2019-05-04T20:10:17.000Z</time>
      </trkpt>
      <trkpt lat="46.58281" lon="-0.42121">
        <ele>265.72</ele>
        <time>2019-05-04T20:10:19.000Z</time>
      </trkpt>
      <trkpt lat="46.58287" lon="-0.42135">
        <ele>266.11</ele>
        <time>2019-05-04T20:10:21.000Z</time>
      </trkpt>
      <trkpt lat="46.58292" lon="-0.42147">
        <ele>266.16</ele>
        <time>2019-05-04T20:10:23.000Z</time>
      </trkpt>
      <trkpt lat="46.58297" lon="-0.42159">
        <ele>266.57</ele>
        <time>2019-05-04T20:10:25.000Z</time>
      </trkpt>
      <trkpt lat="46.58302" lon="-0.42171">
        <ele>267.07</ele>
        <time>2019-05-04T20:10:27.000Z</time>
      </trkpt>
      <trkpt lat="46.58314" lon="-0.42182">
        <ele>267.23</ele>
        <time>2019-05-04T20:10:30.000Z</time>
      </trkpt>
      <trkpt lat="46.58324" lon="-0.42186">
        <ele>267</ele>
        <time>2019-05-04T20:10:32.000Z</time>
      </trkpt>
      <trkpt lat="46.58336" lon="-0.42187">
        <ele>266.03</ele>
        <time>2019-05-04T20:10:34.000Z</time>
      </trkpt>
      <trkpt lat="46.58347" lon="-0.42186">
        <ele>265.09</ele>
        <time>2019-05-04T20:10:36.000Z</time>
      </trkpt>
      <trkpt lat="46.58358" lon="-0.42181">
        <ele>263.73</ele>
        <time>2019-05-04T20:10:38.000Z</time>
      </trkpt>
      <trkpt lat="46.58369" lon="-0.42173">
        <ele>262.72</ele>
        <time>2019-05-04T20:10:40.000Z</time>
      </trkpt>
      <trkpt lat="46.5838" lon="-0.42167">
        <ele>261.53</ele>
        <time>2019-05-04T20:10:42.000Z</time>
      </trkpt>
      <trkpt lat="46.58392" lon="-0.42159">
        <ele>260.29</ele>
        <time>2019-05-04T20:10:44.000Z</time>
      </trkpt>
      <trkpt lat="46.58402" lon="-0.42155">
        <ele>259.36</ele>
        <time>2019-05-04T20:10:46.000Z</time>
      </trkpt>
      <trkpt lat="46.58412" lon="-0.42149">
        <ele>258.7</ele>
        <time>2019-05-04T20:10:48.000Z</time>
      </trkpt>
      <trkpt lat="46.58423" lon="-0.42142">
        <ele>258.46</ele>
        <time>2019-05-04T20:10:50.000Z</time>
      </trkpt>
      <trkpt lat="46.58434" lon="-0.42135">
        <ele>258.32</ele>
        <time>2019-05-04T20:10:52.000Z</time>
      </trkpt>
      <trkpt lat="46.58444" lon="-0.42129">
        <ele>257.55</ele>
        <time>2019-05-04T20:10:54.000Z</time>
      </trkpt>
      <trkpt lat="46.58455" lon="-0.4212">
        <ele>257.07</ele>
        <time>2019-05-04T20:10:56.000Z</time>
      </trkpt>
      <trkpt lat="46.58467" lon="-0.42112">
        <ele>257.3</ele>
        <time>2019-05-04T20:10:58.000Z</time>
      </trkpt>
      <trkpt lat="46.58479" lon="-0.42103">
        <ele>257.46</ele>
        <time>2019-05-04T20:11:00.000Z</time>
      </trkpt>
      <trkpt lat="46.58489" lon="-0.42096">
        <ele>257.48</ele>
        <time>2019-05-04T20:11:02.000Z</time>
      </trkpt>
      <trkpt lat="46.585" lon="-0.4209">
        <ele>256.84</ele>
        <time>2019-05-04T20:11:04.000Z</time>
      </trkpt>
      <trkpt lat="46.5851" lon="-0.42089">
        <ele>256.78</ele>
        <time>2019-05-04T20:11:06.000Z</time>
      </trkpt>
      <trkpt lat="46.5852" lon="-0.42094">
        <ele>257.17</ele>
        <time>2019-05-04T20:11:08.000Z</time>
      </trkpt>
      <trkpt lat="46.5853" lon="-0.42104">
        <ele>257.07</ele>
        <time>2019-05-04T20:11:10.000Z</time>
      </trkpt>
      <trkpt lat="46.5854" lon="-0.42114">
        <ele>257.54</ele>
        <time>2019-05-04T20:11:12.000Z</time>
      </trkpt>
      <trkpt lat="46.58549" lon="-0.42124">
        <ele>258.22</ele>
        <time>2019-05-04T20:11:14.000Z</time>
      </trkpt>
      <trkpt lat="46.58558" lon="-0.42131">
        <ele>258.24</ele>
        <time>2019-05-04T20:11:16.000Z</time>
      </trkpt>
      <trkpt lat="46.58571" lon="-0.42136">
        <ele>258.04</ele>
        <time>2019-05-04T20:11:19.000Z</time>
      </trkpt>
      <trkpt lat="46.58581" lon="-0.42139">
        <ele>257.82</ele>
        <time>2019-05-04T20:11:21.000Z</time>
      </trkpt>
      <trkpt lat="46.58592" lon="-0.42142">
        <ele>257.81</ele>
        <time>2019-05-04T20:11:23.000Z</time>
      </trkpt>
      <trkpt lat="46.58602" lon="-0.42149">
        <ele>257.52</ele>
        <time>2019-05-04T20:11:25.000Z</time>
      </trkpt>
      <trkpt lat="46.58613" lon="-0.42157">
        <ele>256.62</ele>
        <time>2019-05-04T20:11:27.000Z</time>
      </trkpt>
      <trkpt lat="46.58625" lon="-0.42164">
        <ele>256.18</ele>
        <time>2019-05-04T20:11:29.000Z</time>
      </trkpt>
      <trkpt lat="46.58636" lon="-0.42171">
        <ele>255.88</ele>
        <time>2019-05-04T20:11:31.000Z</time>
      </trkpt>
      <trkpt lat="46.58646" lon="-0.42178">
        <ele>255.88</ele>
        <time>2019-05-04T20:11:33.000Z</time>
      </trkpt>
      <trkpt lat="46.58657" lon="-0.42186">
        <ele>255.55</ele>
        <time>2019-05-04T20:11:35.000Z</time>
      </trkpt>
      <trkpt lat="46.58667" lon="-0.42193">
        <ele>255.12</ele>
        <time>2019-05-04T20:11:37.000Z</time>
      </trkpt>
      <trkpt lat="46.58678" lon="-0.42203">
        <ele>254.76</ele>
        <time>2019-05-04T20:11:40.000Z</time>
      </trkpt>
      <trkpt lat="46.58685" lon="-0.42213">
        <ele>254.3</ele>
        <time>2019-05-04T20:11:42.000Z</time>
      </trkpt>
      <trkpt lat="46.58692" lon="-0.42222">
        <ele>253.49</ele>
        <time>2019-05-04T20:11:44.000Z</time>
      </trkpt>
      <trkpt lat="46.58699" lon="-0.42234">
        <ele>253.61</ele>
        <time>2019-05-04T20:11:47.000Z</time>
      </trkpt>
      <trkpt lat="46.58706" lon="-0.42244">
        <ele>253.54</ele>
        <time>2019-05-04T20:11:51.000Z</time>
      </trkpt>
      <trkpt lat="46.58715" lon="-0.42252">
        <ele>254.2</ele>
        <time>2019-05-04T20:12:00.000Z</time>
      </trkpt>
      <trkpt lat="46.58725" lon="-0.42259">
        <ele>254.61</ele>
        <time>2019-05-04T20:12:11.000Z</time>
      </trkpt>
      <trkpt lat="46.58736" lon="-0.42265">
        <ele>254.74</ele>
        <time>2019-05-04T20:12:14.000Z</time>
      </trkpt>
      <trkpt lat="46.58745" lon="-0.4227">
        <ele>254.79</ele>
        <time>2019-05-04T20:12:16.000Z</time>
      </trkpt>
      <trkpt lat="46.58754" lon="-0.42276">
        <ele>254.82</ele>
        <time>2019-05-04T20:12:18.000Z</time>
      </trkpt>
      <trkpt lat="46.58763" lon="-0.42283">
        <ele>254.9</ele>
        <time>2019-05-04T20:12:21.000Z</time>
      </trkpt>
      <trkpt lat="46.58773" lon="-0.42287">
        <ele>254.98</ele>
        <time>2019-05-04T20:12:24.000Z</time>
      </trkpt>
      <trkpt lat="46.58785" lon="-0.42292">
        <ele>255.03</ele>
        <time>2019-05-04T20:12:27.000Z</time>
      </trkpt>
      <trkpt lat="46.58794" lon="-0.42297">
        <ele>254.71</ele>
        <time>2019-05-04T20:12:34.000Z</time>
      </trkpt>
      <trkpt lat="46.58803" lon="-0.42304">
        <ele>254.92</ele>
        <time>2019-05-04T20:12:42.000Z</time>
      </trkpt>
      <trkpt lat="46.58811" lon="-0.42314">
        <ele>255.26</ele>
        <time>2019-05-04T20:12:52.000Z</time>
      </trkpt>
      <trkpt lat="46.58821" lon="-0.42321">
        <ele>255.72</ele>
        <time>2019-05-04T20:12:57.000Z</time>
      </trkpt>
      <trkpt lat="46.58829" lon="-0.42327">
        <ele>256.46</ele>
        <time>2019-05-04T20:13:02.000Z</time>
      </trkpt>
      <trkpt lat="46.58838" lon="-0.42333">
        <ele>257.07</ele>
        <time>2019-05-04T20:13:07.000Z</time>
      </trkpt>
      <trkpt lat="46.58846" lon="-0.42342">
        <ele>257.99</ele>
        <time>2019-05-04T20:13:20.000Z</time>
      </trkpt>
      <trkpt lat="46.58855" lon="-0.42348">
        <ele>258.22</ele>
        <time>2019-05-04T20:13:25.000Z</time>
      </trkpt>
      <trkpt lat="46.58864" lon="-0.42355">
        <ele>258.88</ele>
        <time>2019-05-04T20:13:36.000Z</time>
      </trkpt>
      <trkpt lat="46.58873" lon="-0.42362">
        <ele>259.4</ele>
        <time>2019-05-04T20:13:42.000Z</time>
      </trkpt>
      <trkpt lat="46.58881" lon="-0.42369">
        <ele>259.55</ele>
        <time>2019-05-04T20:13:47.000Z</time>
      </trkpt>
      <trkpt lat="46.5889" lon="-0.42375">
        <ele>259.83</ele>
        <time>2019-05-04T20:13:53.000Z</time>
      </trkpt>
      <trkpt lat="46.58899" lon="-0.42381">
        <ele>260.19</ele>
        <time>2019-05-04T20:13:58.000Z</time>
      </trkpt>
      <trkpt lat="46.58907" lon="-0.42386">
        <ele>260.76</ele>
        <time>2019-05-04T20:14:04.000Z</time>
      </trkpt>
      <trkpt lat="46.58917" lon="-0.42393">
        <ele>261.25</ele>
        <time>2019-05-04T20:14:17.000Z</time>
      </trkpt>
      <trkpt lat="46.58926" lon="-0.42398">
        <ele>261.72</ele>
        <time>2019-05-04T20:14:22.000Z</time>
      </trkpt>
      <trkpt lat="46.58935" lon="-0.42402">
        <ele>262.16</ele>
        <time>2019-05-04T20:14:26.000Z</time>
      </trkpt>
      <trkpt lat="46.58944" lon="-0.4241">
        <ele>264.67</ele>
        <time>2019-05-04T20:14:47.000Z</time>
      </trkpt>
      <trkpt lat="46.58952" lon="-0.42417">
        <ele>264.74</ele>
        <time>2019-05-04T20:14:52.000Z</time>
      </trkpt>
      <trkpt lat="46.5896" lon="-0.42423">
        <ele>266.35</ele>
        <time>2019-05-04T20:15:10.000Z</time>
      </trkpt>
      <trkpt lat="46.58969" lon="-0.42428">
        <ele>267.73</ele>
        <time>2019-05-04T20:15:23.000Z</time>
      </trkpt>
      <trkpt lat="46.58978" lon="-0.42434">
        <ele>269.66</ele>
        <time>2019-05-04T20:15:33.000Z</time>
      </trkpt>
      <trkpt lat="46.58986" lon="-0.42442">
        <ele>270.86</ele>
        <time>2019-05-04T20:15:41.000Z</time>
      </trkpt>
      <trkpt lat="46.58994" lon="-0.42436">
        <ele>271.04</ele>
        <time>2019-05-04T20:15:45.000Z</time>
      </trkpt>
      <trkpt lat="46.59003" lon="-0.42427">
        <ele>271.29</ele>
        <time>2019-05-04T20:15:50.000Z</time>
      </trkpt>
      <trkpt lat="46.59014" lon="-0.42416">
        <ele>271.45</ele>
        <time>2019-05-04T20:15:55.000Z</time>
      </trkpt>
      <trkpt lat="46.59024" lon="-0.42407">
        <ele>271.47</ele>
        <time>2019-05-04T20:15:59.000Z</time>
      </trkpt>
      <trkpt lat="46.59034" lon="-0.42403">
        <ele>271.38</ele>
        <time>2019-05-04T20:16:04.000Z</time>
      </trkpt>
      <trkpt lat="46.59043" lon="-0.42407">
        <ele>271.29</ele>
        <time>2019-05-04T20:16:09.000Z</time>
      </trkpt>
      <trkpt lat="46.59049" lon="-0.42419">
        <ele>271.24</ele>
        <time>2019-05-04T20:16:14.000Z</time>
      </trkpt>
      <trkpt lat="46.59057" lon="-0.42428">
        <ele>271.27</ele>
        <time>2019-05-04T20:16:18.000Z</time>
      </trkpt>
      <trkpt lat="46.59062" lon="-0.42439">
        <ele>271.44</ele>
        <time>2019-05-04T20:16:21.000Z</time>
      </trkpt>
      <trkpt lat="46.59069" lon="-0.42449">
        <ele>271.72</ele>
        <time>2019-05-04T20:16:24.000Z</time>
      </trkpt>
      <trkpt lat="46.59074" lon="-0.42459">
        <ele>271.98</ele>
        <time>2019-05-04T20:16:27.000Z</time>
      </trkpt>
      <trkpt lat="46.5908" lon="-0.42473">
        <ele>272.26</ele>
        <time>2019-05-04T20:16:30.000Z</time>
      </trkpt>
      <trkpt lat="46.59085" lon="-0.42484">
        <ele>272.5</ele>
        <time>2019-05-04T20:16:33.000Z</time>
      </trkpt>
      <trkpt lat="46.5909" lon="-0.42496">
        <ele>272.76</ele>
        <time>2019-05-04T20:16:36.000Z</time>
      </trkpt>
      <trkpt lat="46.59097" lon="-0.4251">
        <ele>274.67</ele>
        <time>2019-05-04T20:16:39.000Z</time>
      </trkpt>
      <trkpt lat="46.59102" lon="-0.42524">
        <ele>274.83</ele>
        <time>2019-05-04T20:16:42.000Z</time>
      </trkpt>
      <trkpt lat="46.59109" lon="-0.42538">
        <ele>275.44</ele>
        <time>2019-05-04T20:16:45.000Z</time>
      </trkpt>
      <trkpt lat="46.59116" lon="-0.42552">
        <ele>277.09</ele>
        <time>2019-05-04T20:16:48.000Z</time>
      </trkpt>
      <trkpt lat="46.59123" lon="-0.42566">
        <ele>278.36</ele>
        <time>2019-05-04T20:16:51.000Z</time>
      </trkpt>
      <trkpt lat="46.5913" lon="-0.42579">
        <ele>278.45</ele>
        <time>2019-05-04T20:16:54.000Z</time>
      </trkpt>
      <trkpt lat="46.59136" lon="-0.42591">
        <ele>278.59</ele>
        <time>2019-05-04T20:16:57.000Z</time>
      </trkpt>
      <trkpt lat="46.59142" lon="-0.42603">
        <ele>278.76</ele>
        <time>2019-05-04T20:17:00.000Z</time>
      </trkpt>
      <trkpt lat="46.59147" lon="-0.42614">
        <ele>278.91</ele>
        <time>2019-05-04T20:17:03.000Z</time>
      </trkpt>
      <trkpt lat="46.59154" lon="-0.42629">
        <ele>279.09</ele>
        <time>2019-05-04T20:17:06.000Z</time>
      </trkpt>
      <trkpt lat="46.59159" lon="-0.4264">
        <ele>279.28</ele>
        <time>2019-05-04T20:17:09.000Z</time>
      </trkpt>
      <trkpt lat="46.59164" lon="-0.42656">
        <ele>279.7</ele>
        <time>2019-05-04T20:17:13.000Z</time>
      </trkpt>
      <trkpt lat="46.59169" lon="-0.42669">
        <ele>280.02</ele>
        <time>2019-05-04T20:17:16.000Z</time>
      </trkpt>
      <trkpt lat="46.59172" lon="-0.42683">
        <ele>280.32</ele>
        <time>2019-05-04T20:17:19.000Z</time>
      </trkpt>
      <trkpt lat="46.59174" lon="-0.42698">
        <ele>280.68</ele>
        <time>2019-05-04T20:17:22.000Z</time>
      </trkpt>
      <trkpt lat="46.59174" lon="-0.42713">
        <ele>281.05</ele>
        <time>2019-05-04T20:17:25.000Z</time>
      </trkpt>
      <trkpt lat="46.59175" lon="-0.42729">
        <ele>282.43</ele>
        <time>2019-05-04T20:17:28.000Z</time>
      </trkpt>
      <trkpt lat="46.59176" lon="-0.42747">
        <ele>283.23</ele>
        <time>2019-05-04T20:17:31.000Z</time>
      </trkpt>
      <trkpt lat="46.59177" lon="-0.42762">
        <ele>283.38</ele>
        <time>2019-05-04T20:17:34.000Z</time>
      </trkpt>
      <trkpt lat="46.59178" lon="-0.42776">
        <ele>283.67</ele>
        <time>2019-05-04T20:17:37.000Z</time>
      </trkpt>
      <trkpt lat="46.5918" lon="-0.42794">
        <ele>284.26</ele>
        <time>2019-05-04T20:17:41.000Z</time>
      </trkpt>
      <trkpt lat="46.59181" lon="-0.42809">
        <ele>284.64</ele>
        <time>2019-05-04T20:17:44.000Z</time>
      </trkpt>
      <trkpt lat="46.59182" lon="-0.42826">
        <ele>284.91</ele>
        <time>2019-05-04T20:17:47.000Z</time>
      </trkpt>
      <trkpt lat="46.59184" lon="-0.42841">
        <ele>285.07</ele>
        <time>2019-05-04T20:17:50.000Z</time>
      </trkpt>
      <trkpt lat="46.59187" lon="-0.42856">
        <ele>285.88</ele>
        <time>2019-05-04T20:17:53.000Z</time>
      </trkpt>
      <trkpt lat="46.59189" lon="-0.42874">
        <ele>286.6</ele>
        <time>2019-05-04T20:17:56.000Z</time>
      </trkpt>
      <trkpt lat="46.59193" lon="-0.42889">
        <ele>287</ele>
        <time>2019-05-04T20:17:59.000Z</time>
      </trkpt>
      <trkpt lat="46.59197" lon="-0.42902">
        <ele>287</ele>
        <time>2019-05-04T20:18:01.000Z</time>
      </trkpt>
      <trkpt lat="46.59199" lon="-0.42915">
        <ele>287.15</ele>
        <time>2019-05-04T20:18:03.000Z</time>
      </trkpt>
      <trkpt lat="46.59202" lon="-0.42928">
        <ele>287.35</ele>
        <time>2019-05-04T20:18:05.000Z</time>
      </trkpt>
      <trkpt lat="46.59205" lon="-0.42943">
        <ele>287.08</ele>
        <time>2019-05-04T20:18:07.000Z</time>
      </trkpt>
      <trkpt lat="46.59208" lon="-0.42957">
        <ele>286.96</ele>
        <time>2019-05-04T20:18:09.000Z</time>
      </trkpt>
      <trkpt lat="46.59211" lon="-0.42972">
        <ele>286.78</ele>
        <time>2019-05-04T20:18:11.000Z</time>
      </trkpt>
      <trkpt lat="46.59212" lon="-0.42986">
        <ele>286.82</ele>
        <time>2019-05-04T20:18:13.000Z</time>
      </trkpt>
      <trkpt lat="46.59213" lon="-0.43003">
        <ele>287.88</ele>
        <time>2019-05-04T20:18:16.000Z</time>
      </trkpt>
      <trkpt lat="46.59213" lon="-0.43017">
        <ele>288.96</ele>
        <time>2019-05-04T20:18:18.000Z</time>
      </trkpt>
      <trkpt lat="46.59215" lon="-0.43037">
        <ele>290.76</ele>
        <time>2019-05-04T20:18:21.000Z</time>
      </trkpt>
      <trkpt lat="46.59216" lon="-0.43054">
        <ele>291.97</ele>
        <time>2019-05-04T20:18:23.000Z</time>
      </trkpt>
      <trkpt lat="46.59218" lon="-0.43073">
        <ele>291.88</ele>
        <time>2019-05-04T20:18:25.000Z</time>
      </trkpt>
      <trkpt lat="46.59215" lon="-0.43091">
        <ele>290.89</ele>
        <time>2019-05-04T20:18:28.000Z</time>
      </trkpt>
      <trkpt lat="46.59205" lon="-0.43096">
        <ele>289.33</ele>
        <time>2019-05-04T20:18:30.000Z</time>
      </trkpt>
      <trkpt lat="46.59195" lon="-0.43094">
        <ele>288.2</ele>
        <time>2019-05-04T20:18:32.000Z</time>
      </trkpt>
      <trkpt lat="46.59186" lon="-0.43093">
        <ele>287.72</ele>
        <time>2019-05-04T20:18:34.000Z</time>
      </trkpt>
      <trkpt lat="46.59176" lon="-0.43093">
        <ele>286.83</ele>
        <time>2019-05-04T20:18:36.000Z</time>
      </trkpt>
      <trkpt lat="46.59165" lon="-0.43093">
        <ele>286.56</ele>
        <time>2019-05-04T20:18:38.000Z</time>
      </trkpt>
      <trkpt lat="46.59154" lon="-0.43093">
        <ele>286.48</ele>
        <time>2019-05-04T20:18:40.000Z</time>
      </trkpt>
      <trkpt lat="46.59143" lon="-0.43093">
        <ele>286.6</ele>
        <time>2019-05-04T20:18:42.000Z</time>
      </trkpt>
      <trkpt lat="46.59132" lon="-0.43095">
        <ele>286.96</ele>
        <time>2019-05-04T20:18:44.000Z</time>
      </trkpt>
      <trkpt lat="46.59121" lon="-0.43097">
        <ele>287.31</ele>
        <time>2019-05-04T20:18:46.000Z</time>
      </trkpt>
      <trkpt lat="46.59109" lon="-0.43098">
        <ele>286.55</ele>
        <time>2019-05-04T20:18:48.000Z</time>
      </trkpt>
      <trkpt lat="46.59095" lon="-0.43097">
        <ele>285.33</ele>
        <time>2019-05-04T20:18:50.000Z</time>
      </trkpt>
      <trkpt lat="46.59086" lon="-0.43097">
        <ele>284.78</ele>
        <time>2019-05-04T20:18:52.000Z</time>
      </trkpt>
      <trkpt lat="46.59077" lon="-0.431">
        <ele>284.59</ele>
        <time>2019-05-04T20:18:55.000Z</time>
      </trkpt>
      <trkpt lat="46.59067" lon="-0.43103">
        <ele>284.15</ele>
        <time>2019-05-04T20:18:59.000Z</time>
      </trkpt>
      <trkpt lat="46.59056" lon="-0.43108">
        <ele>283.5</ele>
        <time>2019-05-04T20:19:04.000Z</time>
      </trkpt>
      <trkpt lat="46.59046" lon="-0.43115">
        <ele>283</ele>
        <time>2019-05-04T20:19:08.000Z</time>
      </trkpt>
      <trkpt lat="46.59037" lon="-0.43119">
        <ele>282.57</ele>
        <time>2019-05-04T20:19:11.000Z</time>
      </trkpt>
      <trkpt lat="46.59029" lon="-0.43126">
        <ele>282.12</ele>
        <time>2019-05-04T20:19:14.000Z</time>
      </trkpt>
      <trkpt lat="46.59021" lon="-0.43137">
        <ele>281.38</ele>
        <time>2019-05-04T20:19:19.000Z</time>
      </trkpt>
      <trkpt lat="46.59012" lon="-0.43147">
        <ele>280.14</ele>
        <time>2019-05-04T20:19:26.000Z</time>
      </trkpt>
      <trkpt lat="46.59001" lon="-0.43158">
        <ele>279.19</ele>
        <time>2019-05-04T20:19:30.000Z</time>
      </trkpt>
      <trkpt lat="46.58993" lon="-0.43166">
        <ele>278.09</ele>
        <time>2019-05-04T20:19:34.000Z</time>
      </trkpt>
      <trkpt lat="46.58984" lon="-0.43173">
        <ele>277.22</ele>
        <time>2019-05-04T20:19:37.000Z</time>
      </trkpt>
      <trkpt lat="46.58974" lon="-0.43176">
        <ele>276.07</ele>
        <time>2019-05-04T20:19:41.000Z</time>
      </trkpt>
      <trkpt lat="46.58964" lon="-0.43178">
        <ele>274.74</ele>
        <time>2019-05-04T20:19:45.000Z</time>
      </trkpt>
      <trkpt lat="46.58954" lon="-0.43182">
        <ele>273.37</ele>
        <time>2019-05-04T20:19:49.000Z</time>
      </trkpt>
      <trkpt lat="46.58943" lon="-0.43183">
        <ele>272.12</ele>
        <time>2019-05-04T20:19:53.000Z</time>
      </trkpt>
      <trkpt lat="46.58931" lon="-0.43183">
        <ele>271.55</ele>
        <time>2019-05-04T20:19:56.000Z</time>
      </trkpt>
      <trkpt lat="46.58922" lon="-0.43182">
        <ele>271.2</ele>
        <time>2019-05-04T20:19:59.000Z</time>
      </trkpt>
      <trkpt lat="46.58912" lon="-0.43181">
        <ele>270.96</ele>
        <time>2019-05-04T20:20:02.000Z</time>
      </trkpt>
      <trkpt lat="46.58901" lon="-0.43179">
        <ele>270.76</ele>
        <time>2019-05-04T20:20:05.000Z</time>
      </trkpt>
      <trkpt lat="46.58892" lon="-0.43182">
        <ele>270.54</ele>
        <time>2019-05-04T20:20:08.000Z</time>
      </trkpt>
      <trkpt lat="46.58881" lon="-0.43183">
        <ele>270.19</ele>
        <time>2019-05-04T20:20:12.000Z</time>
      </trkpt>
      <trkpt lat="46.58872" lon="-0.43182">
        <ele>269.89</ele>
        <time>2019-05-04T20:20:14.000Z</time>
      </trkpt>
      <trkpt lat="46.5886" lon="-0.43182">
        <ele>268.11</ele>
        <time>2019-05-04T20:20:17.000Z</time>
      </trkpt>
      <trkpt lat="46.5885" lon="-0.43188">
        <ele>265.4</ele>
        <time>2019-05-04T20:20:19.000Z</time>
      </trkpt>
      <trkpt lat="46.58841" lon="-0.43193">
        <ele>263.56</ele>
        <time>2019-05-04T20:20:21.000Z</time>
      </trkpt>
      <trkpt lat="46.58832" lon="-0.43199">
        <ele>262.21</ele>
        <time>2019-05-04T20:20:23.000Z</time>
      </trkpt>
      <trkpt lat="46.58821" lon="-0.43207">
        <ele>261.38</ele>
        <time>2019-05-04T20:20:25.000Z</time>
      </trkpt>
      <trkpt lat="46.58813" lon="-0.43215">
        <ele>260.72</ele>
        <time>2019-05-04T20:20:27.000Z</time>
      </trkpt>
      <trkpt lat="46.58806" lon="-0.43224">
        <ele>259.87</ele>
        <time>2019-05-04T20:20:29.000Z</time>
      </trkpt>
      <trkpt lat="46.58796" lon="-0.43236">
        <ele>258.6</ele>
        <time>2019-05-04T20:20:32.000Z</time>
      </trkpt>
      <trkpt lat="46.58785" lon="-0.43248">
        <ele>257.81</ele>
        <time>2019-05-04T20:20:35.000Z</time>
      </trkpt>
      <trkpt lat="46.58774" lon="-0.43256">
        <ele>258.28</ele>
        <time>2019-05-04T20:20:38.000Z</time>
      </trkpt>
      <trkpt lat="46.58765" lon="-0.43261">
        <ele>258.53</ele>
        <time>2019-05-04T20:20:41.000Z</time>
      </trkpt>
      <trkpt lat="46.58757" lon="-0.43268">
        <ele>259</ele>
        <time>2019-05-04T20:20:44.000Z</time>
      </trkpt>
      <trkpt lat="46.58748" lon="-0.43278">
        <ele>259.64</ele>
        <time>2019-05-04T20:20:47.000Z</time>
      </trkpt>
      <trkpt lat="46.58741" lon="-0.43288">
        <ele>260.24</ele>
        <time>2019-05-04T20:20:50.000Z</time>
      </trkpt>
      <trkpt lat="46.58734" lon="-0.43296">
        <ele>260.74</ele>
        <time>2019-05-04T20:20:53.000Z</time>
      </trkpt>
      <trkpt lat="46.58727" lon="-0.43305">
        <ele>261.09</ele>
        <time>2019-05-04T20:20:56.000Z</time>
      </trkpt>
      <trkpt lat="46.58719" lon="-0.43314">
        <ele>261.49</ele>
        <time>2019-05-04T20:21:00.000Z</time>
      </trkpt>
      <trkpt lat="46.58711" lon="-0.43323">
        <ele>261.97</ele>
        <time>2019-05-04T20:21:04.000Z</time>
      </trkpt>
      <trkpt lat="46.58703" lon="-0.43334">
        <ele>262.46</ele>
        <time>2019-05-04T20:21:08.000Z</time>
      </trkpt>
      <trkpt lat="46.58695" lon="-0.43342">
        <ele>262.83</ele>
        <time>2019-05-04T20:21:12.000Z</time>
      </trkpt>
      <trkpt lat="46.58688" lon="-0.43351">
        <ele>263.23</ele>
        <time>2019-05-04T20:21:16.000Z</time>
      </trkpt>
      <trkpt lat="46.5868" lon="-0.43359">
        <ele>263.78</ele>
        <time>2019-05-04T20:21:20.000Z</time>
      </trkpt>
      <trkpt lat="46.58673" lon="-0.43367">
        <ele>264.28</ele>
        <time>2019-05-04T20:21:23.000Z</time>
      </trkpt>
      <trkpt lat="46.58665" lon="-0.43375">
        <ele>264.72</ele>
        <time>2019-05-04T20:21:26.000Z</time>
      </trkpt>
      <trkpt lat="46.58657" lon="-0.43382">
        <ele>265.16</ele>
        <time>2019-05-04T20:21:29.000Z</time>
      </trkpt>
      <trkpt lat="46.5865" lon="-0.4339">
        <ele>265.6</ele>
        <time>2019-05-04T20:21:32.000Z</time>
      </trkpt>
      <trkpt lat="46.5864" lon="-0.43398">
        <ele>266.1</ele>
        <time>2019-05-04T20:21:36.000Z</time>
      </trkpt>
      <trkpt lat="46.58631" lon="-0.43403">
        <ele>266.33</ele>
        <time>2019-05-04T20:21:39.000Z</time>
      </trkpt>
      <trkpt lat="46.58622" lon="-0.43409">
        <ele>266.37</ele>
        <time>2019-05-04T20:21:42.000Z</time>
      </trkpt>
      <trkpt lat="46.58612" lon="-0.43416">
        <ele>266.3</ele>
        <time>2019-05-04T20:21:45.000Z</time>
      </trkpt>
      <trkpt lat="46.58604" lon="-0.43421">
        <ele>266.3</ele>
        <time>2019-05-04T20:21:48.000Z</time>
      </trkpt>
      <trkpt lat="46.58595" lon="-0.43429">
        <ele>266.38</ele>
        <time>2019-05-04T20:21:51.000Z</time>
      </trkpt>
      <trkpt lat="46.58586" lon="-0.43434">
        <ele>266.62</ele>
        <time>2019-05-04T20:21:54.000Z</time>
      </trkpt>
      <trkpt lat="46.58576" lon="-0.43439">
        <ele>266.94</ele>
        <time>2019-05-04T20:21:57.000Z</time>
      </trkpt>
      <trkpt lat="46.58566" lon="-0.43442">
        <ele>267.47</ele>
        <time>2019-05-04T20:22:00.000Z</time>
      </trkpt>
      <trkpt lat="46.58555" lon="-0.4345">
        <ele>271.64</ele>
        <time>2019-05-04T20:22:03.000Z</time>
      </trkpt>
      <trkpt lat="46.58543" lon="-0.43456">
        <ele>275.6</ele>
        <time>2019-05-04T20:22:06.000Z</time>
      </trkpt>
      <trkpt lat="46.58532" lon="-0.43462">
        <ele>278.42</ele>
        <time>2019-05-04T20:22:09.000Z</time>
      </trkpt>
      <trkpt lat="46.58521" lon="-0.4347">
        <ele>280.26</ele>
        <time>2019-05-04T20:22:12.000Z</time>
      </trkpt>
      <trkpt lat="46.58509" lon="-0.43479">
        <ele>280.51</ele>
        <time>2019-05-04T20:22:15.000Z</time>
      </trkpt>
      <trkpt lat="46.58501" lon="-0.43485">
        <ele>280.42</ele>
        <time>2019-05-04T20:22:17.000Z</time>
      </trkpt>
      <trkpt lat="46.58491" lon="-0.4349">
        <ele>280.32</ele>
        <time>2019-05-04T20:22:19.000Z</time>
      </trkpt>
      <trkpt lat="46.58481" lon="-0.43495">
        <ele>279.79</ele>
        <time>2019-05-04T20:22:21.000Z</time>
      </trkpt>
      <trkpt lat="46.58472" lon="-0.43498">
        <ele>278.95</ele>
        <time>2019-05-04T20:22:23.000Z</time>
      </trkpt>
      <trkpt lat="46.58463" lon="-0.43503">
        <ele>278.25</ele>
        <time>2019-05-04T20:22:25.000Z</time>
      </trkpt>
      <trkpt lat="46.58453" lon="-0.43508">
        <ele>278</ele>
        <time>2019-05-04T20:22:27.000Z</time>
      </trkpt>
      <trkpt lat="46.58442" lon="-0.43514">
        <ele>277.81</ele>
        <time>2019-05-04T20:22:29.000Z</time>
      </trkpt>
      <trkpt lat="46.5843" lon="-0.4352">
        <ele>277.96</ele>
        <time>2019-05-04T20:22:31.000Z</time>
      </trkpt>
      <trkpt lat="46.5842" lon="-0.43527">
        <ele>277.77</ele>
        <time>2019-05-04T20:22:33.000Z</time>
      </trkpt>
      <trkpt lat="46.58409" lon="-0.43534">
        <ele>277.52</ele>
        <time>2019-05-04T20:22:35.000Z</time>
      </trkpt>
      <trkpt lat="46.58397" lon="-0.43542">
        <ele>277.68</ele>
        <time>2019-05-04T20:22:37.000Z</time>
      </trkpt>
      <trkpt lat="46.58387" lon="-0.43547">
        <ele>277.65</ele>
        <time>2019-05-04T20:22:39.000Z</time>
      </trkpt>
      <trkpt lat="46.58378" lon="-0.43553">
        <ele>277.11</ele>
        <time>2019-05-04T20:22:41.000Z</time>
      </trkpt>
      <trkpt lat="46.58368" lon="-0.43559">
        <ele>276.07</ele>
        <time>2019-05-04T20:22:43.000Z</time>
      </trkpt>
      <trkpt lat="46.58355" lon="-0.43568">
        <ele>274.89</ele>
        <time>2019-05-04T20:22:46.000Z</time>
      </trkpt>
      <trkpt lat="46.58347" lon="-0.43573">
        <ele>274.47</ele>
        <time>2019-05-04T20:22:48.000Z</time>
      </trkpt>
      <trkpt lat="46.58336" lon="-0.43582">
        <ele>274.5</ele>
        <time>2019-05-04T20:22:51.000Z</time>
      </trkpt>
      <trkpt lat="46.58329" lon="-0.4359">
        <ele>275.33</ele>
        <time>2019-05-04T20:22:53.000Z</time>
      </trkpt>
      <trkpt lat="46.58322" lon="-0.43602">
        <ele>276.08</ele>
        <time>2019-05-04T20:22:55.000Z</time>
      </trkpt>
      <trkpt lat="46.58313" lon="-0.43612">
        <ele>276.23</ele>
        <time>2019-05-04T20:22:57.000Z</time>
      </trkpt>
      <trkpt lat="46.58302" lon="-0.43622">
        <ele>275.99</ele>
        <time>2019-05-04T20:22:59.000Z</time>
      </trkpt>
      <trkpt lat="46.5829" lon="-0.43632">
        <ele>275.59</ele>
        <time>2019-05-04T20:23:01.000Z</time>
      </trkpt>
      <trkpt lat="46.58278" lon="-0.43642">
        <ele>275.22</ele>
        <time>2019-05-04T20:23:03.000Z</time>
      </trkpt>
      <trkpt lat="46.58266" lon="-0.43652">
        <ele>275.05</ele>
        <time>2019-05-04T20:23:05.000Z</time>
      </trkpt>
      <trkpt lat="46.58254" lon="-0.43662">
        <ele>274.87</ele>
        <time>2019-05-04T20:23:07.000Z</time>
      </trkpt>
      <trkpt lat="46.58242" lon="-0.43673">
        <ele>274.58</ele>
        <time>2019-05-04T20:23:09.000Z</time>
      </trkpt>
      <trkpt lat="46.58231" lon="-0.43682">
        <ele>274.37</ele>
        <time>2019-05-04T20:23:11.000Z</time>
      </trkpt>
      <trkpt lat="46.58218" lon="-0.43693">
        <ele>274.11</ele>
        <time>2019-05-04T20:23:13.000Z</time>
      </trkpt>
      <trkpt lat="46.58207" lon="-0.43703">
        <ele>273.98</ele>
        <time>2019-05-04T20:23:15.000Z</time>
      </trkpt>
      <trkpt lat="46.58194" lon="-0.43712">
        <ele>274.03</ele>
        <time>2019-05-04T20:23:17.000Z</time>
      </trkpt>
      <trkpt lat="46.58182" lon="-0.43719">
        <ele>274.11</ele>
        <time>2019-05-04T20:23:19.000Z</time>
      </trkpt>
      <trkpt lat="46.5817" lon="-0.43725">
        <ele>274.16</ele>
        <time>2019-05-04T20:23:21.000Z</time>
      </trkpt>
      <trkpt lat="46.58159" lon="-0.4373">
        <ele>274.1</ele>
        <time>2019-05-04T20:23:23.000Z</time>
      </trkpt>
      <trkpt lat="46.5815" lon="-0.43739">
        <ele>273.91</ele>
        <time>2019-05-04T20:23:25.000Z</time>
      </trkpt>
      <trkpt lat="46.58142" lon="-0.43751">
        <ele>273.79</ele>
        <time>2019-05-04T20:23:27.000Z</time>
      </trkpt>
      <trkpt lat="46.58134" lon="-0.43764">
        <ele>273.51</ele>
        <time>2019-05-04T20:23:29.000Z</time>
      </trkpt>
      <trkpt lat="46.58126" lon="-0.43777">
        <ele>273.41</ele>
        <time>2019-05-04T20:23:31.000Z</time>
      </trkpt>
      <trkpt lat="46.5812" lon="-0.43791">
        <ele>273.49</ele>
        <time>2019-05-04T20:23:33.000Z</time>
      </trkpt>
      <trkpt lat="46.58113" lon="-0.43805">
        <ele>273.65</ele>
        <time>2019-05-04T20:23:35.000Z</time>
      </trkpt>
      <trkpt lat="46.58107" lon="-0.43819">
        <ele>273.95</ele>
        <time>2019-05-04T20:23:37.000Z</time>
      </trkpt>
      <trkpt lat="46.58099" lon="-0.43832">
        <ele>274.18</ele>
        <time>2019-05-04T20:23:39.000Z</time>
      </trkpt>
      <trkpt lat="46.58092" lon="-0.43844">
        <ele>274.62</ele>
        <time>2019-05-04T20:23:41.000Z</time>
      </trkpt>
      <trkpt lat="46.58085" lon="-0.4386">
        <ele>274.71</ele>
        <time>2019-05-04T20:23:43.000Z</time>
      </trkpt>
      <trkpt lat="46.58079" lon="-0.43875">
        <ele>274.82</ele>
        <time>2019-05-04T20:23:45.000Z</time>
      </trkpt>
      <trkpt lat="46.58073" lon="-0.43891">
        <ele>274.85</ele>
        <time>2019-05-04T20:23:47.000Z</time>
      </trkpt>
      <trkpt lat="46.58067" lon="-0.43906">
        <ele>274.53</ele>
        <time>2019-05-04T20:23:49.000Z</time>
      </trkpt>
      <trkpt lat="46.58061" lon="-0.43918">
        <ele>274.11</ele>
        <time>2019-05-04T20:23:51.000Z</time>
      </trkpt>
      <trkpt lat="46.58054" lon="-0.43928">
        <ele>273.59</ele>
        <time>2019-05-04T20:23:53.000Z</time>
      </trkpt>
      <trkpt lat="46.58048" lon="-0.43939">
        <ele>273.18</ele>
        <time>2019-05-04T20:23:55.000Z</time>
      </trkpt>
      <trkpt lat="46.58039" lon="-0.43952">
        <ele>272.59</ele>
        <time>2019-05-04T20:23:58.000Z</time>
      </trkpt>
      <trkpt lat="46.58032" lon="-0.43961">
        <ele>272.33</ele>
        <time>2019-05-04T20:24:02.000Z</time>
      </trkpt>
      <trkpt lat="46.58024" lon="-0.43967">
        <ele>271.94</ele>
        <time>2019-05-04T20:24:07.000Z</time>
      </trkpt>
      <trkpt lat="46.58013" lon="-0.4397">
        <ele>271.41</ele>
        <time>2019-05-04T20:24:13.000Z</time>
      </trkpt>
      <trkpt lat="46.58004" lon="-0.43976">
        <ele>271.02</ele>
        <time>2019-05-04T20:24:17.000Z</time>
      </trkpt>
      <trkpt lat="46.57996" lon="-0.43983">
        <ele>270.39</ele>
        <time>2019-05-04T20:24:22.000Z</time>
      </trkpt>
      <trkpt lat="46.57987" lon="-0.43987">
        <ele>269.77</ele>
        <time>2019-05-04T20:24:25.000Z</time>
      </trkpt>
      <trkpt lat="46.57979" lon="-0.43993">
        <ele>269.02</ele>
        <time>2019-05-04T20:24:28.000Z</time>
      </trkpt>
      <trkpt lat="46.5797" lon="-0.43997">
        <ele>268</ele>
        <time>2019-05-04T20:24:32.000Z</time>
      </trkpt>
      <trkpt lat="46.57958" lon="-0.44003">
        <ele>266.87</ele>
        <time>2019-05-04T20:24:36.000Z</time>
      </trkpt>
      <trkpt lat="46.57946" lon="-0.44006">
        <ele>266.11</ele>
        <time>2019-05-04T20:24:39.000Z</time>
      </trkpt>
      <trkpt lat="46.57937" lon="-0.44005">
        <ele>263.73</ele>
        <time>2019-05-04T20:24:41.000Z</time>
      </trkpt>
      <trkpt lat="46.57925" lon="-0.44004">
        <ele>263.12</ele>
        <time>2019-05-04T20:24:44.000Z</time>
      </trkpt>
      <trkpt lat="46.57914" lon="-0.44003">
        <ele>262.41</ele>
        <time>2019-05-04T20:24:47.000Z</time>
      </trkpt>
      <trkpt lat="46.57906" lon="-0.44007">
        <ele>260.89</ele>
        <time>2019-05-04T20:24:55.000Z</time>
      </trkpt>
      <trkpt lat="46.57899" lon="-0.44016">
        <ele>260.24</ele>
        <time>2019-05-04T20:24:59.000Z</time>
      </trkpt>
      <trkpt lat="46.57891" lon="-0.44024">
        <ele>259.36</ele>
        <time>2019-05-04T20:25:04.000Z</time>
      </trkpt>
      <trkpt lat="46.57882" lon="-0.44024">
        <ele>258.59</ele>
        <time>2019-05-04T20:25:09.000Z</time>
      </trkpt>
      <trkpt lat="46.57872" lon="-0.44021">
        <ele>257.94</ele>
        <time>2019-05-04T20:25:15.000Z</time>
      </trkpt>
      <trkpt lat="46.57863" lon="-0.44022">
        <ele>257.48</ele>
        <time>2019-05-04T20:25:24.000Z</time>
      </trkpt>
      <trkpt lat="46.57853" lon="-0.44023">
        <ele>257.55</ele>
        <time>2019-05-04T20:25:32.000Z</time>
      </trkpt>
      <trkpt lat="46.57844" lon="-0.44026">
        <ele>259.12</ele>
        <time>2019-05-04T20:25:46.000Z</time>
      </trkpt>
      <trkpt lat="46.57834" lon="-0.44031">
        <ele>259.7</ele>
        <time>2019-05-04T20:25:59.000Z</time>
      </trkpt>
      <trkpt lat="46.57824" lon="-0.4403">
        <ele>262.21</ele>
        <time>2019-05-04T20:26:23.000Z</time>
      </trkpt>
      <trkpt lat="46.57814" lon="-0.44035">
        <ele>262.87</ele>
        <time>2019-05-04T20:26:27.000Z</time>
      </trkpt>
      <trkpt lat="46.57806" lon="-0.4404">
        <ele>264.03</ele>
        <time>2019-05-04T20:26:33.000Z</time>
      </trkpt>
      <trkpt lat="46.57797" lon="-0.44047">
        <ele>264.7</ele>
        <time>2019-05-04T20:26:37.000Z</time>
      </trkpt>
      <trkpt lat="46.57787" lon="-0.44046">
        <ele>265</ele>
        <time>2019-05-04T20:26:41.000Z</time>
      </trkpt>
      <trkpt lat="46.57777" lon="-0.44044">
        <ele>265.1</ele>
        <time>2019-05-04T20:26:44.000Z</time>
      </trkpt>
      <trkpt lat="46.57766" lon="-0.44046">
        <ele>265.36</ele>
        <time>2019-05-04T20:26:48.000Z</time>
      </trkpt>
      <trkpt lat="46.57756" lon="-0.44047">
        <ele>265.55</ele>
        <time>2019-05-04T20:26:51.000Z</time>
      </trkpt>
      <trkpt lat="46.57747" lon="-0.44049">
        <ele>265.74</ele>
        <time>2019-05-04T20:26:56.000Z</time>
      </trkpt>
      <trkpt lat="46.57737" lon="-0.44052">
        <ele>265.97</ele>
        <time>2019-05-04T20:27:00.000Z</time>
      </trkpt>
      <trkpt lat="46.57726" lon="-0.44057">
        <ele>266.14</ele>
        <time>2019-05-04T20:27:03.000Z</time>
      </trkpt>
      <trkpt lat="46.57716" lon="-0.44062">
        <ele>266.26</ele>
        <time>2019-05-04T20:27:06.000Z</time>
      </trkpt>
      <trkpt lat="46.57708" lon="-0.44066">
        <ele>266.63</ele>
        <time>2019-05-04T20:27:09.000Z</time>
      </trkpt>
      <trkpt lat="46.57697" lon="-0.44069">
        <ele>267.16</ele>
        <time>2019-05-04T20:27:13.000Z</time>
      </trkpt>
      <trkpt lat="46.57688" lon="-0.44075">
        <ele>267.56</ele>
        <time>2019-05-04T20:27:16.000Z</time>
      </trkpt>
      <trkpt lat="46.57676" lon="-0.44083">
        <ele>268</ele>
        <time>2019-05-04T20:27:20.000Z</time>
      </trkpt>
      <trkpt lat="46.57665" lon="-0.44087">
        <ele>268.04</ele>
        <time>2019-05-04T20:27:23.000Z</time>
      </trkpt>
      <trkpt lat="46.57656" lon="-0.44088">
        <ele>268.11</ele>
        <time>2019-05-04T20:27:26.000Z</time>
      </trkpt>
      <trkpt lat="46.57646" lon="-0.4409">
        <ele>268.19</ele>
        <time>2019-05-04T20:27:29.000Z</time>
      </trkpt>
      <trkpt lat="46.57634" lon="-0.44093">
        <ele>268.46</ele>
        <time>2019-05-04T20:27:32.000Z</time>
      </trkpt>
      <trkpt lat="46.57624" lon="-0.44097">
        <ele>268.68</ele>
        <time>2019-05-04T20:27:34.000Z</time>
      </trkpt>
      <trkpt lat="46.57615" lon="-0.44101">
        <ele>268.89</ele>
        <time>2019-05-04T20:27:36.000Z</time>
      </trkpt>
      <trkpt lat="46.57605" lon="-0.44105">
        <ele>269.18</ele>
        <time>2019-05-04T20:27:39.000Z</time>
      </trkpt>
      <trkpt lat="46.57595" lon="-0.44109">
        <ele>269.34</ele>
        <time>2019-05-04T20:27:41.000Z</time>
      </trkpt>
      <trkpt lat="46.57585" lon="-0.44113">
        <ele>270.86</ele>
        <time>2019-05-04T20:27:43.000Z</time>
      </trkpt>
      <trkpt lat="46.57575" lon="-0.44119">
        <ele>272.51</ele>
        <time>2019-05-04T20:27:45.000Z</time>
      </trkpt>
      <trkpt lat="46.57567" lon="-0.44129">
        <ele>273.43</ele>
        <time>2019-05-04T20:27:47.000Z</time>
      </trkpt>
      <trkpt lat="46.57557" lon="-0.44135">
        <ele>273.33</ele>
        <time>2019-05-04T20:27:50.000Z</time>
      </trkpt>
      <trkpt lat="46.57548" lon="-0.4414">
        <ele>273.05</ele>
        <time>2019-05-04T20:27:52.000Z</time>
      </trkpt>
      <trkpt lat="46.57536" lon="-0.44144">
        <ele>270.26</ele>
        <time>2019-05-04T20:27:55.000Z</time>
      </trkpt>
      <trkpt lat="46.57527" lon="-0.44146">
        <ele>269.51</ele>
        <time>2019-05-04T20:27:58.000Z</time>
      </trkpt>
      <trkpt lat="46.57515" lon="-0.44147">
        <ele>268.8</ele>
        <time>2019-05-04T20:28:01.000Z</time>
      </trkpt>
      <trkpt lat="46.57506" lon="-0.44148">
        <ele>268.16</ele>
        <time>2019-05-04T20:28:05.000Z</time>
      </trkpt>
      <trkpt lat="46.57495" lon="-0.44153">
        <ele>267.86</ele>
        <time>2019-05-04T20:28:09.000Z</time>
      </trkpt>
      <trkpt lat="46.57485" lon="-0.44157">
        <ele>267.77</ele>
        <time>2019-05-04T20:28:14.000Z</time>
      </trkpt>
      <trkpt lat="46.57475" lon="-0.44163">
        <ele>267.68</ele>
        <time>2019-05-04T20:28:18.000Z</time>
      </trkpt>
      <trkpt lat="46.57462" lon="-0.44165">
        <ele>267.57</ele>
        <time>2019-05-04T20:28:22.000Z</time>
      </trkpt>
      <trkpt lat="46.57453" lon="-0.44162">
        <ele>267.56</ele>
        <time>2019-05-04T20:28:25.000Z</time>
      </trkpt>
      <trkpt lat="46.57444" lon="-0.44161">
        <ele>267.61</ele>
        <time>2019-05-04T20:28:27.000Z</time>
      </trkpt>
      <trkpt lat="46.57435" lon="-0.4416">
        <ele>267.75</ele>
        <time>2019-05-04T20:28:29.000Z</time>
      </trkpt>
      <trkpt lat="46.57424" lon="-0.44158">
        <ele>269</ele>
        <time>2019-05-04T20:28:31.000Z</time>
      </trkpt>
      <trkpt lat="46.57414" lon="-0.44154">
        <ele>269.92</ele>
        <time>2019-05-04T20:28:34.000Z</time>
      </trkpt>
      <trkpt lat="46.57402" lon="-0.44153">
        <ele>270.11</ele>
        <time>2019-05-04T20:28:37.000Z</time>
      </trkpt>
      <trkpt lat="46.57388" lon="-0.44148">
        <ele>270.52</ele>
        <time>2019-05-04T20:28:40.000Z</time>
      </trkpt>
      <trkpt lat="46.57378" lon="-0.44143">
        <ele>270.73</ele>
        <time>2019-05-04T20:28:42.000Z</time>
      </trkpt>
      <trkpt lat="46.57368" lon="-0.44134">
        <ele>270.65</ele>
        <time>2019-05-04T20:28:44.000Z</time>
      </trkpt>
      <trkpt lat="46.57357" lon="-0.44132">
        <ele>270.55</ele>
        <time>2019-05-04T20:28:47.000Z</time>
      </trkpt>
      <trkpt lat="46.57348" lon="-0.44131">
        <ele>269.64</ele>
        <time>2019-05-04T20:28:49.000Z</time>
      </trkpt>
      <trkpt lat="46.57336" lon="-0.44131">
        <ele>267.66</ele>
        <time>2019-05-04T20:28:51.000Z</time>
      </trkpt>
      <trkpt lat="46.57322" lon="-0.44128">
        <ele>265.06</ele>
        <time>2019-05-04T20:28:53.000Z</time>
      </trkpt>
      <trkpt lat="46.57312" lon="-0.44129">
        <ele>264.7</ele>
        <time>2019-05-04T20:28:56.000Z</time>
      </trkpt>
      <trkpt lat="46.57301" lon="-0.44132">
        <ele>262.28</ele>
        <time>2019-05-04T20:28:59.000Z</time>
      </trkpt>
      <trkpt lat="46.5729" lon="-0.44131">
        <ele>260.5</ele>
        <time>2019-05-04T20:29:01.000Z</time>
      </trkpt>
      <trkpt lat="46.57281" lon="-0.4413">
        <ele>257.55</ele>
        <time>2019-05-04T20:29:03.000Z</time>
      </trkpt>
      <trkpt lat="46.57266" lon="-0.44129">
        <ele>254.92</ele>
        <time>2019-05-04T20:29:05.000Z</time>
      </trkpt>
      <trkpt lat="46.57253" lon="-0.44127">
        <ele>253.65</ele>
        <time>2019-05-04T20:29:07.000Z</time>
      </trkpt>
      <trkpt lat="46.5724" lon="-0.44126">
        <ele>253.39</ele>
        <time>2019-05-04T20:29:10.000Z</time>
      </trkpt>
      <trkpt lat="46.57231" lon="-0.44121">
        <ele>253.08</ele>
        <time>2019-05-04T20:29:14.000Z</time>
      </trkpt>
      <trkpt lat="46.57238" lon="-0.4411">
        <ele>252.47</ele>
        <time>2019-05-04T20:29:21.000Z</time>
      </trkpt>
      <trkpt lat="46.57246" lon="-0.44102">
        <ele>252.45</ele>
        <time>2019-05-04T20:29:25.000Z</time>
      </trkpt>
      <trkpt lat="46.57253" lon="-0.44091">
        <ele>252.62</ele>
        <time>2019-05-04T20:29:29.000Z</time>
      </trkpt>
      <trkpt lat="46.57261" lon="-0.44079">
        <ele>253.33</ele>
        <time>2019-05-04T20:29:36.000Z</time>
      </trkpt>
      <trkpt lat="46.57267" lon="-0.44068">
        <ele>253.79</ele>
        <time>2019-05-04T20:29:41.000Z</time>
      </trkpt>
      <trkpt lat="46.57267" lon="-0.44053">
        <ele>254.29</ele>
        <time>2019-05-04T20:29:47.000Z</time>
      </trkpt>
      <trkpt lat="46.5726" lon="-0.44044">
        <ele>254.57</ele>
        <time>2019-05-04T20:29:51.000Z</time>
      </trkpt>
      <trkpt lat="46.57253" lon="-0.44032">
        <ele>254.89</ele>
        <time>2019-05-04T20:29:55.000Z</time>
      </trkpt>
      <trkpt lat="46.5725" lon="-0.44016">
        <ele>255.48</ele>
        <time>2019-05-04T20:29:59.000Z</time>
      </trkpt>
      <trkpt lat="46.57249" lon="-0.43998">
        <ele>256.19</ele>
        <time>2019-05-04T20:30:03.000Z</time>
      </trkpt>
      <trkpt lat="46.57248" lon="-0.43982">
        <ele>256.8</ele>
        <time>2019-05-04T20:30:07.000Z</time>
      </trkpt>
      <trkpt lat="46.57248" lon="-0.43967">
        <ele>257.2</ele>
        <time>2019-05-04T20:30:10.000Z</time>
      </trkpt>
      <trkpt lat="46.57245" lon="-0.43951">
        <ele>257.5</ele>
        <time>2019-05-04T20:30:13.000Z</time>
      </trkpt>
      <trkpt lat="46.57242" lon="-0.43937">
        <ele>258.4</ele>
        <time>2019-05-04T20:30:15.000Z</time>
      </trkpt>
      <trkpt lat="46.57235" lon="-0.43921">
        <ele>259.96</ele>
        <time>2019-05-04T20:30:18.000Z</time>
      </trkpt>
      <trkpt lat="46.57229" lon="-0.43905">
        <ele>260.35</ele>
        <time>2019-05-04T20:30:21.000Z</time>
      </trkpt>
      <trkpt lat="46.57224" lon="-0.43894">
        <ele>260.32</ele>
        <time>2019-05-04T20:30:23.000Z</time>
      </trkpt>
      <trkpt lat="46.57221" lon="-0.43881">
        <ele>259.88</ele>
        <time>2019-05-04T20:30:25.000Z</time>
      </trkpt>
      <trkpt lat="46.57216" lon="-0.43868">
        <ele>258.75</ele>
        <time>2019-05-04T20:30:27.000Z</time>
      </trkpt>
      <trkpt lat="46.57211" lon="-0.43854">
        <ele>257.51</ele>
        <time>2019-05-04T20:30:29.000Z</time>
      </trkpt>
      <trkpt lat="46.57204" lon="-0.43842">
        <ele>256.44</ele>
        <time>2019-05-04T20:30:31.000Z</time>
      </trkpt>
      <trkpt lat="46.57196" lon="-0.43834">
        <ele>256.12</ele>
        <time>2019-05-04T20:30:33.000Z</time>
      </trkpt>
      <trkpt lat="46.57187" lon="-0.43827">
        <ele>255.19</ele>
        <time>2019-05-04T20:30:35.000Z</time>
      </trkpt>
      <trkpt lat="46.57178" lon="-0.43821">
        <ele>255.04</ele>
        <time>2019-05-04T20:30:37.000Z</time>
      </trkpt>
      <trkpt lat="46.57168" lon="-0.43812">
        <ele>252.92</ele>
        <time>2019-05-04T20:30:40.000Z</time>
      </trkpt>
      <trkpt lat="46.57161" lon="-0.43801">
        <ele>252.33</ele>
        <time>2019-05-04T20:30:42.000Z</time>
      </trkpt>
      <trkpt lat="46.57156" lon="-0.4379">
        <ele>252.68</ele>
        <time>2019-05-04T20:30:44.000Z</time>
      </trkpt>
      <trkpt lat="46.5715" lon="-0.43779">
        <ele>252.69</ele>
        <time>2019-05-04T20:30:46.000Z</time>
      </trkpt>
      <trkpt lat="46.57143" lon="-0.43768">
        <ele>252.87</ele>
        <time>2019-05-04T20:30:48.000Z</time>
      </trkpt>
      <trkpt lat="46.57136" lon="-0.43758">
        <ele>252.95</ele>
        <time>2019-05-04T20:30:50.000Z</time>
      </trkpt>
      <trkpt lat="46.5713" lon="-0.43747">
        <ele>253.02</ele>
        <time>2019-05-04T20:30:52.000Z</time>
      </trkpt>
      <trkpt lat="46.57123" lon="-0.43737">
        <ele>253.25</ele>
        <time>2019-05-04T20:30:56.000Z</time>
      </trkpt>
      <trkpt lat="46.57114" lon="-0.43743">
        <ele>254.03</ele>
        <time>2019-05-04T20:31:02.000Z</time>
      </trkpt>
      <trkpt lat="46.57104" lon="-0.43756">
        <ele>254.39</ele>
        <time>2019-05-04T20:31:05.000Z</time>
      </trkpt>
      <trkpt lat="46.57094" lon="-0.43768">
        <ele>254.74</ele>
        <time>2019-05-04T20:31:08.000Z</time>
      </trkpt>
      <trkpt lat="46.57087" lon="-0.43777">
        <ele>254.95</ele>
        <time>2019-05-04T20:31:10.000Z</time>
      </trkpt>
      <trkpt lat="46.5708" lon="-0.43788">
        <ele>255.01</ele>
        <time>2019-05-04T20:31:12.000Z</time>
      </trkpt>
      <trkpt lat="46.5707" lon="-0.43805">
        <ele>254.91</ele>
        <time>2019-05-04T20:31:15.000Z</time>
      </trkpt>
      <trkpt lat="46.57063" lon="-0.43817">
        <ele>253.65</ele>
        <time>2019-05-04T20:31:17.000Z</time>
      </trkpt>
      <trkpt lat="46.57052" lon="-0.43831">
        <ele>251.35</ele>
        <time>2019-05-04T20:31:19.000Z</time>
      </trkpt>
      <trkpt lat="46.5704" lon="-0.43844">
        <ele>248.7</ele>
        <time>2019-05-04T20:31:21.000Z</time>
      </trkpt>
      <trkpt lat="46.57032" lon="-0.43855">
        <ele>245.53</ele>
        <time>2019-05-04T20:31:23.000Z</time>
      </trkpt>
      <trkpt lat="46.57023" lon="-0.43868">
        <ele>242.64</ele>
        <time>2019-05-04T20:31:25.000Z</time>
      </trkpt>
      <trkpt lat="46.57015" lon="-0.43879">
        <ele>239.89</ele>
        <time>2019-05-04T20:31:27.000Z</time>
      </trkpt>
      <trkpt lat="46.57005" lon="-0.4389">
        <ele>237.57</ele>
        <time>2019-05-04T20:31:29.000Z</time>
      </trkpt>
      <trkpt lat="46.56997" lon="-0.43904">
        <ele>235.85</ele>
        <time>2019-05-04T20:31:31.000Z</time>
      </trkpt>
      <trkpt lat="46.56987" lon="-0.43916">
        <ele>234.61</ele>
        <time>2019-05-04T20:31:33.000Z</time>
      </trkpt>
      <trkpt lat="46.56978" lon="-0.43931">
        <ele>233.27</ele>
        <time>2019-05-04T20:31:35.000Z</time>
      </trkpt>
      <trkpt lat="46.56969" lon="-0.43944">
        <ele>231.93</ele>
        <time>2019-05-04T20:31:37.000Z</time>
      </trkpt>
      <trkpt lat="46.5696" lon="-0.43955">
        <ele>231.33</ele>
        <time>2019-05-04T20:31:39.000Z</time>
      </trkpt>
      <trkpt lat="46.56951" lon="-0.43966">
        <ele>230.94</ele>
        <time>2019-05-04T20:31:41.000Z</time>
      </trkpt>
      <trkpt lat="46.56944" lon="-0.43975">
        <ele>230.26</ele>
        <time>2019-05-04T20:31:43.000Z</time>
      </trkpt>
      <trkpt lat="46.56934" lon="-0.43988">
        <ele>229.38</ele>
        <time>2019-05-04T20:31:46.000Z</time>
      </trkpt>
      <trkpt lat="46.56924" lon="-0.44001">
        <ele>229.23</ele>
        <time>2019-05-04T20:31:49.000Z</time>
      </trkpt>
      <trkpt lat="46.56916" lon="-0.44012">
        <ele>228.98</ele>
        <time>2019-05-04T20:31:53.000Z</time>
      </trkpt>
      <trkpt lat="46.5692" lon="-0.44024">
        <ele>229.07</ele>
        <time>2019-05-04T20:32:01.000Z</time>
      </trkpt>
      <trkpt lat="46.5693" lon="-0.44031">
        <ele>229.37</ele>
        <time>2019-05-04T20:32:05.000Z</time>
      </trkpt>
      <trkpt lat="46.56941" lon="-0.44034">
        <ele>229.68</ele>
        <time>2019-05-04T20:32:09.000Z</time>
      </trkpt>
      <trkpt lat="46.56954" lon="-0.44033">
        <ele>229.77</ele>
        <time>2019-05-04T20:32:13.000Z</time>
      </trkpt>
      <trkpt lat="46.56963" lon="-0.44032">
        <ele>229.8</ele>
        <time>2019-05-04T20:32:16.000Z</time>
      </trkpt>
      <trkpt lat="46.56973" lon="-0.44031">
        <ele>229.85</ele>
        <time>2019-05-04T20:32:19.000Z</time>
      </trkpt>
      <trkpt lat="46.56982" lon="-0.44033">
        <ele>229.87</ele>
        <time>2019-05-04T20:32:23.000Z</time>
      </trkpt>
      <trkpt lat="46.56992" lon="-0.44043">
        <ele>229.83</ele>
        <time>2019-05-04T20:32:27.000Z</time>
      </trkpt>
      <trkpt lat="46.57" lon="-0.44053">
        <ele>229.7</ele>
        <time>2019-05-04T20:32:30.000Z</time>
      </trkpt>
      <trkpt lat="46.57008" lon="-0.44063">
        <ele>229.47</ele>
        <time>2019-05-04T20:32:33.000Z</time>
      </trkpt>
      <trkpt lat="46.57015" lon="-0.44071">
        <ele>229.2</ele>
        <time>2019-05-04T20:32:36.000Z</time>
      </trkpt>
      <trkpt lat="46.57024" lon="-0.44082">
        <ele>229.03</ele>
        <time>2019-05-04T20:32:41.000Z</time>
      </trkpt>
      <trkpt lat="46.57033" lon="-0.44089">
        <ele>229.14</ele>
        <time>2019-05-04T20:32:45.000Z</time>
      </trkpt>
      <trkpt lat="46.57042" lon="-0.44094">
        <ele>229.23</ele>
        <time>2019-05-04T20:32:49.000Z</time>
      </trkpt>
      <trkpt lat="46.57051" lon="-0.44097">
        <ele>229.24</ele>
        <time>2019-05-04T20:32:53.000Z</time>
      </trkpt>
      <trkpt lat="46.57061" lon="-0.44102">
        <ele>229.28</ele>
        <time>2019-05-04T20:32:57.000Z</time>
      </trkpt>
      <trkpt lat="46.57071" lon="-0.44108">
        <ele>229.34</ele>
        <time>2019-05-04T20:33:01.000Z</time>
      </trkpt>
      <trkpt lat="46.57078" lon="-0.44118">
        <ele>229.47</ele>
        <time>2019-05-04T20:33:05.000Z</time>
      </trkpt>
      <trkpt lat="46.57077" lon="-0.44133">
        <ele>229.89</ele>
        <time>2019-05-04T20:33:09.000Z</time>
      </trkpt>
      <trkpt lat="46.57073" lon="-0.44146">
        <ele>230.68</ele>
        <time>2019-05-04T20:33:13.000Z</time>
      </trkpt>
      <trkpt lat="46.57068" lon="-0.44157">
        <ele>231.29</ele>
        <time>2019-05-04T20:33:17.000Z</time>
      </trkpt>
      <trkpt lat="46.57055" lon="-0.4416">
        <ele>232.73</ele>
        <time>2019-05-04T20:33:21.000Z</time>
      </trkpt>
      <trkpt lat="46.57042" lon="-0.44163">
        <ele>234.85</ele>
        <time>2019-05-04T20:33:23.000Z</time>
      </trkpt>
      <trkpt lat="46.5703" lon="-0.44165">
        <ele>236.43</ele>
        <time>2019-05-04T20:33:25.000Z</time>
      </trkpt>
      <trkpt lat="46.57018" lon="-0.44168">
        <ele>237.4</ele>
        <time>2019-05-04T20:33:27.000Z</time>
      </trkpt>
      <trkpt lat="46.57008" lon="-0.44172">
        <ele>237.44</ele>
        <time>2019-05-04T20:33:29.000Z</time>
      </trkpt>
      <trkpt lat="46.56998" lon="-0.44178">
        <ele>236.93</ele>
        <time>2019-05-04T20:33:31.000Z</time>
      </trkpt>
      <trkpt lat="46.56988" lon="-0.44188">
        <ele>236.59</ele>
        <time>2019-05-04T20:33:33.000Z</time>
      </trkpt>
      <trkpt lat="46.56981" lon="-0.44196">
        <ele>235.99</ele>
        <time>2019-05-04T20:33:35.000Z</time>
      </trkpt>
      <trkpt lat="46.56972" lon="-0.44197">
        <ele>235.8</ele>
        <time>2019-05-04T20:33:37.000Z</time>
      </trkpt>
      <trkpt lat="46.56963" lon="-0.44194">
        <ele>235.56</ele>
        <time>2019-05-04T20:33:39.000Z</time>
      </trkpt>
      <trkpt lat="46.56953" lon="-0.44192">
        <ele>235.05</ele>
        <time>2019-05-04T20:33:43.000Z</time>
      </trkpt>
      <trkpt lat="46.56942" lon="-0.44191">
        <ele>234.64</ele>
        <time>2019-05-04T20:33:48.000Z</time>
      </trkpt>
      <trkpt lat="46.56932" lon="-0.44194">
        <ele>234.68</ele>
        <time>2019-05-04T20:33:53.000Z</time>
      </trkpt>
      <trkpt lat="46.56924" lon="-0.44201">
        <ele>234.79</ele>
        <time>2019-05-04T20:33:57.000Z</time>
      </trkpt>
      <trkpt lat="46.56916" lon="-0.4421">
        <ele>235.01</ele>
        <time>2019-05-04T20:34:01.000Z</time>
      </trkpt>
      <trkpt lat="46.56908" lon="-0.44217">
        <ele>235.35</ele>
        <time>2019-05-04T20:34:05.000Z</time>
      </trkpt>
      <trkpt lat="46.569" lon="-0.44226">
        <ele>235.67</ele>
        <time>2019-05-04T20:34:08.000Z</time>
      </trkpt>
      <trkpt lat="46.56892" lon="-0.44234">
        <ele>235.74</ele>
        <time>2019-05-04T20:34:11.000Z</time>
      </trkpt>
      <trkpt lat="46.56884" lon="-0.44241">
        <ele>235.57</ele>
        <time>2019-05-04T20:34:15.000Z</time>
      </trkpt>
      <trkpt lat="46.56875" lon="-0.44243">
        <ele>235.2</ele>
        <time>2019-05-04T20:34:19.000Z</time>
      </trkpt>
      <trkpt lat="46.56867" lon="-0.44236">
        <ele>235.01</ele>
        <time>2019-05-04T20:34:22.000Z</time>
      </trkpt>
      <trkpt lat="46.56858" lon="-0.44227">
        <ele>234.95</ele>
        <time>2019-05-04T20:34:25.000Z</time>
      </trkpt>
      <trkpt lat="46.56851" lon="-0.44218">
        <ele>234.91</ele>
        <time>2019-05-04T20:34:28.000Z</time>
      </trkpt>
      <trkpt lat="46.56845" lon="-0.44208">
        <ele>234.9</ele>
        <time>2019-05-04T20:34:31.000Z</time>
      </trkpt>
      <trkpt lat="46.56837" lon="-0.44195">
        <ele>234.93</ele>
        <time>2019-05-04T20:34:35.000Z</time>
      </trkpt>
      <trkpt lat="46.5683" lon="-0.44181">
        <ele>235.06</ele>
        <time>2019-05-04T20:34:39.000Z</time>
      </trkpt>
      <trkpt lat="46.56824" lon="-0.44168">
        <ele>235.24</ele>
        <time>2019-05-04T20:34:43.000Z</time>
      </trkpt>
      <trkpt lat="46.5682" lon="-0.44152">
        <ele>235.39</ele>
        <time>2019-05-04T20:34:47.000Z</time>
      </trkpt>
      <trkpt lat="46.56817" lon="-0.44139">
        <ele>235.55</ele>
        <time>2019-05-04T20:34:50.000Z</time>
      </trkpt>
      <trkpt lat="46.56815" lon="-0.44124">
        <ele>235.83</ele>
        <time>2019-05-04T20:34:53.000Z</time>
      </trkpt>
      <trkpt lat="46.56813" lon="-0.44107">
        <ele>236.19</ele>
        <time>2019-05-04T20:34:56.000Z</time>
      </trkpt>
      <trkpt lat="46.56811" lon="-0.44094">
        <ele>236.43</ele>
        <time>2019-05-04T20:34:58.000Z</time>
      </trkpt>
      <trkpt lat="46.56807" lon="-0.44079">
        <ele>236.76</ele>
        <time>2019-05-04T20:35:01.000Z</time>
      </trkpt>
      <trkpt lat="46.56806" lon="-0.44066">
        <ele>236.96</ele>
        <time>2019-05-04T20:35:03.000Z</time>
      </trkpt>
      <trkpt lat="46.56804" lon="-0.4405">
        <ele>237.93</ele>
        <time>2019-05-04T20:35:07.000Z</time>
      </trkpt>
      <trkpt lat="46.56799" lon="-0.44036">
        <ele>238.57</ele>
        <time>2019-05-04T20:35:10.000Z</time>
      </trkpt>
      <trkpt lat="46.56792" lon="-0.44018">
        <ele>239.5</ele>
        <time>2019-05-04T20:35:13.000Z</time>
      </trkpt>
      <trkpt lat="46.56785" lon="-0.44005">
        <ele>239.4</ele>
        <time>2019-05-04T20:35:15.000Z</time>
      </trkpt>
      <trkpt lat="46.56779" lon="-0.43993">
        <ele>238.78</ele>
        <time>2019-05-04T20:35:17.000Z</time>
      </trkpt>
      <trkpt lat="46.56773" lon="-0.4398">
        <ele>238.34</ele>
        <time>2019-05-04T20:35:19.000Z</time>
      </trkpt>
      <trkpt lat="46.56768" lon="-0.43968">
        <ele>237.76</ele>
        <time>2019-05-04T20:35:21.000Z</time>
      </trkpt>
      <trkpt lat="46.56759" lon="-0.43954">
        <ele>237.37</ele>
        <time>2019-05-04T20:35:23.000Z</time>
      </trkpt>
      <trkpt lat="46.56754" lon="-0.43935">
        <ele>237.06</ele>
        <time>2019-05-04T20:35:25.000Z</time>
      </trkpt>
      <trkpt lat="46.56749" lon="-0.43918">
        <ele>236.76</ele>
        <time>2019-05-04T20:35:28.000Z</time>
      </trkpt>
      <trkpt lat="46.56744" lon="-0.43902">
        <ele>236.13</ele>
        <time>2019-05-04T20:35:31.000Z</time>
      </trkpt>
      <trkpt lat="46.56739" lon="-0.4389">
        <ele>235.69</ele>
        <time>2019-05-04T20:35:33.000Z</time>
      </trkpt>
      <trkpt lat="46.56735" lon="-0.43878">
        <ele>235.37</ele>
        <time>2019-05-04T20:35:35.000Z</time>
      </trkpt>
      <trkpt lat="46.56729" lon="-0.43863">
        <ele>235.05</ele>
        <time>2019-05-04T20:35:37.000Z</time>
      </trkpt>
      <trkpt lat="46.56724" lon="-0.4385">
        <ele>234.67</ele>
        <time>2019-05-04T20:35:39.000Z</time>
      </trkpt>
      <trkpt lat="46.56718" lon="-0.43836">
        <ele>234.35</ele>
        <time>2019-05-04T20:35:41.000Z</time>
      </trkpt>
      <trkpt lat="46.56715" lon="-0.43819">
        <ele>234.02</ele>
        <time>2019-05-04T20:35:43.000Z</time>
      </trkpt>
      <trkpt lat="46.56712" lon="-0.43803">
        <ele>233.81</ele>
        <time>2019-05-04T20:35:45.000Z</time>
      </trkpt>
      <trkpt lat="46.56709" lon="-0.43787">
        <ele>233.54</ele>
        <time>2019-05-04T20:35:47.000Z</time>
      </trkpt>
      <trkpt lat="46.56705" lon="-0.43771">
        <ele>232.89</ele>
        <time>2019-05-04T20:35:49.000Z</time>
      </trkpt>
      <trkpt lat="46.567" lon="-0.43756">
        <ele>232.41</ele>
        <time>2019-05-04T20:35:51.000Z</time>
      </trkpt>
      <trkpt lat="46.56696" lon="-0.43739">
        <ele>231.82</ele>
        <time>2019-05-04T20:35:53.000Z</time>
      </trkpt>
      <trkpt lat="46.56692" lon="-0.43723">
        <ele>231.13</ele>
        <time>2019-05-04T20:35:55.000Z</time>
      </trkpt>
      <trkpt lat="46.56688" lon="-0.43708">
        <ele>230.18</ele>
        <time>2019-05-04T20:35:57.000Z</time>
      </trkpt>
      <trkpt lat="46.56684" lon="-0.43689">
        <ele>229.17</ele>
        <time>2019-05-04T20:35:59.000Z</time>
      </trkpt>
      <trkpt lat="46.56678" lon="-0.43676">
        <ele>228.35</ele>
        <time>2019-05-04T20:36:01.000Z</time>
      </trkpt>
      <trkpt lat="46.56673" lon="-0.43659">
        <ele>227.83</ele>
        <time>2019-05-04T20:36:03.000Z</time>
      </trkpt>
      <trkpt lat="46.5667" lon="-0.43644">
        <ele>227.61</ele>
        <time>2019-05-04T20:36:05.000Z</time>
      </trkpt>
      <trkpt lat="46.56666" lon="-0.43626">
        <ele>227.83</ele>
        <time>2019-05-04T20:36:07.000Z</time>
      </trkpt>
      <trkpt lat="46.56661" lon="-0.4361">
        <ele>227.42</ele>
        <time>2019-05-04T20:36:09.000Z</time>
      </trkpt>
      <trkpt lat="46.56654" lon="-0.43594">
        <ele>226.65</ele>
        <time>2019-05-04T20:36:11.000Z</time>
      </trkpt>
      <trkpt lat="46.56646" lon="-0.4358">
        <ele>225.49</ele>
        <time>2019-05-04T20:36:13.000Z</time>
      </trkpt>
      <trkpt lat="46.56636" lon="-0.43565">
        <ele>223.86</ele>
        <time>2019-05-04T20:36:15.000Z</time>
      </trkpt>
      <trkpt lat="46.56625" lon="-0.4355">
        <ele>221.91</ele>
        <time>2019-05-04T20:36:17.000Z</time>
      </trkpt>
      <trkpt lat="46.56615" lon="-0.43539">
        <ele>220.15</ele>
        <time>2019-05-04T20:36:19.000Z</time>
      </trkpt>
      <trkpt lat="46.56606" lon="-0.4353">
        <ele>218.5</ele>
        <time>2019-05-04T20:36:21.000Z</time>
      </trkpt>
      <trkpt lat="46.56597" lon="-0.43521">
        <ele>216.89</ele>
        <time>2019-05-04T20:36:23.000Z</time>
      </trkpt>
      <trkpt lat="46.56587" lon="-0.43512">
        <ele>215.63</ele>
        <time>2019-05-04T20:36:25.000Z</time>
      </trkpt>
      <trkpt lat="46.56578" lon="-0.43507">
        <ele>214.69</ele>
        <time>2019-05-04T20:36:27.000Z</time>
      </trkpt>
      <trkpt lat="46.56566" lon="-0.43505">
        <ele>214.61</ele>
        <time>2019-05-04T20:36:30.000Z</time>
      </trkpt>
      <trkpt lat="46.56552" lon="-0.4351">
        <ele>214.46</ele>
        <time>2019-05-04T20:36:33.000Z</time>
      </trkpt>
      <trkpt lat="46.56541" lon="-0.43516">
        <ele>214.33</ele>
        <time>2019-05-04T20:36:35.000Z</time>
      </trkpt>
      <trkpt lat="46.56529" lon="-0.43518">
        <ele>214.23</ele>
        <time>2019-05-04T20:36:37.000Z</time>
      </trkpt>
      <trkpt lat="46.56518" lon="-0.43516">
        <ele>213.69</ele>
        <time>2019-05-04T20:36:39.000Z</time>
      </trkpt>
      <trkpt lat="46.56509" lon="-0.43515">
        <ele>213.63</ele>
        <time>2019-05-04T20:36:41.000Z</time>
      </trkpt>
      <trkpt lat="46.56498" lon="-0.43515">
        <ele>213.31</ele>
        <time>2019-05-04T20:36:45.000Z</time>
      </trkpt>
      <trkpt lat="46.56491" lon="-0.43523">
        <ele>212.55</ele>
        <time>2019-05-04T20:36:51.000Z</time>
      </trkpt>
      <trkpt lat="46.56495" lon="-0.43539">
        <ele>210.85</ele>
        <time>2019-05-04T20:36:54.000Z</time>
      </trkpt>
      <trkpt lat="46.565" lon="-0.43556">
        <ele>208.71</ele>
        <time>2019-05-04T20:36:57.000Z</time>
      </trkpt>
      <trkpt lat="46.56504" lon="-0.43574">
        <ele>207.69</ele>
        <time>2019-05-04T20:36:59.000Z</time>
      </trkpt>
      <trkpt lat="46.56508" lon="-0.43588">
        <ele>207.21</ele>
        <time>2019-05-04T20:37:01.000Z</time>
      </trkpt>
      <trkpt lat="46.56514" lon="-0.43602">
        <ele>207.1</ele>
        <time>2019-05-04T20:37:03.000Z</time>
      </trkpt>
      <trkpt lat="46.56519" lon="-0.43616">
        <ele>206.89</ele>
        <time>2019-05-04T20:37:05.000Z</time>
      </trkpt>
      <trkpt lat="46.56523" lon="-0.43628">
        <ele>205.44</ele>
        <time>2019-05-04T20:37:07.000Z</time>
      </trkpt>
      <trkpt lat="46.56528" lon="-0.4364">
        <ele>205.15</ele>
        <time>2019-05-04T20:37:10.000Z</time>
      </trkpt>
      <trkpt lat="46.56532" lon="-0.43651">
        <ele>204.88</ele>
        <time>2019-05-04T20:37:13.000Z</time>
      </trkpt>
      <trkpt lat="46.56539" lon="-0.43662">
        <ele>204.49</ele>
        <time>2019-05-04T20:37:17.000Z</time>
      </trkpt>
      <trkpt lat="46.56546" lon="-0.43672">
        <ele>204.16</ele>
        <time>2019-05-04T20:37:20.000Z</time>
      </trkpt>
      <trkpt lat="46.56555" lon="-0.43686">
        <ele>203.93</ele>
        <time>2019-05-04T20:37:23.000Z</time>
      </trkpt>
      <trkpt lat="46.56562" lon="-0.43701">
        <ele>203</ele>
        <time>2019-05-04T20:37:26.000Z</time>
      </trkpt>
      <trkpt lat="46.56568" lon="-0.43715">
        <ele>203.07</ele>
        <time>2019-05-04T20:37:29.000Z</time>
      </trkpt>
      <trkpt lat="46.56573" lon="-0.43726">
        <ele>203.34</ele>
        <time>2019-05-04T20:37:32.000Z</time>
      </trkpt>
      <trkpt lat="46.5658" lon="-0.4374">
        <ele>203.7</ele>
        <time>2019-05-04T20:37:36.000Z</time>
      </trkpt>
      <trkpt lat="46.56585" lon="-0.43754">
        <ele>204.02</ele>
        <time>2019-05-04T20:37:39.000Z</time>
      </trkpt>
      <trkpt lat="46.56587" lon="-0.4377">
        <ele>204.19</ele>
        <time>2019-05-04T20:37:41.000Z</time>
      </trkpt>
      <trkpt lat="46.5659" lon="-0.43789">
        <ele>204.41</ele>
        <time>2019-05-04T20:37:44.000Z</time>
      </trkpt>
      <trkpt lat="46.56593" lon="-0.43806">
        <ele>204.68</ele>
        <time>2019-05-04T20:37:48.000Z</time>
      </trkpt>
      <trkpt lat="46.56598" lon="-0.43821">
        <ele>204.82</ele>
        <time>2019-05-04T20:37:51.000Z</time>
      </trkpt>
      <trkpt lat="46.56601" lon="-0.43834">
        <ele>204.88</ele>
        <time>2019-05-04T20:37:53.000Z</time>
      </trkpt>
      <trkpt lat="46.56607" lon="-0.43847">
        <ele>205</ele>
        <time>2019-05-04T20:37:56.000Z</time>
      </trkpt>
      <trkpt lat="46.56614" lon="-0.43861">
        <ele>205.18</ele>
        <time>2019-05-04T20:37:59.000Z</time>
      </trkpt>
      <trkpt lat="46.56621" lon="-0.43875">
        <ele>205.33</ele>
        <time>2019-05-04T20:38:02.000Z</time>
      </trkpt>
      <trkpt lat="46.56627" lon="-0.4389">
        <ele>205.45</ele>
        <time>2019-05-04T20:38:08.000Z</time>
      </trkpt>
      <trkpt lat="46.56635" lon="-0.43902">
        <ele>205.68</ele>
        <time>2019-05-04T20:38:12.000Z</time>
      </trkpt>
      <trkpt lat="46.5664" lon="-0.43914">
        <ele>206.12</ele>
        <time>2019-05-04T20:38:16.000Z</time>
      </trkpt>
      <trkpt lat="46.56642" lon="-0.4393">
        <ele>206.41</ele>
        <time>2019-05-04T20:38:19.000Z</time>
      </trkpt>
      <trkpt lat="46.56644" lon="-0.43943">
        <ele>206.72</ele>
        <time>2019-05-04T20:38:22.000Z</time>
      </trkpt>
      <trkpt lat="46.56645" lon="-0.43958">
        <ele>207.08</ele>
        <time>2019-05-04T20:38:26.000Z</time>
      </trkpt>
      <trkpt lat="46.56652" lon="-0.43971">
        <ele>207.7</ele>
        <time>2019-05-04T20:38:30.000Z</time>
      </trkpt>
      <trkpt lat="46.56657" lon="-0.43983">
        <ele>208.58</ele>
        <time>2019-05-04T20:38:35.000Z</time>
      </trkpt>
      <trkpt lat="46.56663" lon="-0.43994">
        <ele>209.08</ele>
        <time>2019-05-04T20:38:38.000Z</time>
      </trkpt>
      <trkpt lat="46.56669" lon="-0.44008">
        <ele>209.69</ele>
        <time>2019-05-04T20:38:42.000Z</time>
      </trkpt>
      <trkpt lat="46.56675" lon="-0.44018">
        <ele>210.67</ele>
        <time>2019-05-04T20:38:47.000Z</time>
      </trkpt>
      <trkpt lat="46.5668" lon="-0.44035">
        <ele>211.55</ele>
        <time>2019-05-04T20:38:51.000Z</time>
      </trkpt>
      <trkpt lat="46.56683" lon="-0.4405">
        <ele>212.25</ele>
        <time>2019-05-04T20:38:54.000Z</time>
      </trkpt>
      <trkpt lat="46.56687" lon="-0.44065">
        <ele>213.19</ele>
        <time>2019-05-04T20:38:58.000Z</time>
      </trkpt>
      <trkpt lat="46.56694" lon="-0.44076">
        <ele>213.81</ele>
        <time>2019-05-04T20:39:01.000Z</time>
      </trkpt>
      <trkpt lat="46.567" lon="-0.4409">
        <ele>214.48</ele>
        <time>2019-05-04T20:39:05.000Z</time>
      </trkpt>
      <trkpt lat="46.56705" lon="-0.44103">
        <ele>214.97</ele>
        <time>2019-05-04T20:39:10.000Z</time>
      </trkpt>
      <trkpt lat="46.56709" lon="-0.44118">
        <ele>215</ele>
        <time>2019-05-04T20:39:14.000Z</time>
      </trkpt>
      <trkpt lat="46.5671" lon="-0.44132">
        <ele>214.89</ele>
        <time>2019-05-04T20:39:18.000Z</time>
      </trkpt>
      <trkpt lat="46.56715" lon="-0.44148">
        <ele>215.11</ele>
        <time>2019-05-04T20:39:23.000Z</time>
      </trkpt>
      <trkpt lat="46.56719" lon="-0.44161">
        <ele>215.32</ele>
        <time>2019-05-04T20:39:26.000Z</time>
      </trkpt>
      <trkpt lat="46.56724" lon="-0.44173">
        <ele>215.66</ele>
        <time>2019-05-04T20:39:31.000Z</time>
      </trkpt>
      <trkpt lat="46.56728" lon="-0.44184">
        <ele>215.96</ele>
        <time>2019-05-04T20:39:35.000Z</time>
      </trkpt>
      <trkpt lat="46.56734" lon="-0.44197">
        <ele>216.27</ele>
        <time>2019-05-04T20:39:39.000Z</time>
      </trkpt>
      <trkpt lat="46.56738" lon="-0.44216">
        <ele>216.73</ele>
        <time>2019-05-04T20:39:44.000Z</time>
      </trkpt>
      <trkpt lat="46.56729" lon="-0.44226">
        <ele>216.46</ele>
        <time>2019-05-04T20:39:48.000Z</time>
      </trkpt>
      <trkpt lat="46.56719" lon="-0.44231">
        <ele>215.84</ele>
        <time>2019-05-04T20:39:51.000Z</time>
      </trkpt>
      <trkpt lat="46.56708" lon="-0.44233">
        <ele>215.2</ele>
        <time>2019-05-04T20:39:54.000Z</time>
      </trkpt>
      <trkpt lat="46.56699" lon="-0.44234">
        <ele>214.74</ele>
        <time>2019-05-04T20:39:57.000Z</time>
      </trkpt>
      <trkpt lat="46.56687" lon="-0.44233">
        <ele>214.27</ele>
        <time>2019-05-04T20:40:01.000Z</time>
      </trkpt>
      <trkpt lat="46.56677" lon="-0.44232">
        <ele>213.93</ele>
        <time>2019-05-04T20:40:06.000Z</time>
      </trkpt>
      <trkpt lat="46.56667" lon="-0.44237">
        <ele>213.86</ele>
        <time>2019-05-04T20:40:12.000Z</time>
      </trkpt>
      <trkpt lat="46.56657" lon="-0.44241">
        <ele>214.61</ele>
        <time>2019-05-04T20:40:18.000Z</time>
      </trkpt>
      <trkpt lat="46.56648" lon="-0.44249">
        <ele>215.22</ele>
        <time>2019-05-04T20:40:21.000Z</time>
      </trkpt>
      <trkpt lat="46.56638" lon="-0.44252">
        <ele>216.64</ele>
        <time>2019-05-04T20:40:27.000Z</time>
      </trkpt>
      <trkpt lat="46.5663" lon="-0.44257">
        <ele>218.69</ele>
        <time>2019-05-04T20:40:34.000Z</time>
      </trkpt>
      <trkpt lat="46.56621" lon="-0.44261">
        <ele>221.08</ele>
        <time>2019-05-04T20:40:40.000Z</time>
      </trkpt>
      <trkpt lat="46.56611" lon="-0.44265">
        <ele>225.06</ele>
        <time>2019-05-04T20:40:49.000Z</time>
      </trkpt>
      <trkpt lat="46.56602" lon="-0.44263">
        <ele>227.22</ele>
        <time>2019-05-04T20:40:55.000Z</time>
      </trkpt>
      <trkpt lat="46.56592" lon="-0.44265">
        <ele>229.14</ele>
        <time>2019-05-04T20:41:02.000Z</time>
      </trkpt>
      <trkpt lat="46.56583" lon="-0.44266">
        <ele>230.23</ele>
        <time>2019-05-04T20:41:09.000Z</time>
      </trkpt>
      <trkpt lat="46.56573" lon="-0.44263">
        <ele>230.99</ele>
        <time>2019-05-04T20:41:15.000Z</time>
      </trkpt>
      <trkpt lat="46.56563" lon="-0.44263">
        <ele>232.79</ele>
        <time>2019-05-04T20:41:25.000Z</time>
      </trkpt>
      <trkpt lat="46.56554" lon="-0.44265">
        <ele>234.17</ele>
        <time>2019-05-04T20:41:32.000Z</time>
      </trkpt>
      <trkpt lat="46.56545" lon="-0.44267">
        <ele>236.29</ele>
        <time>2019-05-04T20:41:40.000Z</time>
      </trkpt>
      <trkpt lat="46.56538" lon="-0.44274">
        <ele>237.5</ele>
        <time>2019-05-04T20:41:46.000Z</time>
      </trkpt>
      <trkpt lat="46.56532" lon="-0.44287">
        <ele>237.56</ele>
        <time>2019-05-04T20:41:52.000Z</time>
      </trkpt>
      <trkpt lat="46.56524" lon="-0.44295">
        <ele>236.52</ele>
        <time>2019-05-04T20:42:00.000Z</time>
      </trkpt>
      <trkpt lat="46.56512" lon="-0.44295">
        <ele>236.69</ele>
        <time>2019-05-04T20:42:10.000Z</time>
      </trkpt>
      <trkpt lat="46.56502" lon="-0.44293">
        <ele>237.65</ele>
        <time>2019-05-04T20:42:18.000Z</time>
      </trkpt>
      <trkpt lat="46.56493" lon="-0.44292">
        <ele>238.3</ele>
        <time>2019-05-04T20:42:26.000Z</time>
      </trkpt>
      <trkpt lat="46.56485" lon="-0.44288">
        <ele>238.39</ele>
        <time>2019-05-04T20:42:33.000Z</time>
      </trkpt>
      <trkpt lat="46.56475" lon="-0.44287">
        <ele>237.5</ele>
        <time>2019-05-04T20:42:46.000Z</time>
      </trkpt>
      <trkpt lat="46.56466" lon="-0.44289">
        <ele>237.48</ele>
        <time>2019-05-04T20:42:51.000Z</time>
      </trkpt>
      <trkpt lat="46.56456" lon="-0.4429">
        <ele>238.95</ele>
        <time>2019-05-04T20:43:00.000Z</time>
      </trkpt>
      <trkpt lat="46.56447" lon="-0.44291">
        <ele>239.97</ele>
        <time>2019-05-04T20:43:05.000Z</time>
      </trkpt>
      <trkpt lat="46.56436" lon="-0.44294">
        <ele>241.08</ele>
        <time>2019-05-04T20:43:12.000Z</time>
      </trkpt>
      <trkpt lat="46.56426" lon="-0.44296">
        <ele>242.15</ele>
        <time>2019-05-04T20:43:19.000Z</time>
      </trkpt>
      <trkpt lat="46.56416" lon="-0.44299">
        <ele>242.52</ele>
        <time>2019-05-04T20:43:22.000Z</time>
      </trkpt>
      <trkpt lat="46.56408" lon="-0.44304">
        <ele>243.67</ele>
        <time>2019-05-04T20:43:30.000Z</time>
      </trkpt>
      <trkpt lat="46.56408" lon="-0.44319">
        <ele>244.44</ele>
        <time>2019-05-04T20:43:35.000Z</time>
      </trkpt>
      <trkpt lat="46.56411" lon="-0.44333">
        <ele>245.3</ele>
        <time>2019-05-04T20:43:40.000Z</time>
      </trkpt>
      <trkpt lat="46.56416" lon="-0.44346">
        <ele>246.12</ele>
        <time>2019-05-04T20:43:44.000Z</time>
      </trkpt>
      <trkpt lat="46.56418" lon="-0.44359">
        <ele>246.64</ele>
        <time>2019-05-04T20:43:47.000Z</time>
      </trkpt>
      <trkpt lat="46.56418" lon="-0.44372">
        <ele>247.18</ele>
        <time>2019-05-04T20:43:51.000Z</time>
      </trkpt>
      <trkpt lat="46.56421" lon="-0.44387">
        <ele>247.6</ele>
        <time>2019-05-04T20:43:55.000Z</time>
      </trkpt>
      <trkpt lat="46.56424" lon="-0.44401">
        <ele>248.36</ele>
        <time>2019-05-04T20:44:01.000Z</time>
      </trkpt>
      <trkpt lat="46.56427" lon="-0.44416">
        <ele>250.21</ele>
        <time>2019-05-04T20:44:08.000Z</time>
      </trkpt>
      <trkpt lat="46.5643" lon="-0.4443">
        <ele>251.49</ele>
        <time>2019-05-04T20:44:12.000Z</time>
      </trkpt>
      <trkpt lat="46.56435" lon="-0.44443">
        <ele>253.12</ele>
        <time>2019-05-04T20:44:17.000Z</time>
      </trkpt>
      <trkpt lat="46.56438" lon="-0.44457">
        <ele>254.28</ele>
        <time>2019-05-04T20:44:21.000Z</time>
      </trkpt>
      <trkpt lat="46.5644" lon="-0.4447">
        <ele>254.92</ele>
        <time>2019-05-04T20:44:24.000Z</time>
      </trkpt>
      <trkpt lat="46.5644" lon="-0.44485">
        <ele>255.62</ele>
        <time>2019-05-04T20:44:28.000Z</time>
      </trkpt>
      <trkpt lat="46.56442" lon="-0.445">
        <ele>256.1</ele>
        <time>2019-05-04T20:44:32.000Z</time>
      </trkpt>
      <trkpt lat="46.56441" lon="-0.44515">
        <ele>256.54</ele>
        <time>2019-05-04T20:44:36.000Z</time>
      </trkpt>
      <trkpt lat="46.56441" lon="-0.44529">
        <ele>257.04</ele>
        <time>2019-05-04T20:44:40.000Z</time>
      </trkpt>
      <trkpt lat="46.56441" lon="-0.44546">
        <ele>257.53</ele>
        <time>2019-05-04T20:44:44.000Z</time>
      </trkpt>
      <trkpt lat="46.56441" lon="-0.44563">
        <ele>257.92</ele>
        <time>2019-05-04T20:44:48.000Z</time>
      </trkpt>
      <trkpt lat="46.56442" lon="-0.44578">
        <ele>258.35</ele>
        <time>2019-05-04T20:44:53.000Z</time>
      </trkpt>
      <trkpt lat="46.5644" lon="-0.44591">
        <ele>258.75</ele>
        <time>2019-05-04T20:44:57.000Z</time>
      </trkpt>
      <trkpt lat="46.56442" lon="-0.44607">
        <ele>259.17</ele>
        <time>2019-05-04T20:45:02.000Z</time>
      </trkpt>
      <trkpt lat="46.56445" lon="-0.4462">
        <ele>259.71</ele>
        <time>2019-05-04T20:45:07.000Z</time>
      </trkpt>
      <trkpt lat="46.5645" lon="-0.44633">
        <ele>260.4</ele>
        <time>2019-05-04T20:45:12.000Z</time>
      </trkpt>
      <trkpt lat="46.56456" lon="-0.44645">
        <ele>261.05</ele>
        <time>2019-05-04T20:45:16.000Z</time>
      </trkpt>
      <trkpt lat="46.56465" lon="-0.44651">
        <ele>261.74</ele>
        <time>2019-05-04T20:45:20.000Z</time>
      </trkpt>
      <trkpt lat="46.56474" lon="-0.44659">
        <ele>262.33</ele>
        <time>2019-05-04T20:45:24.000Z</time>
      </trkpt>
      <trkpt lat="46.56483" lon="-0.44665">
        <ele>262.82</ele>
        <time>2019-05-04T20:45:28.000Z</time>
      </trkpt>
      <trkpt lat="46.56492" lon="-0.4467">
        <ele>263.3</ele>
        <time>2019-05-04T20:45:32.000Z</time>
      </trkpt>
      <trkpt lat="46.56501" lon="-0.44675">
        <ele>263.77</ele>
        <time>2019-05-04T20:45:36.000Z</time>
      </trkpt>
      <trkpt lat="46.56509" lon="-0.44685">
        <ele>264.25</ele>
        <time>2019-05-04T20:45:40.000Z</time>
      </trkpt>
      <trkpt lat="46.56515" lon="-0.44698">
        <ele>264.7</ele>
        <time>2019-05-04T20:45:44.000Z</time>
      </trkpt>
      <trkpt lat="46.56519" lon="-0.44711">
        <ele>265.11</ele>
        <time>2019-05-04T20:45:48.000Z</time>
      </trkpt>
      <trkpt lat="46.56523" lon="-0.44723">
        <ele>265.55</ele>
        <time>2019-05-04T20:45:52.000Z</time>
      </trkpt>
      <trkpt lat="46.56528" lon="-0.44737">
        <ele>265.99</ele>
        <time>2019-05-04T20:45:56.000Z</time>
      </trkpt>
      <trkpt lat="46.56532" lon="-0.44749">
        <ele>266.56</ele>
        <time>2019-05-04T20:46:01.000Z</time>
      </trkpt>
      <trkpt lat="46.5653" lon="-0.44762">
        <ele>266.94</ele>
        <time>2019-05-04T20:46:05.000Z</time>
      </trkpt>
      <trkpt lat="46.56524" lon="-0.44773">
        <ele>267.19</ele>
        <time>2019-05-04T20:46:08.000Z</time>
      </trkpt>
      <trkpt lat="46.56517" lon="-0.44784">
        <ele>267.41</ele>
        <time>2019-05-04T20:46:11.000Z</time>
      </trkpt>
      <trkpt lat="46.56509" lon="-0.44795">
        <ele>267.63</ele>
        <time>2019-05-04T20:46:15.000Z</time>
      </trkpt>
      <trkpt lat="46.56499" lon="-0.44806">
        <ele>267.77</ele>
        <time>2019-05-04T20:46:19.000Z</time>
      </trkpt>
      <trkpt lat="46.56486" lon="-0.44804">
        <ele>267.18</ele>
        <time>2019-05-04T20:46:22.000Z</time>
      </trkpt>
      <trkpt lat="46.56476" lon="-0.44797">
        <ele>266.64</ele>
        <time>2019-05-04T20:46:25.000Z</time>
      </trkpt>
      <trkpt lat="46.56473" lon="-0.44814">
        <ele>266.36</ele>
        <time>2019-05-04T20:46:29.000Z</time>
      </trkpt>
      <trkpt lat="46.56475" lon="-0.44829">
        <ele>266.17</ele>
        <time>2019-05-04T20:46:32.000Z</time>
      </trkpt>
      <trkpt lat="46.56474" lon="-0.44845">
        <ele>265.37</ele>
        <time>2019-05-04T20:46:35.000Z</time>
      </trkpt>
      <trkpt lat="46.56474" lon="-0.44859">
        <ele>265.09</ele>
        <time>2019-05-04T20:46:37.000Z</time>
      </trkpt>
      <trkpt lat="46.56477" lon="-0.44875">
        <ele>264.88</ele>
        <time>2019-05-04T20:46:40.000Z</time>
      </trkpt>
      <trkpt lat="46.56476" lon="-0.44895">
        <ele>265.02</ele>
        <time>2019-05-04T20:46:43.000Z</time>
      </trkpt>
      <trkpt lat="46.56473" lon="-0.44911">
        <ele>264.81</ele>
        <time>2019-05-04T20:46:46.000Z</time>
      </trkpt>
      <trkpt lat="46.56468" lon="-0.44926">
        <ele>264.57</ele>
        <time>2019-05-04T20:46:49.000Z</time>
      </trkpt>
      <trkpt lat="46.5646" lon="-0.4494">
        <ele>264.28</ele>
        <time>2019-05-04T20:46:52.000Z</time>
      </trkpt>
      <trkpt lat="46.56453" lon="-0.44952">
        <ele>263.94</ele>
        <time>2019-05-04T20:46:55.000Z</time>
      </trkpt>
      <trkpt lat="46.56447" lon="-0.44962">
        <ele>264.19</ele>
        <time>2019-05-04T20:46:57.000Z</time>
      </trkpt>
      <trkpt lat="46.5644" lon="-0.44975">
        <ele>264.67</ele>
        <time>2019-05-04T20:47:00.000Z</time>
      </trkpt>
      <trkpt lat="46.56434" lon="-0.44992">
        <ele>265.11</ele>
        <time>2019-05-04T20:47:03.000Z</time>
      </trkpt>
      <trkpt lat="46.5643" lon="-0.45008">
        <ele>266.27</ele>
        <time>2019-05-04T20:47:06.000Z</time>
      </trkpt>
      <trkpt lat="46.56425" lon="-0.45023">
        <ele>267.06</ele>
        <time>2019-05-04T20:47:09.000Z</time>
      </trkpt>
      <trkpt lat="46.56423" lon="-0.4504">
        <ele>267.41</ele>
        <time>2019-05-04T20:47:12.000Z</time>
      </trkpt>
      <trkpt lat="46.56423" lon="-0.45056">
        <ele>267.23</ele>
        <time>2019-05-04T20:47:15.000Z</time>
      </trkpt>
      <trkpt lat="46.56423" lon="-0.45072">
        <ele>267.42</ele>
        <time>2019-05-04T20:47:18.000Z</time>
      </trkpt>
      <trkpt lat="46.56423" lon="-0.45089">
        <ele>267.66</ele>
        <time>2019-05-04T20:47:21.000Z</time>
      </trkpt>
      <trkpt lat="46.56424" lon="-0.45103">
        <ele>267.51</ele>
        <time>2019-05-04T20:47:23.000Z</time>
      </trkpt>
      <trkpt lat="46.56424" lon="-0.45117">
        <ele>267.37</ele>
        <time>2019-05-04T20:47:25.000Z</time>
      </trkpt>
      <trkpt lat="46.56424" lon="-0.45131">
        <ele>267.5</ele>
        <time>2019-05-04T20:47:27.000Z</time>
      </trkpt>
      <trkpt lat="46.56426" lon="-0.45146">
        <ele>267.62</ele>
        <time>2019-05-04T20:47:29.000Z</time>
      </trkpt>
      <trkpt lat="46.5643" lon="-0.4516">
        <ele>267.73</ele>
        <time>2019-05-04T20:47:31.000Z</time>
      </trkpt>
      <trkpt lat="46.56434" lon="-0.45175">
        <ele>267.76</ele>
        <time>2019-05-04T20:47:33.000Z</time>
      </trkpt>
      <trkpt lat="46.56442" lon="-0.45191">
        <ele>268.19</ele>
        <time>2019-05-04T20:47:36.000Z</time>
      </trkpt>
      <trkpt lat="46.56449" lon="-0.45201">
        <ele>268.38</ele>
        <time>2019-05-04T20:47:38.000Z</time>
      </trkpt>
      <trkpt lat="46.56459" lon="-0.45212">
        <ele>268.42</ele>
        <time>2019-05-04T20:47:41.000Z</time>
      </trkpt>
      <trkpt lat="46.56467" lon="-0.4522">
        <ele>268.63</ele>
        <time>2019-05-04T20:47:43.000Z</time>
      </trkpt>
      <trkpt lat="46.56475" lon="-0.45229">
        <ele>268.34</ele>
        <time>2019-05-04T20:47:45.000Z</time>
      </trkpt>
      <trkpt lat="46.56483" lon="-0.45236">
        <ele>268.03</ele>
        <time>2019-05-04T20:47:47.000Z</time>
      </trkpt>
      <trkpt lat="46.56493" lon="-0.45243">
        <ele>267.97</ele>
        <time>2019-05-04T20:47:50.000Z</time>
      </trkpt>
      <trkpt lat="46.56504" lon="-0.45252">
        <ele>268.29</ele>
        <time>2019-05-04T20:47:53.000Z</time>
      </trkpt>
      <trkpt lat="46.56515" lon="-0.45261">
        <ele>268.43</ele>
        <time>2019-05-04T20:47:56.000Z</time>
      </trkpt>
      <trkpt lat="46.56524" lon="-0.45268">
        <ele>269.03</ele>
        <time>2019-05-04T20:47:59.000Z</time>
      </trkpt>
      <trkpt lat="46.56532" lon="-0.45277">
        <ele>269.59</ele>
        <time>2019-05-04T20:48:01.000Z</time>
      </trkpt>
      <trkpt lat="46.5654" lon="-0.45286">
        <ele>270.08</ele>
        <time>2019-05-04T20:48:03.000Z</time>
      </trkpt>
      <trkpt lat="46.56551" lon="-0.45298">
        <ele>270.55</ele>
        <time>2019-05-04T20:48:06.000Z</time>
      </trkpt>
      <trkpt lat="46.56558" lon="-0.45308">
        <ele>270.82</ele>
        <time>2019-05-04T20:48:08.000Z</time>
      </trkpt>
      <trkpt lat="46.56564" lon="-0.45318">
        <ele>270.85</ele>
        <time>2019-05-04T20:48:10.000Z</time>
      </trkpt>
      <trkpt lat="46.56564" lon="-0.45334">
        <ele>270.11</ele>
        <time>2019-05-04T20:48:13.000Z</time>
      </trkpt>
      <trkpt lat="46.56562" lon="-0.45353">
        <ele>268.78</ele>
        <time>2019-05-04T20:48:16.000Z</time>
      </trkpt>
      <trkpt lat="46.56564" lon="-0.45371">
        <ele>267.57</ele>
        <time>2019-05-04T20:48:19.000Z</time>
      </trkpt>
      <trkpt lat="46.56569" lon="-0.4539">
        <ele>267</ele>
        <time>2019-05-04T20:48:22.000Z</time>
      </trkpt>
      <trkpt lat="46.5657" lon="-0.45404">
        <ele>267.27</ele>
        <time>2019-05-04T20:48:24.000Z</time>
      </trkpt>
      <trkpt lat="46.56573" lon="-0.45421">
        <ele>268.44</ele>
        <time>2019-05-04T20:48:27.000Z</time>
      </trkpt>
      <trkpt lat="46.56575" lon="-0.45438">
        <ele>269.15</ele>
        <time>2019-05-04T20:48:30.000Z</time>
      </trkpt>
      <trkpt lat="46.56579" lon="-0.45455">
        <ele>269.99</ele>
        <time>2019-05-04T20:48:33.000Z</time>
      </trkpt>
      <trkpt lat="46.56583" lon="-0.45476">
        <ele>270.4</ele>
        <time>2019-05-04T20:48:36.000Z</time>
      </trkpt>
      <trkpt lat="46.56586" lon="-0.45492">
        <ele>270.26</ele>
        <time>2019-05-04T20:48:38.000Z</time>
      </trkpt>
      <trkpt lat="46.56588" lon="-0.45505">
        <ele>270.07</ele>
        <time>2019-05-04T20:48:40.000Z</time>
      </trkpt>
      <trkpt lat="46.56592" lon="-0.45519">
        <ele>269.44</ele>
        <time>2019-05-04T20:48:42.000Z</time>
      </trkpt>
      <trkpt lat="46.56596" lon="-0.45532">
        <ele>268.66</ele>
        <time>2019-05-04T20:48:44.000Z</time>
      </trkpt>
      <trkpt lat="46.566" lon="-0.45545">
        <ele>268.13</ele>
        <time>2019-05-04T20:48:46.000Z</time>
      </trkpt>
      <trkpt lat="46.56604" lon="-0.45558">
        <ele>267.82</ele>
        <time>2019-05-04T20:48:48.000Z</time>
      </trkpt>
      <trkpt lat="46.56608" lon="-0.45571">
        <ele>267.14</ele>
        <time>2019-05-04T20:48:50.000Z</time>
      </trkpt>
      <trkpt lat="46.56612" lon="-0.45583">
        <ele>266.57</ele>
        <time>2019-05-04T20:48:52.000Z</time>
      </trkpt>
      <trkpt lat="46.56615" lon="-0.45596">
        <ele>266.24</ele>
        <time>2019-05-04T20:48:54.000Z</time>
      </trkpt>
      <trkpt lat="46.56621" lon="-0.45612">
        <ele>266</ele>
        <time>2019-05-04T20:48:57.000Z</time>
      </trkpt>
      <trkpt lat="46.56626" lon="-0.45624">
        <ele>266.08</ele>
        <time>2019-05-04T20:48:59.000Z</time>
      </trkpt>
      <trkpt lat="46.56629" lon="-0.45636">
        <ele>266.27</ele>
        <time>2019-05-04T20:49:01.000Z</time>
      </trkpt>
      <trkpt lat="46.56636" lon="-0.45649">
        <ele>266.81</ele>
        <time>2019-05-04T20:49:04.000Z</time>
      </trkpt>
      <trkpt lat="46.56643" lon="-0.45657">
        <ele>266.87</ele>
        <time>2019-05-04T20:49:07.000Z</time>
      </trkpt>
      <trkpt lat="46.56651" lon="-0.4567">
        <ele>266.84</ele>
        <time>2019-05-04T20:49:11.000Z</time>
      </trkpt>
      <trkpt lat="46.56656" lon="-0.4568">
        <ele>266.82</ele>
        <time>2019-05-04T20:49:14.000Z</time>
      </trkpt>
      <trkpt lat="46.56664" lon="-0.45695">
        <ele>266.89</ele>
        <time>2019-05-04T20:49:17.000Z</time>
      </trkpt>
      <trkpt lat="46.5667" lon="-0.45707">
        <ele>267.13</ele>
        <time>2019-05-04T20:49:21.000Z</time>
      </trkpt>
      <trkpt lat="46.56677" lon="-0.45722">
        <ele>268.4</ele>
        <time>2019-05-04T20:49:24.000Z</time>
      </trkpt>
      <trkpt lat="46.56682" lon="-0.45734">
        <ele>268.73</ele>
        <time>2019-05-04T20:49:26.000Z</time>
      </trkpt>
      <trkpt lat="46.5669" lon="-0.45752">
        <ele>268.81</ele>
        <time>2019-05-04T20:49:29.000Z</time>
      </trkpt>
      <trkpt lat="46.56696" lon="-0.45762">
        <ele>268.93</ele>
        <time>2019-05-04T20:49:32.000Z</time>
      </trkpt>
      <trkpt lat="46.56702" lon="-0.45774">
        <ele>269.03</ele>
        <time>2019-05-04T20:49:35.000Z</time>
      </trkpt>
      <trkpt lat="46.56709" lon="-0.45786">
        <ele>269.2</ele>
        <time>2019-05-04T20:49:38.000Z</time>
      </trkpt>
      <trkpt lat="46.56711" lon="-0.458">
        <ele>270.4</ele>
        <time>2019-05-04T20:50:17.000Z</time>
      </trkpt>
      <trkpt lat="46.56717" lon="-0.45809">
        <ele>270.57</ele>
        <time>2019-05-04T20:51:10.000Z</time>
      </trkpt>
      <trkpt lat="46.56723" lon="-0.45823">
        <ele>270.55</ele>
        <time>2019-05-04T20:51:15.000Z</time>
      </trkpt>
      <trkpt lat="46.56729" lon="-0.45835">
        <ele>270.25</ele>
        <time>2019-05-04T20:51:20.000Z</time>
      </trkpt>
      <trkpt lat="46.56735" lon="-0.45848">
        <ele>269.62</ele>
        <time>2019-05-04T20:51:25.000Z</time>
      </trkpt>
      <trkpt lat="46.5674" lon="-0.45863">
        <ele>268.94</ele>
        <time>2019-05-04T20:51:30.000Z</time>
      </trkpt>
      <trkpt lat="46.56742" lon="-0.45878">
        <ele>267.2</ele>
        <time>2019-05-04T20:53:15.000Z</time>
      </trkpt>
      <trkpt lat="46.56745" lon="-0.45892">
        <ele>267.74</ele>
        <time>2019-05-04T20:53:21.000Z</time>
      </trkpt>
      <trkpt lat="46.56749" lon="-0.45908">
        <ele>269.5</ele>
        <time>2019-05-04T20:54:06.000Z</time>
      </trkpt>
      <trkpt lat="46.56752" lon="-0.45921">
        <ele>269.77</ele>
        <time>2019-05-04T20:54:11.000Z</time>
      </trkpt>
      <trkpt lat="46.56763" lon="-0.45922">
        <ele>271.03</ele>
        <time>2019-05-04T20:54:21.000Z</time>
      </trkpt>
      <trkpt lat="46.56772" lon="-0.45921">
        <ele>271.73</ele>
        <time>2019-05-04T20:54:27.000Z</time>
      </trkpt>
      <trkpt lat="46.56782" lon="-0.45924">
        <ele>272.35</ele>
        <time>2019-05-04T20:54:33.000Z</time>
      </trkpt>
      <trkpt lat="46.56792" lon="-0.45925">
        <ele>272.61</ele>
        <time>2019-05-04T20:54:38.000Z</time>
      </trkpt>
      <trkpt lat="46.56803" lon="-0.45926">
        <ele>272.8</ele>
        <time>2019-05-04T20:54:42.000Z</time>
      </trkpt>
      <trkpt lat="46.56813" lon="-0.45925">
        <ele>272.96</ele>
        <time>2019-05-04T20:54:46.000Z</time>
      </trkpt>
      <trkpt lat="46.56824" lon="-0.45924">
        <ele>272.87</ele>
        <time>2019-05-04T20:54:51.000Z</time>
      </trkpt>
      <trkpt lat="46.56836" lon="-0.4592">
        <ele>272.64</ele>
        <time>2019-05-04T20:54:55.000Z</time>
      </trkpt>
      <trkpt lat="46.56845" lon="-0.4592">
        <ele>272.47</ele>
        <time>2019-05-04T20:54:59.000Z</time>
      </trkpt>
      <trkpt lat="46.56855" lon="-0.45919">
        <ele>272.33</ele>
        <time>2019-05-04T20:55:03.000Z</time>
      </trkpt>
      <trkpt lat="46.56865" lon="-0.45918">
        <ele>272.37</ele>
        <time>2019-05-04T20:55:07.000Z</time>
      </trkpt>
      <trkpt lat="46.56874" lon="-0.45915">
        <ele>272.43</ele>
        <time>2019-05-04T20:55:12.000Z</time>
      </trkpt>
      <trkpt lat="46.56885" lon="-0.45914">
        <ele>272.36</ele>
        <time>2019-05-04T20:55:17.000Z</time>
      </trkpt>
      <trkpt lat="46.56894" lon="-0.45912">
        <ele>272.29</ele>
        <time>2019-05-04T20:55:21.000Z</time>
      </trkpt>
      <trkpt lat="46.56905" lon="-0.45906">
        <ele>272.17</ele>
        <time>2019-05-04T20:55:25.000Z</time>
      </trkpt>
      <trkpt lat="46.56914" lon="-0.45907">
        <ele>272.06</ele>
        <time>2019-05-04T20:55:28.000Z</time>
      </trkpt>
      <trkpt lat="46.56923" lon="-0.45907">
        <ele>271.78</ele>
        <time>2019-05-04T20:55:32.000Z</time>
      </trkpt>
      <trkpt lat="46.56932" lon="-0.45911">
        <ele>271.32</ele>
        <time>2019-05-04T20:55:36.000Z</time>
      </trkpt>
      <trkpt lat="46.56942" lon="-0.45912">
        <ele>270.93</ele>
        <time>2019-05-04T20:55:41.000Z</time>
      </trkpt>
      <trkpt lat="46.56952" lon="-0.45912">
        <ele>270.64</ele>
        <time>2019-05-04T20:55:46.000Z</time>
      </trkpt>
      <trkpt lat="46.56962" lon="-0.4591">
        <ele>270.23</ele>
        <time>2019-05-04T20:55:50.000Z</time>
      </trkpt>
      <trkpt lat="46.56972" lon="-0.45908">
        <ele>269.9</ele>
        <time>2019-05-04T20:55:55.000Z</time>
      </trkpt>
      <trkpt lat="46.56983" lon="-0.45908">
        <ele>270.1</ele>
        <time>2019-05-04T20:56:00.000Z</time>
      </trkpt>
      <trkpt lat="46.56995" lon="-0.45908">
        <ele>270.45</ele>
        <time>2019-05-04T20:56:04.000Z</time>
      </trkpt>
      <trkpt lat="46.57006" lon="-0.45908">
        <ele>270.65</ele>
        <time>2019-05-04T20:56:07.000Z</time>
      </trkpt>
      <trkpt lat="46.57015" lon="-0.45913">
        <ele>270.63</ele>
        <time>2019-05-04T20:56:09.000Z</time>
      </trkpt>
      <trkpt lat="46.57025" lon="-0.45924">
        <ele>269.59</ele>
        <time>2019-05-04T20:56:12.000Z</time>
      </trkpt>
      <trkpt lat="46.57033" lon="-0.45933">
        <ele>269</ele>
        <time>2019-05-04T20:56:14.000Z</time>
      </trkpt>
      <trkpt lat="46.57043" lon="-0.45943">
        <ele>268.42</ele>
        <time>2019-05-04T20:56:16.000Z</time>
      </trkpt>
      <trkpt lat="46.57056" lon="-0.45952">
        <ele>268.27</ele>
        <time>2019-05-04T20:56:19.000Z</time>
      </trkpt>
      <trkpt lat="46.57066" lon="-0.4596">
        <ele>268.16</ele>
        <time>2019-05-04T20:56:22.000Z</time>
      </trkpt>
      <trkpt lat="46.57075" lon="-0.45963">
        <ele>268.05</ele>
        <time>2019-05-04T20:56:24.000Z</time>
      </trkpt>
      <trkpt lat="46.57088" lon="-0.45966">
        <ele>267.81</ele>
        <time>2019-05-04T20:56:27.000Z</time>
      </trkpt>
      <trkpt lat="46.57099" lon="-0.45969">
        <ele>265.11</ele>
        <time>2019-05-04T20:56:29.000Z</time>
      </trkpt>
      <trkpt lat="46.57109" lon="-0.45971">
        <ele>262.76</ele>
        <time>2019-05-04T20:56:31.000Z</time>
      </trkpt>
      <trkpt lat="46.57118" lon="-0.45969">
        <ele>261.66</ele>
        <time>2019-05-04T20:56:33.000Z</time>
      </trkpt>
      <trkpt lat="46.5713" lon="-0.45963">
        <ele>260.3</ele>
        <time>2019-05-04T20:56:35.000Z</time>
      </trkpt>
      <trkpt lat="46.5714" lon="-0.45955">
        <ele>259.97</ele>
        <time>2019-05-04T20:56:37.000Z</time>
      </trkpt>
      <trkpt lat="46.57146" lon="-0.45938">
        <ele>261.51</ele>
        <time>2019-05-04T20:56:39.000Z</time>
      </trkpt>
      <trkpt lat="46.5715" lon="-0.45926">
        <ele>262.4</ele>
        <time>2019-05-04T20:56:41.000Z</time>
      </trkpt>
      <trkpt lat="46.57157" lon="-0.45913">
        <ele>263.36</ele>
        <time>2019-05-04T20:56:43.000Z</time>
      </trkpt>
      <trkpt lat="46.57162" lon="-0.45898">
        <ele>263.88</ele>
        <time>2019-05-04T20:56:46.000Z</time>
      </trkpt>
      <trkpt lat="46.57169" lon="-0.45887">
        <ele>263.91</ele>
        <time>2019-05-04T20:56:50.000Z</time>
      </trkpt>
      <trkpt lat="46.5718" lon="-0.4588">
        <ele>264.1</ele>
        <time>2019-05-04T20:56:53.000Z</time>
      </trkpt>
      <trkpt lat="46.57189" lon="-0.45875">
        <ele>264.26</ele>
        <time>2019-05-04T20:56:55.000Z</time>
      </trkpt>
      <trkpt lat="46.57198" lon="-0.45869">
        <ele>264.37</ele>
        <time>2019-05-04T20:56:57.000Z</time>
      </trkpt>
      <trkpt lat="46.5721" lon="-0.45864">
        <ele>264.81</ele>
        <time>2019-05-04T20:57:00.000Z</time>
      </trkpt>
      <trkpt lat="46.57221" lon="-0.45863">
        <ele>265.03</ele>
        <time>2019-05-04T20:57:03.000Z</time>
      </trkpt>
      <trkpt lat="46.57232" lon="-0.45861">
        <ele>265.34</ele>
        <time>2019-05-04T20:57:06.000Z</time>
      </trkpt>
      <trkpt lat="46.57238" lon="-0.4585">
        <ele>265.93</ele>
        <time>2019-05-04T20:57:10.000Z</time>
      </trkpt>
      <trkpt lat="46.57243" lon="-0.45836">
        <ele>266.88</ele>
        <time>2019-05-04T20:57:17.000Z</time>
      </trkpt>
      <trkpt lat="46.57248" lon="-0.45826">
        <ele>267.49</ele>
        <time>2019-05-04T20:57:22.000Z</time>
      </trkpt>
      <trkpt lat="46.57257" lon="-0.45818">
        <ele>267.63</ele>
        <time>2019-05-04T20:57:25.000Z</time>
      </trkpt>
      <trkpt lat="46.57267" lon="-0.45815">
        <ele>267.5</ele>
        <time>2019-05-04T20:57:29.000Z</time>
      </trkpt>
      <trkpt lat="46.57278" lon="-0.45812">
        <ele>267.07</ele>
        <time>2019-05-04T20:57:35.000Z</time>
      </trkpt>
      <trkpt lat="46.57286" lon="-0.45804">
        <ele>266.6</ele>
        <time>2019-05-04T20:57:41.000Z</time>
      </trkpt>
      <trkpt lat="46.57287" lon="-0.4579">
        <ele>266.73</ele>
        <time>2019-05-04T20:57:46.000Z</time>
      </trkpt>
      <trkpt lat="46.57294" lon="-0.45782">
        <ele>267.08</ele>
        <time>2019-05-04T20:57:50.000Z</time>
      </trkpt>
      <trkpt lat="46.57301" lon="-0.45772">
        <ele>267.79</ele>
        <time>2019-05-04T20:57:57.000Z</time>
      </trkpt>
      <trkpt lat="46.5731" lon="-0.45768">
        <ele>268.52</ele>
        <time>2019-05-04T20:58:03.000Z</time>
      </trkpt>
      <trkpt lat="46.57319" lon="-0.45759">
        <ele>270.21</ele>
        <time>2019-05-04T20:58:10.000Z</time>
      </trkpt>
      <trkpt lat="46.57326" lon="-0.4575">
        <ele>272.35</ele>
        <time>2019-05-04T20:58:17.000Z</time>
      </trkpt>
      <trkpt lat="46.57334" lon="-0.45744">
        <ele>273.85</ele>
        <time>2019-05-04T20:58:23.000Z</time>
      </trkpt>
      <trkpt lat="46.57343" lon="-0.45743">
        <ele>274.92</ele>
        <time>2019-05-04T20:58:28.000Z</time>
      </trkpt>
      <trkpt lat="46.57352" lon="-0.45752">
        <ele>275.92</ele>
        <time>2019-05-04T20:58:33.000Z</time>
      </trkpt>
      <trkpt lat="46.5736" lon="-0.45761">
        <ele>276.51</ele>
        <time>2019-05-04T20:58:37.000Z</time>
      </trkpt>
      <trkpt lat="46.57369" lon="-0.45768">
        <ele>276.88</ele>
        <time>2019-05-04T20:58:41.000Z</time>
      </trkpt>
      <trkpt lat="46.57377" lon="-0.45762">
        <ele>277.41</ele>
        <time>2019-05-04T20:58:47.000Z</time>
      </trkpt>
      <trkpt lat="46.57385" lon="-0.45753">
        <ele>277.96</ele>
        <time>2019-05-04T20:58:52.000Z</time>
      </trkpt>
      <trkpt lat="46.57391" lon="-0.45742">
        <ele>278.39</ele>
        <time>2019-05-04T20:58:58.000Z</time>
      </trkpt>
      <trkpt lat="46.57399" lon="-0.45735">
        <ele>278.83</ele>
        <time>2019-05-04T20:59:03.000Z</time>
      </trkpt>
      <trkpt lat="46.57406" lon="-0.45727">
        <ele>280.24</ele>
        <time>2019-05-04T20:59:17.000Z</time>
      </trkpt>
      <trkpt lat="46.57404" lon="-0.45711">
        <ele>285.88</ele>
        <time>2019-05-04T21:02:40.000Z</time>
      </trkpt>
      <trkpt lat="46.57401" lon="-0.45697">
        <ele>286.4</ele>
        <time>2019-05-04T21:02:44.000Z</time>
      </trkpt>
      <trkpt lat="46.57395" lon="-0.45686">
        <ele>286.93</ele>
        <time>2019-05-04T21:02:47.000Z</time>
      </trkpt>
      <trkpt lat="46.57388" lon="-0.45674">
        <ele>287.79</ele>
        <time>2019-05-04T21:02:51.000Z</time>
      </trkpt>
      <trkpt lat="46.57385" lon="-0.45659">
        <ele>288.61</ele>
        <time>2019-05-04T21:02:55.000Z</time>
      </trkpt>
      <trkpt lat="46.57385" lon="-0.45643">
        <ele>289.33</ele>
        <time>2019-05-04T21:02:59.000Z</time>
      </trkpt>
      <trkpt lat="46.57388" lon="-0.45624">
        <ele>290.07</ele>
        <time>2019-05-04T21:03:03.000Z</time>
      </trkpt>
      <trkpt lat="46.57391" lon="-0.4561">
        <ele>291.03</ele>
        <time>2019-05-04T21:03:08.000Z</time>
      </trkpt>
      <trkpt lat="46.57393" lon="-0.45594">
        <ele>291.81</ele>
        <time>2019-05-04T21:03:12.000Z</time>
      </trkpt>
      <trkpt lat="46.57395" lon="-0.45579">
        <ele>292.6</ele>
        <time>2019-05-04T21:03:16.000Z</time>
      </trkpt>
      <trkpt lat="46.57398" lon="-0.45565">
        <ele>293.98</ele>
        <time>2019-05-04T21:03:22.000Z</time>
      </trkpt>
      <trkpt lat="46.574" lon="-0.4555">
        <ele>295.06</ele>
        <time>2019-05-04T21:03:27.000Z</time>
      </trkpt>
      <trkpt lat="46.574" lon="-0.45534">
        <ele>296.23</ele>
        <time>2019-05-04T21:03:33.000Z</time>
      </trkpt>
      <trkpt lat="46.57399" lon="-0.45519">
        <ele>296.72</ele>
        <time>2019-05-04T21:03:36.000Z</time>
      </trkpt>
      <trkpt lat="46.57398" lon="-0.45503">
        <ele>297.35</ele>
        <time>2019-05-04T21:03:40.000Z</time>
      </trkpt>
      <trkpt lat="46.57396" lon="-0.45487">
        <ele>297.88</ele>
        <time>2019-05-04T21:03:45.000Z</time>
      </trkpt>
      <trkpt lat="46.57393" lon="-0.45471">
        <ele>298.5</ele>
        <time>2019-05-04T21:03:52.000Z</time>
      </trkpt>
      <trkpt lat="46.57393" lon="-0.45456">
        <ele>298.72</ele>
        <time>2019-05-04T21:03:55.000Z</time>
      </trkpt>
      <trkpt lat="46.57396" lon="-0.45439">
        <ele>299.07</ele>
        <time>2019-05-04T21:03:58.000Z</time>
      </trkpt>
      <trkpt lat="46.57399" lon="-0.45422">
        <ele>299.72</ele>
        <time>2019-05-04T21:04:02.000Z</time>
      </trkpt>
      <trkpt lat="46.57401" lon="-0.45405">
        <ele>300.01</ele>
        <time>2019-05-04T21:04:06.000Z</time>
      </trkpt>
      <trkpt lat="46.57399" lon="-0.45389">
        <ele>299.93</ele>
        <time>2019-05-04T21:04:10.000Z</time>
      </trkpt>
      <trkpt lat="46.57396" lon="-0.45373">
        <ele>299.53</ele>
        <time>2019-05-04T21:04:16.000Z</time>
      </trkpt>
      <trkpt lat="46.57391" lon="-0.45362">
        <ele>299.39</ele>
        <time>2019-05-04T21:04:18.000Z</time>
      </trkpt>
      <trkpt lat="46.57386" lon="-0.45347">
        <ele>299.1</ele>
        <time>2019-05-04T21:04:21.000Z</time>
      </trkpt>
      <trkpt lat="46.57384" lon="-0.45334">
        <ele>298.66</ele>
        <time>2019-05-04T21:04:25.000Z</time>
      </trkpt>
      <trkpt lat="46.57381" lon="-0.4532">
        <ele>298.31</ele>
        <time>2019-05-04T21:04:28.000Z</time>
      </trkpt>
      <trkpt lat="46.57383" lon="-0.45305">
        <ele>298</ele>
        <time>2019-05-04T21:04:32.000Z</time>
      </trkpt>
      <trkpt lat="46.57389" lon="-0.45292">
        <ele>297.97</ele>
        <time>2019-05-04T21:04:36.000Z</time>
      </trkpt>
      <trkpt lat="46.57398" lon="-0.45284">
        <ele>297.78</ele>
        <time>2019-05-04T21:04:39.000Z</time>
      </trkpt>
      <trkpt lat="46.57405" lon="-0.45274">
        <ele>297.51</ele>
        <time>2019-05-04T21:04:44.000Z</time>
      </trkpt>
      <trkpt lat="46.57412" lon="-0.45264">
        <ele>297.21</ele>
        <time>2019-05-04T21:04:48.000Z</time>
      </trkpt>
      <trkpt lat="46.5742" lon="-0.45253">
        <ele>296.87</ele>
        <time>2019-05-04T21:04:55.000Z</time>
      </trkpt>
      <trkpt lat="46.57427" lon="-0.45242">
        <ele>296.9</ele>
        <time>2019-05-04T21:04:59.000Z</time>
      </trkpt>
      <trkpt lat="46.57435" lon="-0.45231">
        <ele>297.16</ele>
        <time>2019-05-04T21:05:03.000Z</time>
      </trkpt>
      <trkpt lat="46.57443" lon="-0.45221">
        <ele>297.45</ele>
        <time>2019-05-04T21:05:07.000Z</time>
      </trkpt>
      <trkpt lat="46.57452" lon="-0.45211">
        <ele>297.45</ele>
        <time>2019-05-04T21:05:10.000Z</time>
      </trkpt>
      <trkpt lat="46.5746" lon="-0.45201">
        <ele>297.51</ele>
        <time>2019-05-04T21:05:15.000Z</time>
      </trkpt>
      <trkpt lat="46.57468" lon="-0.45191">
        <ele>297.47</ele>
        <time>2019-05-04T21:05:18.000Z</time>
      </trkpt>
      <trkpt lat="46.57476" lon="-0.45182">
        <ele>297.25</ele>
        <time>2019-05-04T21:05:21.000Z</time>
      </trkpt>
      <trkpt lat="46.57485" lon="-0.4517">
        <ele>297.06</ele>
        <time>2019-05-04T21:05:26.000Z</time>
      </trkpt>
      <trkpt lat="46.5749" lon="-0.45158">
        <ele>296.97</ele>
        <time>2019-05-04T21:05:30.000Z</time>
      </trkpt>
      <trkpt lat="46.57497" lon="-0.45149">
        <ele>297.03</ele>
        <time>2019-05-04T21:05:33.000Z</time>
      </trkpt>
      <trkpt lat="46.57505" lon="-0.45139">
        <ele>297.64</ele>
        <time>2019-05-04T21:05:36.000Z</time>
      </trkpt>
      <trkpt lat="46.57516" lon="-0.45125">
        <ele>299.23</ele>
        <time>2019-05-04T21:05:39.000Z</time>
      </trkpt>
      <trkpt lat="46.57526" lon="-0.45113">
        <ele>299.47</ele>
        <time>2019-05-04T21:05:41.000Z</time>
      </trkpt>
      <trkpt lat="46.57534" lon="-0.45103">
        <ele>299.44</ele>
        <time>2019-05-04T21:05:43.000Z</time>
      </trkpt>
      <trkpt lat="46.57544" lon="-0.45092">
        <ele>298.75</ele>
        <time>2019-05-04T21:05:45.000Z</time>
      </trkpt>
      <trkpt lat="46.57551" lon="-0.45084">
        <ele>297.84</ele>
        <time>2019-05-04T21:05:47.000Z</time>
      </trkpt>
      <trkpt lat="46.5756" lon="-0.45073">
        <ele>297.22</ele>
        <time>2019-05-04T21:05:49.000Z</time>
      </trkpt>
      <trkpt lat="46.57569" lon="-0.45063">
        <ele>296.65</ele>
        <time>2019-05-04T21:05:51.000Z</time>
      </trkpt>
      <trkpt lat="46.57576" lon="-0.45053">
        <ele>296.96</ele>
        <time>2019-05-04T21:05:53.000Z</time>
      </trkpt>
      <trkpt lat="46.57584" lon="-0.45042">
        <ele>297.59</ele>
        <time>2019-05-04T21:05:55.000Z</time>
      </trkpt>
      <trkpt lat="46.57594" lon="-0.45029">
        <ele>297.51</ele>
        <time>2019-05-04T21:05:57.000Z</time>
      </trkpt>
      <trkpt lat="46.57602" lon="-0.45018">
        <ele>297</ele>
        <time>2019-05-04T21:05:59.000Z</time>
      </trkpt>
      <trkpt lat="46.57611" lon="-0.45006">
        <ele>296.26</ele>
        <time>2019-05-04T21:06:01.000Z</time>
      </trkpt>
      <trkpt lat="46.57618" lon="-0.44996">
        <ele>295.31</ele>
        <time>2019-05-04T21:06:03.000Z</time>
      </trkpt>
      <trkpt lat="46.57625" lon="-0.44987">
        <ele>293.97</ele>
        <time>2019-05-04T21:06:05.000Z</time>
      </trkpt>
      <trkpt lat="46.57634" lon="-0.44974">
        <ele>292.77</ele>
        <time>2019-05-04T21:06:08.000Z</time>
      </trkpt>
      <trkpt lat="46.57642" lon="-0.44966">
        <ele>291.76</ele>
        <time>2019-05-04T21:06:10.000Z</time>
      </trkpt>
      <trkpt lat="46.5765" lon="-0.44953">
        <ele>291.63</ele>
        <time>2019-05-04T21:06:12.000Z</time>
      </trkpt>
      <trkpt lat="46.57657" lon="-0.44943">
        <ele>291.39</ele>
        <time>2019-05-04T21:06:14.000Z</time>
      </trkpt>
      <trkpt lat="46.57665" lon="-0.44932">
        <ele>291.38</ele>
        <time>2019-05-04T21:06:16.000Z</time>
      </trkpt>
      <trkpt lat="46.57676" lon="-0.44918">
        <ele>290.88</ele>
        <time>2019-05-04T21:06:18.000Z</time>
      </trkpt>
      <trkpt lat="46.57686" lon="-0.44905">
        <ele>289.76</ele>
        <time>2019-05-04T21:06:20.000Z</time>
      </trkpt>
      <trkpt lat="46.57697" lon="-0.44892">
        <ele>288.72</ele>
        <time>2019-05-04T21:06:22.000Z</time>
      </trkpt>
      <trkpt lat="46.57706" lon="-0.44879">
        <ele>287.8</ele>
        <time>2019-05-04T21:06:24.000Z</time>
      </trkpt>
      <trkpt lat="46.57716" lon="-0.44866">
        <ele>287.05</ele>
        <time>2019-05-04T21:06:26.000Z</time>
      </trkpt>
      <trkpt lat="46.57726" lon="-0.4485">
        <ele>286.6</ele>
        <time>2019-05-04T21:06:28.000Z</time>
      </trkpt>
      <trkpt lat="46.57734" lon="-0.44837">
        <ele>287.01</ele>
        <time>2019-05-04T21:06:30.000Z</time>
      </trkpt>
      <trkpt lat="46.57744" lon="-0.44826">
        <ele>287.21</ele>
        <time>2019-05-04T21:06:32.000Z</time>
      </trkpt>
      <trkpt lat="46.57752" lon="-0.44815">
        <ele>287.77</ele>
        <time>2019-05-04T21:06:34.000Z</time>
      </trkpt>
      <trkpt lat="46.5776" lon="-0.44804">
        <ele>288.15</ele>
        <time>2019-05-04T21:06:37.000Z</time>
      </trkpt>
      <trkpt lat="46.57769" lon="-0.4481">
        <ele>288.18</ele>
        <time>2019-05-04T21:06:44.000Z</time>
      </trkpt>
      <trkpt lat="46.57775" lon="-0.44821">
        <ele>288.15</ele>
        <time>2019-05-04T21:06:47.000Z</time>
      </trkpt>
      <trkpt lat="46.57771" lon="-0.44834">
        <ele>288.06</ele>
        <time>2019-05-04T21:06:50.000Z</time>
      </trkpt>
      <trkpt lat="46.57765" lon="-0.44847">
        <ele>288.02</ele>
        <time>2019-05-04T21:06:53.000Z</time>
      </trkpt>
      <trkpt lat="46.57759" lon="-0.44859">
        <ele>288.17</ele>
        <time>2019-05-04T21:06:56.000Z</time>
      </trkpt>
      <trkpt lat="46.57752" lon="-0.44874">
        <ele>288.57</ele>
        <time>2019-05-04T21:06:59.000Z</time>
      </trkpt>
      <trkpt lat="46.57745" lon="-0.44882">
        <ele>288.95</ele>
        <time>2019-05-04T21:07:02.000Z</time>
      </trkpt>
      <trkpt lat="46.57735" lon="-0.4489">
        <ele>289.31</ele>
        <time>2019-05-04T21:07:05.000Z</time>
      </trkpt>
      <trkpt lat="46.57728" lon="-0.44902">
        <ele>289.86</ele>
        <time>2019-05-04T21:07:09.000Z</time>
      </trkpt>
      <trkpt lat="46.57721" lon="-0.44914">
        <ele>290.35</ele>
        <time>2019-05-04T21:07:13.000Z</time>
      </trkpt>
      <trkpt lat="46.57713" lon="-0.44923">
        <ele>290.64</ele>
        <time>2019-05-04T21:07:16.000Z</time>
      </trkpt>
      <trkpt lat="46.57704" lon="-0.44934">
        <ele>291.02</ele>
        <time>2019-05-04T21:07:20.000Z</time>
      </trkpt>
      <trkpt lat="46.57697" lon="-0.44942">
        <ele>291.44</ele>
        <time>2019-05-04T21:07:24.000Z</time>
      </trkpt>
      <trkpt lat="46.5769" lon="-0.44955">
        <ele>292.03</ele>
        <time>2019-05-04T21:07:29.000Z</time>
      </trkpt>
      <trkpt lat="46.57684" lon="-0.44966">
        <ele>292.48</ele>
        <time>2019-05-04T21:07:32.000Z</time>
      </trkpt>
      <trkpt lat="46.57677" lon="-0.44977">
        <ele>293.29</ele>
        <time>2019-05-04T21:07:36.000Z</time>
      </trkpt>
      <trkpt lat="46.5767" lon="-0.44987">
        <ele>294.17</ele>
        <time>2019-05-04T21:07:40.000Z</time>
      </trkpt>
      <trkpt lat="46.57662" lon="-0.44998">
        <ele>295.44</ele>
        <time>2019-05-04T21:07:45.000Z</time>
      </trkpt>
      <trkpt lat="46.57654" lon="-0.45005">
        <ele>296.61</ele>
        <time>2019-05-04T21:07:50.000Z</time>
      </trkpt>
      <trkpt lat="46.57644" lon="-0.4501">
        <ele>297.16</ele>
        <time>2019-05-04T21:07:53.000Z</time>
      </trkpt>
      <trkpt lat="46.57635" lon="-0.45018">
        <ele>297.5</ele>
        <time>2019-05-04T21:07:56.000Z</time>
      </trkpt>
      <trkpt lat="46.57626" lon="-0.45028">
        <ele>297.89</ele>
        <time>2019-05-04T21:08:00.000Z</time>
      </trkpt>
      <trkpt lat="46.5762" lon="-0.4504">
        <ele>298.29</ele>
        <time>2019-05-04T21:08:04.000Z</time>
      </trkpt>
      <trkpt lat="46.57613" lon="-0.45051">
        <ele>298.84</ele>
        <time>2019-05-04T21:08:08.000Z</time>
      </trkpt>
      <trkpt lat="46.5762" lon="-0.45064">
        <ele>299.99</ele>
        <time>2019-05-04T21:08:16.000Z</time>
      </trkpt>
      <trkpt lat="46.57626" lon="-0.45075">
        <ele>300.74</ele>
        <time>2019-05-04T21:08:20.000Z</time>
      </trkpt>
      <trkpt lat="46.57634" lon="-0.45088">
        <ele>301.65</ele>
        <time>2019-05-04T21:08:24.000Z</time>
      </trkpt>
      <trkpt lat="46.5764" lon="-0.45098">
        <ele>302.68</ele>
        <time>2019-05-04T21:08:28.000Z</time>
      </trkpt>
      <trkpt lat="46.57647" lon="-0.45108">
        <ele>303.91</ele>
        <time>2019-05-04T21:08:32.000Z</time>
      </trkpt>
      <trkpt lat="46.57653" lon="-0.45119">
        <ele>305.13</ele>
        <time>2019-05-04T21:08:36.000Z</time>
      </trkpt>
      <trkpt lat="46.5766" lon="-0.4513">
        <ele>306.37</ele>
        <time>2019-05-04T21:08:40.000Z</time>
      </trkpt>
      <trkpt lat="46.57667" lon="-0.45142">
        <ele>307.52</ele>
        <time>2019-05-04T21:08:44.000Z</time>
      </trkpt>
      <trkpt lat="46.57674" lon="-0.45154">
        <ele>308.25</ele>
        <time>2019-05-04T21:08:47.000Z</time>
      </trkpt>
      <trkpt lat="46.57679" lon="-0.45165">
        <ele>308.97</ele>
        <time>2019-05-04T21:08:50.000Z</time>
      </trkpt>
      <trkpt lat="46.57686" lon="-0.45176">
        <ele>313.58</ele>
        <time>2019-05-04T21:08:53.000Z</time>
      </trkpt>
      <trkpt lat="46.57694" lon="-0.45186">
        <ele>313.83</ele>
        <time>2019-05-04T21:08:55.000Z</time>
      </trkpt>
      <trkpt lat="46.577" lon="-0.45202">
        <ele>314.11</ele>
        <time>2019-05-04T21:08:58.000Z</time>
      </trkpt>
      <trkpt lat="46.577" lon="-0.45215">
        <ele>314.38</ele>
        <time>2019-05-04T21:09:01.000Z</time>
      </trkpt>
      <trkpt lat="46.57695" lon="-0.45228">
        <ele>314.58</ele>
        <time>2019-05-04T21:09:04.000Z</time>
      </trkpt>
      <trkpt lat="46.57687" lon="-0.45245">
        <ele>314.68</ele>
        <time>2019-05-04T21:09:07.000Z</time>
      </trkpt>
      <trkpt lat="46.57681" lon="-0.45261">
        <ele>314.64</ele>
        <time>2019-05-04T21:09:09.000Z</time>
      </trkpt>
      <trkpt lat="46.57676" lon="-0.45273">
        <ele>314.5</ele>
        <time>2019-05-04T21:09:12.000Z</time>
      </trkpt>
      <trkpt lat="46.5767" lon="-0.45287">
        <ele>314.21</ele>
        <time>2019-05-04T21:09:15.000Z</time>
      </trkpt>
      <trkpt lat="46.57672" lon="-0.45302">
        <ele>313.51</ele>
        <time>2019-05-04T21:09:21.000Z</time>
      </trkpt>
      <trkpt lat="46.57681" lon="-0.45316">
        <ele>313.24</ele>
        <time>2019-05-04T21:09:24.000Z</time>
      </trkpt>
      <trkpt lat="46.57688" lon="-0.45327">
        <ele>313.05</ele>
        <time>2019-05-04T21:09:26.000Z</time>
      </trkpt>
      <trkpt lat="46.57697" lon="-0.45337">
        <ele>311.58</ele>
        <time>2019-05-04T21:09:28.000Z</time>
      </trkpt>
      <trkpt lat="46.57709" lon="-0.45348">
        <ele>311.12</ele>
        <time>2019-05-04T21:09:31.000Z</time>
      </trkpt>
      <trkpt lat="46.57718" lon="-0.45355">
        <ele>310.57</ele>
        <time>2019-05-04T21:09:34.000Z</time>
      </trkpt>
      <trkpt lat="46.57727" lon="-0.45348">
        <ele>310</ele>
        <time>2019-05-04T21:09:38.000Z</time>
      </trkpt>
      <trkpt lat="46.57735" lon="-0.45338">
        <ele>309.58</ele>
        <time>2019-05-04T21:09:41.000Z</time>
      </trkpt>
      <trkpt lat="46.57741" lon="-0.45327">
        <ele>308.79</ele>
        <time>2019-05-04T21:09:46.000Z</time>
      </trkpt>
      <trkpt lat="46.57745" lon="-0.4531">
        <ele>308.37</ele>
        <time>2019-05-04T21:09:51.000Z</time>
      </trkpt>
      <trkpt lat="46.5775" lon="-0.45296">
        <ele>308.21</ele>
        <time>2019-05-04T21:09:54.000Z</time>
      </trkpt>
      <trkpt lat="46.57754" lon="-0.45283">
        <ele>308.03</ele>
        <time>2019-05-04T21:09:56.000Z</time>
      </trkpt>
      <trkpt lat="46.57761" lon="-0.45271">
        <ele>307.52</ele>
        <time>2019-05-04T21:10:00.000Z</time>
      </trkpt>
      <trkpt lat="46.57771" lon="-0.4526">
        <ele>307.09</ele>
        <time>2019-05-04T21:10:04.000Z</time>
      </trkpt>
      <trkpt lat="46.5778" lon="-0.4525">
        <ele>306.78</ele>
        <time>2019-05-04T21:10:07.000Z</time>
      </trkpt>
      <trkpt lat="46.57789" lon="-0.45242">
        <ele>306.48</ele>
        <time>2019-05-04T21:10:09.000Z</time>
      </trkpt>
      <trkpt lat="46.57798" lon="-0.4524">
        <ele>306.11</ele>
        <time>2019-05-04T21:10:11.000Z</time>
      </trkpt>
      <trkpt lat="46.57808" lon="-0.4525">
        <ele>305.37</ele>
        <time>2019-05-04T21:10:14.000Z</time>
      </trkpt>
      <trkpt lat="46.57815" lon="-0.45262">
        <ele>304.57</ele>
        <time>2019-05-04T21:10:17.000Z</time>
      </trkpt>
      <trkpt lat="46.57823" lon="-0.45269">
        <ele>303.88</ele>
        <time>2019-05-04T21:10:20.000Z</time>
      </trkpt>
      <trkpt lat="46.57832" lon="-0.45277">
        <ele>302.32</ele>
        <time>2019-05-04T21:10:31.000Z</time>
      </trkpt>
      <trkpt lat="46.57839" lon="-0.45289">
        <ele>302.27</ele>
        <time>2019-05-04T21:10:34.000Z</time>
      </trkpt>
      <trkpt lat="46.57846" lon="-0.45298">
        <ele>302.24</ele>
        <time>2019-05-04T21:10:37.000Z</time>
      </trkpt>
      <trkpt lat="46.57853" lon="-0.45307">
        <ele>302.14</ele>
        <time>2019-05-04T21:10:40.000Z</time>
      </trkpt>
      <trkpt lat="46.5786" lon="-0.45319">
        <ele>301.9</ele>
        <time>2019-05-04T21:10:43.000Z</time>
      </trkpt>
      <trkpt lat="46.57867" lon="-0.45329">
        <ele>301.68</ele>
        <time>2019-05-04T21:10:45.000Z</time>
      </trkpt>
      <trkpt lat="46.57875" lon="-0.45339">
        <ele>301.38</ele>
        <time>2019-05-04T21:10:48.000Z</time>
      </trkpt>
      <trkpt lat="46.57881" lon="-0.45351">
        <ele>301.18</ele>
        <time>2019-05-04T21:10:51.000Z</time>
      </trkpt>
      <trkpt lat="46.57888" lon="-0.45361">
        <ele>299.78</ele>
        <time>2019-05-04T21:10:53.000Z</time>
      </trkpt>
      <trkpt lat="46.57893" lon="-0.45373">
        <ele>297.71</ele>
        <time>2019-05-04T21:10:55.000Z</time>
      </trkpt>
      <trkpt lat="46.57901" lon="-0.45386">
        <ele>297.52</ele>
        <time>2019-05-04T21:10:58.000Z</time>
      </trkpt>
      <trkpt lat="46.57909" lon="-0.45394">
        <ele>297.27</ele>
        <time>2019-05-04T21:11:02.000Z</time>
      </trkpt>
      <trkpt lat="46.57918" lon="-0.45389">
        <ele>297.06</ele>
        <time>2019-05-04T21:11:05.000Z</time>
      </trkpt>
      <trkpt lat="46.57928" lon="-0.45385">
        <ele>296.87</ele>
        <time>2019-05-04T21:11:08.000Z</time>
      </trkpt>
      <trkpt lat="46.57938" lon="-0.45374">
        <ele>296.63</ele>
        <time>2019-05-04T21:11:12.000Z</time>
      </trkpt>
      <trkpt lat="46.57946" lon="-0.45366">
        <ele>296.33</ele>
        <time>2019-05-04T21:11:15.000Z</time>
      </trkpt>
      <trkpt lat="46.57956" lon="-0.45355">
        <ele>295.86</ele>
        <time>2019-05-04T21:11:20.000Z</time>
      </trkpt>
      <trkpt lat="46.57963" lon="-0.45346">
        <ele>295.63</ele>
        <time>2019-05-04T21:11:23.000Z</time>
      </trkpt>
      <trkpt lat="46.57972" lon="-0.45336">
        <ele>295.51</ele>
        <time>2019-05-04T21:11:29.000Z</time>
      </trkpt>
      <trkpt lat="46.5798" lon="-0.45329">
        <ele>295.53</ele>
        <time>2019-05-04T21:11:33.000Z</time>
      </trkpt>
      <trkpt lat="46.5799" lon="-0.45323">
        <ele>295.65</ele>
        <time>2019-05-04T21:11:37.000Z</time>
      </trkpt>
      <trkpt lat="46.57997" lon="-0.45314">
        <ele>295.78</ele>
        <time>2019-05-04T21:11:41.000Z</time>
      </trkpt>
      <trkpt lat="46.58005" lon="-0.45304">
        <ele>295.87</ele>
        <time>2019-05-04T21:11:45.000Z</time>
      </trkpt>
      <trkpt lat="46.58013" lon="-0.4529">
        <ele>296.03</ele>
        <time>2019-05-04T21:11:49.000Z</time>
      </trkpt>
      <trkpt lat="46.5802" lon="-0.45282">
        <ele>296.16</ele>
        <time>2019-05-04T21:11:53.000Z</time>
      </trkpt>
      <trkpt lat="46.58023" lon="-0.45267">
        <ele>296.23</ele>
        <time>2019-05-04T21:11:58.000Z</time>
      </trkpt>
      <trkpt lat="46.58025" lon="-0.45254">
        <ele>296.37</ele>
        <time>2019-05-04T21:12:01.000Z</time>
      </trkpt>
      <trkpt lat="46.58031" lon="-0.45241">
        <ele>296.61</ele>
        <time>2019-05-04T21:12:05.000Z</time>
      </trkpt>
      <trkpt lat="46.58038" lon="-0.45229">
        <ele>296.69</ele>
        <time>2019-05-04T21:12:08.000Z</time>
      </trkpt>
      <trkpt lat="46.58043" lon="-0.45217">
        <ele>296.54</ele>
        <time>2019-05-04T21:12:11.000Z</time>
      </trkpt>
      <trkpt lat="46.58052" lon="-0.45205">
        <ele>296.13</ele>
        <time>2019-05-04T21:12:16.000Z</time>
      </trkpt>
      <trkpt lat="46.58057" lon="-0.45188">
        <ele>295.98</ele>
        <time>2019-05-04T21:12:20.000Z</time>
      </trkpt>
      <trkpt lat="46.58062" lon="-0.45176">
        <ele>295.85</ele>
        <time>2019-05-04T21:12:23.000Z</time>
      </trkpt>
      <trkpt lat="46.58068" lon="-0.45162">
        <ele>295.64</ele>
        <time>2019-05-04T21:12:27.000Z</time>
      </trkpt>
      <trkpt lat="46.58073" lon="-0.45148">
        <ele>295.39</ele>
        <time>2019-05-04T21:12:31.000Z</time>
      </trkpt>
      <trkpt lat="46.58074" lon="-0.45132">
        <ele>295.54</ele>
        <time>2019-05-04T21:12:34.000Z</time>
      </trkpt>
      <trkpt lat="46.58077" lon="-0.45118">
        <ele>295.77</ele>
        <time>2019-05-04T21:12:37.000Z</time>
      </trkpt>
      <trkpt lat="46.5808" lon="-0.45102">
        <ele>295.94</ele>
        <time>2019-05-04T21:12:40.000Z</time>
      </trkpt>
      <trkpt lat="46.58084" lon="-0.45089">
        <ele>296.08</ele>
        <time>2019-05-04T21:12:42.000Z</time>
      </trkpt>
      <trkpt lat="46.58093" lon="-0.45081">
        <ele>296.27</ele>
        <time>2019-05-04T21:12:45.000Z</time>
      </trkpt>
      <trkpt lat="46.58104" lon="-0.45077">
        <ele>296.41</ele>
        <time>2019-05-04T21:12:49.000Z</time>
      </trkpt>
      <trkpt lat="46.58115" lon="-0.45071">
        <ele>296.41</ele>
        <time>2019-05-04T21:12:52.000Z</time>
      </trkpt>
      <trkpt lat="46.58125" lon="-0.45067">
        <ele>296.32</ele>
        <time>2019-05-04T21:12:54.000Z</time>
      </trkpt>
      <trkpt lat="46.58135" lon="-0.45066">
        <ele>296.21</ele>
        <time>2019-05-04T21:12:56.000Z</time>
      </trkpt>
      <trkpt lat="46.58144" lon="-0.45065">
        <ele>295.92</ele>
        <time>2019-05-04T21:12:59.000Z</time>
      </trkpt>
      <trkpt lat="46.58153" lon="-0.45066">
        <ele>295.73</ele>
        <time>2019-05-04T21:13:01.000Z</time>
      </trkpt>
      <trkpt lat="46.58163" lon="-0.45065">
        <ele>294.1</ele>
        <time>2019-05-04T21:13:03.000Z</time>
      </trkpt>
      <trkpt lat="46.58173" lon="-0.45066">
        <ele>291.5</ele>
        <time>2019-05-04T21:13:05.000Z</time>
      </trkpt>
      <trkpt lat="46.58186" lon="-0.45064">
        <ele>289.91</ele>
        <time>2019-05-04T21:13:07.000Z</time>
      </trkpt>
      <trkpt lat="46.58197" lon="-0.45063">
        <ele>288.7</ele>
        <time>2019-05-04T21:13:09.000Z</time>
      </trkpt>
      <trkpt lat="46.58209" lon="-0.45064">
        <ele>287.85</ele>
        <time>2019-05-04T21:13:11.000Z</time>
      </trkpt>
      <trkpt lat="46.5822" lon="-0.45065">
        <ele>287.54</ele>
        <time>2019-05-04T21:13:13.000Z</time>
      </trkpt>
      <trkpt lat="46.5823" lon="-0.45067">
        <ele>286.82</ele>
        <time>2019-05-04T21:13:15.000Z</time>
      </trkpt>
      <trkpt lat="46.58243" lon="-0.45068">
        <ele>286.23</ele>
        <time>2019-05-04T21:13:18.000Z</time>
      </trkpt>
      <trkpt lat="46.58254" lon="-0.45069">
        <ele>285.78</ele>
        <time>2019-05-04T21:13:22.000Z</time>
      </trkpt>
      <trkpt lat="46.58265" lon="-0.45067">
        <ele>285.43</ele>
        <time>2019-05-04T21:13:25.000Z</time>
      </trkpt>
      <trkpt lat="46.58276" lon="-0.45065">
        <ele>285.11</ele>
        <time>2019-05-04T21:13:28.000Z</time>
      </trkpt>
      <trkpt lat="46.58286" lon="-0.45059">
        <ele>284.8</ele>
        <time>2019-05-04T21:13:31.000Z</time>
      </trkpt>
      <trkpt lat="46.58295" lon="-0.45054">
        <ele>284.54</ele>
        <time>2019-05-04T21:13:33.000Z</time>
      </trkpt>
      <trkpt lat="46.58304" lon="-0.45049">
        <ele>284.3</ele>
        <time>2019-05-04T21:13:35.000Z</time>
      </trkpt>
      <trkpt lat="46.58313" lon="-0.45041">
        <ele>284.06</ele>
        <time>2019-05-04T21:13:38.000Z</time>
      </trkpt>
      <trkpt lat="46.58322" lon="-0.4503">
        <ele>283.93</ele>
        <time>2019-05-04T21:13:41.000Z</time>
      </trkpt>
      <trkpt lat="46.58333" lon="-0.45018">
        <ele>283.68</ele>
        <time>2019-05-04T21:13:44.000Z</time>
      </trkpt>
      <trkpt lat="46.58341" lon="-0.45008">
        <ele>283.41</ele>
        <time>2019-05-04T21:13:46.000Z</time>
      </trkpt>
      <trkpt lat="46.58348" lon="-0.44999">
        <ele>282.97</ele>
        <time>2019-05-04T21:13:49.000Z</time>
      </trkpt>
      <trkpt lat="46.58358" lon="-0.44988">
        <ele>282.48</ele>
        <time>2019-05-04T21:13:52.000Z</time>
      </trkpt>
      <trkpt lat="46.58365" lon="-0.4498">
        <ele>282.15</ele>
        <time>2019-05-04T21:13:54.000Z</time>
      </trkpt>
      <trkpt lat="46.58374" lon="-0.44968">
        <ele>279.27</ele>
        <time>2019-05-04T21:13:57.000Z</time>
      </trkpt>
      <trkpt lat="46.58382" lon="-0.44956">
        <ele>278.48</ele>
        <time>2019-05-04T21:14:00.000Z</time>
      </trkpt>
      <trkpt lat="46.58392" lon="-0.44946">
        <ele>278.33</ele>
        <time>2019-05-04T21:14:03.000Z</time>
      </trkpt>
      <trkpt lat="46.58402" lon="-0.44941">
        <ele>278.05</ele>
        <time>2019-05-04T21:14:07.000Z</time>
      </trkpt>
      <trkpt lat="46.58412" lon="-0.44949">
        <ele>277.98</ele>
        <time>2019-05-04T21:14:11.000Z</time>
      </trkpt>
      <trkpt lat="46.58423" lon="-0.44954">
        <ele>277.98</ele>
        <time>2019-05-04T21:14:14.000Z</time>
      </trkpt>
      <trkpt lat="46.58434" lon="-0.44956">
        <ele>278</ele>
        <time>2019-05-04T21:14:18.000Z</time>
      </trkpt>
      <trkpt lat="46.58444" lon="-0.44956">
        <ele>278.15</ele>
        <time>2019-05-04T21:14:21.000Z</time>
      </trkpt>
      <trkpt lat="46.58453" lon="-0.44955">
        <ele>278.5</ele>
        <time>2019-05-04T21:14:25.000Z</time>
      </trkpt>
      <trkpt lat="46.58463" lon="-0.44954">
        <ele>279.09</ele>
        <time>2019-05-04T21:14:29.000Z</time>
      </trkpt>
      <trkpt lat="46.58473" lon="-0.44952">
        <ele>279.58</ele>
        <time>2019-05-04T21:14:32.000Z</time>
      </trkpt>
      <trkpt lat="46.58483" lon="-0.4495">
        <ele>280.11</ele>
        <time>2019-05-04T21:14:35.000Z</time>
      </trkpt>
      <trkpt lat="46.58493" lon="-0.44951">
        <ele>280.7</ele>
        <time>2019-05-04T21:14:38.000Z</time>
      </trkpt>
      <trkpt lat="46.58502" lon="-0.44952">
        <ele>281.55</ele>
        <time>2019-05-04T21:14:42.000Z</time>
      </trkpt>
      <trkpt lat="46.5851" lon="-0.44962">
        <ele>282.47</ele>
        <time>2019-05-04T21:14:47.000Z</time>
      </trkpt>
      <trkpt lat="46.58516" lon="-0.44972">
        <ele>282.89</ele>
        <time>2019-05-04T21:14:50.000Z</time>
      </trkpt>
      <trkpt lat="46.58522" lon="-0.44984">
        <ele>283.23</ele>
        <time>2019-05-04T21:14:53.000Z</time>
      </trkpt>
      <trkpt lat="46.5853" lon="-0.44997">
        <ele>283.5</ele>
        <time>2019-05-04T21:14:56.000Z</time>
      </trkpt>
      <trkpt lat="46.58537" lon="-0.45008">
        <ele>283.66</ele>
        <time>2019-05-04T21:14:58.000Z</time>
      </trkpt>
      <trkpt lat="46.58543" lon="-0.45019">
        <ele>283.95</ele>
        <time>2019-05-04T21:15:01.000Z</time>
      </trkpt>
      <trkpt lat="46.58551" lon="-0.4503">
        <ele>284.21</ele>
        <time>2019-05-04T21:15:05.000Z</time>
      </trkpt>
      <trkpt lat="46.58558" lon="-0.45039">
        <ele>284.42</ele>
        <time>2019-05-04T21:15:08.000Z</time>
      </trkpt>
      <trkpt lat="46.58566" lon="-0.45048">
        <ele>284.69</ele>
        <time>2019-05-04T21:15:11.000Z</time>
      </trkpt>
      <trkpt lat="46.58572" lon="-0.45058">
        <ele>285.01</ele>
        <time>2019-05-04T21:15:14.000Z</time>
      </trkpt>
      <trkpt lat="46.58577" lon="-0.45069">
        <ele>285.41</ele>
        <time>2019-05-04T21:15:18.000Z</time>
      </trkpt>
      <trkpt lat="46.58584" lon="-0.45078">
        <ele>285.68</ele>
        <time>2019-05-04T21:15:21.000Z</time>
      </trkpt>
      <trkpt lat="46.58592" lon="-0.45087">
        <ele>286.06</ele>
        <time>2019-05-04T21:15:25.000Z</time>
      </trkpt>
      <trkpt lat="46.586" lon="-0.45098">
        <ele>286.47</ele>
        <time>2019-05-04T21:15:29.000Z</time>
      </trkpt>
      <trkpt lat="46.58607" lon="-0.45109">
        <ele>286.97</ele>
        <time>2019-05-04T21:15:33.000Z</time>
      </trkpt>
      <trkpt lat="46.58614" lon="-0.45122">
        <ele>287.47</ele>
        <time>2019-05-04T21:15:38.000Z</time>
      </trkpt>
      <trkpt lat="46.58617" lon="-0.45133">
        <ele>287.69</ele>
        <time>2019-05-04T21:15:42.000Z</time>
      </trkpt>
      <trkpt lat="46.58624" lon="-0.45145">
        <ele>287.88</ele>
        <time>2019-05-04T21:15:46.000Z</time>
      </trkpt>
      <trkpt lat="46.5863" lon="-0.45157">
        <ele>288.17</ele>
        <time>2019-05-04T21:15:51.000Z</time>
      </trkpt>
      <trkpt lat="46.58638" lon="-0.45166">
        <ele>288.1</ele>
        <time>2019-05-04T21:15:56.000Z</time>
      </trkpt>
      <trkpt lat="46.58644" lon="-0.45176">
        <ele>287.9</ele>
        <time>2019-05-04T21:16:00.000Z</time>
      </trkpt>
      <trkpt lat="46.58651" lon="-0.45185">
        <ele>287.74</ele>
        <time>2019-05-04T21:16:07.000Z</time>
      </trkpt>
      <trkpt lat="46.58657" lon="-0.45195">
        <ele>287.78</ele>
        <time>2019-05-04T21:16:13.000Z</time>
      </trkpt>
      <trkpt lat="46.58663" lon="-0.45206">
        <ele>287.84</ele>
        <time>2019-05-04T21:16:18.000Z</time>
      </trkpt>
      <trkpt lat="46.5867" lon="-0.45218">
        <ele>289.28</ele>
        <time>2019-05-04T21:16:27.000Z</time>
      </trkpt>
      <trkpt lat="46.58678" lon="-0.45226">
        <ele>290</ele>
        <time>2019-05-04T21:16:31.000Z</time>
      </trkpt>
      <trkpt lat="46.58685" lon="-0.45236">
        <ele>290.61</ele>
        <time>2019-05-04T21:16:36.000Z</time>
      </trkpt>
      <trkpt lat="46.58692" lon="-0.45248">
        <ele>291.08</ele>
        <time>2019-05-04T21:16:41.000Z</time>
      </trkpt>
      <trkpt lat="46.58698" lon="-0.45258">
        <ele>291.69</ele>
        <time>2019-05-04T21:16:46.000Z</time>
      </trkpt>
      <trkpt lat="46.58705" lon="-0.4527">
        <ele>292.37</ele>
        <time>2019-05-04T21:16:52.000Z</time>
      </trkpt>
      <trkpt lat="46.5871" lon="-0.45282">
        <ele>292.64</ele>
        <time>2019-05-04T21:16:57.000Z</time>
      </trkpt>
      <trkpt lat="46.58718" lon="-0.45292">
        <ele>292.84</ele>
        <time>2019-05-04T21:17:02.000Z</time>
      </trkpt>
      <trkpt lat="46.58725" lon="-0.4528">
        <ele>292.85</ele>
        <time>2019-05-04T21:17:06.000Z</time>
      </trkpt>
      <trkpt lat="46.5873" lon="-0.45268">
        <ele>293.13</ele>
        <time>2019-05-04T21:17:09.000Z</time>
      </trkpt>
      <trkpt lat="46.58736" lon="-0.45254">
        <ele>293.7</ele>
        <time>2019-05-04T21:17:13.000Z</time>
      </trkpt>
      <trkpt lat="46.58737" lon="-0.4524">
        <ele>294.24</ele>
        <time>2019-05-04T21:17:16.000Z</time>
      </trkpt>
      <trkpt lat="46.58741" lon="-0.45226">
        <ele>294.8</ele>
        <time>2019-05-04T21:17:19.000Z</time>
      </trkpt>
      <trkpt lat="46.58746" lon="-0.45214">
        <ele>295.14</ele>
        <time>2019-05-04T21:17:21.000Z</time>
      </trkpt>
      <trkpt lat="46.58754" lon="-0.45202">
        <ele>298.03</ele>
        <time>2019-05-04T21:17:24.000Z</time>
      </trkpt>
      <trkpt lat="46.58759" lon="-0.45191">
        <ele>298.18</ele>
        <time>2019-05-04T21:17:26.000Z</time>
      </trkpt>
      <trkpt lat="46.58764" lon="-0.45177">
        <ele>298.3</ele>
        <time>2019-05-04T21:17:28.000Z</time>
      </trkpt>
      <trkpt lat="46.58769" lon="-0.45165">
        <ele>298.47</ele>
        <time>2019-05-04T21:17:30.000Z</time>
      </trkpt>
      <trkpt lat="46.58775" lon="-0.45152">
        <ele>299.58</ele>
        <time>2019-05-04T21:17:32.000Z</time>
      </trkpt>
      <trkpt lat="46.58788" lon="-0.45136">
        <ele>299.28</ele>
        <time>2019-05-04T21:17:34.000Z</time>
      </trkpt>
      <trkpt lat="46.58798" lon="-0.45126">
        <ele>298.29</ele>
        <time>2019-05-04T21:17:36.000Z</time>
      </trkpt>
      <trkpt lat="46.58806" lon="-0.45118">
        <ele>297.37</ele>
        <time>2019-05-04T21:17:38.000Z</time>
      </trkpt>
      <trkpt lat="46.58814" lon="-0.45104">
        <ele>296.89</ele>
        <time>2019-05-04T21:17:40.000Z</time>
      </trkpt>
      <trkpt lat="46.5882" lon="-0.45094">
        <ele>296.6</ele>
        <time>2019-05-04T21:17:42.000Z</time>
      </trkpt>
      <trkpt lat="46.58827" lon="-0.45084">
        <ele>296.41</ele>
        <time>2019-05-04T21:17:44.000Z</time>
      </trkpt>
      <trkpt lat="46.58835" lon="-0.45074">
        <ele>295.68</ele>
        <time>2019-05-04T21:17:46.000Z</time>
      </trkpt>
      <trkpt lat="46.58843" lon="-0.45064">
        <ele>294.23</ele>
        <time>2019-05-04T21:17:48.000Z</time>
      </trkpt>
      <trkpt lat="46.58854" lon="-0.45054">
        <ele>292.24</ele>
        <time>2019-05-04T21:17:50.000Z</time>
      </trkpt>
      <trkpt lat="46.58863" lon="-0.45046">
        <ele>289.92</ele>
        <time>2019-05-04T21:17:52.000Z</time>
      </trkpt>
      <trkpt lat="46.58872" lon="-0.45039">
        <ele>288.13</ele>
        <time>2019-05-04T21:17:54.000Z</time>
      </trkpt>
      <trkpt lat="46.58883" lon="-0.45031">
        <ele>286.91</ele>
        <time>2019-05-04T21:17:57.000Z</time>
      </trkpt>
      <trkpt lat="46.58892" lon="-0.45023">
        <ele>285.81</ele>
        <time>2019-05-04T21:17:59.000Z</time>
      </trkpt>
      <trkpt lat="46.589" lon="-0.45012">
        <ele>285.1</ele>
        <time>2019-05-04T21:18:01.000Z</time>
      </trkpt>
      <trkpt lat="46.58907" lon="-0.45003">
        <ele>284.68</ele>
        <time>2019-05-04T21:18:03.000Z</time>
      </trkpt>
      <trkpt lat="46.58914" lon="-0.44993">
        <ele>284.46</ele>
        <time>2019-05-04T21:18:05.000Z</time>
      </trkpt>
      <trkpt lat="46.58922" lon="-0.44985">
        <ele>284.01</ele>
        <time>2019-05-04T21:18:07.000Z</time>
      </trkpt>
      <trkpt lat="46.58931" lon="-0.44977">
        <ele>283.79</ele>
        <time>2019-05-04T21:18:10.000Z</time>
      </trkpt>
      <trkpt lat="46.58936" lon="-0.44965">
        <ele>283.53</ele>
        <time>2019-05-04T21:18:13.000Z</time>
      </trkpt>
      <trkpt lat="46.58941" lon="-0.44949">
        <ele>283.45</ele>
        <time>2019-05-04T21:18:16.000Z</time>
      </trkpt>
      <trkpt lat="46.58947" lon="-0.44939">
        <ele>284.03</ele>
        <time>2019-05-04T21:18:20.000Z</time>
      </trkpt>
      <trkpt lat="46.58957" lon="-0.44927">
        <ele>284.6</ele>
        <time>2019-05-04T21:18:24.000Z</time>
      </trkpt>
      <trkpt lat="46.58964" lon="-0.44918">
        <ele>285.69</ele>
        <time>2019-05-04T21:18:26.000Z</time>
      </trkpt>
      <trkpt lat="46.58972" lon="-0.44911">
        <ele>287.29</ele>
        <time>2019-05-04T21:18:28.000Z</time>
      </trkpt>
      <trkpt lat="46.58985" lon="-0.44904">
        <ele>288.05</ele>
        <time>2019-05-04T21:18:31.000Z</time>
      </trkpt>
      <trkpt lat="46.58995" lon="-0.44897">
        <ele>288.16</ele>
        <time>2019-05-04T21:18:34.000Z</time>
      </trkpt>
      <trkpt lat="46.59007" lon="-0.44888">
        <ele>288.24</ele>
        <time>2019-05-04T21:18:37.000Z</time>
      </trkpt>
      <trkpt lat="46.59014" lon="-0.44877">
        <ele>288.19</ele>
        <time>2019-05-04T21:18:41.000Z</time>
      </trkpt>
      <trkpt lat="46.59021" lon="-0.44866">
        <ele>288.28</ele>
        <time>2019-05-04T21:18:45.000Z</time>
      </trkpt>
      <trkpt lat="46.59028" lon="-0.44858">
        <ele>289.07</ele>
        <time>2019-05-04T21:18:47.000Z</time>
      </trkpt>
      <trkpt lat="46.59038" lon="-0.44849">
        <ele>289.24</ele>
        <time>2019-05-04T21:18:50.000Z</time>
      </trkpt>
      <trkpt lat="46.59052" lon="-0.44843">
        <ele>289.51</ele>
        <time>2019-05-04T21:18:53.000Z</time>
      </trkpt>
      <trkpt lat="46.59063" lon="-0.44842">
        <ele>289.43</ele>
        <time>2019-05-04T21:18:56.000Z</time>
      </trkpt>
      <trkpt lat="46.59075" lon="-0.44837">
        <ele>289.27</ele>
        <time>2019-05-04T21:18:59.000Z</time>
      </trkpt>
      <trkpt lat="46.59083" lon="-0.4483">
        <ele>289.06</ele>
        <time>2019-05-04T21:19:02.000Z</time>
      </trkpt>
      <trkpt lat="46.59087" lon="-0.44814">
        <ele>288.67</ele>
        <time>2019-05-04T21:19:05.000Z</time>
      </trkpt>
      <trkpt lat="46.5909" lon="-0.44796">
        <ele>288.78</ele>
        <time>2019-05-04T21:19:08.000Z</time>
      </trkpt>
      <trkpt lat="46.59092" lon="-0.44778">
        <ele>289.49</ele>
        <time>2019-05-04T21:19:11.000Z</time>
      </trkpt>
      <trkpt lat="46.59092" lon="-0.44762">
        <ele>289.96</ele>
        <time>2019-05-04T21:19:14.000Z</time>
      </trkpt>
      <trkpt lat="46.5909" lon="-0.44745">
        <ele>289.98</ele>
        <time>2019-05-04T21:19:17.000Z</time>
      </trkpt>
      <trkpt lat="46.59087" lon="-0.44727">
        <ele>289.85</ele>
        <time>2019-05-04T21:19:20.000Z</time>
      </trkpt>
      <trkpt lat="46.59086" lon="-0.44714">
        <ele>289.88</ele>
        <time>2019-05-04T21:19:22.000Z</time>
      </trkpt>
      <trkpt lat="46.59084" lon="-0.44701">
        <ele>289.8</ele>
        <time>2019-05-04T21:19:24.000Z</time>
      </trkpt>
      <trkpt lat="46.59083" lon="-0.44682">
        <ele>289.67</ele>
        <time>2019-05-04T21:19:27.000Z</time>
      </trkpt>
      <trkpt lat="46.59084" lon="-0.44664">
        <ele>290.11</ele>
        <time>2019-05-04T21:19:30.000Z</time>
      </trkpt>
      <trkpt lat="46.59089" lon="-0.44649">
        <ele>290.25</ele>
        <time>2019-05-04T21:19:33.000Z</time>
      </trkpt>
      <trkpt lat="46.59092" lon="-0.44634">
        <ele>290.7</ele>
        <time>2019-05-04T21:19:36.000Z</time>
      </trkpt>
      <trkpt lat="46.59094" lon="-0.44616">
        <ele>291.72</ele>
        <time>2019-05-04T21:19:39.000Z</time>
      </trkpt>
      <trkpt lat="46.59095" lon="-0.44599">
        <ele>291.87</ele>
        <time>2019-05-04T21:19:42.000Z</time>
      </trkpt>
      <trkpt lat="46.59097" lon="-0.44581">
        <ele>292.07</ele>
        <time>2019-05-04T21:19:45.000Z</time>
      </trkpt>
      <trkpt lat="46.59101" lon="-0.44564">
        <ele>292.76</ele>
        <time>2019-05-04T21:19:48.000Z</time>
      </trkpt>
      <trkpt lat="46.59105" lon="-0.44549">
        <ele>292.77</ele>
        <time>2019-05-04T21:19:51.000Z</time>
      </trkpt>
      <trkpt lat="46.59106" lon="-0.44532">
        <ele>292.59</ele>
        <time>2019-05-04T21:19:54.000Z</time>
      </trkpt>
      <trkpt lat="46.59106" lon="-0.44518">
        <ele>292.33</ele>
        <time>2019-05-04T21:19:56.000Z</time>
      </trkpt>
      <trkpt lat="46.59106" lon="-0.445">
        <ele>291.89</ele>
        <time>2019-05-04T21:19:59.000Z</time>
      </trkpt>
      <trkpt lat="46.59111" lon="-0.44483">
        <ele>291.71</ele>
        <time>2019-05-04T21:20:02.000Z</time>
      </trkpt>
      <trkpt lat="46.59115" lon="-0.44466">
        <ele>291.44</ele>
        <time>2019-05-04T21:20:05.000Z</time>
      </trkpt>
      <trkpt lat="46.59119" lon="-0.44447">
        <ele>291.27</ele>
        <time>2019-05-04T21:20:08.000Z</time>
      </trkpt>
      <trkpt lat="46.59123" lon="-0.44427">
        <ele>290.95</ele>
        <time>2019-05-04T21:20:11.000Z</time>
      </trkpt>
      <trkpt lat="46.59125" lon="-0.44409">
        <ele>291.41</ele>
        <time>2019-05-04T21:20:14.000Z</time>
      </trkpt>
      <trkpt lat="46.59127" lon="-0.44396">
        <ele>291.76</ele>
        <time>2019-05-04T21:20:16.000Z</time>
      </trkpt>
      <trkpt lat="46.5913" lon="-0.44383">
        <ele>292.07</ele>
        <time>2019-05-04T21:20:18.000Z</time>
      </trkpt>
      <trkpt lat="46.59132" lon="-0.44369">
        <ele>291.87</ele>
        <time>2019-05-04T21:20:20.000Z</time>
      </trkpt>
      <trkpt lat="46.59134" lon="-0.44354">
        <ele>291.68</ele>
        <time>2019-05-04T21:20:22.000Z</time>
      </trkpt>
      <trkpt lat="46.59137" lon="-0.44335">
        <ele>291.51</ele>
        <time>2019-05-04T21:20:25.000Z</time>
      </trkpt>
      <trkpt lat="46.5914" lon="-0.44323">
        <ele>291.51</ele>
        <time>2019-05-04T21:20:27.000Z</time>
      </trkpt>
      <trkpt lat="46.59143" lon="-0.4431">
        <ele>291.59</ele>
        <time>2019-05-04T21:20:29.000Z</time>
      </trkpt>
      <trkpt lat="46.59148" lon="-0.44297">
        <ele>291.74</ele>
        <time>2019-05-04T21:20:31.000Z</time>
      </trkpt>
      <trkpt lat="46.59155" lon="-0.44283">
        <ele>291.8</ele>
        <time>2019-05-04T21:20:34.000Z</time>
      </trkpt>
      <trkpt lat="46.59151" lon="-0.44267">
        <ele>292.42</ele>
        <time>2019-05-04T21:20:37.000Z</time>
      </trkpt>
      <trkpt lat="46.5915" lon="-0.44253">
        <ele>292.11</ele>
        <time>2019-05-04T21:20:39.000Z</time>
      </trkpt>
      <trkpt lat="46.59152" lon="-0.44236">
        <ele>292.09</ele>
        <time>2019-05-04T21:20:42.000Z</time>
      </trkpt>
      <trkpt lat="46.5916" lon="-0.44225">
        <ele>292.1</ele>
        <time>2019-05-04T21:20:45.000Z</time>
      </trkpt>
      <trkpt lat="46.59168" lon="-0.44217">
        <ele>292.3</ele>
        <time>2019-05-04T21:20:49.000Z</time>
      </trkpt>
      <trkpt lat="46.59178" lon="-0.44213">
        <ele>292.52</ele>
        <time>2019-05-04T21:20:53.000Z</time>
      </trkpt>
      <trkpt lat="46.59188" lon="-0.44208">
        <ele>292.72</ele>
        <time>2019-05-04T21:20:57.000Z</time>
      </trkpt>
      <trkpt lat="46.59195" lon="-0.442">
        <ele>292.96</ele>
        <time>2019-05-04T21:21:00.000Z</time>
      </trkpt>
      <trkpt lat="46.59205" lon="-0.4419">
        <ele>293.28</ele>
        <time>2019-05-04T21:21:03.000Z</time>
      </trkpt>
      <trkpt lat="46.59211" lon="-0.44179">
        <ele>293.49</ele>
        <time>2019-05-04T21:21:06.000Z</time>
      </trkpt>
      <trkpt lat="46.59213" lon="-0.44166">
        <ele>293.63</ele>
        <time>2019-05-04T21:21:09.000Z</time>
      </trkpt>
      <trkpt lat="46.59215" lon="-0.44148">
        <ele>294</ele>
        <time>2019-05-04T21:21:12.000Z</time>
      </trkpt>
      <trkpt lat="46.59222" lon="-0.44137">
        <ele>293.83</ele>
        <time>2019-05-04T21:21:14.000Z</time>
      </trkpt>
      <trkpt lat="46.59233" lon="-0.44129">
        <ele>293.87</ele>
        <time>2019-05-04T21:21:17.000Z</time>
      </trkpt>
      <trkpt lat="46.59247" lon="-0.44122">
        <ele>293.61</ele>
        <time>2019-05-04T21:21:20.000Z</time>
      </trkpt>
      <trkpt lat="46.59256" lon="-0.44117">
        <ele>293.85</ele>
        <time>2019-05-04T21:21:22.000Z</time>
      </trkpt>
      <trkpt lat="46.59264" lon="-0.44108">
        <ele>294.2</ele>
        <time>2019-05-04T21:21:24.000Z</time>
      </trkpt>
      <trkpt lat="46.59275" lon="-0.441">
        <ele>294.09</ele>
        <time>2019-05-04T21:21:26.000Z</time>
      </trkpt>
      <trkpt lat="46.59284" lon="-0.44092">
        <ele>293.75</ele>
        <time>2019-05-04T21:21:28.000Z</time>
      </trkpt>
      <trkpt lat="46.59293" lon="-0.44086">
        <ele>293.25</ele>
        <time>2019-05-04T21:21:30.000Z</time>
      </trkpt>
      <trkpt lat="46.59303" lon="-0.44079">
        <ele>292.65</ele>
        <time>2019-05-04T21:21:32.000Z</time>
      </trkpt>
      <trkpt lat="46.59306" lon="-0.44067">
        <ele>292.56</ele>
        <time>2019-05-04T21:21:35.000Z</time>
      </trkpt>
      <trkpt lat="46.59305" lon="-0.44048">
        <ele>291.3</ele>
        <time>2019-05-04T21:21:39.000Z</time>
      </trkpt>
      <trkpt lat="46.593" lon="-0.44035">
        <ele>291.15</ele>
        <time>2019-05-04T21:21:41.000Z</time>
      </trkpt>
      <trkpt lat="46.59295" lon="-0.44022">
        <ele>291.03</ele>
        <time>2019-05-04T21:21:44.000Z</time>
      </trkpt>
      <trkpt lat="46.59294" lon="-0.44008">
        <ele>291</ele>
        <time>2019-05-04T21:21:46.000Z</time>
      </trkpt>
      <trkpt lat="46.5929" lon="-0.43991">
        <ele>290.96</ele>
        <time>2019-05-04T21:21:49.000Z</time>
      </trkpt>
      <trkpt lat="46.5929" lon="-0.43978">
        <ele>290.89</ele>
        <time>2019-05-04T21:21:52.000Z</time>
      </trkpt>
      <trkpt lat="46.59286" lon="-0.43964">
        <ele>290.78</ele>
        <time>2019-05-04T21:21:55.000Z</time>
      </trkpt>
      <trkpt lat="46.59283" lon="-0.43951">
        <ele>290.65</ele>
        <time>2019-05-04T21:21:58.000Z</time>
      </trkpt>
      <trkpt lat="46.5928" lon="-0.43934">
        <ele>290.71</ele>
        <time>2019-05-04T21:22:03.000Z</time>
      </trkpt>
      <trkpt lat="46.59277" lon="-0.43921">
        <ele>290.86</ele>
        <time>2019-05-04T21:22:06.000Z</time>
      </trkpt>
      <trkpt lat="46.59273" lon="-0.43904">
        <ele>291.16</ele>
        <time>2019-05-04T21:22:12.000Z</time>
      </trkpt>
      <trkpt lat="46.5927" lon="-0.43889">
        <ele>291.23</ele>
        <time>2019-05-04T21:22:16.000Z</time>
      </trkpt>
      <trkpt lat="46.59271" lon="-0.43873">
        <ele>291.26</ele>
        <time>2019-05-04T21:22:20.000Z</time>
      </trkpt>
      <trkpt lat="46.59274" lon="-0.4386">
        <ele>291.39</ele>
        <time>2019-05-04T21:22:23.000Z</time>
      </trkpt>
      <trkpt lat="46.5928" lon="-0.43845">
        <ele>291.61</ele>
        <time>2019-05-04T21:22:27.000Z</time>
      </trkpt>
      <trkpt lat="46.59285" lon="-0.43833">
        <ele>291.76</ele>
        <time>2019-05-04T21:22:30.000Z</time>
      </trkpt>
      <trkpt lat="46.5929" lon="-0.43818">
        <ele>291.83</ele>
        <time>2019-05-04T21:22:34.000Z</time>
      </trkpt>
      <trkpt lat="46.59293" lon="-0.43802">
        <ele>291.91</ele>
        <time>2019-05-04T21:22:37.000Z</time>
      </trkpt>
      <trkpt lat="46.59294" lon="-0.43786">
        <ele>292.13</ele>
        <time>2019-05-04T21:22:41.000Z</time>
      </trkpt>
      <trkpt lat="46.59292" lon="-0.43769">
        <ele>292.39</ele>
        <time>2019-05-04T21:22:44.000Z</time>
      </trkpt>
      <trkpt lat="46.59291" lon="-0.43754">
        <ele>293.68</ele>
        <time>2019-05-04T21:22:46.000Z</time>
      </trkpt>
      <trkpt lat="46.59288" lon="-0.43737">
        <ele>293.81</ele>
        <time>2019-05-04T21:22:49.000Z</time>
      </trkpt>
      <trkpt lat="46.59288" lon="-0.43724">
        <ele>293.7</ele>
        <time>2019-05-04T21:22:51.000Z</time>
      </trkpt>
      <trkpt lat="46.59287" lon="-0.4371">
        <ele>292.4</ele>
        <time>2019-05-04T21:22:53.000Z</time>
      </trkpt>
      <trkpt lat="46.59284" lon="-0.43697">
        <ele>291.9</ele>
        <time>2019-05-04T21:22:55.000Z</time>
      </trkpt>
      <trkpt lat="46.59287" lon="-0.43682">
        <ele>291.8</ele>
        <time>2019-05-04T21:22:58.000Z</time>
      </trkpt>
      <trkpt lat="46.59293" lon="-0.43672">
        <ele>291.7</ele>
        <time>2019-05-04T21:23:01.000Z</time>
      </trkpt>
      <trkpt lat="46.593" lon="-0.43653">
        <ele>291.62</ele>
        <time>2019-05-04T21:23:05.000Z</time>
      </trkpt>
      <trkpt lat="46.59304" lon="-0.43639">
        <ele>291.67</ele>
        <time>2019-05-04T21:23:09.000Z</time>
      </trkpt>
      <trkpt lat="46.5931" lon="-0.43624">
        <ele>292.07</ele>
        <time>2019-05-04T21:23:12.000Z</time>
      </trkpt>
      <trkpt lat="46.59314" lon="-0.43611">
        <ele>292.7</ele>
        <time>2019-05-04T21:23:14.000Z</time>
      </trkpt>
      <trkpt lat="46.59317" lon="-0.43592">
        <ele>293.23</ele>
        <time>2019-05-04T21:23:17.000Z</time>
      </trkpt>
      <trkpt lat="46.59317" lon="-0.43574">
        <ele>293.86</ele>
        <time>2019-05-04T21:23:20.000Z</time>
      </trkpt>
      <trkpt lat="46.59319" lon="-0.43556">
        <ele>293.44</ele>
        <time>2019-05-04T21:23:23.000Z</time>
      </trkpt>
      <trkpt lat="46.59319" lon="-0.4354">
        <ele>292.59</ele>
        <time>2019-05-04T21:23:25.000Z</time>
      </trkpt>
      <trkpt lat="46.59319" lon="-0.43524">
        <ele>292.03</ele>
        <time>2019-05-04T21:23:27.000Z</time>
      </trkpt>
      <trkpt lat="46.59318" lon="-0.43509">
        <ele>291.54</ele>
        <time>2019-05-04T21:23:29.000Z</time>
      </trkpt>
      <trkpt lat="46.59317" lon="-0.43495">
        <ele>290.98</ele>
        <time>2019-05-04T21:23:31.000Z</time>
      </trkpt>
      <trkpt lat="46.59316" lon="-0.43478">
        <ele>290.53</ele>
        <time>2019-05-04T21:23:33.000Z</time>
      </trkpt>
      <trkpt lat="46.59314" lon="-0.43463">
        <ele>290.5</ele>
        <time>2019-05-04T21:23:35.000Z</time>
      </trkpt>
      <trkpt lat="46.59312" lon="-0.4345">
        <ele>290.69</ele>
        <time>2019-05-04T21:23:37.000Z</time>
      </trkpt>
      <trkpt lat="46.59311" lon="-0.43435">
        <ele>290.72</ele>
        <time>2019-05-04T21:23:39.000Z</time>
      </trkpt>
      <trkpt lat="46.59309" lon="-0.43421">
        <ele>290.53</ele>
        <time>2019-05-04T21:23:41.000Z</time>
      </trkpt>
      <trkpt lat="46.59306" lon="-0.43406">
        <ele>289.99</ele>
        <time>2019-05-04T21:23:43.000Z</time>
      </trkpt>
      <trkpt lat="46.59302" lon="-0.43392">
        <ele>289.69</ele>
        <time>2019-05-04T21:23:45.000Z</time>
      </trkpt>
      <trkpt lat="46.59298" lon="-0.4338">
        <ele>289.25</ele>
        <time>2019-05-04T21:23:47.000Z</time>
      </trkpt>
      <trkpt lat="46.59292" lon="-0.43366">
        <ele>289.24</ele>
        <time>2019-05-04T21:23:49.000Z</time>
      </trkpt>
      <trkpt lat="46.5929" lon="-0.43352">
        <ele>289.26</ele>
        <time>2019-05-04T21:23:51.000Z</time>
      </trkpt>
      <trkpt lat="46.5929" lon="-0.43333">
        <ele>289.89</ele>
        <time>2019-05-04T21:23:53.000Z</time>
      </trkpt>
      <trkpt lat="46.59289" lon="-0.43317">
        <ele>289.64</ele>
        <time>2019-05-04T21:23:55.000Z</time>
      </trkpt>
      <trkpt lat="46.59285" lon="-0.43301">
        <ele>288.9</ele>
        <time>2019-05-04T21:23:57.000Z</time>
      </trkpt>
      <trkpt lat="46.59279" lon="-0.43287">
        <ele>288.06</ele>
        <time>2019-05-04T21:23:59.000Z</time>
      </trkpt>
      <trkpt lat="46.59272" lon="-0.43275">
        <ele>287.68</ele>
        <time>2019-05-04T21:24:01.000Z</time>
      </trkpt>
      <trkpt lat="46.59265" lon="-0.43264">
        <ele>287.86</ele>
        <time>2019-05-04T21:24:03.000Z</time>
      </trkpt>
      <trkpt lat="46.59258" lon="-0.43249">
        <ele>288.61</ele>
        <time>2019-05-04T21:24:06.000Z</time>
      </trkpt>
      <trkpt lat="46.59253" lon="-0.43235">
        <ele>289.15</ele>
        <time>2019-05-04T21:24:08.000Z</time>
      </trkpt>
      <trkpt lat="46.59249" lon="-0.43223">
        <ele>289.22</ele>
        <time>2019-05-04T21:24:10.000Z</time>
      </trkpt>
      <trkpt lat="46.59245" lon="-0.43211">
        <ele>289.16</ele>
        <time>2019-05-04T21:24:12.000Z</time>
      </trkpt>
      <trkpt lat="46.5924" lon="-0.43199">
        <ele>289.03</ele>
        <time>2019-05-04T21:24:14.000Z</time>
      </trkpt>
      <trkpt lat="46.59236" lon="-0.43187">
        <ele>289.08</ele>
        <time>2019-05-04T21:24:16.000Z</time>
      </trkpt>
      <trkpt lat="46.59231" lon="-0.43174">
        <ele>289.24</ele>
        <time>2019-05-04T21:24:18.000Z</time>
      </trkpt>
      <trkpt lat="46.59227" lon="-0.43161">
        <ele>289.01</ele>
        <time>2019-05-04T21:24:20.000Z</time>
      </trkpt>
      <trkpt lat="46.59222" lon="-0.43148">
        <ele>288.74</ele>
        <time>2019-05-04T21:24:22.000Z</time>
      </trkpt>
      <trkpt lat="46.59217" lon="-0.43131">
        <ele>289.03</ele>
        <time>2019-05-04T21:24:25.000Z</time>
      </trkpt>
      <trkpt lat="46.59216" lon="-0.43113">
        <ele>289.19</ele>
        <time>2019-05-04T21:24:28.000Z</time>
      </trkpt>
      <trkpt lat="46.59216" lon="-0.43098">
        <ele>289.4</ele>
        <time>2019-05-04T21:24:31.000Z</time>
      </trkpt>
      <trkpt lat="46.59225" lon="-0.43081">
        <ele>289.47</ele>
        <time>2019-05-04T21:24:34.000Z</time>
      </trkpt>
      <trkpt lat="46.59234" lon="-0.43074">
        <ele>289.31</ele>
        <time>2019-05-04T21:24:36.000Z</time>
      </trkpt>
      <trkpt lat="46.59243" lon="-0.43068">
        <ele>288.91</ele>
        <time>2019-05-04T21:24:38.000Z</time>
      </trkpt>
      <trkpt lat="46.59253" lon="-0.43063">
        <ele>288.51</ele>
        <time>2019-05-04T21:24:40.000Z</time>
      </trkpt>
      <trkpt lat="46.59263" lon="-0.4306">
        <ele>287.99</ele>
        <time>2019-05-04T21:24:42.000Z</time>
      </trkpt>
      <trkpt lat="46.59274" lon="-0.43057">
        <ele>287.22</ele>
        <time>2019-05-04T21:24:44.000Z</time>
      </trkpt>
      <trkpt lat="46.59285" lon="-0.43053">
        <ele>286.16</ele>
        <time>2019-05-04T21:24:46.000Z</time>
      </trkpt>
      <trkpt lat="46.59297" lon="-0.4305">
        <ele>285.38</ele>
        <time>2019-05-04T21:24:48.000Z</time>
      </trkpt>
      <trkpt lat="46.5931" lon="-0.43046">
        <ele>285</ele>
        <time>2019-05-04T21:24:50.000Z</time>
      </trkpt>
      <trkpt lat="46.59325" lon="-0.43042">
        <ele>284.82</ele>
        <time>2019-05-04T21:24:52.000Z</time>
      </trkpt>
      <trkpt lat="46.59341" lon="-0.4304">
        <ele>284.67</ele>
        <time>2019-05-04T21:24:54.000Z</time>
      </trkpt>
      <trkpt lat="46.59357" lon="-0.43036">
        <ele>284.22</ele>
        <time>2019-05-04T21:24:56.000Z</time>
      </trkpt>
      <trkpt lat="46.59372" lon="-0.43032">
        <ele>283.61</ele>
        <time>2019-05-04T21:24:58.000Z</time>
      </trkpt>
      <trkpt lat="46.59388" lon="-0.43028">
        <ele>283.14</ele>
        <time>2019-05-04T21:25:00.000Z</time>
      </trkpt>
      <trkpt lat="46.59402" lon="-0.43022">
        <ele>282.68</ele>
        <time>2019-05-04T21:25:02.000Z</time>
      </trkpt>
      <trkpt lat="46.59414" lon="-0.43017">
        <ele>282.22</ele>
        <time>2019-05-04T21:25:04.000Z</time>
      </trkpt>
      <trkpt lat="46.59427" lon="-0.4301">
        <ele>281.79</ele>
        <time>2019-05-04T21:25:06.000Z</time>
      </trkpt>
      <trkpt lat="46.59438" lon="-0.43002">
        <ele>281.34</ele>
        <time>2019-05-04T21:25:08.000Z</time>
      </trkpt>
      <trkpt lat="46.5945" lon="-0.42995">
        <ele>280.89</ele>
        <time>2019-05-04T21:25:10.000Z</time>
      </trkpt>
      <trkpt lat="46.59462" lon="-0.42986">
        <ele>280.49</ele>
        <time>2019-05-04T21:25:12.000Z</time>
      </trkpt>
      <trkpt lat="46.59475" lon="-0.42979">
        <ele>280.14</ele>
        <time>2019-05-04T21:25:14.000Z</time>
      </trkpt>
      <trkpt lat="46.59487" lon="-0.42974">
        <ele>279.76</ele>
        <time>2019-05-04T21:25:16.000Z</time>
      </trkpt>
      <trkpt lat="46.59499" lon="-0.4297">
        <ele>279.44</ele>
        <time>2019-05-04T21:25:18.000Z</time>
      </trkpt>
      <trkpt lat="46.59512" lon="-0.42965">
        <ele>279.28</ele>
        <time>2019-05-04T21:25:20.000Z</time>
      </trkpt>
      <trkpt lat="46.59524" lon="-0.42958">
        <ele>279.12</ele>
        <time>2019-05-04T21:25:22.000Z</time>
      </trkpt>
      <trkpt lat="46.59536" lon="-0.42952">
        <ele>278.92</ele>
        <time>2019-05-04T21:25:24.000Z</time>
      </trkpt>
      <trkpt lat="46.59548" lon="-0.42947">
        <ele>278.51</ele>
        <time>2019-05-04T21:25:26.000Z</time>
      </trkpt>
      <trkpt lat="46.59558" lon="-0.42943">
        <ele>278.19</ele>
        <time>2019-05-04T21:25:28.000Z</time>
      </trkpt>
      <trkpt lat="46.59564" lon="-0.42932">
        <ele>278.18</ele>
        <time>2019-05-04T21:25:31.000Z</time>
      </trkpt>
      <trkpt lat="46.59561" lon="-0.42918">
        <ele>278.25</ele>
        <time>2019-05-04T21:25:35.000Z</time>
      </trkpt>
      <trkpt lat="46.5956" lon="-0.42905">
        <ele>278.38</ele>
        <time>2019-05-04T21:25:39.000Z</time>
      </trkpt>
      <trkpt lat="46.59559" lon="-0.42888">
        <ele>278.5</ele>
        <time>2019-05-04T21:25:42.000Z</time>
      </trkpt>
      <trkpt lat="46.59559" lon="-0.42874">
        <ele>279.01</ele>
        <time>2019-05-04T21:25:44.000Z</time>
      </trkpt>
      <trkpt lat="46.59558" lon="-0.42856">
        <ele>280.57</ele>
        <time>2019-05-04T21:25:47.000Z</time>
      </trkpt>
      <trkpt lat="46.59558" lon="-0.42843">
        <ele>281.49</ele>
        <time>2019-05-04T21:25:49.000Z</time>
      </trkpt>
      <trkpt lat="46.59556" lon="-0.42824">
        <ele>282.79</ele>
        <time>2019-05-04T21:25:52.000Z</time>
      </trkpt>
      <trkpt lat="46.59552" lon="-0.42809">
        <ele>283.25</ele>
        <time>2019-05-04T21:25:55.000Z</time>
      </trkpt>
      <trkpt lat="46.59549" lon="-0.42796">
        <ele>283.36</ele>
        <time>2019-05-04T21:25:57.000Z</time>
      </trkpt>
      <trkpt lat="46.59546" lon="-0.42779">
        <ele>283.21</ele>
        <time>2019-05-04T21:25:59.000Z</time>
      </trkpt>
      <trkpt lat="46.59544" lon="-0.4276">
        <ele>283.17</ele>
        <time>2019-05-04T21:26:02.000Z</time>
      </trkpt>
      <trkpt lat="46.59543" lon="-0.42741">
        <ele>283.12</ele>
        <time>2019-05-04T21:26:05.000Z</time>
      </trkpt>
      <trkpt lat="46.59544" lon="-0.42724">
        <ele>283.18</ele>
        <time>2019-05-04T21:26:08.000Z</time>
      </trkpt>
      <trkpt lat="46.59546" lon="-0.42709">
        <ele>283.33</ele>
        <time>2019-05-04T21:26:11.000Z</time>
      </trkpt>
      <trkpt lat="46.59547" lon="-0.42688">
        <ele>284.69</ele>
        <time>2019-05-04T21:26:14.000Z</time>
      </trkpt>
      <trkpt lat="46.59549" lon="-0.42674">
        <ele>284.46</ele>
        <time>2019-05-04T21:26:16.000Z</time>
      </trkpt>
      <trkpt lat="46.59551" lon="-0.4266">
        <ele>283.29</ele>
        <time>2019-05-04T21:26:18.000Z</time>
      </trkpt>
      <trkpt lat="46.59551" lon="-0.42643">
        <ele>283.19</ele>
        <time>2019-05-04T21:26:21.000Z</time>
      </trkpt>
      <trkpt lat="46.59553" lon="-0.42625">
        <ele>283.09</ele>
        <time>2019-05-04T21:26:24.000Z</time>
      </trkpt>
      <trkpt lat="46.59554" lon="-0.42607">
        <ele>282.46</ele>
        <time>2019-05-04T21:26:27.000Z</time>
      </trkpt>
      <trkpt lat="46.59555" lon="-0.42593">
        <ele>281.62</ele>
        <time>2019-05-04T21:26:29.000Z</time>
      </trkpt>
      <trkpt lat="46.59557" lon="-0.42579">
        <ele>280.62</ele>
        <time>2019-05-04T21:26:31.000Z</time>
      </trkpt>
      <trkpt lat="46.59562" lon="-0.42562">
        <ele>279.82</ele>
        <time>2019-05-04T21:26:33.000Z</time>
      </trkpt>
      <trkpt lat="46.59567" lon="-0.42542">
        <ele>278.18</ele>
        <time>2019-05-04T21:26:35.000Z</time>
      </trkpt>
      <trkpt lat="46.59569" lon="-0.42524">
        <ele>276.06</ele>
        <time>2019-05-04T21:26:37.000Z</time>
      </trkpt>
      <trkpt lat="46.5957" lon="-0.42508">
        <ele>274.89</ele>
        <time>2019-05-04T21:26:39.000Z</time>
      </trkpt>
      <trkpt lat="46.5957" lon="-0.4249">
        <ele>274.33</ele>
        <time>2019-05-04T21:26:41.000Z</time>
      </trkpt>
      <trkpt lat="46.59571" lon="-0.42474">
        <ele>273.79</ele>
        <time>2019-05-04T21:26:43.000Z</time>
      </trkpt>
      <trkpt lat="46.59573" lon="-0.42456">
        <ele>272.89</ele>
        <time>2019-05-04T21:26:46.000Z</time>
      </trkpt>
      <trkpt lat="46.59576" lon="-0.42438">
        <ele>272.86</ele>
        <time>2019-05-04T21:26:49.000Z</time>
      </trkpt>
      <trkpt lat="46.59583" lon="-0.42429">
        <ele>272.86</ele>
        <time>2019-05-04T21:26:52.000Z</time>
      </trkpt>
      <trkpt lat="46.59597" lon="-0.42425">
        <ele>271.91</ele>
        <time>2019-05-04T21:26:55.000Z</time>
      </trkpt>
      <trkpt lat="46.59607" lon="-0.42422">
        <ele>270.83</ele>
        <time>2019-05-04T21:26:57.000Z</time>
      </trkpt>
      <trkpt lat="46.59617" lon="-0.42419">
        <ele>269.9</ele>
        <time>2019-05-04T21:26:59.000Z</time>
      </trkpt>
      <trkpt lat="46.59626" lon="-0.42417">
        <ele>268.71</ele>
        <time>2019-05-04T21:27:01.000Z</time>
      </trkpt>
      <trkpt lat="46.59636" lon="-0.42416">
        <ele>267.47</ele>
        <time>2019-05-04T21:27:03.000Z</time>
      </trkpt>
      <trkpt lat="46.59646" lon="-0.42413">
        <ele>266.61</ele>
        <time>2019-05-04T21:27:05.000Z</time>
      </trkpt>
      <trkpt lat="46.59658" lon="-0.42408">
        <ele>266.08</ele>
        <time>2019-05-04T21:27:07.000Z</time>
      </trkpt>
      <trkpt lat="46.59669" lon="-0.42403">
        <ele>265.57</ele>
        <time>2019-05-04T21:27:09.000Z</time>
      </trkpt>
      <trkpt lat="46.59682" lon="-0.42398">
        <ele>265.03</ele>
        <time>2019-05-04T21:27:11.000Z</time>
      </trkpt>
      <trkpt lat="46.59693" lon="-0.42396">
        <ele>264.3</ele>
        <time>2019-05-04T21:27:13.000Z</time>
      </trkpt>
      <trkpt lat="46.59706" lon="-0.42398">
        <ele>263.6</ele>
        <time>2019-05-04T21:27:15.000Z</time>
      </trkpt>
      <trkpt lat="46.5972" lon="-0.42401">
        <ele>263.01</ele>
        <time>2019-05-04T21:27:17.000Z</time>
      </trkpt>
      <trkpt lat="46.59733" lon="-0.42398">
        <ele>262.6</ele>
        <time>2019-05-04T21:27:19.000Z</time>
      </trkpt>
      <trkpt lat="46.59746" lon="-0.42394">
        <ele>261.84</ele>
        <time>2019-05-04T21:27:21.000Z</time>
      </trkpt>
      <trkpt lat="46.59758" lon="-0.42388">
        <ele>261.09</ele>
        <time>2019-05-04T21:27:23.000Z</time>
      </trkpt>
      <trkpt lat="46.59767" lon="-0.4238">
        <ele>260.27</ele>
        <time>2019-05-04T21:27:25.000Z</time>
      </trkpt>
      <trkpt lat="46.59773" lon="-0.42365">
        <ele>259.68</ele>
        <time>2019-05-04T21:27:27.000Z</time>
      </trkpt>
      <trkpt lat="46.59782" lon="-0.4235">
        <ele>259.29</ele>
        <time>2019-05-04T21:27:29.000Z</time>
      </trkpt>
      <trkpt lat="46.59792" lon="-0.42337">
        <ele>259.09</ele>
        <time>2019-05-04T21:27:31.000Z</time>
      </trkpt>
      <trkpt lat="46.59801" lon="-0.42323">
        <ele>259.27</ele>
        <time>2019-05-04T21:27:33.000Z</time>
      </trkpt>
      <trkpt lat="46.59811" lon="-0.42311">
        <ele>259.49</ele>
        <time>2019-05-04T21:27:35.000Z</time>
      </trkpt>
      <trkpt lat="46.59822" lon="-0.42301">
        <ele>259.76</ele>
        <time>2019-05-04T21:27:37.000Z</time>
      </trkpt>
      <trkpt lat="46.59833" lon="-0.42295">
        <ele>259.51</ele>
        <time>2019-05-04T21:27:39.000Z</time>
      </trkpt>
      <trkpt lat="46.59845" lon="-0.42291">
        <ele>259.12</ele>
        <time>2019-05-04T21:27:41.000Z</time>
      </trkpt>
      <trkpt lat="46.59856" lon="-0.42285">
        <ele>258.82</ele>
        <time>2019-05-04T21:27:43.000Z</time>
      </trkpt>
      <trkpt lat="46.59864" lon="-0.42276">
        <ele>258.23</ele>
        <time>2019-05-04T21:27:45.000Z</time>
      </trkpt>
      <trkpt lat="46.59872" lon="-0.42262">
        <ele>257.77</ele>
        <time>2019-05-04T21:27:48.000Z</time>
      </trkpt>
      <trkpt lat="46.59877" lon="-0.42249">
        <ele>257.68</ele>
        <time>2019-05-04T21:27:51.000Z</time>
      </trkpt>
      <trkpt lat="46.59884" lon="-0.42238">
        <ele>257.59</ele>
        <time>2019-05-04T21:27:54.000Z</time>
      </trkpt>
      <trkpt lat="46.59891" lon="-0.42226">
        <ele>257.26</ele>
        <time>2019-05-04T21:27:57.000Z</time>
      </trkpt>
      <trkpt lat="46.59898" lon="-0.42216">
        <ele>256.92</ele>
        <time>2019-05-04T21:27:59.000Z</time>
      </trkpt>
      <trkpt lat="46.59908" lon="-0.42209">
        <ele>256.47</ele>
        <time>2019-05-04T21:28:01.000Z</time>
      </trkpt>
      <trkpt lat="46.59917" lon="-0.422">
        <ele>256.14</ele>
        <time>2019-05-04T21:28:03.000Z</time>
      </trkpt>
      <trkpt lat="46.59922" lon="-0.42188">
        <ele>255.77</ele>
        <time>2019-05-04T21:28:05.000Z</time>
      </trkpt>
      <trkpt lat="46.59924" lon="-0.42174">
        <ele>255.62</ele>
        <time>2019-05-04T21:28:07.000Z</time>
      </trkpt>
      <trkpt lat="46.59928" lon="-0.42159">
        <ele>255.63</ele>
        <time>2019-05-04T21:28:10.000Z</time>
      </trkpt>
      <trkpt lat="46.59936" lon="-0.42145">
        <ele>255.35</ele>
        <time>2019-05-04T21:28:13.000Z</time>
      </trkpt>
      <trkpt lat="46.59945" lon="-0.42134">
        <ele>254.5</ele>
        <time>2019-05-04T21:28:15.000Z</time>
      </trkpt>
      <trkpt lat="46.59955" lon="-0.42122">
        <ele>253.58</ele>
        <time>2019-05-04T21:28:17.000Z</time>
      </trkpt>
      <trkpt lat="46.59964" lon="-0.42111">
        <ele>252.96</ele>
        <time>2019-05-04T21:28:19.000Z</time>
      </trkpt>
      <trkpt lat="46.59973" lon="-0.42103">
        <ele>252.86</ele>
        <time>2019-05-04T21:28:21.000Z</time>
      </trkpt>
      <trkpt lat="46.59982" lon="-0.42096">
        <ele>252.24</ele>
        <time>2019-05-04T21:28:23.000Z</time>
      </trkpt>
      <trkpt lat="46.59993" lon="-0.42091">
        <ele>251.42</ele>
        <time>2019-05-04T21:28:25.000Z</time>
      </trkpt>
      <trkpt lat="46.60003" lon="-0.42084">
        <ele>250.82</ele>
        <time>2019-05-04T21:28:27.000Z</time>
      </trkpt>
      <trkpt lat="46.60014" lon="-0.42078">
        <ele>250.51</ele>
        <time>2019-05-04T21:28:29.000Z</time>
      </trkpt>
      <trkpt lat="46.60025" lon="-0.42071">
        <ele>250.42</ele>
        <time>2019-05-04T21:28:31.000Z</time>
      </trkpt>
      <trkpt lat="46.60035" lon="-0.42062">
        <ele>250.12</ele>
        <time>2019-05-04T21:28:33.000Z</time>
      </trkpt>
      <trkpt lat="46.60044" lon="-0.42047">
        <ele>249.66</ele>
        <time>2019-05-04T21:28:35.000Z</time>
      </trkpt>
      <trkpt lat="46.60053" lon="-0.42032">
        <ele>249.13</ele>
        <time>2019-05-04T21:28:37.000Z</time>
      </trkpt>
      <trkpt lat="46.60061" lon="-0.42014">
        <ele>248.7</ele>
        <time>2019-05-04T21:28:39.000Z</time>
      </trkpt>
      <trkpt lat="46.60069" lon="-0.41996">
        <ele>248.27</ele>
        <time>2019-05-04T21:28:41.000Z</time>
      </trkpt>
      <trkpt lat="46.60078" lon="-0.41979">
        <ele>247.87</ele>
        <time>2019-05-04T21:28:43.000Z</time>
      </trkpt>
      <trkpt lat="46.60088" lon="-0.41962">
        <ele>247.47</ele>
        <time>2019-05-04T21:28:45.000Z</time>
      </trkpt>
      <trkpt lat="46.60099" lon="-0.41947">
        <ele>247.1</ele>
        <time>2019-05-04T21:28:47.000Z</time>
      </trkpt>
      <trkpt lat="46.60111" lon="-0.41932">
        <ele>246.67</ele>
        <time>2019-05-04T21:28:49.000Z</time>
      </trkpt>
      <trkpt lat="46.60123" lon="-0.41922">
        <ele>246.32</ele>
        <time>2019-05-04T21:28:51.000Z</time>
      </trkpt>
      <trkpt lat="46.60136" lon="-0.41913">
        <ele>245.92</ele>
        <time>2019-05-04T21:28:53.000Z</time>
      </trkpt>
      <trkpt lat="46.60149" lon="-0.41904">
        <ele>245.52</ele>
        <time>2019-05-04T21:28:55.000Z</time>
      </trkpt>
      <trkpt lat="46.60162" lon="-0.41897">
        <ele>245.2</ele>
        <time>2019-05-04T21:28:57.000Z</time>
      </trkpt>
      <trkpt lat="46.60175" lon="-0.41891">
        <ele>244.86</ele>
        <time>2019-05-04T21:28:59.000Z</time>
      </trkpt>
      <trkpt lat="46.60188" lon="-0.41884">
        <ele>244.64</ele>
        <time>2019-05-04T21:29:01.000Z</time>
      </trkpt>
      <trkpt lat="46.60201" lon="-0.41878">
        <ele>244.48</ele>
        <time>2019-05-04T21:29:03.000Z</time>
      </trkpt>
      <trkpt lat="46.60214" lon="-0.41872">
        <ele>244.35</ele>
        <time>2019-05-04T21:29:05.000Z</time>
      </trkpt>
      <trkpt lat="46.60226" lon="-0.41865">
        <ele>244.22</ele>
        <time>2019-05-04T21:29:07.000Z</time>
      </trkpt>
      <trkpt lat="46.60238" lon="-0.41859">
        <ele>244.06</ele>
        <time>2019-05-04T21:29:09.000Z</time>
      </trkpt>
      <trkpt lat="46.6025" lon="-0.41851">
        <ele>243.86</ele>
        <time>2019-05-04T21:29:11.000Z</time>
      </trkpt>
      <trkpt lat="46.60261" lon="-0.41844">
        <ele>243.61</ele>
        <time>2019-05-04T21:29:13.000Z</time>
      </trkpt>
      <trkpt lat="46.6027" lon="-0.41835">
        <ele>243.34</ele>
        <time>2019-05-04T21:29:15.000Z</time>
      </trkpt>
      <trkpt lat="46.60279" lon="-0.41826">
        <ele>242.95</ele>
        <time>2019-05-04T21:29:17.000Z</time>
      </trkpt>
      <trkpt lat="46.60289" lon="-0.41815">
        <ele>242.5</ele>
        <time>2019-05-04T21:29:19.000Z</time>
      </trkpt>
      <trkpt lat="46.60298" lon="-0.41804">
        <ele>242.08</ele>
        <time>2019-05-04T21:29:21.000Z</time>
      </trkpt>
      <trkpt lat="46.60308" lon="-0.41793">
        <ele>241.66</ele>
        <time>2019-05-04T21:29:23.000Z</time>
      </trkpt>
      <trkpt lat="46.60319" lon="-0.41781">
        <ele>241.33</ele>
        <time>2019-05-04T21:29:25.000Z</time>
      </trkpt>
      <trkpt lat="46.6033" lon="-0.41772">
        <ele>241.21</ele>
        <time>2019-05-04T21:29:27.000Z</time>
      </trkpt>
      <trkpt lat="46.60342" lon="-0.41764">
        <ele>241.31</ele>
        <time>2019-05-04T21:29:29.000Z</time>
      </trkpt>
      <trkpt lat="46.60354" lon="-0.41759">
        <ele>241.55</ele>
        <time>2019-05-04T21:29:31.000Z</time>
      </trkpt>
      <trkpt lat="46.60364" lon="-0.41752">
        <ele>241.98</ele>
        <time>2019-05-04T21:29:33.000Z</time>
      </trkpt>
      <trkpt lat="46.60374" lon="-0.41741">
        <ele>242.42</ele>
        <time>2019-05-04T21:29:35.000Z</time>
      </trkpt>
      <trkpt lat="46.60381" lon="-0.41729">
        <ele>242.65</ele>
        <time>2019-05-04T21:29:37.000Z</time>
      </trkpt>
      <trkpt lat="46.60387" lon="-0.41716">
        <ele>242.8</ele>
        <time>2019-05-04T21:29:39.000Z</time>
      </trkpt>
      <trkpt lat="46.60394" lon="-0.41703">
        <ele>242.85</ele>
        <time>2019-05-04T21:29:41.000Z</time>
      </trkpt>
      <trkpt lat="46.60402" lon="-0.41691">
        <ele>242.74</ele>
        <time>2019-05-04T21:29:43.000Z</time>
      </trkpt>
      <trkpt lat="46.6041" lon="-0.41679">
        <ele>242.62</ele>
        <time>2019-05-04T21:29:45.000Z</time>
      </trkpt>
      <trkpt lat="46.60418" lon="-0.41666">
        <ele>242.55</ele>
        <time>2019-05-04T21:29:47.000Z</time>
      </trkpt>
      <trkpt lat="46.60427" lon="-0.41655">
        <ele>242.36</ele>
        <time>2019-05-04T21:29:49.000Z</time>
      </trkpt>
      <trkpt lat="46.60436" lon="-0.41642">
        <ele>242.46</ele>
        <time>2019-05-04T21:29:51.000Z</time>
      </trkpt>
      <trkpt lat="46.60447" lon="-0.41628">
        <ele>242.49</ele>
        <time>2019-05-04T21:29:53.000Z</time>
      </trkpt>
      <trkpt lat="46.60456" lon="-0.41618">
        <ele>242.55</ele>
        <time>2019-05-04T21:29:55.000Z</time>
      </trkpt>
      <trkpt lat="46.60464" lon="-0.41612">
        <ele>242.6</ele>
        <time>2019-05-04T21:29:58.000Z</time>
      </trkpt>
      <trkpt lat="46.60473" lon="-0.41607">
        <ele>242.6</ele>
        <time>2019-05-04T21:30:01.000Z</time>
      </trkpt>
      <trkpt lat="46.60481" lon="-0.416">
        <ele>242.56</ele>
        <time>2019-05-04T21:30:05.000Z</time>
      </trkpt>
      <trkpt lat="46.60479" lon="-0.41585">
        <ele>242.22</ele>
        <time>2019-05-04T21:30:08.000Z</time>
      </trkpt>
      <trkpt lat="46.60473" lon="-0.4157">
        <ele>241.57</ele>
        <time>2019-05-04T21:30:11.000Z</time>
      </trkpt>
      <trkpt lat="46.60467" lon="-0.41553">
        <ele>240.43</ele>
        <time>2019-05-04T21:30:14.000Z</time>
      </trkpt>
      <trkpt lat="46.60462" lon="-0.41535">
        <ele>239.62</ele>
        <time>2019-05-04T21:30:17.000Z</time>
      </trkpt>
      <trkpt lat="46.60459" lon="-0.41519">
        <ele>239.21</ele>
        <time>2019-05-04T21:30:19.000Z</time>
      </trkpt>
      <trkpt lat="46.60455" lon="-0.41504">
        <ele>239.02</ele>
        <time>2019-05-04T21:30:21.000Z</time>
      </trkpt>
      <trkpt lat="46.60453" lon="-0.41485">
        <ele>239</ele>
        <time>2019-05-04T21:30:23.000Z</time>
      </trkpt>
      <trkpt lat="46.60449" lon="-0.41465">
        <ele>238.67</ele>
        <time>2019-05-04T21:30:25.000Z</time>
      </trkpt>
      <trkpt lat="46.60446" lon="-0.41445">
        <ele>238.08</ele>
        <time>2019-05-04T21:30:27.000Z</time>
      </trkpt>
      <trkpt lat="46.60442" lon="-0.41427">
        <ele>237.03</ele>
        <time>2019-05-04T21:30:29.000Z</time>
      </trkpt>
      <trkpt lat="46.60436" lon="-0.4141">
        <ele>235.52</ele>
        <time>2019-05-04T21:30:31.000Z</time>
      </trkpt>
      <trkpt lat="46.60429" lon="-0.41393">
        <ele>234.01</ele>
        <time>2019-05-04T21:30:33.000Z</time>
      </trkpt>
      <trkpt lat="46.6042" lon="-0.41376">
        <ele>233.13</ele>
        <time>2019-05-04T21:30:35.000Z</time>
      </trkpt>
      <trkpt lat="46.60413" lon="-0.41358">
        <ele>232.69</ele>
        <time>2019-05-04T21:30:37.000Z</time>
      </trkpt>
      <trkpt lat="46.60405" lon="-0.41343">
        <ele>232.31</ele>
        <time>2019-05-04T21:30:39.000Z</time>
      </trkpt>
      <trkpt lat="46.60397" lon="-0.41326">
        <ele>232.11</ele>
        <time>2019-05-04T21:30:41.000Z</time>
      </trkpt>
      <trkpt lat="46.60391" lon="-0.41314">
        <ele>232.52</ele>
        <time>2019-05-04T21:30:43.000Z</time>
      </trkpt>
      <trkpt lat="46.60383" lon="-0.41302">
        <ele>233.25</ele>
        <time>2019-05-04T21:30:45.000Z</time>
      </trkpt>
      <trkpt lat="46.60376" lon="-0.41291">
        <ele>233.88</ele>
        <time>2019-05-04T21:30:47.000Z</time>
      </trkpt>
      <trkpt lat="46.60368" lon="-0.41281">
        <ele>234.07</ele>
        <time>2019-05-04T21:30:49.000Z</time>
      </trkpt>
      <trkpt lat="46.6036" lon="-0.41271">
        <ele>234.29</ele>
        <time>2019-05-04T21:30:51.000Z</time>
      </trkpt>
      <trkpt lat="46.60352" lon="-0.41262">
        <ele>234.42</ele>
        <time>2019-05-04T21:30:53.000Z</time>
      </trkpt>
      <trkpt lat="46.60345" lon="-0.41253">
        <ele>234.51</ele>
        <time>2019-05-04T21:30:55.000Z</time>
      </trkpt>
      <trkpt lat="46.60337" lon="-0.41244">
        <ele>234.56</ele>
        <time>2019-05-04T21:30:57.000Z</time>
      </trkpt>
      <trkpt lat="46.60329" lon="-0.41231">
        <ele>234.52</ele>
        <time>2019-05-04T21:30:59.000Z</time>
      </trkpt>
      <trkpt lat="46.60321" lon="-0.41218">
        <ele>234.47</ele>
        <time>2019-05-04T21:31:01.000Z</time>
      </trkpt>
      <trkpt lat="46.60313" lon="-0.41204">
        <ele>234.28</ele>
        <time>2019-05-04T21:31:03.000Z</time>
      </trkpt>
      <trkpt lat="46.60304" lon="-0.41189">
        <ele>234.16</ele>
        <time>2019-05-04T21:31:05.000Z</time>
      </trkpt>
      <trkpt lat="46.60297" lon="-0.41175">
        <ele>234.09</ele>
        <time>2019-05-04T21:31:07.000Z</time>
      </trkpt>
      <trkpt lat="46.60289" lon="-0.41161">
        <ele>233.98</ele>
        <time>2019-05-04T21:31:09.000Z</time>
      </trkpt>
      <trkpt lat="46.60282" lon="-0.4115">
        <ele>233.85</ele>
        <time>2019-05-04T21:31:11.000Z</time>
      </trkpt>
      <trkpt lat="46.60275" lon="-0.41137">
        <ele>233.68</ele>
        <time>2019-05-04T21:31:13.000Z</time>
      </trkpt>
      <trkpt lat="46.60268" lon="-0.41124">
        <ele>233.45</ele>
        <time>2019-05-04T21:31:15.000Z</time>
      </trkpt>
      <trkpt lat="46.60262" lon="-0.41114">
        <ele>233.3</ele>
        <time>2019-05-04T21:31:17.000Z</time>
      </trkpt>
      <trkpt lat="46.60255" lon="-0.41104">
        <ele>233.27</ele>
        <time>2019-05-04T21:31:20.000Z</time>
      </trkpt>
      <trkpt lat="46.60246" lon="-0.41101">
        <ele>233.31</ele>
        <time>2019-05-04T21:31:24.000Z</time>
      </trkpt>
      <trkpt lat="46.60237" lon="-0.41094">
        <ele>233.43</ele>
        <time>2019-05-04T21:31:29.000Z</time>
      </trkpt>
      <trkpt lat="46.60226" lon="-0.41095">
        <ele>233.56</ele>
        <time>2019-05-04T21:31:32.000Z</time>
      </trkpt>
      <trkpt lat="46.60214" lon="-0.411">
        <ele>234.65</ele>
        <time>2019-05-04T21:31:35.000Z</time>
      </trkpt>
      <trkpt lat="46.60201" lon="-0.41104">
        <ele>235.9</ele>
        <time>2019-05-04T21:31:38.000Z</time>
      </trkpt>
      <trkpt lat="46.60192" lon="-0.41107">
        <ele>236.3</ele>
        <time>2019-05-04T21:31:40.000Z</time>
      </trkpt>
      <trkpt lat="46.60183" lon="-0.41109">
        <ele>236.04</ele>
        <time>2019-05-04T21:31:42.000Z</time>
      </trkpt>
      <trkpt lat="46.6017" lon="-0.41113">
        <ele>235.28</ele>
        <time>2019-05-04T21:31:45.000Z</time>
      </trkpt>
      <trkpt lat="46.60157" lon="-0.41115">
        <ele>235.3</ele>
        <time>2019-05-04T21:31:49.000Z</time>
      </trkpt>
      <trkpt lat="46.60149" lon="-0.41112">
        <ele>233.45</ele>
        <time>2019-05-04T21:33:48.000Z</time>
      </trkpt>
      <trkpt lat="46.60158" lon="-0.41107">
        <ele>236.37</ele>
        <time>2019-05-04T21:39:54.000Z</time>
      </trkpt>
      <trkpt lat="46.60167" lon="-0.41101">
        <ele>236.2</ele>
        <time>2019-05-04T21:40:00.000Z</time>
      </trkpt>
      <trkpt lat="46.60176" lon="-0.41099">
        <ele>236.38</ele>
        <time>2019-05-04T21:40:03.000Z</time>
      </trkpt>
      <trkpt lat="46.60187" lon="-0.41095">
        <ele>236.76</ele>
        <time>2019-05-04T21:40:07.000Z</time>
      </trkpt>
      <trkpt lat="46.60197" lon="-0.41092">
        <ele>237.31</ele>
        <time>2019-05-04T21:40:11.000Z</time>
      </trkpt>
      <trkpt lat="46.60209" lon="-0.41089">
        <ele>237.91</ele>
        <time>2019-05-04T21:40:15.000Z</time>
      </trkpt>
      <trkpt lat="46.60219" lon="-0.41089">
        <ele>238.57</ele>
        <time>2019-05-04T21:40:19.000Z</time>
      </trkpt>
      <trkpt lat="46.60229" lon="-0.41087">
        <ele>239.11</ele>
        <time>2019-05-04T21:40:23.000Z</time>
      </trkpt>
      <trkpt lat="46.60236" lon="-0.41096">
        <ele>239.36</ele>
        <time>2019-05-04T21:40:28.000Z</time>
      </trkpt>
      <trkpt lat="46.60236" lon="-0.41113">
        <ele>239.07</ele>
        <time>2019-05-04T21:40:34.000Z</time>
      </trkpt>
      <trkpt lat="46.60237" lon="-0.41127">
        <ele>238.76</ele>
        <time>2019-05-04T21:40:38.000Z</time>
      </trkpt>
      <trkpt lat="46.6024" lon="-0.4114">
        <ele>238.54</ele>
        <time>2019-05-04T21:40:40.000Z</time>
      </trkpt>
      <trkpt lat="46.60247" lon="-0.4115">
        <ele>238.35</ele>
        <time>2019-05-04T21:40:42.000Z</time>
      </trkpt>
      <trkpt lat="46.60249" lon="-0.41163">
        <ele>238.17</ele>
        <time>2019-05-04T21:40:46.000Z</time>
      </trkpt>
      <trkpt lat="46.60245" lon="-0.41176">
        <ele>238.18</ele>
        <time>2019-05-04T21:40:52.000Z</time>
      </trkpt>
      <trkpt lat="46.60237" lon="-0.41184">
        <ele>238.3</ele>
        <time>2019-05-04T21:40:57.000Z</time>
      </trkpt>
      <trkpt lat="46.60226" lon="-0.41185">
        <ele>238.46</ele>
        <time>2019-05-04T21:41:02.000Z</time>
      </trkpt>
    </trkseg>
  </trk>
</gpx>